<?xml version="1.0" encoding="UTF-8" standalone="no" ?>
<gpx xmlns="http://www.topografix.com/GPX/1/1" xmlns:xsi="http://www.w3.org/2001/XMLSchema-instance" xsi:schemaLocation="http://www.topografix.com/GPX/1/1 http://www.topografix.com/GPX/1/1/gpx.xsd" version="1.1" creator="VisuGPX - https://www.visugpx.com">
  <metadata>
    <name>     </name>
    <desc><![CDATA[                   ]]></desc>
  </metadata>
  <trk>
    <name><![CDATA[     _1]]></name>
    <trkseg>
      <trkpt lat="44.91999" lon="5.63847">
        <ele>626.32832</ele>
        <time>2011-02-13T09:04:09.449</time>
      </trkpt>
      <trkpt lat="44.92007" lon="5.63793">
        <ele>739.328255</ele>
        <time>2011-02-13T09:04:22.962</time>
      </trkpt>
      <trkpt lat="44.92001" lon="5.63787">
        <ele>742.328236</ele>
        <time>2011-02-13T09:04:45.967</time>
      </trkpt>
      <trkpt lat="44.91998" lon="5.63781">
        <ele>743.32822</ele>
        <time>2011-02-13T09:04:54.967</time>
      </trkpt>
      <trkpt lat="44.91995" lon="5.63768">
        <ele>747.328194</ele>
        <time>2011-02-13T09:05:04.962</time>
      </trkpt>
      <trkpt lat="44.91995" lon="5.63767">
        <ele>748.328186</ele>
        <time>2011-02-13T09:05:06.968</time>
      </trkpt>
      <trkpt lat="44.91993" lon="5.63765">
        <ele>749.328182</ele>
        <time>2011-02-13T09:05:08.969</time>
      </trkpt>
      <trkpt lat="44.91992" lon="5.63763">
        <ele>749.328178</ele>
        <time>2011-02-13T09:05:10.964</time>
      </trkpt>
      <trkpt lat="44.91989" lon="5.6376">
        <ele>751.328167</ele>
        <time>2011-02-13T09:05:13.972</time>
      </trkpt>
      <trkpt lat="44.91981" lon="5.63749">
        <ele>754.328133</ele>
        <time>2011-02-13T09:05:20.964</time>
      </trkpt>
      <trkpt lat="44.91978" lon="5.63745">
        <ele>756.328121</ele>
        <time>2011-02-13T09:05:22.960</time>
      </trkpt>
      <trkpt lat="44.91975" lon="5.63739">
        <ele>758.328102</ele>
        <time>2011-02-13T09:05:24.966</time>
      </trkpt>
      <trkpt lat="44.91972" lon="5.63732">
        <ele>760.328087</ele>
        <time>2011-02-13T09:05:26.966</time>
      </trkpt>
      <trkpt lat="44.91969" lon="5.63726">
        <ele>762.328072</ele>
        <time>2011-02-13T09:05:28.962</time>
      </trkpt>
      <trkpt lat="44.91965" lon="5.63719">
        <ele>764.328049</ele>
        <time>2011-02-13T09:05:30.969</time>
      </trkpt>
      <trkpt lat="44.91961" lon="5.63712">
        <ele>765.32803</ele>
        <time>2011-02-13T09:05:32.964</time>
      </trkpt>
      <trkpt lat="44.91958" lon="5.63704">
        <ele>767.328011</ele>
        <time>2011-02-13T09:05:34.973</time>
      </trkpt>
      <trkpt lat="44.91954" lon="5.63697">
        <ele>768.327995</ele>
        <time>2011-02-13T09:05:36.967</time>
      </trkpt>
      <trkpt lat="44.91949" lon="5.6369">
        <ele>770.327972</ele>
        <time>2011-02-13T09:05:38.965</time>
      </trkpt>
      <trkpt lat="44.91945" lon="5.63684">
        <ele>771.327957</ele>
        <time>2011-02-13T09:05:40.965</time>
      </trkpt>
      <trkpt lat="44.91942" lon="5.63678">
        <ele>773.327934</ele>
        <time>2011-02-13T09:05:42.966</time>
      </trkpt>
      <trkpt lat="44.91938" lon="5.63672">
        <ele>773.327923</ele>
        <time>2011-02-13T09:05:44.967</time>
      </trkpt>
      <trkpt lat="44.91935" lon="5.63667">
        <ele>774.327904</ele>
        <time>2011-02-13T09:05:46.962</time>
      </trkpt>
      <trkpt lat="44.91931" lon="5.63665">
        <ele>774.327892</ele>
        <time>2011-02-13T09:05:50.966</time>
      </trkpt>
      <trkpt lat="44.91929" lon="5.63663">
        <ele>774.327885</ele>
        <time>2011-02-13T09:05:52.956</time>
      </trkpt>
      <trkpt lat="44.91927" lon="5.6366">
        <ele>775.327881</ele>
        <time>2011-02-13T09:05:54.977</time>
      </trkpt>
      <trkpt lat="44.91924" lon="5.6365">
        <ele>778.327854</ele>
        <time>2011-02-13T09:05:57.976</time>
      </trkpt>
      <trkpt lat="44.91922" lon="5.63644">
        <ele>780.327843</ele>
        <time>2011-02-13T09:05:59.966</time>
      </trkpt>
      <trkpt lat="44.91921" lon="5.63637">
        <ele>782.327827</ele>
        <time>2011-02-13T09:06:01.962</time>
      </trkpt>
      <trkpt lat="44.9192" lon="5.63627">
        <ele>784.327812</ele>
        <time>2011-02-13T09:06:04.962</time>
      </trkpt>
      <trkpt lat="44.9192" lon="5.63619">
        <ele>786.327801</ele>
        <time>2011-02-13T09:06:06.966</time>
      </trkpt>
      <trkpt lat="44.9192" lon="5.63612">
        <ele>787.327789</ele>
        <time>2011-02-13T09:06:08.967</time>
      </trkpt>
      <trkpt lat="44.91922" lon="5.63601">
        <ele>789.327774</ele>
        <time>2011-02-13T09:06:12.968</time>
      </trkpt>
      <trkpt lat="44.91925" lon="5.636">
        <ele>790.327782</ele>
        <time>2011-02-13T09:06:14.966</time>
      </trkpt>
      <trkpt lat="44.9193" lon="5.63601">
        <ele>791.327793</ele>
        <time>2011-02-13T09:06:16.964</time>
      </trkpt>
      <trkpt lat="44.91934" lon="5.63601">
        <ele>792.327801</ele>
        <time>2011-02-13T09:06:18.966</time>
      </trkpt>
      <trkpt lat="44.91939" lon="5.63602">
        <ele>792.327812</ele>
        <time>2011-02-13T09:06:20.965</time>
      </trkpt>
      <trkpt lat="44.91939" lon="5.63602">
        <ele>792.327816</ele>
        <time>2011-02-13T09:06:22.962</time>
      </trkpt>
      <trkpt lat="44.91948" lon="5.63606">
        <ele>794.327843</ele>
        <time>2011-02-13T09:06:33.968</time>
      </trkpt>
      <trkpt lat="44.91964" lon="5.63611">
        <ele>795.327881</ele>
        <time>2011-02-13T09:06:42.971</time>
      </trkpt>
      <trkpt lat="44.91977" lon="5.63613">
        <ele>797.327915</ele>
        <time>2011-02-13T09:06:49.988</time>
      </trkpt>
      <trkpt lat="44.91982" lon="5.63614">
        <ele>798.327927</ele>
        <time>2011-02-13T09:06:51.964</time>
      </trkpt>
      <trkpt lat="44.92004" lon="5.6362">
        <ele>805.327984</ele>
        <time>2011-02-13T09:07:01.966</time>
      </trkpt>
      <trkpt lat="44.92016" lon="5.63624">
        <ele>808.328011</ele>
        <time>2011-02-13T09:07:05.957</time>
      </trkpt>
      <trkpt lat="44.92028" lon="5.63629">
        <ele>811.328049</ele>
        <time>2011-02-13T09:07:09.967</time>
      </trkpt>
      <trkpt lat="44.92039" lon="5.63633">
        <ele>812.328079</ele>
        <time>2011-02-13T09:07:14.962</time>
      </trkpt>
      <trkpt lat="44.92043" lon="5.63633">
        <ele>813.328087</ele>
        <time>2011-02-13T09:07:16.966</time>
      </trkpt>
      <trkpt lat="44.92048" lon="5.63634">
        <ele>813.328102</ele>
        <time>2011-02-13T09:07:18.966</time>
      </trkpt>
      <trkpt lat="44.92053" lon="5.63636">
        <ele>813.328114</ele>
        <time>2011-02-13T09:07:20.966</time>
      </trkpt>
      <trkpt lat="44.9206" lon="5.63637">
        <ele>814.328133</ele>
        <time>2011-02-13T09:07:22.965</time>
      </trkpt>
      <trkpt lat="44.92067" lon="5.63639">
        <ele>813.328148</ele>
        <time>2011-02-13T09:07:24.964</time>
      </trkpt>
      <trkpt lat="44.92073" lon="5.63642">
        <ele>813.328171</ele>
        <time>2011-02-13T09:07:26.968</time>
      </trkpt>
      <trkpt lat="44.9208" lon="5.63645">
        <ele>813.328186</ele>
        <time>2011-02-13T09:07:28.963</time>
      </trkpt>
      <trkpt lat="44.92086" lon="5.63648">
        <ele>813.328201</ele>
        <time>2011-02-13T09:07:30.974</time>
      </trkpt>
      <trkpt lat="44.92092" lon="5.6365">
        <ele>814.32822</ele>
        <time>2011-02-13T09:07:32.966</time>
      </trkpt>
      <trkpt lat="44.92097" lon="5.63653">
        <ele>814.328239</ele>
        <time>2011-02-13T09:07:34.963</time>
      </trkpt>
      <trkpt lat="44.92103" lon="5.63655">
        <ele>815.328255</ele>
        <time>2011-02-13T09:07:36.967</time>
      </trkpt>
      <trkpt lat="44.92109" lon="5.63658">
        <ele>815.32827</ele>
        <time>2011-02-13T09:07:38.968</time>
      </trkpt>
      <trkpt lat="44.92115" lon="5.63661">
        <ele>815.328293</ele>
        <time>2011-02-13T09:07:40.963</time>
      </trkpt>
      <trkpt lat="44.92121" lon="5.63664">
        <ele>815.328304</ele>
        <time>2011-02-13T09:07:42.965</time>
      </trkpt>
      <trkpt lat="44.92126" lon="5.63667">
        <ele>816.32832</ele>
        <time>2011-02-13T09:07:44.965</time>
      </trkpt>
      <trkpt lat="44.92131" lon="5.63669">
        <ele>816.328339</ele>
        <time>2011-02-13T09:07:46.964</time>
      </trkpt>
      <trkpt lat="44.92137" lon="5.63672">
        <ele>818.328354</ele>
        <time>2011-02-13T09:07:48.968</time>
      </trkpt>
      <trkpt lat="44.92143" lon="5.63674">
        <ele>817.328369</ele>
        <time>2011-02-13T09:07:50.964</time>
      </trkpt>
      <trkpt lat="44.92148" lon="5.63676">
        <ele>817.328388</ele>
        <time>2011-02-13T09:07:52.962</time>
      </trkpt>
      <trkpt lat="44.92154" lon="5.63678">
        <ele>816.3284</ele>
        <time>2011-02-13T09:07:54.967</time>
      </trkpt>
      <trkpt lat="44.9216" lon="5.6368">
        <ele>816.328415</ele>
        <time>2011-02-13T09:07:56.966</time>
      </trkpt>
      <trkpt lat="44.92165" lon="5.63681">
        <ele>816.328426</ele>
        <time>2011-02-13T09:07:58.962</time>
      </trkpt>
      <trkpt lat="44.9217" lon="5.63683">
        <ele>816.328442</ele>
        <time>2011-02-13T09:08:00.965</time>
      </trkpt>
      <trkpt lat="44.92175" lon="5.63684">
        <ele>817.328457</ele>
        <time>2011-02-13T09:08:02.965</time>
      </trkpt>
      <trkpt lat="44.9218" lon="5.63686">
        <ele>818.328472</ele>
        <time>2011-02-13T09:08:04.962</time>
      </trkpt>
      <trkpt lat="44.92185" lon="5.63688">
        <ele>819.328484</ele>
        <time>2011-02-13T09:08:06.967</time>
      </trkpt>
      <trkpt lat="44.9219" lon="5.6369">
        <ele>819.328499</ele>
        <time>2011-02-13T09:08:08.966</time>
      </trkpt>
      <trkpt lat="44.92195" lon="5.63692">
        <ele>820.32851</ele>
        <time>2011-02-13T09:08:10.966</time>
      </trkpt>
      <trkpt lat="44.922" lon="5.63693">
        <ele>821.328522</ele>
        <time>2011-02-13T09:08:12.965</time>
      </trkpt>
      <trkpt lat="44.92205" lon="5.63694">
        <ele>824.328537</ele>
        <time>2011-02-13T09:08:14.983</time>
      </trkpt>
      <trkpt lat="44.9221" lon="5.63696">
        <ele>824.328552</ele>
        <time>2011-02-13T09:08:16.962</time>
      </trkpt>
      <trkpt lat="44.92214" lon="5.63697">
        <ele>824.32856</ele>
        <time>2011-02-13T09:08:18.966</time>
      </trkpt>
      <trkpt lat="44.92225" lon="5.63701">
        <ele>828.32859</ele>
        <time>2011-02-13T09:08:28.963</time>
      </trkpt>
      <trkpt lat="44.92236" lon="5.63704">
        <ele>828.328617</ele>
        <time>2011-02-13T09:08:34.962</time>
      </trkpt>
      <trkpt lat="44.92247" lon="5.63708">
        <ele>828.328648</ele>
        <time>2011-02-13T09:08:39.966</time>
      </trkpt>
      <trkpt lat="44.92257" lon="5.63711">
        <ele>827.328674</ele>
        <time>2011-02-13T09:08:42.967</time>
      </trkpt>
      <trkpt lat="44.92263" lon="5.63713">
        <ele>827.32869</ele>
        <time>2011-02-13T09:08:44.969</time>
      </trkpt>
      <trkpt lat="44.9227" lon="5.63715">
        <ele>827.328709</ele>
        <time>2011-02-13T09:08:46.962</time>
      </trkpt>
      <trkpt lat="44.92279" lon="5.63718">
        <ele>829.328735</ele>
        <time>2011-02-13T09:08:49.962</time>
      </trkpt>
      <trkpt lat="44.92285" lon="5.63721">
        <ele>830.328751</ele>
        <time>2011-02-13T09:08:51.965</time>
      </trkpt>
      <trkpt lat="44.92291" lon="5.63723">
        <ele>831.328766</ele>
        <time>2011-02-13T09:08:53.967</time>
      </trkpt>
      <trkpt lat="44.92297" lon="5.63725">
        <ele>833.328781</ele>
        <time>2011-02-13T09:08:55.966</time>
      </trkpt>
      <trkpt lat="44.92302" lon="5.63726">
        <ele>834.328796</ele>
        <time>2011-02-13T09:08:57.969</time>
      </trkpt>
      <trkpt lat="44.92308" lon="5.63728">
        <ele>833.328812</ele>
        <time>2011-02-13T09:08:59.956</time>
      </trkpt>
      <trkpt lat="44.92313" lon="5.63729">
        <ele>832.328827</ele>
        <time>2011-02-13T09:09:01.962</time>
      </trkpt>
      <trkpt lat="44.92319" lon="5.63731">
        <ele>832.328842</ele>
        <time>2011-02-13T09:09:03.963</time>
      </trkpt>
      <trkpt lat="44.92325" lon="5.63733">
        <ele>831.328857</ele>
        <time>2011-02-13T09:09:05.960</time>
      </trkpt>
      <trkpt lat="44.92332" lon="5.63735">
        <ele>831.328876</ele>
        <time>2011-02-13T09:09:07.966</time>
      </trkpt>
      <trkpt lat="44.92338" lon="5.63737">
        <ele>831.328892</ele>
        <time>2011-02-13T09:09:09.964</time>
      </trkpt>
      <trkpt lat="44.92344" lon="5.63739">
        <ele>831.328907</ele>
        <time>2011-02-13T09:09:11.965</time>
      </trkpt>
      <trkpt lat="44.92351" lon="5.63742">
        <ele>831.328926</ele>
        <time>2011-02-13T09:09:13.965</time>
      </trkpt>
      <trkpt lat="44.92357" lon="5.63744">
        <ele>831.328945</ele>
        <time>2011-02-13T09:09:15.966</time>
      </trkpt>
      <trkpt lat="44.92364" lon="5.63745">
        <ele>830.32896</ele>
        <time>2011-02-13T09:09:17.979</time>
      </trkpt>
      <trkpt lat="44.9237" lon="5.63748">
        <ele>830.328979</ele>
        <time>2011-02-13T09:09:19.965</time>
      </trkpt>
      <trkpt lat="44.92376" lon="5.63749">
        <ele>830.328991</ele>
        <time>2011-02-13T09:09:21.964</time>
      </trkpt>
      <trkpt lat="44.92381" lon="5.63751">
        <ele>831.32901</ele>
        <time>2011-02-13T09:09:23.968</time>
      </trkpt>
      <trkpt lat="44.92386" lon="5.63753">
        <ele>830.329021</ele>
        <time>2011-02-13T09:09:25.960</time>
      </trkpt>
      <trkpt lat="44.92391" lon="5.63755">
        <ele>829.329037</ele>
        <time>2011-02-13T09:09:27.966</time>
      </trkpt>
      <trkpt lat="44.92396" lon="5.63757">
        <ele>828.329052</ele>
        <time>2011-02-13T09:09:29.962</time>
      </trkpt>
      <trkpt lat="44.92401" lon="5.6376">
        <ele>827.329063</ele>
        <time>2011-02-13T09:09:31.961</time>
      </trkpt>
      <trkpt lat="44.92406" lon="5.63762">
        <ele>827.329079</ele>
        <time>2011-02-13T09:09:33.964</time>
      </trkpt>
      <trkpt lat="44.9241" lon="5.63765">
        <ele>827.32909</ele>
        <time>2011-02-13T09:09:35.964</time>
      </trkpt>
      <trkpt lat="44.92415" lon="5.63767">
        <ele>826.329105</ele>
        <time>2011-02-13T09:09:37.962</time>
      </trkpt>
      <trkpt lat="44.9242" lon="5.63769">
        <ele>825.329121</ele>
        <time>2011-02-13T09:09:39.967</time>
      </trkpt>
      <trkpt lat="44.92426" lon="5.63771">
        <ele>824.329132</ele>
        <time>2011-02-13T09:09:41.962</time>
      </trkpt>
      <trkpt lat="44.92431" lon="5.63773">
        <ele>822.329147</ele>
        <time>2011-02-13T09:09:43.964</time>
      </trkpt>
      <trkpt lat="44.92436" lon="5.63774">
        <ele>821.329163</ele>
        <time>2011-02-13T09:09:45.967</time>
      </trkpt>
      <trkpt lat="44.92441" lon="5.63775">
        <ele>820.329174</ele>
        <time>2011-02-13T09:09:47.963</time>
      </trkpt>
      <trkpt lat="44.92447" lon="5.63776">
        <ele>819.329189</ele>
        <time>2011-02-13T09:09:49.963</time>
      </trkpt>
      <trkpt lat="44.92452" lon="5.63777">
        <ele>818.329201</ele>
        <time>2011-02-13T09:09:51.968</time>
      </trkpt>
      <trkpt lat="44.92457" lon="5.63779">
        <ele>817.329212</ele>
        <time>2011-02-13T09:09:53.962</time>
      </trkpt>
      <trkpt lat="44.92462" lon="5.6378">
        <ele>816.329227</ele>
        <time>2011-02-13T09:09:55.966</time>
      </trkpt>
      <trkpt lat="44.92466" lon="5.63782">
        <ele>816.329243</ele>
        <time>2011-02-13T09:09:57.965</time>
      </trkpt>
      <trkpt lat="44.92471" lon="5.63783">
        <ele>815.329254</ele>
        <time>2011-02-13T09:09:59.971</time>
      </trkpt>
      <trkpt lat="44.92477" lon="5.63785">
        <ele>814.329269</ele>
        <time>2011-02-13T09:10:01.961</time>
      </trkpt>
      <trkpt lat="44.92482" lon="5.63787">
        <ele>814.329285</ele>
        <time>2011-02-13T09:10:03.967</time>
      </trkpt>
      <trkpt lat="44.92487" lon="5.63789">
        <ele>813.3293</ele>
        <time>2011-02-13T09:10:05.963</time>
      </trkpt>
      <trkpt lat="44.92492" lon="5.6379">
        <ele>813.329311</ele>
        <time>2011-02-13T09:10:07.962</time>
      </trkpt>
      <trkpt lat="44.92498" lon="5.63791">
        <ele>813.329323</ele>
        <time>2011-02-13T09:10:09.956</time>
      </trkpt>
      <trkpt lat="44.92503" lon="5.63793">
        <ele>815.329338</ele>
        <time>2011-02-13T09:10:11.967</time>
      </trkpt>
      <trkpt lat="44.92508" lon="5.63794">
        <ele>815.32935</ele>
        <time>2011-02-13T09:10:13.958</time>
      </trkpt>
      <trkpt lat="44.92513" lon="5.63796">
        <ele>814.329365</ele>
        <time>2011-02-13T09:10:15.968</time>
      </trkpt>
      <trkpt lat="44.92519" lon="5.63798">
        <ele>814.329376</ele>
        <time>2011-02-13T09:10:17.961</time>
      </trkpt>
      <trkpt lat="44.92524" lon="5.63799">
        <ele>814.329391</ele>
        <time>2011-02-13T09:10:19.962</time>
      </trkpt>
      <trkpt lat="44.92529" lon="5.63801">
        <ele>814.329407</ele>
        <time>2011-02-13T09:10:21.969</time>
      </trkpt>
      <trkpt lat="44.92534" lon="5.63802">
        <ele>813.329418</ele>
        <time>2011-02-13T09:10:23.966</time>
      </trkpt>
      <trkpt lat="44.9254" lon="5.63803">
        <ele>813.32943</ele>
        <time>2011-02-13T09:10:25.960</time>
      </trkpt>
      <trkpt lat="44.92545" lon="5.63804">
        <ele>813.329445</ele>
        <time>2011-02-13T09:10:27.965</time>
      </trkpt>
      <trkpt lat="44.92553" lon="5.63806">
        <ele>811.329468</ele>
        <time>2011-02-13T09:10:34.963</time>
      </trkpt>
      <trkpt lat="44.92564" lon="5.63813">
        <ele>812.329502</ele>
        <time>2011-02-13T09:10:40.963</time>
      </trkpt>
      <trkpt lat="44.92568" lon="5.63818">
        <ele>814.329521</ele>
        <time>2011-02-13T09:10:42.965</time>
      </trkpt>
      <trkpt lat="44.92572" lon="5.63824">
        <ele>816.329536</ele>
        <time>2011-02-13T09:10:44.963</time>
      </trkpt>
      <trkpt lat="44.92576" lon="5.6383">
        <ele>817.329552</ele>
        <time>2011-02-13T09:10:46.968</time>
      </trkpt>
      <trkpt lat="44.92579" lon="5.63837">
        <ele>817.329571</ele>
        <time>2011-02-13T09:10:48.966</time>
      </trkpt>
      <trkpt lat="44.92582" lon="5.63841">
        <ele>818.329582</ele>
        <time>2011-02-13T09:10:50.965</time>
      </trkpt>
      <trkpt lat="44.92585" lon="5.63845">
        <ele>818.329597</ele>
        <time>2011-02-13T09:10:52.961</time>
      </trkpt>
      <trkpt lat="44.9259" lon="5.6385">
        <ele>818.329613</ele>
        <time>2011-02-13T09:10:55.964</time>
      </trkpt>
      <trkpt lat="44.92594" lon="5.63852">
        <ele>819.329628</ele>
        <time>2011-02-13T09:10:57.966</time>
      </trkpt>
      <trkpt lat="44.92598" lon="5.63854">
        <ele>819.329639</ele>
        <time>2011-02-13T09:10:59.965</time>
      </trkpt>
      <trkpt lat="44.92603" lon="5.63856">
        <ele>820.329655</ele>
        <time>2011-02-13T09:11:01.965</time>
      </trkpt>
      <trkpt lat="44.92609" lon="5.63859">
        <ele>819.329674</ele>
        <time>2011-02-13T09:11:03.967</time>
      </trkpt>
      <trkpt lat="44.92615" lon="5.63863">
        <ele>819.329693</ele>
        <time>2011-02-13T09:11:05.964</time>
      </trkpt>
      <trkpt lat="44.92621" lon="5.63867">
        <ele>819.329708</ele>
        <time>2011-02-13T09:11:07.962</time>
      </trkpt>
      <trkpt lat="44.92627" lon="5.63871">
        <ele>819.329727</ele>
        <time>2011-02-13T09:11:09.960</time>
      </trkpt>
      <trkpt lat="44.92631" lon="5.63874">
        <ele>819.329742</ele>
        <time>2011-02-13T09:11:11.968</time>
      </trkpt>
      <trkpt lat="44.92636" lon="5.63878">
        <ele>819.329758</ele>
        <time>2011-02-13T09:11:13.959</time>
      </trkpt>
      <trkpt lat="44.9264" lon="5.63882">
        <ele>820.329777</ele>
        <time>2011-02-13T09:11:15.968</time>
      </trkpt>
      <trkpt lat="44.92645" lon="5.63887">
        <ele>820.329788</ele>
        <time>2011-02-13T09:11:17.968</time>
      </trkpt>
      <trkpt lat="44.92649" lon="5.63891">
        <ele>820.329803</ele>
        <time>2011-02-13T09:11:19.964</time>
      </trkpt>
      <trkpt lat="44.92653" lon="5.63896">
        <ele>820.329823</ele>
        <time>2011-02-13T09:11:21.965</time>
      </trkpt>
      <trkpt lat="44.92657" lon="5.639">
        <ele>821.329842</ele>
        <time>2011-02-13T09:11:23.963</time>
      </trkpt>
      <trkpt lat="44.92661" lon="5.63904">
        <ele>821.329849</ele>
        <time>2011-02-13T09:11:25.984</time>
      </trkpt>
      <trkpt lat="44.92665" lon="5.63909">
        <ele>820.329872</ele>
        <time>2011-02-13T09:11:27.971</time>
      </trkpt>
      <trkpt lat="44.92668" lon="5.63913">
        <ele>819.329884</ele>
        <time>2011-02-13T09:11:29.963</time>
      </trkpt>
      <trkpt lat="44.92672" lon="5.63917">
        <ele>820.329895</ele>
        <time>2011-02-13T09:11:31.963</time>
      </trkpt>
      <trkpt lat="44.92676" lon="5.63921">
        <ele>820.32991</ele>
        <time>2011-02-13T09:11:33.963</time>
      </trkpt>
      <trkpt lat="44.9268" lon="5.63926">
        <ele>820.329926</ele>
        <time>2011-02-13T09:11:35.955</time>
      </trkpt>
      <trkpt lat="44.92684" lon="5.6393">
        <ele>821.329945</ele>
        <time>2011-02-13T09:11:37.961</time>
      </trkpt>
      <trkpt lat="44.92688" lon="5.63935">
        <ele>820.32996</ele>
        <time>2011-02-13T09:11:39.976</time>
      </trkpt>
      <trkpt lat="44.92692" lon="5.63939">
        <ele>820.329975</ele>
        <time>2011-02-13T09:11:41.964</time>
      </trkpt>
      <trkpt lat="44.92696" lon="5.63944">
        <ele>820.329994</ele>
        <time>2011-02-13T09:11:43.957</time>
      </trkpt>
      <trkpt lat="44.927" lon="5.63948">
        <ele>820.330006</ele>
        <time>2011-02-13T09:11:45.961</time>
      </trkpt>
      <trkpt lat="44.92704" lon="5.63952">
        <ele>820.330021</ele>
        <time>2011-02-13T09:11:47.965</time>
      </trkpt>
      <trkpt lat="44.92707" lon="5.63956">
        <ele>820.330032</ele>
        <time>2011-02-13T09:11:49.960</time>
      </trkpt>
      <trkpt lat="44.92711" lon="5.6396">
        <ele>820.330048</ele>
        <time>2011-02-13T09:11:51.965</time>
      </trkpt>
      <trkpt lat="44.92714" lon="5.63964">
        <ele>820.330063</ele>
        <time>2011-02-13T09:11:53.964</time>
      </trkpt>
      <trkpt lat="44.92718" lon="5.63969">
        <ele>820.330078</ele>
        <time>2011-02-13T09:11:55.964</time>
      </trkpt>
      <trkpt lat="44.92721" lon="5.63973">
        <ele>821.33009</ele>
        <time>2011-02-13T09:11:57.970</time>
      </trkpt>
      <trkpt lat="44.92723" lon="5.63976">
        <ele>821.330101</ele>
        <time>2011-02-13T09:11:59.966</time>
      </trkpt>
      <trkpt lat="44.92725" lon="5.63979">
        <ele>821.330109</ele>
        <time>2011-02-13T09:12:01.961</time>
      </trkpt>
      <trkpt lat="44.92728" lon="5.63982">
        <ele>822.330116</ele>
        <time>2011-02-13T09:12:03.974</time>
      </trkpt>
      <trkpt lat="44.9273" lon="5.63986">
        <ele>823.330132</ele>
        <time>2011-02-13T09:12:05.962</time>
      </trkpt>
      <trkpt lat="44.92736" lon="5.63993">
        <ele>824.330154</ele>
        <time>2011-02-13T09:12:09.966</time>
      </trkpt>
      <trkpt lat="44.92742" lon="5.63998">
        <ele>825.330173</ele>
        <time>2011-02-13T09:12:14.963</time>
      </trkpt>
      <trkpt lat="44.9275" lon="5.64009">
        <ele>826.330212</ele>
        <time>2011-02-13T09:12:22.963</time>
      </trkpt>
      <trkpt lat="44.92752" lon="5.64012">
        <ele>827.330219</ele>
        <time>2011-02-13T09:12:24.968</time>
      </trkpt>
      <trkpt lat="44.92756" lon="5.64019">
        <ele>828.330238</ele>
        <time>2011-02-13T09:12:27.964</time>
      </trkpt>
      <trkpt lat="44.92758" lon="5.64025">
        <ele>828.330254</ele>
        <time>2011-02-13T09:12:29.964</time>
      </trkpt>
      <trkpt lat="44.92765" lon="5.64039">
        <ele>830.330284</ele>
        <time>2011-02-13T09:12:37.961</time>
      </trkpt>
      <trkpt lat="44.92766" lon="5.64042">
        <ele>831.330292</ele>
        <time>2011-02-13T09:12:39.965</time>
      </trkpt>
      <trkpt lat="44.92768" lon="5.64049">
        <ele>834.330311</ele>
        <time>2011-02-13T09:12:42.961</time>
      </trkpt>
      <trkpt lat="44.92773" lon="5.64062">
        <ele>838.330338</ele>
        <time>2011-02-13T09:12:46.965</time>
      </trkpt>
      <trkpt lat="44.92776" lon="5.64069">
        <ele>839.330357</ele>
        <time>2011-02-13T09:12:48.965</time>
      </trkpt>
      <trkpt lat="44.92779" lon="5.64075">
        <ele>840.330368</ele>
        <time>2011-02-13T09:12:50.964</time>
      </trkpt>
      <trkpt lat="44.92782" lon="5.64081">
        <ele>841.330391</ele>
        <time>2011-02-13T09:12:52.963</time>
      </trkpt>
      <trkpt lat="44.92791" lon="5.64094">
        <ele>842.330429</ele>
        <time>2011-02-13T09:12:57.966</time>
      </trkpt>
      <trkpt lat="44.92794" lon="5.64099">
        <ele>841.330441</ele>
        <time>2011-02-13T09:12:59.963</time>
      </trkpt>
      <trkpt lat="44.92798" lon="5.64103">
        <ele>842.330463</ele>
        <time>2011-02-13T09:13:01.961</time>
      </trkpt>
      <trkpt lat="44.92802" lon="5.64107">
        <ele>841.330475</ele>
        <time>2011-02-13T09:13:03.965</time>
      </trkpt>
      <trkpt lat="44.92808" lon="5.64113">
        <ele>841.330498</ele>
        <time>2011-02-13T09:13:06.965</time>
      </trkpt>
      <trkpt lat="44.92812" lon="5.64116">
        <ele>841.330509</ele>
        <time>2011-02-13T09:13:08.962</time>
      </trkpt>
      <trkpt lat="44.92816" lon="5.64119">
        <ele>841.330524</ele>
        <time>2011-02-13T09:13:10.960</time>
      </trkpt>
      <trkpt lat="44.9282" lon="5.64121">
        <ele>841.330532</ele>
        <time>2011-02-13T09:13:12.969</time>
      </trkpt>
      <trkpt lat="44.92824" lon="5.64123">
        <ele>841.330544</ele>
        <time>2011-02-13T09:13:14.964</time>
      </trkpt>
      <trkpt lat="44.92827" lon="5.64125">
        <ele>841.330559</ele>
        <time>2011-02-13T09:13:16.977</time>
      </trkpt>
      <trkpt lat="44.92833" lon="5.64128">
        <ele>842.330574</ele>
        <time>2011-02-13T09:13:19.960</time>
      </trkpt>
      <trkpt lat="44.92844" lon="5.64135">
        <ele>841.330608</ele>
        <time>2011-02-13T09:13:25.962</time>
      </trkpt>
      <trkpt lat="44.92847" lon="5.64137">
        <ele>841.330616</ele>
        <time>2011-02-13T09:13:27.966</time>
      </trkpt>
      <trkpt lat="44.92851" lon="5.64139">
        <ele>841.330627</ele>
        <time>2011-02-13T09:13:29.964</time>
      </trkpt>
      <trkpt lat="44.92855" lon="5.64141">
        <ele>841.330643</ele>
        <time>2011-02-13T09:13:31.962</time>
      </trkpt>
      <trkpt lat="44.92859" lon="5.64143">
        <ele>841.33065</ele>
        <time>2011-02-13T09:13:33.969</time>
      </trkpt>
      <trkpt lat="44.92862" lon="5.64145">
        <ele>841.330662</ele>
        <time>2011-02-13T09:13:35.963</time>
      </trkpt>
      <trkpt lat="44.92872" lon="5.64148">
        <ele>839.330688</ele>
        <time>2011-02-13T09:13:40.964</time>
      </trkpt>
      <trkpt lat="44.92877" lon="5.64149">
        <ele>839.3307</ele>
        <time>2011-02-13T09:13:42.963</time>
      </trkpt>
      <trkpt lat="44.92881" lon="5.64151">
        <ele>839.330715</ele>
        <time>2011-02-13T09:13:44.964</time>
      </trkpt>
      <trkpt lat="44.92886" lon="5.64152">
        <ele>839.330727</ele>
        <time>2011-02-13T09:13:46.973</time>
      </trkpt>
      <trkpt lat="44.92891" lon="5.64153">
        <ele>839.330738</ele>
        <time>2011-02-13T09:13:48.963</time>
      </trkpt>
      <trkpt lat="44.92896" lon="5.64154">
        <ele>839.33075</ele>
        <time>2011-02-13T09:13:50.961</time>
      </trkpt>
      <trkpt lat="44.9291" lon="5.64157">
        <ele>839.330788</ele>
        <time>2011-02-13T09:13:56.962</time>
      </trkpt>
      <trkpt lat="44.92915" lon="5.64157">
        <ele>839.330795</ele>
        <time>2011-02-13T09:13:58.956</time>
      </trkpt>
      <trkpt lat="44.9292" lon="5.64158">
        <ele>839.330807</ele>
        <time>2011-02-13T09:14:00.967</time>
      </trkpt>
      <trkpt lat="44.92925" lon="5.64158">
        <ele>839.330814</ele>
        <time>2011-02-13T09:14:02.964</time>
      </trkpt>
      <trkpt lat="44.92937" lon="5.6416">
        <ele>839.330849</ele>
        <time>2011-02-13T09:14:07.959</time>
      </trkpt>
      <trkpt lat="44.92941" lon="5.64162">
        <ele>839.33086</ele>
        <time>2011-02-13T09:14:09.964</time>
      </trkpt>
      <trkpt lat="44.92945" lon="5.64163">
        <ele>839.330872</ele>
        <time>2011-02-13T09:14:11.964</time>
      </trkpt>
      <trkpt lat="44.9295" lon="5.64165">
        <ele>839.330879</ele>
        <time>2011-02-13T09:14:13.964</time>
      </trkpt>
      <trkpt lat="44.92954" lon="5.64166">
        <ele>839.330894</ele>
        <time>2011-02-13T09:14:15.966</time>
      </trkpt>
      <trkpt lat="44.92967" lon="5.6417">
        <ele>838.330929</ele>
        <time>2011-02-13T09:14:22.961</time>
      </trkpt>
      <trkpt lat="44.92972" lon="5.64171">
        <ele>838.33094</ele>
        <time>2011-02-13T09:14:24.966</time>
      </trkpt>
      <trkpt lat="44.92976" lon="5.64171">
        <ele>839.330948</ele>
        <time>2011-02-13T09:14:26.961</time>
      </trkpt>
      <trkpt lat="44.9298" lon="5.64171">
        <ele>840.330959</ele>
        <time>2011-02-13T09:14:28.960</time>
      </trkpt>
      <trkpt lat="44.92993" lon="5.6417">
        <ele>841.330982</ele>
        <time>2011-02-13T09:14:34.960</time>
      </trkpt>
      <trkpt lat="44.92997" lon="5.64169">
        <ele>841.33099</ele>
        <time>2011-02-13T09:14:36.965</time>
      </trkpt>
      <trkpt lat="44.93001" lon="5.64168">
        <ele>842.331005</ele>
        <time>2011-02-13T09:14:38.960</time>
      </trkpt>
      <trkpt lat="44.93005" lon="5.64168">
        <ele>842.331009</ele>
        <time>2011-02-13T09:14:40.972</time>
      </trkpt>
      <trkpt lat="44.9301" lon="5.64167">
        <ele>843.331017</ele>
        <time>2011-02-13T09:14:42.962</time>
      </trkpt>
      <trkpt lat="44.93014" lon="5.64166">
        <ele>843.331024</ele>
        <time>2011-02-13T09:14:44.963</time>
      </trkpt>
      <trkpt lat="44.93025" lon="5.64163">
        <ele>845.331047</ele>
        <time>2011-02-13T09:14:49.959</time>
      </trkpt>
      <trkpt lat="44.93028" lon="5.64162">
        <ele>845.331047</ele>
        <time>2011-02-13T09:14:51.964</time>
      </trkpt>
      <trkpt lat="44.93032" lon="5.64161">
        <ele>845.331055</ele>
        <time>2011-02-13T09:14:53.960</time>
      </trkpt>
      <trkpt lat="44.93036" lon="5.6416">
        <ele>845.331062</ele>
        <time>2011-02-13T09:14:55.959</time>
      </trkpt>
      <trkpt lat="44.93039" lon="5.6416">
        <ele>845.33107</ele>
        <time>2011-02-13T09:14:57.960</time>
      </trkpt>
      <trkpt lat="44.93049" lon="5.6416">
        <ele>844.331093</ele>
        <time>2011-02-13T09:15:02.963</time>
      </trkpt>
      <trkpt lat="44.93054" lon="5.6416">
        <ele>844.3311</ele>
        <time>2011-02-13T09:15:04.958</time>
      </trkpt>
      <trkpt lat="44.93063" lon="5.64161">
        <ele>845.331123</ele>
        <time>2011-02-13T09:15:08.965</time>
      </trkpt>
      <trkpt lat="44.93074" lon="5.64164">
        <ele>845.33115</ele>
        <time>2011-02-13T09:15:13.959</time>
      </trkpt>
      <trkpt lat="44.93079" lon="5.64165">
        <ele>846.331165</ele>
        <time>2011-02-13T09:15:15.964</time>
      </trkpt>
      <trkpt lat="44.93084" lon="5.64167">
        <ele>846.331177</ele>
        <time>2011-02-13T09:15:17.962</time>
      </trkpt>
      <trkpt lat="44.93089" lon="5.64168">
        <ele>846.331196</ele>
        <time>2011-02-13T09:15:19.961</time>
      </trkpt>
      <trkpt lat="44.93095" lon="5.6417">
        <ele>846.331203</ele>
        <time>2011-02-13T09:15:21.962</time>
      </trkpt>
      <trkpt lat="44.9311" lon="5.64174">
        <ele>847.331245</ele>
        <time>2011-02-13T09:15:27.962</time>
      </trkpt>
      <trkpt lat="44.93115" lon="5.64175">
        <ele>846.331257</ele>
        <time>2011-02-13T09:15:29.963</time>
      </trkpt>
      <trkpt lat="44.93119" lon="5.64177">
        <ele>847.331268</ele>
        <time>2011-02-13T09:15:31.959</time>
      </trkpt>
      <trkpt lat="44.93128" lon="5.6418">
        <ele>847.331295</ele>
        <time>2011-02-13T09:15:35.964</time>
      </trkpt>
      <trkpt lat="44.9314" lon="5.64184">
        <ele>846.331329</ele>
        <time>2011-02-13T09:15:43.962</time>
      </trkpt>
      <trkpt lat="44.93143" lon="5.64186">
        <ele>846.331337</ele>
        <time>2011-02-13T09:15:45.964</time>
      </trkpt>
      <trkpt lat="44.93155" lon="5.64193">
        <ele>845.331371</ele>
        <time>2011-02-13T09:15:52.961</time>
      </trkpt>
      <trkpt lat="44.93159" lon="5.64195">
        <ele>846.331387</ele>
        <time>2011-02-13T09:15:54.960</time>
      </trkpt>
      <trkpt lat="44.93163" lon="5.64197">
        <ele>846.331398</ele>
        <time>2011-02-13T09:15:56.964</time>
      </trkpt>
      <trkpt lat="44.93166" lon="5.64199">
        <ele>846.331409</ele>
        <time>2011-02-13T09:15:58.963</time>
      </trkpt>
      <trkpt lat="44.93178" lon="5.64206">
        <ele>845.331444</ele>
        <time>2011-02-13T09:16:04.960</time>
      </trkpt>
      <trkpt lat="44.93184" lon="5.64209">
        <ele>845.331459</ele>
        <time>2011-02-13T09:16:07.966</time>
      </trkpt>
      <trkpt lat="44.93187" lon="5.64211">
        <ele>845.331474</ele>
        <time>2011-02-13T09:16:09.968</time>
      </trkpt>
      <trkpt lat="44.9319" lon="5.64213">
        <ele>845.331486</ele>
        <time>2011-02-13T09:16:11.965</time>
      </trkpt>
      <trkpt lat="44.93194" lon="5.64215">
        <ele>845.331493</ele>
        <time>2011-02-13T09:16:13.959</time>
      </trkpt>
      <trkpt lat="44.93225" lon="5.64225">
        <ele>848.331573</ele>
        <time>2011-02-13T09:16:28.957</time>
      </trkpt>
      <trkpt lat="44.93229" lon="5.64226">
        <ele>848.331585</ele>
        <time>2011-02-13T09:16:30.964</time>
      </trkpt>
      <trkpt lat="44.93234" lon="5.64227">
        <ele>849.3316</ele>
        <time>2011-02-13T09:16:32.965</time>
      </trkpt>
      <trkpt lat="44.93239" lon="5.64228">
        <ele>849.331612</ele>
        <time>2011-02-13T09:16:34.959</time>
      </trkpt>
      <trkpt lat="44.93244" lon="5.64229">
        <ele>849.331623</ele>
        <time>2011-02-13T09:16:36.964</time>
      </trkpt>
      <trkpt lat="44.93259" lon="5.64231">
        <ele>849.331657</ele>
        <time>2011-02-13T09:16:43.958</time>
      </trkpt>
      <trkpt lat="44.93262" lon="5.64232">
        <ele>850.331665</ele>
        <time>2011-02-13T09:16:45.967</time>
      </trkpt>
      <trkpt lat="44.93266" lon="5.64232">
        <ele>851.331676</ele>
        <time>2011-02-13T09:16:47.962</time>
      </trkpt>
      <trkpt lat="44.93269" lon="5.64232">
        <ele>851.33168</ele>
        <time>2011-02-13T09:16:49.962</time>
      </trkpt>
      <trkpt lat="44.93273" lon="5.64232">
        <ele>851.331692</ele>
        <time>2011-02-13T09:16:51.965</time>
      </trkpt>
      <trkpt lat="44.93277" lon="5.64233">
        <ele>851.331699</ele>
        <time>2011-02-13T09:16:53.963</time>
      </trkpt>
      <trkpt lat="44.93289" lon="5.64234">
        <ele>853.33173</ele>
        <time>2011-02-13T09:16:59.959</time>
      </trkpt>
      <trkpt lat="44.93294" lon="5.64233">
        <ele>853.331741</ele>
        <time>2011-02-13T09:17:01.960</time>
      </trkpt>
      <trkpt lat="44.93299" lon="5.64233">
        <ele>853.331749</ele>
        <time>2011-02-13T09:17:03.961</time>
      </trkpt>
      <trkpt lat="44.93304" lon="5.64232">
        <ele>853.331757</ele>
        <time>2011-02-13T09:17:05.968</time>
      </trkpt>
      <trkpt lat="44.93309" lon="5.64231">
        <ele>854.331768</ele>
        <time>2011-02-13T09:17:07.959</time>
      </trkpt>
      <trkpt lat="44.93318" lon="5.64227">
        <ele>856.331779</ele>
        <time>2011-02-13T09:17:11.964</time>
      </trkpt>
      <trkpt lat="44.93336" lon="5.64219">
        <ele>857.331806</ele>
        <time>2011-02-13T09:17:29.965</time>
      </trkpt>
      <trkpt lat="44.93368" lon="5.64211">
        <ele>855.331863</ele>
        <time>2011-02-13T09:17:34.970</time>
      </trkpt>
      <trkpt lat="44.93378" lon="5.6421">
        <ele>855.331886</ele>
        <time>2011-02-13T09:17:36.964</time>
      </trkpt>
      <trkpt lat="44.93387" lon="5.64209">
        <ele>856.331902</ele>
        <time>2011-02-13T09:17:38.964</time>
      </trkpt>
      <trkpt lat="44.93394" lon="5.64209">
        <ele>857.331921</ele>
        <time>2011-02-13T09:17:40.958</time>
      </trkpt>
      <trkpt lat="44.934" lon="5.64208">
        <ele>858.331928</ele>
        <time>2011-02-13T09:17:43.13</time>
      </trkpt>
      <trkpt lat="44.93408" lon="5.64208">
        <ele>858.331947</ele>
        <time>2011-02-13T09:17:45.963</time>
      </trkpt>
      <trkpt lat="44.93414" lon="5.64208">
        <ele>858.331963</ele>
        <time>2011-02-13T09:17:47.962</time>
      </trkpt>
      <trkpt lat="44.93421" lon="5.64209">
        <ele>858.331978</ele>
        <time>2011-02-13T09:17:49.962</time>
      </trkpt>
      <trkpt lat="44.93426" lon="5.64209">
        <ele>857.331989</ele>
        <time>2011-02-13T09:17:51.961</time>
      </trkpt>
      <trkpt lat="44.93432" lon="5.6421">
        <ele>857.332001</ele>
        <time>2011-02-13T09:17:54.9</time>
      </trkpt>
      <trkpt lat="44.93439" lon="5.64211">
        <ele>857.33202</ele>
        <time>2011-02-13T09:17:56.962</time>
      </trkpt>
      <trkpt lat="44.93444" lon="5.64212">
        <ele>857.332035</ele>
        <time>2011-02-13T09:17:58.960</time>
      </trkpt>
      <trkpt lat="44.93449" lon="5.64213">
        <ele>857.332047</ele>
        <time>2011-02-13T09:18:00.964</time>
      </trkpt>
      <trkpt lat="44.93453" lon="5.64214">
        <ele>858.332054</ele>
        <time>2011-02-13T09:18:02.962</time>
      </trkpt>
      <trkpt lat="44.93457" lon="5.64215">
        <ele>858.332066</ele>
        <time>2011-02-13T09:18:04.958</time>
      </trkpt>
      <trkpt lat="44.93461" lon="5.64216">
        <ele>859.332077</ele>
        <time>2011-02-13T09:18:06.981</time>
      </trkpt>
      <trkpt lat="44.93465" lon="5.64217">
        <ele>859.332085</ele>
        <time>2011-02-13T09:18:08.965</time>
      </trkpt>
      <trkpt lat="44.9347" lon="5.64219">
        <ele>860.3321</ele>
        <time>2011-02-13T09:18:12.12</time>
      </trkpt>
      <trkpt lat="44.93476" lon="5.6422">
        <ele>861.332115</ele>
        <time>2011-02-13T09:18:14.963</time>
      </trkpt>
      <trkpt lat="44.93479" lon="5.64221">
        <ele>862.332123</ele>
        <time>2011-02-13T09:18:16.961</time>
      </trkpt>
      <trkpt lat="44.93482" lon="5.64222">
        <ele>863.332134</ele>
        <time>2011-02-13T09:18:18.964</time>
      </trkpt>
      <trkpt lat="44.93486" lon="5.64223">
        <ele>864.332138</ele>
        <time>2011-02-13T09:18:20.960</time>
      </trkpt>
      <trkpt lat="44.93494" lon="5.64224">
        <ele>864.332161</ele>
        <time>2011-02-13T09:18:26.967</time>
      </trkpt>
      <trkpt lat="44.93497" lon="5.64225">
        <ele>864.332165</ele>
        <time>2011-02-13T09:18:28.959</time>
      </trkpt>
      <trkpt lat="44.935" lon="5.64225">
        <ele>864.332172</ele>
        <time>2011-02-13T09:18:30.966</time>
      </trkpt>
      <trkpt lat="44.93503" lon="5.64226">
        <ele>864.33218</ele>
        <time>2011-02-13T09:18:32.961</time>
      </trkpt>
      <trkpt lat="44.93514" lon="5.64225">
        <ele>865.332207</ele>
        <time>2011-02-13T09:18:39.964</time>
      </trkpt>
      <trkpt lat="44.93517" lon="5.64225">
        <ele>865.332211</ele>
        <time>2011-02-13T09:18:41.961</time>
      </trkpt>
      <trkpt lat="44.9352" lon="5.64225">
        <ele>865.332222</ele>
        <time>2011-02-13T09:18:43.960</time>
      </trkpt>
      <trkpt lat="44.93523" lon="5.64226">
        <ele>866.33223</ele>
        <time>2011-02-13T09:18:45.965</time>
      </trkpt>
      <trkpt lat="44.93527" lon="5.64226">
        <ele>866.33223</ele>
        <time>2011-02-13T09:18:47.963</time>
      </trkpt>
      <trkpt lat="44.93538" lon="5.64228">
        <ele>866.33226</ele>
        <time>2011-02-13T09:18:54.966</time>
      </trkpt>
      <trkpt lat="44.93541" lon="5.64228">
        <ele>867.332272</ele>
        <time>2011-02-13T09:18:56.979</time>
      </trkpt>
      <trkpt lat="44.93544" lon="5.64229">
        <ele>867.332275</ele>
        <time>2011-02-13T09:18:58.995</time>
      </trkpt>
      <trkpt lat="44.93556" lon="5.64231">
        <ele>868.332306</ele>
        <time>2011-02-13T09:19:07.960</time>
      </trkpt>
      <trkpt lat="44.93559" lon="5.6423">
        <ele>867.33231</ele>
        <time>2011-02-13T09:19:09.965</time>
      </trkpt>
      <trkpt lat="44.93562" lon="5.6423">
        <ele>867.332317</ele>
        <time>2011-02-13T09:19:11.959</time>
      </trkpt>
      <trkpt lat="44.93566" lon="5.64229">
        <ele>869.332321</ele>
        <time>2011-02-13T09:19:13.958</time>
      </trkpt>
      <trkpt lat="44.93569" lon="5.64228">
        <ele>870.332329</ele>
        <time>2011-02-13T09:19:15.962</time>
      </trkpt>
      <trkpt lat="44.93572" lon="5.64227">
        <ele>871.332333</ele>
        <time>2011-02-13T09:19:17.959</time>
      </trkpt>
      <trkpt lat="44.93577" lon="5.64226">
        <ele>872.332344</ele>
        <time>2011-02-13T09:19:20.963</time>
      </trkpt>
      <trkpt lat="44.93581" lon="5.64225">
        <ele>873.332348</ele>
        <time>2011-02-13T09:19:22.957</time>
      </trkpt>
      <trkpt lat="44.9359" lon="5.64224">
        <ele>874.332367</ele>
        <time>2011-02-13T09:19:27.967</time>
      </trkpt>
      <trkpt lat="44.93609" lon="5.64224">
        <ele>874.332413</ele>
        <time>2011-02-13T09:19:38.963</time>
      </trkpt>
      <trkpt lat="44.93614" lon="5.64225">
        <ele>874.33242</ele>
        <time>2011-02-13T09:19:41.968</time>
      </trkpt>
      <trkpt lat="44.93617" lon="5.64225">
        <ele>874.332428</ele>
        <time>2011-02-13T09:19:43.961</time>
      </trkpt>
      <trkpt lat="44.9362" lon="5.64225">
        <ele>874.332439</ele>
        <time>2011-02-13T09:19:45.965</time>
      </trkpt>
      <trkpt lat="44.93623" lon="5.64225">
        <ele>875.332443</ele>
        <time>2011-02-13T09:19:47.963</time>
      </trkpt>
      <trkpt lat="44.93643" lon="5.64224">
        <ele>878.332489</ele>
        <time>2011-02-13T09:19:56.962</time>
      </trkpt>
      <trkpt lat="44.93655" lon="5.64224">
        <ele>881.332512</ele>
        <time>2011-02-13T09:20:01.958</time>
      </trkpt>
      <trkpt lat="44.93666" lon="5.64223">
        <ele>884.332535</ele>
        <time>2011-02-13T09:20:06.963</time>
      </trkpt>
      <trkpt lat="44.93671" lon="5.64223">
        <ele>885.332542</ele>
        <time>2011-02-13T09:20:08.969</time>
      </trkpt>
      <trkpt lat="44.93676" lon="5.64223">
        <ele>886.332554</ele>
        <time>2011-02-13T09:20:10.961</time>
      </trkpt>
      <trkpt lat="44.93681" lon="5.64223">
        <ele>887.332561</ele>
        <time>2011-02-13T09:20:12.961</time>
      </trkpt>
      <trkpt lat="44.93685" lon="5.64223">
        <ele>887.332573</ele>
        <time>2011-02-13T09:20:14.961</time>
      </trkpt>
      <trkpt lat="44.9369" lon="5.64223">
        <ele>888.332584</ele>
        <time>2011-02-13T09:20:16.956</time>
      </trkpt>
      <trkpt lat="44.93702" lon="5.64222">
        <ele>888.332611</ele>
        <time>2011-02-13T09:20:22.961</time>
      </trkpt>
      <trkpt lat="44.93706" lon="5.64222">
        <ele>889.332619</ele>
        <time>2011-02-13T09:20:24.960</time>
      </trkpt>
      <trkpt lat="44.93709" lon="5.64222">
        <ele>890.33263</ele>
        <time>2011-02-13T09:20:26.961</time>
      </trkpt>
      <trkpt lat="44.93721" lon="5.64221">
        <ele>891.332649</ele>
        <time>2011-02-13T09:20:33.962</time>
      </trkpt>
      <trkpt lat="44.93724" lon="5.64221">
        <ele>890.332657</ele>
        <time>2011-02-13T09:20:35.963</time>
      </trkpt>
      <trkpt lat="44.93728" lon="5.64221">
        <ele>890.332668</ele>
        <time>2011-02-13T09:20:37.959</time>
      </trkpt>
      <trkpt lat="44.93731" lon="5.64222">
        <ele>891.332676</ele>
        <time>2011-02-13T09:20:39.964</time>
      </trkpt>
      <trkpt lat="44.93735" lon="5.64222">
        <ele>891.332684</ele>
        <time>2011-02-13T09:20:41.963</time>
      </trkpt>
      <trkpt lat="44.93745" lon="5.64223">
        <ele>891.332703</ele>
        <time>2011-02-13T09:20:46.960</time>
      </trkpt>
      <trkpt lat="44.93749" lon="5.64223">
        <ele>891.332714</ele>
        <time>2011-02-13T09:20:48.962</time>
      </trkpt>
      <trkpt lat="44.93753" lon="5.64224">
        <ele>892.332726</ele>
        <time>2011-02-13T09:20:50.968</time>
      </trkpt>
      <trkpt lat="44.93757" lon="5.64224">
        <ele>892.332733</ele>
        <time>2011-02-13T09:20:52.960</time>
      </trkpt>
      <trkpt lat="44.93762" lon="5.64224">
        <ele>892.332741</ele>
        <time>2011-02-13T09:20:54.965</time>
      </trkpt>
      <trkpt lat="44.93785" lon="5.64221">
        <ele>891.33279</ele>
        <time>2011-02-13T09:21:05.958</time>
      </trkpt>
      <trkpt lat="44.93789" lon="5.6422">
        <ele>891.332798</ele>
        <time>2011-02-13T09:21:07.958</time>
      </trkpt>
      <trkpt lat="44.93793" lon="5.64219">
        <ele>891.332802</ele>
        <time>2011-02-13T09:21:09.961</time>
      </trkpt>
      <trkpt lat="44.9381" lon="5.64219">
        <ele>892.33284</ele>
        <time>2011-02-13T09:21:18.962</time>
      </trkpt>
      <trkpt lat="44.93814" lon="5.64218">
        <ele>893.332848</ele>
        <time>2011-02-13T09:21:20.967</time>
      </trkpt>
      <trkpt lat="44.93818" lon="5.64217">
        <ele>894.332855</ele>
        <time>2011-02-13T09:21:22.959</time>
      </trkpt>
      <trkpt lat="44.93822" lon="5.64215">
        <ele>894.332863</ele>
        <time>2011-02-13T09:21:24.964</time>
      </trkpt>
      <trkpt lat="44.93827" lon="5.64214">
        <ele>894.332867</ele>
        <time>2011-02-13T09:21:26.962</time>
      </trkpt>
      <trkpt lat="44.9384" lon="5.6421">
        <ele>896.332886</ele>
        <time>2011-02-13T09:21:32.961</time>
      </trkpt>
      <trkpt lat="44.93844" lon="5.64208">
        <ele>895.332897</ele>
        <time>2011-02-13T09:21:34.959</time>
      </trkpt>
      <trkpt lat="44.93848" lon="5.64206">
        <ele>895.332905</ele>
        <time>2011-02-13T09:21:36.962</time>
      </trkpt>
      <trkpt lat="44.93852" lon="5.64205">
        <ele>895.332909</ele>
        <time>2011-02-13T09:21:38.960</time>
      </trkpt>
      <trkpt lat="44.93856" lon="5.64204">
        <ele>895.332916</ele>
        <time>2011-02-13T09:21:40.961</time>
      </trkpt>
      <trkpt lat="44.9386" lon="5.64203">
        <ele>895.332924</ele>
        <time>2011-02-13T09:21:42.964</time>
      </trkpt>
      <trkpt lat="44.93864" lon="5.64203">
        <ele>895.332935</ele>
        <time>2011-02-13T09:21:44.962</time>
      </trkpt>
      <trkpt lat="44.93871" lon="5.64204">
        <ele>896.332951</ele>
        <time>2011-02-13T09:21:48.965</time>
      </trkpt>
      <trkpt lat="44.93875" lon="5.64205">
        <ele>896.332958</ele>
        <time>2011-02-13T09:21:50.962</time>
      </trkpt>
      <trkpt lat="44.93878" lon="5.64205">
        <ele>897.332966</ele>
        <time>2011-02-13T09:21:52.962</time>
      </trkpt>
      <trkpt lat="44.93882" lon="5.64206">
        <ele>897.332977</ele>
        <time>2011-02-13T09:21:54.961</time>
      </trkpt>
      <trkpt lat="44.93885" lon="5.64207">
        <ele>897.332985</ele>
        <time>2011-02-13T09:21:56.962</time>
      </trkpt>
      <trkpt lat="44.93893" lon="5.64209">
        <ele>899.333008</ele>
        <time>2011-02-13T09:22:01.956</time>
      </trkpt>
      <trkpt lat="44.93897" lon="5.64211">
        <ele>899.333015</ele>
        <time>2011-02-13T09:22:04.957</time>
      </trkpt>
      <trkpt lat="44.939" lon="5.64213">
        <ele>900.333027</ele>
        <time>2011-02-13T09:22:07.958</time>
      </trkpt>
      <trkpt lat="44.93904" lon="5.64218">
        <ele>901.333042</ele>
        <time>2011-02-13T09:22:10.958</time>
      </trkpt>
      <trkpt lat="44.93906" lon="5.6422">
        <ele>902.333054</ele>
        <time>2011-02-13T09:22:12.961</time>
      </trkpt>
      <trkpt lat="44.93909" lon="5.64222">
        <ele>902.333061</ele>
        <time>2011-02-13T09:22:14.962</time>
      </trkpt>
      <trkpt lat="44.93928" lon="5.64228">
        <ele>904.333115</ele>
        <time>2011-02-13T09:22:25.960</time>
      </trkpt>
      <trkpt lat="44.93933" lon="5.64229">
        <ele>904.333126</ele>
        <time>2011-02-13T09:22:29.963</time>
      </trkpt>
      <trkpt lat="44.93938" lon="5.6423">
        <ele>904.333138</ele>
        <time>2011-02-13T09:22:32.962</time>
      </trkpt>
      <trkpt lat="44.93951" lon="5.64232">
        <ele>904.333168</ele>
        <time>2011-02-13T09:22:39.964</time>
      </trkpt>
      <trkpt lat="44.93955" lon="5.64232">
        <ele>904.333176</ele>
        <time>2011-02-13T09:22:41.960</time>
      </trkpt>
      <trkpt lat="44.9396" lon="5.64232">
        <ele>904.333187</ele>
        <time>2011-02-13T09:22:43.958</time>
      </trkpt>
      <trkpt lat="44.93965" lon="5.64233">
        <ele>904.333199</ele>
        <time>2011-02-13T09:22:45.964</time>
      </trkpt>
      <trkpt lat="44.9397" lon="5.64233">
        <ele>904.333214</ele>
        <time>2011-02-13T09:22:47.961</time>
      </trkpt>
      <trkpt lat="44.93993" lon="5.64236">
        <ele>905.333267</ele>
        <time>2011-02-13T09:22:56.961</time>
      </trkpt>
      <trkpt lat="44.93998" lon="5.64237">
        <ele>906.333282</ele>
        <time>2011-02-13T09:22:58.961</time>
      </trkpt>
      <trkpt lat="44.94002" lon="5.64238">
        <ele>907.333286</ele>
        <time>2011-02-13T09:23:00.966</time>
      </trkpt>
      <trkpt lat="44.94006" lon="5.64239">
        <ele>907.333298</ele>
        <time>2011-02-13T09:23:02.960</time>
      </trkpt>
      <trkpt lat="44.94012" lon="5.6424">
        <ele>907.333313</ele>
        <time>2011-02-13T09:23:04.958</time>
      </trkpt>
      <trkpt lat="44.94019" lon="5.64241">
        <ele>908.333328</ele>
        <time>2011-02-13T09:23:07.959</time>
      </trkpt>
      <trkpt lat="44.94024" lon="5.64241">
        <ele>908.33334</ele>
        <time>2011-02-13T09:23:09.963</time>
      </trkpt>
      <trkpt lat="44.94028" lon="5.64242">
        <ele>908.333347</ele>
        <time>2011-02-13T09:23:11.962</time>
      </trkpt>
      <trkpt lat="44.94041" lon="5.64243">
        <ele>909.333382</ele>
        <time>2011-02-13T09:23:18.962</time>
      </trkpt>
      <trkpt lat="44.94048" lon="5.64244">
        <ele>909.333397</ele>
        <time>2011-02-13T09:23:22.956</time>
      </trkpt>
      <trkpt lat="44.94051" lon="5.64245">
        <ele>909.333408</ele>
        <time>2011-02-13T09:23:24.967</time>
      </trkpt>
      <trkpt lat="44.94062" lon="5.64247">
        <ele>911.333435</ele>
        <time>2011-02-13T09:23:31.964</time>
      </trkpt>
      <trkpt lat="44.94066" lon="5.64248">
        <ele>912.333443</ele>
        <time>2011-02-13T09:23:33.963</time>
      </trkpt>
      <trkpt lat="44.94069" lon="5.64249">
        <ele>913.33345</ele>
        <time>2011-02-13T09:23:35.964</time>
      </trkpt>
      <trkpt lat="44.94073" lon="5.6425">
        <ele>913.333462</ele>
        <time>2011-02-13T09:23:37.958</time>
      </trkpt>
      <trkpt lat="44.94081" lon="5.64253">
        <ele>915.333481</ele>
        <time>2011-02-13T09:23:42.963</time>
      </trkpt>
      <trkpt lat="44.94084" lon="5.64253">
        <ele>915.333488</ele>
        <time>2011-02-13T09:23:44.957</time>
      </trkpt>
      <trkpt lat="44.94087" lon="5.64254">
        <ele>915.333504</ele>
        <time>2011-02-13T09:23:46.961</time>
      </trkpt>
      <trkpt lat="44.94091" lon="5.64255">
        <ele>915.333508</ele>
        <time>2011-02-13T09:23:48.961</time>
      </trkpt>
      <trkpt lat="44.94102" lon="5.64258">
        <ele>916.333538</ele>
        <time>2011-02-13T09:23:55.962</time>
      </trkpt>
      <trkpt lat="44.94104" lon="5.64259">
        <ele>916.333542</ele>
        <time>2011-02-13T09:23:57.964</time>
      </trkpt>
      <trkpt lat="44.94106" lon="5.6426">
        <ele>916.333549</ele>
        <time>2011-02-13T09:23:59.959</time>
      </trkpt>
      <trkpt lat="44.94112" lon="5.64262">
        <ele>916.333565</ele>
        <time>2011-02-13T09:24:05.961</time>
      </trkpt>
      <trkpt lat="44.94114" lon="5.64263">
        <ele>916.333572</ele>
        <time>2011-02-13T09:24:07.958</time>
      </trkpt>
      <trkpt lat="44.94119" lon="5.64264">
        <ele>916.333584</ele>
        <time>2011-02-13T09:24:09.963</time>
      </trkpt>
      <trkpt lat="44.94123" lon="5.64266">
        <ele>916.333595</ele>
        <time>2011-02-13T09:24:11.959</time>
      </trkpt>
      <trkpt lat="44.94128" lon="5.64267">
        <ele>917.333603</ele>
        <time>2011-02-13T09:24:13.959</time>
      </trkpt>
      <trkpt lat="44.94132" lon="5.64268">
        <ele>918.333618</ele>
        <time>2011-02-13T09:24:15.961</time>
      </trkpt>
      <trkpt lat="44.94153" lon="5.64272">
        <ele>918.333672</ele>
        <time>2011-02-13T09:24:24.965</time>
      </trkpt>
      <trkpt lat="44.94158" lon="5.64274">
        <ele>918.333683</ele>
        <time>2011-02-13T09:24:26.960</time>
      </trkpt>
      <trkpt lat="44.94162" lon="5.64275">
        <ele>918.333691</ele>
        <time>2011-02-13T09:24:28.959</time>
      </trkpt>
      <trkpt lat="44.94169" lon="5.64276">
        <ele>918.33371</ele>
        <time>2011-02-13T09:24:31.960</time>
      </trkpt>
      <trkpt lat="44.94181" lon="5.64279">
        <ele>919.33374</ele>
        <time>2011-02-13T09:24:36.961</time>
      </trkpt>
      <trkpt lat="44.94185" lon="5.64281">
        <ele>919.333752</ele>
        <time>2011-02-13T09:24:38.961</time>
      </trkpt>
      <trkpt lat="44.9419" lon="5.64282">
        <ele>919.333767</ele>
        <time>2011-02-13T09:24:40.955</time>
      </trkpt>
      <trkpt lat="44.94195" lon="5.64283">
        <ele>919.333778</ele>
        <time>2011-02-13T09:24:42.963</time>
      </trkpt>
      <trkpt lat="44.942" lon="5.64285">
        <ele>920.33379</ele>
        <time>2011-02-13T09:24:44.958</time>
      </trkpt>
      <trkpt lat="44.94205" lon="5.64286">
        <ele>920.333801</ele>
        <time>2011-02-13T09:24:46.980</time>
      </trkpt>
      <trkpt lat="44.94218" lon="5.64287">
        <ele>920.333836</ele>
        <time>2011-02-13T09:24:51.961</time>
      </trkpt>
      <trkpt lat="44.94223" lon="5.64287">
        <ele>921.333847</ele>
        <time>2011-02-13T09:24:53.963</time>
      </trkpt>
      <trkpt lat="44.94228" lon="5.64287">
        <ele>920.333855</ele>
        <time>2011-02-13T09:24:55.957</time>
      </trkpt>
      <trkpt lat="44.94232" lon="5.64287">
        <ele>920.333862</ele>
        <time>2011-02-13T09:24:57.961</time>
      </trkpt>
      <trkpt lat="44.94235" lon="5.64287">
        <ele>920.33387</ele>
        <time>2011-02-13T09:24:59.963</time>
      </trkpt>
      <trkpt lat="44.94246" lon="5.64284">
        <ele>919.333893</ele>
        <time>2011-02-13T09:25:05.962</time>
      </trkpt>
      <trkpt lat="44.9425" lon="5.64284">
        <ele>919.333897</ele>
        <time>2011-02-13T09:25:07.960</time>
      </trkpt>
      <trkpt lat="44.94254" lon="5.64283">
        <ele>919.333908</ele>
        <time>2011-02-13T09:25:09.967</time>
      </trkpt>
      <trkpt lat="44.94259" lon="5.64281">
        <ele>919.333916</ele>
        <time>2011-02-13T09:25:11.958</time>
      </trkpt>
      <trkpt lat="44.94263" lon="5.6428">
        <ele>919.33392</ele>
        <time>2011-02-13T09:25:13.960</time>
      </trkpt>
      <trkpt lat="44.94272" lon="5.64278">
        <ele>919.333939</ele>
        <time>2011-02-13T09:25:17.965</time>
      </trkpt>
      <trkpt lat="44.94276" lon="5.64277">
        <ele>920.333942</ele>
        <time>2011-02-13T09:25:19.957</time>
      </trkpt>
      <trkpt lat="44.9428" lon="5.64275">
        <ele>920.333954</ele>
        <time>2011-02-13T09:25:21.963</time>
      </trkpt>
      <trkpt lat="44.94285" lon="5.64274">
        <ele>920.333961</ele>
        <time>2011-02-13T09:25:23.959</time>
      </trkpt>
      <trkpt lat="44.9429" lon="5.64273">
        <ele>919.333965</ele>
        <time>2011-02-13T09:25:25.965</time>
      </trkpt>
      <trkpt lat="44.94296" lon="5.64271">
        <ele>919.333981</ele>
        <time>2011-02-13T09:25:27.963</time>
      </trkpt>
      <trkpt lat="44.94305" lon="5.6427">
        <ele>917.334</ele>
        <time>2011-02-13T09:25:30.961</time>
      </trkpt>
      <trkpt lat="44.94311" lon="5.64269">
        <ele>916.334011</ele>
        <time>2011-02-13T09:25:32.963</time>
      </trkpt>
      <trkpt lat="44.94316" lon="5.64269">
        <ele>915.334023</ele>
        <time>2011-02-13T09:25:34.962</time>
      </trkpt>
      <trkpt lat="44.94331" lon="5.64272">
        <ele>915.334053</ele>
        <time>2011-02-13T09:25:40.962</time>
      </trkpt>
      <trkpt lat="44.94336" lon="5.64273">
        <ele>914.334068</ele>
        <time>2011-02-13T09:25:42.963</time>
      </trkpt>
      <trkpt lat="44.9434" lon="5.64275">
        <ele>915.334084</ele>
        <time>2011-02-13T09:25:44.963</time>
      </trkpt>
      <trkpt lat="44.94345" lon="5.64277">
        <ele>914.334091</ele>
        <time>2011-02-13T09:25:46.959</time>
      </trkpt>
      <trkpt lat="44.94349" lon="5.64279">
        <ele>914.334106</ele>
        <time>2011-02-13T09:25:48.963</time>
      </trkpt>
      <trkpt lat="44.94353" lon="5.64281">
        <ele>913.334118</ele>
        <time>2011-02-13T09:25:50.961</time>
      </trkpt>
      <trkpt lat="44.94357" lon="5.64284">
        <ele>912.334129</ele>
        <time>2011-02-13T09:25:52.956</time>
      </trkpt>
      <trkpt lat="44.94362" lon="5.64288">
        <ele>912.334152</ele>
        <time>2011-02-13T09:25:55.957</time>
      </trkpt>
      <trkpt lat="44.9437" lon="5.64294">
        <ele>911.334171</ele>
        <time>2011-02-13T09:25:59.959</time>
      </trkpt>
      <trkpt lat="44.94373" lon="5.64297">
        <ele>910.33419</ele>
        <time>2011-02-13T09:26:01.960</time>
      </trkpt>
      <trkpt lat="44.94377" lon="5.64301">
        <ele>910.334202</ele>
        <time>2011-02-13T09:26:03.960</time>
      </trkpt>
      <trkpt lat="44.9438" lon="5.64304">
        <ele>910.334213</ele>
        <time>2011-02-13T09:26:05.964</time>
      </trkpt>
      <trkpt lat="44.94384" lon="5.64307">
        <ele>910.334229</ele>
        <time>2011-02-13T09:26:07.958</time>
      </trkpt>
      <trkpt lat="44.94394" lon="5.64318">
        <ele>910.334263</ele>
        <time>2011-02-13T09:26:13.960</time>
      </trkpt>
      <trkpt lat="44.94397" lon="5.64321">
        <ele>910.334274</ele>
        <time>2011-02-13T09:26:15.959</time>
      </trkpt>
      <trkpt lat="44.944" lon="5.64325">
        <ele>910.33429</ele>
        <time>2011-02-13T09:26:17.956</time>
      </trkpt>
      <trkpt lat="44.94403" lon="5.64329">
        <ele>910.334305</ele>
        <time>2011-02-13T09:26:19.959</time>
      </trkpt>
      <trkpt lat="44.94405" lon="5.64332">
        <ele>910.334312</ele>
        <time>2011-02-13T09:26:21.962</time>
      </trkpt>
      <trkpt lat="44.94411" lon="5.64339">
        <ele>910.334332</ele>
        <time>2011-02-13T09:26:25.965</time>
      </trkpt>
      <trkpt lat="44.94414" lon="5.64343">
        <ele>909.334347</ele>
        <time>2011-02-13T09:26:27.960</time>
      </trkpt>
      <trkpt lat="44.94417" lon="5.64346">
        <ele>909.334358</ele>
        <time>2011-02-13T09:26:29.958</time>
      </trkpt>
      <trkpt lat="44.9442" lon="5.64349">
        <ele>909.334366</ele>
        <time>2011-02-13T09:26:31.958</time>
      </trkpt>
      <trkpt lat="44.9443" lon="5.64359">
        <ele>911.334404</ele>
        <time>2011-02-13T09:26:37.959</time>
      </trkpt>
      <trkpt lat="44.94433" lon="5.64363">
        <ele>911.334419</ele>
        <time>2011-02-13T09:26:39.960</time>
      </trkpt>
      <trkpt lat="44.94437" lon="5.64367">
        <ele>911.334431</ele>
        <time>2011-02-13T09:26:41.959</time>
      </trkpt>
      <trkpt lat="44.9444" lon="5.64371">
        <ele>911.334446</ele>
        <time>2011-02-13T09:26:43.958</time>
      </trkpt>
      <trkpt lat="44.94442" lon="5.64376">
        <ele>912.334457</ele>
        <time>2011-02-13T09:26:45.961</time>
      </trkpt>
      <trkpt lat="44.94447" lon="5.64387">
        <ele>912.334484</ele>
        <time>2011-02-13T09:26:49.960</time>
      </trkpt>
      <trkpt lat="44.94449" lon="5.64392">
        <ele>912.334496</ele>
        <time>2011-02-13T09:26:51.960</time>
      </trkpt>
      <trkpt lat="44.94451" lon="5.64398">
        <ele>912.334511</ele>
        <time>2011-02-13T09:26:53.960</time>
      </trkpt>
      <trkpt lat="44.94453" lon="5.64403">
        <ele>911.334522</ele>
        <time>2011-02-13T09:26:55.959</time>
      </trkpt>
      <trkpt lat="44.94455" lon="5.64407">
        <ele>911.334534</ele>
        <time>2011-02-13T09:26:57.961</time>
      </trkpt>
      <trkpt lat="44.94457" lon="5.64412">
        <ele>911.334541</ele>
        <time>2011-02-13T09:26:59.961</time>
      </trkpt>
      <trkpt lat="44.94459" lon="5.64417">
        <ele>911.334557</ele>
        <time>2011-02-13T09:27:01.966</time>
      </trkpt>
      <trkpt lat="44.94461" lon="5.64422">
        <ele>912.334572</ele>
        <time>2011-02-13T09:27:03.965</time>
      </trkpt>
      <trkpt lat="44.94462" lon="5.64427">
        <ele>913.334579</ele>
        <time>2011-02-13T09:27:05.960</time>
      </trkpt>
      <trkpt lat="44.94464" lon="5.64432">
        <ele>913.334591</ele>
        <time>2011-02-13T09:27:07.958</time>
      </trkpt>
      <trkpt lat="44.94465" lon="5.64437">
        <ele>913.334602</ele>
        <time>2011-02-13T09:27:09.962</time>
      </trkpt>
      <trkpt lat="44.94467" lon="5.64441">
        <ele>914.334614</ele>
        <time>2011-02-13T09:27:11.959</time>
      </trkpt>
      <trkpt lat="44.94468" lon="5.64445">
        <ele>914.334621</ele>
        <time>2011-02-13T09:27:13.957</time>
      </trkpt>
      <trkpt lat="44.94469" lon="5.64449">
        <ele>914.334629</ele>
        <time>2011-02-13T09:27:15.961</time>
      </trkpt>
      <trkpt lat="44.94473" lon="5.64463">
        <ele>913.334656</ele>
        <time>2011-02-13T09:27:21.958</time>
      </trkpt>
      <trkpt lat="44.94474" lon="5.64468">
        <ele>913.334667</ele>
        <time>2011-02-13T09:27:23.957</time>
      </trkpt>
      <trkpt lat="44.94475" lon="5.64473">
        <ele>913.334679</ele>
        <time>2011-02-13T09:27:25.956</time>
      </trkpt>
      <trkpt lat="44.94477" lon="5.64477">
        <ele>912.33469</ele>
        <time>2011-02-13T09:27:27.959</time>
      </trkpt>
      <trkpt lat="44.9448" lon="5.6449">
        <ele>911.334713</ele>
        <time>2011-02-13T09:27:32.960</time>
      </trkpt>
      <trkpt lat="44.94482" lon="5.645">
        <ele>910.33474</ele>
        <time>2011-02-13T09:27:36.963</time>
      </trkpt>
      <trkpt lat="44.94483" lon="5.64506">
        <ele>910.334747</ele>
        <time>2011-02-13T09:27:38.959</time>
      </trkpt>
      <trkpt lat="44.94483" lon="5.64513">
        <ele>910.334751</ele>
        <time>2011-02-13T09:27:40.957</time>
      </trkpt>
      <trkpt lat="44.94483" lon="5.64522">
        <ele>909.33477</ele>
        <time>2011-02-13T09:27:42.972</time>
      </trkpt>
      <trkpt lat="44.94483" lon="5.6453">
        <ele>909.334782</ele>
        <time>2011-02-13T09:27:44.957</time>
      </trkpt>
      <trkpt lat="44.94483" lon="5.64541">
        <ele>908.334801</ele>
        <time>2011-02-13T09:27:47.962</time>
      </trkpt>
      <trkpt lat="44.94483" lon="5.64551">
        <ele>908.334816</ele>
        <time>2011-02-13T09:27:50.960</time>
      </trkpt>
      <trkpt lat="44.94482" lon="5.64562">
        <ele>907.334827</ele>
        <time>2011-02-13T09:27:54.958</time>
      </trkpt>
      <trkpt lat="44.94483" lon="5.64568">
        <ele>907.334839</ele>
        <time>2011-02-13T09:27:56.979</time>
      </trkpt>
      <trkpt lat="44.94484" lon="5.64576">
        <ele>906.334854</ele>
        <time>2011-02-13T09:27:58.969</time>
      </trkpt>
      <trkpt lat="44.94486" lon="5.64585">
        <ele>905.334873</ele>
        <time>2011-02-13T09:28:00.960</time>
      </trkpt>
      <trkpt lat="44.94489" lon="5.64595">
        <ele>903.334892</ele>
        <time>2011-02-13T09:28:03</time>
      </trkpt>
      <trkpt lat="44.94494" lon="5.64609">
        <ele>901.334927</ele>
        <time>2011-02-13T09:28:05.980</time>
      </trkpt>
      <trkpt lat="44.94498" lon="5.64618">
        <ele>900.334949</ele>
        <time>2011-02-13T09:28:07.959</time>
      </trkpt>
      <trkpt lat="44.94502" lon="5.64626">
        <ele>899.334972</ele>
        <time>2011-02-13T09:28:09.963</time>
      </trkpt>
      <trkpt lat="44.94506" lon="5.64634">
        <ele>898.334991</ele>
        <time>2011-02-13T09:28:11.958</time>
      </trkpt>
      <trkpt lat="44.94509" lon="5.64641">
        <ele>897.335011</ele>
        <time>2011-02-13T09:28:13.957</time>
      </trkpt>
      <trkpt lat="44.94512" lon="5.64648">
        <ele>897.335026</ele>
        <time>2011-02-13T09:28:15.962</time>
      </trkpt>
      <trkpt lat="44.94515" lon="5.64655">
        <ele>896.335045</ele>
        <time>2011-02-13T09:28:17.960</time>
      </trkpt>
      <trkpt lat="44.94518" lon="5.64662">
        <ele>896.33506</ele>
        <time>2011-02-13T09:28:19.959</time>
      </trkpt>
      <trkpt lat="44.9452" lon="5.64668">
        <ele>895.335072</ele>
        <time>2011-02-13T09:28:21.965</time>
      </trkpt>
      <trkpt lat="44.94523" lon="5.64674">
        <ele>895.335091</ele>
        <time>2011-02-13T09:28:23.963</time>
      </trkpt>
      <trkpt lat="44.94526" lon="5.6468">
        <ele>895.335106</ele>
        <time>2011-02-13T09:28:25.958</time>
      </trkpt>
      <trkpt lat="44.94528" lon="5.64686">
        <ele>895.335121</ele>
        <time>2011-02-13T09:28:27.961</time>
      </trkpt>
      <trkpt lat="44.94531" lon="5.64692">
        <ele>895.335133</ele>
        <time>2011-02-13T09:28:29.966</time>
      </trkpt>
      <trkpt lat="44.94533" lon="5.64698">
        <ele>895.335144</ele>
        <time>2011-02-13T09:28:31.955</time>
      </trkpt>
      <trkpt lat="44.94536" lon="5.64704">
        <ele>894.335163</ele>
        <time>2011-02-13T09:28:33.959</time>
      </trkpt>
      <trkpt lat="44.94538" lon="5.6471">
        <ele>895.335178</ele>
        <time>2011-02-13T09:28:35.962</time>
      </trkpt>
      <trkpt lat="44.94541" lon="5.64716">
        <ele>894.335194</ele>
        <time>2011-02-13T09:28:37.955</time>
      </trkpt>
      <trkpt lat="44.94543" lon="5.64721">
        <ele>894.335205</ele>
        <time>2011-02-13T09:28:39.962</time>
      </trkpt>
      <trkpt lat="44.94545" lon="5.64727">
        <ele>893.33522</ele>
        <time>2011-02-13T09:28:41.958</time>
      </trkpt>
      <trkpt lat="44.94547" lon="5.64733">
        <ele>893.335236</ele>
        <time>2011-02-13T09:28:43.959</time>
      </trkpt>
      <trkpt lat="44.94549" lon="5.64739">
        <ele>894.335243</ele>
        <time>2011-02-13T09:28:45.962</time>
      </trkpt>
      <trkpt lat="44.9455" lon="5.64745">
        <ele>894.335255</ele>
        <time>2011-02-13T09:28:47.958</time>
      </trkpt>
      <trkpt lat="44.94552" lon="5.64751">
        <ele>894.33527</ele>
        <time>2011-02-13T09:28:49.959</time>
      </trkpt>
      <trkpt lat="44.94553" lon="5.64757">
        <ele>894.335285</ele>
        <time>2011-02-13T09:28:51.962</time>
      </trkpt>
      <trkpt lat="44.94555" lon="5.64763">
        <ele>894.335293</ele>
        <time>2011-02-13T09:28:53.962</time>
      </trkpt>
      <trkpt lat="44.94556" lon="5.64769">
        <ele>894.335312</ele>
        <time>2011-02-13T09:28:55.962</time>
      </trkpt>
      <trkpt lat="44.94558" lon="5.64776">
        <ele>894.33532</ele>
        <time>2011-02-13T09:28:57.969</time>
      </trkpt>
      <trkpt lat="44.94559" lon="5.64782">
        <ele>895.335331</ele>
        <time>2011-02-13T09:28:59.958</time>
      </trkpt>
      <trkpt lat="44.94561" lon="5.64788">
        <ele>896.335346</ele>
        <time>2011-02-13T09:29:02.999</time>
      </trkpt>
      <trkpt lat="44.94562" lon="5.64794">
        <ele>896.335358</ele>
        <time>2011-02-13T09:29:03.960</time>
      </trkpt>
      <trkpt lat="44.94562" lon="5.648">
        <ele>897.335365</ele>
        <time>2011-02-13T09:29:05.959</time>
      </trkpt>
      <trkpt lat="44.94563" lon="5.64806">
        <ele>897.335377</ele>
        <time>2011-02-13T09:29:07.998</time>
      </trkpt>
      <trkpt lat="44.94563" lon="5.64813">
        <ele>898.335388</ele>
        <time>2011-02-13T09:29:09.959</time>
      </trkpt>
      <trkpt lat="44.94564" lon="5.64816">
        <ele>898.335392</ele>
        <time>2011-02-13T09:29:11.12</time>
      </trkpt>
      <trkpt lat="44.94565" lon="5.64825">
        <ele>898.335407</ele>
        <time>2011-02-13T09:29:13.961</time>
      </trkpt>
      <trkpt lat="44.94565" lon="5.64831">
        <ele>898.335423</ele>
        <time>2011-02-13T09:29:15.961</time>
      </trkpt>
      <trkpt lat="44.94567" lon="5.64838">
        <ele>898.335438</ele>
        <time>2011-02-13T09:29:17.962</time>
      </trkpt>
      <trkpt lat="44.94568" lon="5.64845">
        <ele>898.335453</ele>
        <time>2011-02-13T09:29:19.962</time>
      </trkpt>
      <trkpt lat="44.9457" lon="5.64853">
        <ele>897.335464</ele>
        <time>2011-02-13T09:29:21.962</time>
      </trkpt>
      <trkpt lat="44.94572" lon="5.6486">
        <ele>896.33548</ele>
        <time>2011-02-13T09:29:23.959</time>
      </trkpt>
      <trkpt lat="44.94574" lon="5.64867">
        <ele>896.335495</ele>
        <time>2011-02-13T09:29:25.963</time>
      </trkpt>
      <trkpt lat="44.94577" lon="5.64874">
        <ele>895.33551</ele>
        <time>2011-02-13T09:29:27.961</time>
      </trkpt>
      <trkpt lat="44.9458" lon="5.64881">
        <ele>895.335529</ele>
        <time>2011-02-13T09:29:29.957</time>
      </trkpt>
      <trkpt lat="44.94583" lon="5.64888">
        <ele>894.335545</ele>
        <time>2011-02-13T09:29:31.979</time>
      </trkpt>
      <trkpt lat="44.94587" lon="5.64895">
        <ele>893.335571</ele>
        <time>2011-02-13T09:29:33.960</time>
      </trkpt>
      <trkpt lat="44.9459" lon="5.64902">
        <ele>892.335583</ele>
        <time>2011-02-13T09:29:35.960</time>
      </trkpt>
      <trkpt lat="44.94593" lon="5.64909">
        <ele>892.335602</ele>
        <time>2011-02-13T09:29:37.958</time>
      </trkpt>
      <trkpt lat="44.94596" lon="5.64917">
        <ele>891.335617</ele>
        <time>2011-02-13T09:29:39.963</time>
      </trkpt>
      <trkpt lat="44.94598" lon="5.64924">
        <ele>890.335636</ele>
        <time>2011-02-13T09:29:41.961</time>
      </trkpt>
      <trkpt lat="44.946" lon="5.6493">
        <ele>890.335648</ele>
        <time>2011-02-13T09:29:43.957</time>
      </trkpt>
      <trkpt lat="44.94601" lon="5.64937">
        <ele>890.335667</ele>
        <time>2011-02-13T09:29:45.960</time>
      </trkpt>
      <trkpt lat="44.94603" lon="5.64943">
        <ele>890.335674</ele>
        <time>2011-02-13T09:29:47.960</time>
      </trkpt>
      <trkpt lat="44.94605" lon="5.6495">
        <ele>889.335693</ele>
        <time>2011-02-13T09:29:49.959</time>
      </trkpt>
      <trkpt lat="44.94608" lon="5.64958">
        <ele>889.335712</ele>
        <time>2011-02-13T09:29:51.961</time>
      </trkpt>
      <trkpt lat="44.94611" lon="5.64965">
        <ele>888.335728</ele>
        <time>2011-02-13T09:29:53.958</time>
      </trkpt>
      <trkpt lat="44.94615" lon="5.64973">
        <ele>888.335747</ele>
        <time>2011-02-13T09:29:55.956</time>
      </trkpt>
      <trkpt lat="44.94618" lon="5.64981">
        <ele>887.335766</ele>
        <time>2011-02-13T09:29:57.956</time>
      </trkpt>
      <trkpt lat="44.94623" lon="5.64988">
        <ele>887.335785</ele>
        <time>2011-02-13T09:29:59.961</time>
      </trkpt>
      <trkpt lat="44.94627" lon="5.64994">
        <ele>886.335808</ele>
        <time>2011-02-13T09:30:01.959</time>
      </trkpt>
      <trkpt lat="44.94632" lon="5.65">
        <ele>885.335823</ele>
        <time>2011-02-13T09:30:03.962</time>
      </trkpt>
      <trkpt lat="44.94637" lon="5.65005">
        <ele>884.335842</ele>
        <time>2011-02-13T09:30:05.958</time>
      </trkpt>
      <trkpt lat="44.94642" lon="5.65009">
        <ele>883.335857</ele>
        <time>2011-02-13T09:30:07.960</time>
      </trkpt>
      <trkpt lat="44.94647" lon="5.65013">
        <ele>883.33588</ele>
        <time>2011-02-13T09:30:09.960</time>
      </trkpt>
      <trkpt lat="44.94652" lon="5.65018">
        <ele>882.335896</ele>
        <time>2011-02-13T09:30:11.959</time>
      </trkpt>
      <trkpt lat="44.94658" lon="5.65021">
        <ele>882.335911</ele>
        <time>2011-02-13T09:30:13.958</time>
      </trkpt>
      <trkpt lat="44.94663" lon="5.65025">
        <ele>881.33593</ele>
        <time>2011-02-13T09:30:15.957</time>
      </trkpt>
      <trkpt lat="44.94668" lon="5.65028">
        <ele>881.335945</ele>
        <time>2011-02-13T09:30:17.976</time>
      </trkpt>
      <trkpt lat="44.94673" lon="5.65031">
        <ele>881.335964</ele>
        <time>2011-02-13T09:30:19.957</time>
      </trkpt>
      <trkpt lat="44.94677" lon="5.65034">
        <ele>881.335972</ele>
        <time>2011-02-13T09:30:21.960</time>
      </trkpt>
      <trkpt lat="44.9468" lon="5.65036">
        <ele>880.335987</ele>
        <time>2011-02-13T09:30:23.965</time>
      </trkpt>
      <trkpt lat="44.94684" lon="5.65039">
        <ele>880.335995</ele>
        <time>2011-02-13T09:30:25.955</time>
      </trkpt>
      <trkpt lat="44.94687" lon="5.65042">
        <ele>880.33601</ele>
        <time>2011-02-13T09:30:27.959</time>
      </trkpt>
      <trkpt lat="44.94691" lon="5.65046">
        <ele>880.336025</ele>
        <time>2011-02-13T09:30:29.955</time>
      </trkpt>
      <trkpt lat="44.94695" lon="5.6505">
        <ele>880.33604</ele>
        <time>2011-02-13T09:30:31.957</time>
      </trkpt>
      <trkpt lat="44.94699" lon="5.65054">
        <ele>880.336056</ele>
        <time>2011-02-13T09:30:33.961</time>
      </trkpt>
      <trkpt lat="44.94704" lon="5.65058">
        <ele>879.336067</ele>
        <time>2011-02-13T09:30:35.960</time>
      </trkpt>
      <trkpt lat="44.94708" lon="5.65063">
        <ele>879.33609</ele>
        <time>2011-02-13T09:30:37.958</time>
      </trkpt>
      <trkpt lat="44.94712" lon="5.65067">
        <ele>878.336105</ele>
        <time>2011-02-13T09:30:39.959</time>
      </trkpt>
      <trkpt lat="44.94717" lon="5.65072">
        <ele>878.336121</ele>
        <time>2011-02-13T09:30:41.958</time>
      </trkpt>
      <trkpt lat="44.94721" lon="5.65077">
        <ele>878.336136</ele>
        <time>2011-02-13T09:30:43.959</time>
      </trkpt>
      <trkpt lat="44.94725" lon="5.65081">
        <ele>878.336151</ele>
        <time>2011-02-13T09:30:45.960</time>
      </trkpt>
      <trkpt lat="44.94729" lon="5.65085">
        <ele>878.336166</ele>
        <time>2011-02-13T09:30:47.961</time>
      </trkpt>
      <trkpt lat="44.94734" lon="5.65089">
        <ele>878.336182</ele>
        <time>2011-02-13T09:30:49.955</time>
      </trkpt>
      <trkpt lat="44.94739" lon="5.65093">
        <ele>878.336201</ele>
        <time>2011-02-13T09:30:51.960</time>
      </trkpt>
      <trkpt lat="44.94744" lon="5.65097">
        <ele>878.336216</ele>
        <time>2011-02-13T09:30:53.959</time>
      </trkpt>
      <trkpt lat="44.9475" lon="5.65101">
        <ele>878.336235</ele>
        <time>2011-02-13T09:30:55.958</time>
      </trkpt>
      <trkpt lat="44.94755" lon="5.65105">
        <ele>878.336254</ele>
        <time>2011-02-13T09:30:57.960</time>
      </trkpt>
      <trkpt lat="44.9476" lon="5.65109">
        <ele>878.336273</ele>
        <time>2011-02-13T09:30:59.959</time>
      </trkpt>
      <trkpt lat="44.94766" lon="5.65113">
        <ele>878.336288</ele>
        <time>2011-02-13T09:31:01.959</time>
      </trkpt>
      <trkpt lat="44.94772" lon="5.65117">
        <ele>878.336308</ele>
        <time>2011-02-13T09:31:03.959</time>
      </trkpt>
      <trkpt lat="44.94778" lon="5.6512">
        <ele>877.336327</ele>
        <time>2011-02-13T09:31:05.959</time>
      </trkpt>
      <trkpt lat="44.94784" lon="5.65123">
        <ele>877.336342</ele>
        <time>2011-02-13T09:31:07.957</time>
      </trkpt>
      <trkpt lat="44.9479" lon="5.65127">
        <ele>877.336365</ele>
        <time>2011-02-13T09:31:09.961</time>
      </trkpt>
      <trkpt lat="44.94796" lon="5.65131">
        <ele>876.33638</ele>
        <time>2011-02-13T09:31:11.961</time>
      </trkpt>
      <trkpt lat="44.94802" lon="5.65135">
        <ele>875.336399</ele>
        <time>2011-02-13T09:31:13.964</time>
      </trkpt>
      <trkpt lat="44.94808" lon="5.65139">
        <ele>875.336414</ele>
        <time>2011-02-13T09:31:15.959</time>
      </trkpt>
      <trkpt lat="44.94813" lon="5.65142">
        <ele>874.336437</ele>
        <time>2011-02-13T09:31:17.959</time>
      </trkpt>
      <trkpt lat="44.94819" lon="5.65146">
        <ele>874.336456</ele>
        <time>2011-02-13T09:31:19.954</time>
      </trkpt>
      <trkpt lat="44.94824" lon="5.6515">
        <ele>874.336472</ele>
        <time>2011-02-13T09:31:21.958</time>
      </trkpt>
      <trkpt lat="44.94829" lon="5.65153">
        <ele>873.336491</ele>
        <time>2011-02-13T09:31:23.958</time>
      </trkpt>
      <trkpt lat="44.94834" lon="5.65156">
        <ele>873.336502</ele>
        <time>2011-02-13T09:31:25.957</time>
      </trkpt>
      <trkpt lat="44.94839" lon="5.6516">
        <ele>873.336517</ele>
        <time>2011-02-13T09:31:27.960</time>
      </trkpt>
      <trkpt lat="44.94844" lon="5.65165">
        <ele>872.336536</ele>
        <time>2011-02-13T09:31:29.959</time>
      </trkpt>
      <trkpt lat="44.94848" lon="5.65169">
        <ele>872.336552</ele>
        <time>2011-02-13T09:31:31.958</time>
      </trkpt>
      <trkpt lat="44.94852" lon="5.65173">
        <ele>872.336571</ele>
        <time>2011-02-13T09:31:33.963</time>
      </trkpt>
      <trkpt lat="44.94856" lon="5.65178">
        <ele>872.336582</ele>
        <time>2011-02-13T09:31:35.961</time>
      </trkpt>
      <trkpt lat="44.9486" lon="5.65182">
        <ele>872.336601</ele>
        <time>2011-02-13T09:31:37.957</time>
      </trkpt>
      <trkpt lat="44.94864" lon="5.65186">
        <ele>872.336613</ele>
        <time>2011-02-13T09:31:39.963</time>
      </trkpt>
      <trkpt lat="44.94869" lon="5.65189">
        <ele>872.336628</ele>
        <time>2011-02-13T09:31:41.961</time>
      </trkpt>
      <trkpt lat="44.94872" lon="5.65193">
        <ele>873.336643</ele>
        <time>2011-02-13T09:31:43.959</time>
      </trkpt>
      <trkpt lat="44.94877" lon="5.65198">
        <ele>872.336658</ele>
        <time>2011-02-13T09:31:45.962</time>
      </trkpt>
      <trkpt lat="44.94881" lon="5.65203">
        <ele>872.336674</ele>
        <time>2011-02-13T09:31:47.970</time>
      </trkpt>
      <trkpt lat="44.94886" lon="5.6521">
        <ele>873.3367</ele>
        <time>2011-02-13T09:31:49.955</time>
      </trkpt>
      <trkpt lat="44.94893" lon="5.65218">
        <ele>872.336727</ele>
        <time>2011-02-13T09:31:51.962</time>
      </trkpt>
      <trkpt lat="44.94899" lon="5.65225">
        <ele>872.33675</ele>
        <time>2011-02-13T09:31:53.962</time>
      </trkpt>
      <trkpt lat="44.94904" lon="5.65231">
        <ele>872.336769</ele>
        <time>2011-02-13T09:31:55.958</time>
      </trkpt>
      <trkpt lat="44.94909" lon="5.65236">
        <ele>871.336784</ele>
        <time>2011-02-13T09:31:58.21</time>
      </trkpt>
      <trkpt lat="44.94914" lon="5.65242">
        <ele>871.336807</ele>
        <time>2011-02-13T09:32:00.962</time>
      </trkpt>
      <trkpt lat="44.94917" lon="5.65246">
        <ele>870.336823</ele>
        <time>2011-02-13T09:32:02.961</time>
      </trkpt>
      <trkpt lat="44.94921" lon="5.65251">
        <ele>870.336834</ele>
        <time>2011-02-13T09:32:04.957</time>
      </trkpt>
      <trkpt lat="44.94925" lon="5.65256">
        <ele>870.336853</ele>
        <time>2011-02-13T09:32:06.961</time>
      </trkpt>
      <trkpt lat="44.94929" lon="5.6526">
        <ele>870.336864</ele>
        <time>2011-02-13T09:32:08.956</time>
      </trkpt>
      <trkpt lat="44.94934" lon="5.65264">
        <ele>870.336884</ele>
        <time>2011-02-13T09:32:10.963</time>
      </trkpt>
      <trkpt lat="44.94939" lon="5.65268">
        <ele>870.336899</ele>
        <time>2011-02-13T09:32:12.958</time>
      </trkpt>
      <trkpt lat="44.94943" lon="5.65273">
        <ele>870.336918</ele>
        <time>2011-02-13T09:32:14.958</time>
      </trkpt>
      <trkpt lat="44.94949" lon="5.65278">
        <ele>870.336937</ele>
        <time>2011-02-13T09:32:16.953</time>
      </trkpt>
      <trkpt lat="44.94954" lon="5.65283">
        <ele>870.33696</ele>
        <time>2011-02-13T09:32:18.957</time>
      </trkpt>
      <trkpt lat="44.9496" lon="5.65288">
        <ele>870.336975</ele>
        <time>2011-02-13T09:32:20.960</time>
      </trkpt>
      <trkpt lat="44.94966" lon="5.65292">
        <ele>870.336998</ele>
        <time>2011-02-13T09:32:22.959</time>
      </trkpt>
      <trkpt lat="44.94971" lon="5.65296">
        <ele>869.337013</ele>
        <time>2011-02-13T09:32:24.959</time>
      </trkpt>
      <trkpt lat="44.94975" lon="5.653">
        <ele>868.337029</ele>
        <time>2011-02-13T09:32:26.959</time>
      </trkpt>
      <trkpt lat="44.9498" lon="5.65305">
        <ele>868.337044</ele>
        <time>2011-02-13T09:32:28.957</time>
      </trkpt>
      <trkpt lat="44.94983" lon="5.65309">
        <ele>868.337059</ele>
        <time>2011-02-13T09:32:30.956</time>
      </trkpt>
      <trkpt lat="44.94987" lon="5.65315">
        <ele>868.337078</ele>
        <time>2011-02-13T09:32:32.956</time>
      </trkpt>
      <trkpt lat="44.9499" lon="5.6532">
        <ele>869.33709</ele>
        <time>2011-02-13T09:32:34.960</time>
      </trkpt>
      <trkpt lat="44.94995" lon="5.65323">
        <ele>869.337105</ele>
        <time>2011-02-13T09:32:36.958</time>
      </trkpt>
      <trkpt lat="44.95001" lon="5.65325">
        <ele>869.337124</ele>
        <time>2011-02-13T09:32:38.958</time>
      </trkpt>
      <trkpt lat="44.95007" lon="5.65326">
        <ele>868.337139</ele>
        <time>2011-02-13T09:32:40.957</time>
      </trkpt>
      <trkpt lat="44.95013" lon="5.65327">
        <ele>868.337151</ele>
        <time>2011-02-13T09:32:42.964</time>
      </trkpt>
      <trkpt lat="44.95019" lon="5.65329">
        <ele>868.337166</ele>
        <time>2011-02-13T09:32:44.961</time>
      </trkpt>
      <trkpt lat="44.95025" lon="5.65331">
        <ele>868.337181</ele>
        <time>2011-02-13T09:32:46.959</time>
      </trkpt>
      <trkpt lat="44.9503" lon="5.65333">
        <ele>868.337196</ele>
        <time>2011-02-13T09:32:48.952</time>
      </trkpt>
      <trkpt lat="44.95036" lon="5.65335">
        <ele>868.337212</ele>
        <time>2011-02-13T09:32:50.965</time>
      </trkpt>
      <trkpt lat="44.95041" lon="5.65338">
        <ele>867.337231</ele>
        <time>2011-02-13T09:32:52.953</time>
      </trkpt>
      <trkpt lat="44.95046" lon="5.65341">
        <ele>867.337242</ele>
        <time>2011-02-13T09:32:54.961</time>
      </trkpt>
      <trkpt lat="44.95051" lon="5.65343">
        <ele>867.337257</ele>
        <time>2011-02-13T09:32:56.956</time>
      </trkpt>
      <trkpt lat="44.95056" lon="5.65346">
        <ele>867.337273</ele>
        <time>2011-02-13T09:32:58.955</time>
      </trkpt>
      <trkpt lat="44.95061" lon="5.65349">
        <ele>867.337288</ele>
        <time>2011-02-13T09:33:00.959</time>
      </trkpt>
      <trkpt lat="44.95065" lon="5.65351">
        <ele>867.337303</ele>
        <time>2011-02-13T09:33:02.958</time>
      </trkpt>
      <trkpt lat="44.9507" lon="5.65353">
        <ele>867.337318</ele>
        <time>2011-02-13T09:33:04.954</time>
      </trkpt>
      <trkpt lat="44.95075" lon="5.65354">
        <ele>868.33733</ele>
        <time>2011-02-13T09:33:06.964</time>
      </trkpt>
      <trkpt lat="44.95079" lon="5.65357">
        <ele>868.337341</ele>
        <time>2011-02-13T09:33:08.960</time>
      </trkpt>
      <trkpt lat="44.95083" lon="5.65359">
        <ele>867.337357</ele>
        <time>2011-02-13T09:33:10.956</time>
      </trkpt>
      <trkpt lat="44.95088" lon="5.65361">
        <ele>867.337364</ele>
        <time>2011-02-13T09:33:12.959</time>
      </trkpt>
      <trkpt lat="44.95093" lon="5.65363">
        <ele>867.337379</ele>
        <time>2011-02-13T09:33:15.14</time>
      </trkpt>
      <trkpt lat="44.951" lon="5.65365">
        <ele>866.337399</ele>
        <time>2011-02-13T09:33:17.960</time>
      </trkpt>
      <trkpt lat="44.95105" lon="5.65367">
        <ele>866.337414</ele>
        <time>2011-02-13T09:33:19.955</time>
      </trkpt>
      <trkpt lat="44.9511" lon="5.65369">
        <ele>866.337429</ele>
        <time>2011-02-13T09:33:21.958</time>
      </trkpt>
      <trkpt lat="44.95115" lon="5.6537">
        <ele>866.33744</ele>
        <time>2011-02-13T09:33:23.958</time>
      </trkpt>
      <trkpt lat="44.9512" lon="5.65372">
        <ele>866.337456</ele>
        <time>2011-02-13T09:33:25.957</time>
      </trkpt>
      <trkpt lat="44.95125" lon="5.65374">
        <ele>865.337471</ele>
        <time>2011-02-13T09:33:27.961</time>
      </trkpt>
      <trkpt lat="44.9513" lon="5.65375">
        <ele>865.337479</ele>
        <time>2011-02-13T09:33:29.956</time>
      </trkpt>
      <trkpt lat="44.95134" lon="5.65377">
        <ele>865.337494</ele>
        <time>2011-02-13T09:33:31.960</time>
      </trkpt>
      <trkpt lat="44.95139" lon="5.65378">
        <ele>864.337505</ele>
        <time>2011-02-13T09:33:33.958</time>
      </trkpt>
      <trkpt lat="44.95144" lon="5.6538">
        <ele>864.337517</ele>
        <time>2011-02-13T09:33:35.959</time>
      </trkpt>
      <trkpt lat="44.95149" lon="5.65382">
        <ele>864.337532</ele>
        <time>2011-02-13T09:33:37.989</time>
      </trkpt>
      <trkpt lat="44.95154" lon="5.65383">
        <ele>864.337547</ele>
        <time>2011-02-13T09:33:39.957</time>
      </trkpt>
      <trkpt lat="44.95159" lon="5.65384">
        <ele>864.337555</ele>
        <time>2011-02-13T09:33:41.960</time>
      </trkpt>
      <trkpt lat="44.95164" lon="5.65386">
        <ele>864.33757</ele>
        <time>2011-02-13T09:33:43.956</time>
      </trkpt>
      <trkpt lat="44.95168" lon="5.65387">
        <ele>863.337585</ele>
        <time>2011-02-13T09:33:45.958</time>
      </trkpt>
      <trkpt lat="44.95173" lon="5.65388">
        <ele>863.337593</ele>
        <time>2011-02-13T09:33:47.959</time>
      </trkpt>
      <trkpt lat="44.95178" lon="5.65389">
        <ele>862.337608</ele>
        <time>2011-02-13T09:33:49.957</time>
      </trkpt>
      <trkpt lat="44.95183" lon="5.6539">
        <ele>861.337616</ele>
        <time>2011-02-13T09:33:51.961</time>
      </trkpt>
      <trkpt lat="44.95188" lon="5.65392">
        <ele>861.337631</ele>
        <time>2011-02-13T09:33:53.960</time>
      </trkpt>
      <trkpt lat="44.95194" lon="5.65393">
        <ele>861.337643</ele>
        <time>2011-02-13T09:33:55.960</time>
      </trkpt>
      <trkpt lat="44.95199" lon="5.65394">
        <ele>861.337662</ele>
        <time>2011-02-13T09:33:57.961</time>
      </trkpt>
      <trkpt lat="44.95205" lon="5.65396">
        <ele>861.337673</ele>
        <time>2011-02-13T09:33:59.957</time>
      </trkpt>
      <trkpt lat="44.9521" lon="5.65397">
        <ele>861.337685</ele>
        <time>2011-02-13T09:34:01.957</time>
      </trkpt>
      <trkpt lat="44.95215" lon="5.65399">
        <ele>861.3377</ele>
        <time>2011-02-13T09:34:03.963</time>
      </trkpt>
      <trkpt lat="44.9522" lon="5.654">
        <ele>860.337711</ele>
        <time>2011-02-13T09:34:05.957</time>
      </trkpt>
      <trkpt lat="44.95225" lon="5.65401">
        <ele>860.337727</ele>
        <time>2011-02-13T09:34:07.956</time>
      </trkpt>
      <trkpt lat="44.9523" lon="5.65403">
        <ele>860.337742</ele>
        <time>2011-02-13T09:34:09.968</time>
      </trkpt>
      <trkpt lat="44.95235" lon="5.65405">
        <ele>860.337753</ele>
        <time>2011-02-13T09:34:11.961</time>
      </trkpt>
      <trkpt lat="44.9524" lon="5.65406">
        <ele>860.337769</ele>
        <time>2011-02-13T09:34:13.958</time>
      </trkpt>
      <trkpt lat="44.95245" lon="5.65408">
        <ele>860.337784</ele>
        <time>2011-02-13T09:34:15.962</time>
      </trkpt>
      <trkpt lat="44.9525" lon="5.6541">
        <ele>860.337791</ele>
        <time>2011-02-13T09:34:17.956</time>
      </trkpt>
      <trkpt lat="44.95255" lon="5.65412">
        <ele>860.337807</ele>
        <time>2011-02-13T09:34:19.957</time>
      </trkpt>
      <trkpt lat="44.9526" lon="5.65413">
        <ele>860.337822</ele>
        <time>2011-02-13T09:34:21.979</time>
      </trkpt>
      <trkpt lat="44.95265" lon="5.65414">
        <ele>859.33783</ele>
        <time>2011-02-13T09:34:23.955</time>
      </trkpt>
      <trkpt lat="44.9527" lon="5.65415">
        <ele>859.337841</ele>
        <time>2011-02-13T09:34:25.957</time>
      </trkpt>
      <trkpt lat="44.95274" lon="5.65416">
        <ele>859.337856</ele>
        <time>2011-02-13T09:34:27.964</time>
      </trkpt>
      <trkpt lat="44.95279" lon="5.65417">
        <ele>858.337868</ele>
        <time>2011-02-13T09:34:29.956</time>
      </trkpt>
      <trkpt lat="44.95285" lon="5.65419">
        <ele>858.337883</ele>
        <time>2011-02-13T09:34:31.956</time>
      </trkpt>
      <trkpt lat="44.9529" lon="5.6542">
        <ele>858.337894</ele>
        <time>2011-02-13T09:34:33.960</time>
      </trkpt>
      <trkpt lat="44.95295" lon="5.65421">
        <ele>858.337906</ele>
        <time>2011-02-13T09:34:35.963</time>
      </trkpt>
      <trkpt lat="44.953" lon="5.65422">
        <ele>858.337921</ele>
        <time>2011-02-13T09:34:37.956</time>
      </trkpt>
      <trkpt lat="44.95305" lon="5.65424">
        <ele>858.337936</ele>
        <time>2011-02-13T09:34:39.958</time>
      </trkpt>
      <trkpt lat="44.9531" lon="5.65426">
        <ele>857.337948</ele>
        <time>2011-02-13T09:34:41.957</time>
      </trkpt>
      <trkpt lat="44.95315" lon="5.65427">
        <ele>857.337967</ele>
        <time>2011-02-13T09:34:43.957</time>
      </trkpt>
      <trkpt lat="44.9532" lon="5.65429">
        <ele>857.337975</ele>
        <time>2011-02-13T09:34:45.959</time>
      </trkpt>
      <trkpt lat="44.95324" lon="5.65431">
        <ele>856.337982</ele>
        <time>2011-02-13T09:34:47.958</time>
      </trkpt>
      <trkpt lat="44.95329" lon="5.65433">
        <ele>857.337997</ele>
        <time>2011-02-13T09:34:49.953</time>
      </trkpt>
      <trkpt lat="44.95333" lon="5.65434">
        <ele>857.338013</ele>
        <time>2011-02-13T09:34:51.958</time>
      </trkpt>
      <trkpt lat="44.95338" lon="5.65436">
        <ele>857.338024</ele>
        <time>2011-02-13T09:34:53.956</time>
      </trkpt>
      <trkpt lat="44.95344" lon="5.65438">
        <ele>856.338039</ele>
        <time>2011-02-13T09:34:55.956</time>
      </trkpt>
      <trkpt lat="44.95349" lon="5.6544">
        <ele>856.338055</ele>
        <time>2011-02-13T09:34:57.997</time>
      </trkpt>
      <trkpt lat="44.95353" lon="5.65441">
        <ele>856.338066</ele>
        <time>2011-02-13T09:34:59.963</time>
      </trkpt>
      <trkpt lat="44.95358" lon="5.65443">
        <ele>856.338081</ele>
        <time>2011-02-13T09:35:01.959</time>
      </trkpt>
      <trkpt lat="44.95364" lon="5.65445">
        <ele>856.338093</ele>
        <time>2011-02-13T09:35:03.958</time>
      </trkpt>
      <trkpt lat="44.95369" lon="5.65446">
        <ele>856.338108</ele>
        <time>2011-02-13T09:35:05.960</time>
      </trkpt>
      <trkpt lat="44.95375" lon="5.65448">
        <ele>856.338123</ele>
        <time>2011-02-13T09:35:07.957</time>
      </trkpt>
      <trkpt lat="44.9538" lon="5.6545">
        <ele>855.338142</ele>
        <time>2011-02-13T09:35:09.960</time>
      </trkpt>
      <trkpt lat="44.95386" lon="5.65452">
        <ele>855.338154</ele>
        <time>2011-02-13T09:35:11.955</time>
      </trkpt>
      <trkpt lat="44.95391" lon="5.65453">
        <ele>854.338165</ele>
        <time>2011-02-13T09:35:13.959</time>
      </trkpt>
      <trkpt lat="44.95397" lon="5.65455">
        <ele>854.338181</ele>
        <time>2011-02-13T09:35:15.957</time>
      </trkpt>
      <trkpt lat="44.95402" lon="5.65456">
        <ele>854.338196</ele>
        <time>2011-02-13T09:35:17.957</time>
      </trkpt>
      <trkpt lat="44.95407" lon="5.65458">
        <ele>855.338207</ele>
        <time>2011-02-13T09:35:19.953</time>
      </trkpt>
      <trkpt lat="44.95413" lon="5.6546">
        <ele>854.338223</ele>
        <time>2011-02-13T09:35:21.960</time>
      </trkpt>
      <trkpt lat="44.95418" lon="5.65462">
        <ele>853.338238</ele>
        <time>2011-02-13T09:35:23.959</time>
      </trkpt>
      <trkpt lat="44.95424" lon="5.65464">
        <ele>853.338257</ele>
        <time>2011-02-13T09:35:25.960</time>
      </trkpt>
      <trkpt lat="44.9543" lon="5.65465">
        <ele>853.338272</ele>
        <time>2011-02-13T09:35:27.957</time>
      </trkpt>
      <trkpt lat="44.95435" lon="5.65467">
        <ele>853.338284</ele>
        <time>2011-02-13T09:35:29.958</time>
      </trkpt>
      <trkpt lat="44.95441" lon="5.65469">
        <ele>853.338295</ele>
        <time>2011-02-13T09:35:31.991</time>
      </trkpt>
      <trkpt lat="44.95447" lon="5.65471">
        <ele>853.33831</ele>
        <time>2011-02-13T09:35:33.956</time>
      </trkpt>
      <trkpt lat="44.95452" lon="5.65472">
        <ele>853.338322</ele>
        <time>2011-02-13T09:35:35.959</time>
      </trkpt>
      <trkpt lat="44.95457" lon="5.65474">
        <ele>853.338341</ele>
        <time>2011-02-13T09:35:37.954</time>
      </trkpt>
      <trkpt lat="44.95463" lon="5.65475">
        <ele>853.338356</ele>
        <time>2011-02-13T09:35:39.963</time>
      </trkpt>
      <trkpt lat="44.95468" lon="5.65477">
        <ele>853.338371</ele>
        <time>2011-02-13T09:35:41.958</time>
      </trkpt>
      <trkpt lat="44.95473" lon="5.65478">
        <ele>853.338379</ele>
        <time>2011-02-13T09:35:43.956</time>
      </trkpt>
      <trkpt lat="44.95479" lon="5.65479">
        <ele>853.338394</ele>
        <time>2011-02-13T09:35:45.961</time>
      </trkpt>
      <trkpt lat="44.95486" lon="5.6548">
        <ele>853.338417</ele>
        <time>2011-02-13T09:35:47.959</time>
      </trkpt>
      <trkpt lat="44.95492" lon="5.65482">
        <ele>853.338428</ele>
        <time>2011-02-13T09:35:49.959</time>
      </trkpt>
      <trkpt lat="44.95499" lon="5.65483">
        <ele>852.338444</ele>
        <time>2011-02-13T09:35:51.961</time>
      </trkpt>
      <trkpt lat="44.95504" lon="5.65485">
        <ele>852.338463</ele>
        <time>2011-02-13T09:35:53.959</time>
      </trkpt>
      <trkpt lat="44.95509" lon="5.65486">
        <ele>852.338474</ele>
        <time>2011-02-13T09:35:55.953</time>
      </trkpt>
      <trkpt lat="44.95514" lon="5.65488">
        <ele>852.33849</ele>
        <time>2011-02-13T09:35:57.956</time>
      </trkpt>
      <trkpt lat="44.95519" lon="5.6549">
        <ele>852.338501</ele>
        <time>2011-02-13T09:35:59.960</time>
      </trkpt>
      <trkpt lat="44.95524" lon="5.65491">
        <ele>852.338509</ele>
        <time>2011-02-13T09:36:01.958</time>
      </trkpt>
      <trkpt lat="44.95529" lon="5.65493">
        <ele>852.338524</ele>
        <time>2011-02-13T09:36:03.959</time>
      </trkpt>
      <trkpt lat="44.95534" lon="5.65494">
        <ele>852.338539</ele>
        <time>2011-02-13T09:36:05.958</time>
      </trkpt>
      <trkpt lat="44.95539" lon="5.65495">
        <ele>852.338547</ele>
        <time>2011-02-13T09:36:07.957</time>
      </trkpt>
      <trkpt lat="44.95544" lon="5.65496">
        <ele>852.338562</ele>
        <time>2011-02-13T09:36:09.961</time>
      </trkpt>
      <trkpt lat="44.95549" lon="5.65498">
        <ele>852.338577</ele>
        <time>2011-02-13T09:36:11.954</time>
      </trkpt>
      <trkpt lat="44.95554" lon="5.655">
        <ele>852.338593</ele>
        <time>2011-02-13T09:36:13.955</time>
      </trkpt>
      <trkpt lat="44.95559" lon="5.65501">
        <ele>852.338604</ele>
        <time>2011-02-13T09:36:15.958</time>
      </trkpt>
      <trkpt lat="44.95565" lon="5.65502">
        <ele>851.338615</ele>
        <time>2011-02-13T09:36:17.968</time>
      </trkpt>
      <trkpt lat="44.9557" lon="5.65503">
        <ele>852.338631</ele>
        <time>2011-02-13T09:36:19.955</time>
      </trkpt>
      <trkpt lat="44.95575" lon="5.65504">
        <ele>851.338642</ele>
        <time>2011-02-13T09:36:21.957</time>
      </trkpt>
      <trkpt lat="44.95579" lon="5.65505">
        <ele>851.33865</ele>
        <time>2011-02-13T09:36:23.959</time>
      </trkpt>
      <trkpt lat="44.95583" lon="5.65505">
        <ele>851.338665</ele>
        <time>2011-02-13T09:36:25.954</time>
      </trkpt>
      <trkpt lat="44.95586" lon="5.65506">
        <ele>852.338669</ele>
        <time>2011-02-13T09:36:27.959</time>
      </trkpt>
      <trkpt lat="44.9559" lon="5.65507">
        <ele>851.33868</ele>
        <time>2011-02-13T09:36:29.957</time>
      </trkpt>
      <trkpt lat="44.95594" lon="5.65507">
        <ele>851.338688</ele>
        <time>2011-02-13T09:36:31.997</time>
      </trkpt>
      <trkpt lat="44.95598" lon="5.65507">
        <ele>851.338699</ele>
        <time>2011-02-13T09:36:33.958</time>
      </trkpt>
      <trkpt lat="44.95602" lon="5.65507">
        <ele>851.338703</ele>
        <time>2011-02-13T09:36:35.956</time>
      </trkpt>
      <trkpt lat="44.95606" lon="5.65507">
        <ele>852.338715</ele>
        <time>2011-02-13T09:36:37.954</time>
      </trkpt>
      <trkpt lat="44.95611" lon="5.65507">
        <ele>852.338726</ele>
        <time>2011-02-13T09:36:39.959</time>
      </trkpt>
      <trkpt lat="44.95615" lon="5.65507">
        <ele>852.338737</ele>
        <time>2011-02-13T09:36:41.960</time>
      </trkpt>
      <trkpt lat="44.9562" lon="5.65507">
        <ele>852.338749</ele>
        <time>2011-02-13T09:36:43.962</time>
      </trkpt>
      <trkpt lat="44.95625" lon="5.65507">
        <ele>853.338757</ele>
        <time>2011-02-13T09:36:45.958</time>
      </trkpt>
      <trkpt lat="44.95631" lon="5.65507">
        <ele>853.338768</ele>
        <time>2011-02-13T09:36:47.956</time>
      </trkpt>
      <trkpt lat="44.95637" lon="5.65506">
        <ele>853.338779</ele>
        <time>2011-02-13T09:36:49.955</time>
      </trkpt>
      <trkpt lat="44.95642" lon="5.65504">
        <ele>852.338787</ele>
        <time>2011-02-13T09:36:51.960</time>
      </trkpt>
      <trkpt lat="44.95648" lon="5.65503">
        <ele>852.338799</ele>
        <time>2011-02-13T09:36:53.955</time>
      </trkpt>
      <trkpt lat="44.95654" lon="5.65501">
        <ele>851.33881</ele>
        <time>2011-02-13T09:36:55.957</time>
      </trkpt>
      <trkpt lat="44.9566" lon="5.65499">
        <ele>850.338818</ele>
        <time>2011-02-13T09:36:57.957</time>
      </trkpt>
      <trkpt lat="44.95665" lon="5.65497">
        <ele>849.338829</ele>
        <time>2011-02-13T09:36:59.958</time>
      </trkpt>
      <trkpt lat="44.95671" lon="5.65495">
        <ele>849.338837</ele>
        <time>2011-02-13T09:37:01.955</time>
      </trkpt>
      <trkpt lat="44.95676" lon="5.65493">
        <ele>849.33884</ele>
        <time>2011-02-13T09:37:03.959</time>
      </trkpt>
      <trkpt lat="44.9568" lon="5.65491">
        <ele>848.338848</ele>
        <time>2011-02-13T09:37:05.955</time>
      </trkpt>
      <trkpt lat="44.95685" lon="5.65489">
        <ele>848.33886</ele>
        <time>2011-02-13T09:37:07.953</time>
      </trkpt>
      <trkpt lat="44.9569" lon="5.65487">
        <ele>848.338867</ele>
        <time>2011-02-13T09:37:09.961</time>
      </trkpt>
      <trkpt lat="44.95695" lon="5.65485">
        <ele>848.338875</ele>
        <time>2011-02-13T09:37:11.957</time>
      </trkpt>
      <trkpt lat="44.957" lon="5.65482">
        <ele>848.338882</ele>
        <time>2011-02-13T09:37:13.956</time>
      </trkpt>
      <trkpt lat="44.95705" lon="5.6548">
        <ele>848.338886</ele>
        <time>2011-02-13T09:37:15.959</time>
      </trkpt>
      <trkpt lat="44.95709" lon="5.65477">
        <ele>848.338894</ele>
        <time>2011-02-13T09:37:17.959</time>
      </trkpt>
      <trkpt lat="44.95714" lon="5.65474">
        <ele>848.338898</ele>
        <time>2011-02-13T09:37:19.957</time>
      </trkpt>
      <trkpt lat="44.95719" lon="5.65472">
        <ele>848.338905</ele>
        <time>2011-02-13T09:37:21.961</time>
      </trkpt>
      <trkpt lat="44.95723" lon="5.65469">
        <ele>848.338913</ele>
        <time>2011-02-13T09:37:23.953</time>
      </trkpt>
      <trkpt lat="44.95728" lon="5.65465">
        <ele>848.338917</ele>
        <time>2011-02-13T09:37:25.955</time>
      </trkpt>
      <trkpt lat="44.95733" lon="5.65461">
        <ele>848.338921</ele>
        <time>2011-02-13T09:37:27.959</time>
      </trkpt>
      <trkpt lat="44.95737" lon="5.65458">
        <ele>848.338928</ele>
        <time>2011-02-13T09:37:29.956</time>
      </trkpt>
      <trkpt lat="44.95742" lon="5.65453">
        <ele>848.338928</ele>
        <time>2011-02-13T09:37:31.954</time>
      </trkpt>
      <trkpt lat="44.95746" lon="5.65449">
        <ele>847.338932</ele>
        <time>2011-02-13T09:37:33.958</time>
      </trkpt>
      <trkpt lat="44.95751" lon="5.65445">
        <ele>847.338936</ele>
        <time>2011-02-13T09:37:35.956</time>
      </trkpt>
      <trkpt lat="44.95755" lon="5.65441">
        <ele>847.338936</ele>
        <time>2011-02-13T09:37:37.957</time>
      </trkpt>
      <trkpt lat="44.95759" lon="5.65437">
        <ele>846.338943</ele>
        <time>2011-02-13T09:37:39.960</time>
      </trkpt>
      <trkpt lat="44.95764" lon="5.65434">
        <ele>845.338947</ele>
        <time>2011-02-13T09:37:41.955</time>
      </trkpt>
      <trkpt lat="44.95768" lon="5.6543">
        <ele>845.338951</ele>
        <time>2011-02-13T09:37:43.958</time>
      </trkpt>
      <trkpt lat="44.95772" lon="5.65426">
        <ele>845.338951</ele>
        <time>2011-02-13T09:37:45.958</time>
      </trkpt>
      <trkpt lat="44.95776" lon="5.65422">
        <ele>844.338959</ele>
        <time>2011-02-13T09:37:47.956</time>
      </trkpt>
      <trkpt lat="44.95779" lon="5.65418">
        <ele>844.338955</ele>
        <time>2011-02-13T09:37:49.956</time>
      </trkpt>
      <trkpt lat="44.95783" lon="5.65415">
        <ele>844.338959</ele>
        <time>2011-02-13T09:37:51.955</time>
      </trkpt>
      <trkpt lat="44.95787" lon="5.65411">
        <ele>844.338966</ele>
        <time>2011-02-13T09:37:53.958</time>
      </trkpt>
      <trkpt lat="44.95791" lon="5.65407">
        <ele>844.338963</ele>
        <time>2011-02-13T09:37:55.980</time>
      </trkpt>
      <trkpt lat="44.95795" lon="5.65403">
        <ele>844.338966</ele>
        <time>2011-02-13T09:37:57.957</time>
      </trkpt>
      <trkpt lat="44.95799" lon="5.65399">
        <ele>845.338966</ele>
        <time>2011-02-13T09:37:59.957</time>
      </trkpt>
      <trkpt lat="44.95803" lon="5.65395">
        <ele>845.338974</ele>
        <time>2011-02-13T09:38:01.955</time>
      </trkpt>
      <trkpt lat="44.95808" lon="5.6539">
        <ele>845.338974</ele>
        <time>2011-02-13T09:38:03.956</time>
      </trkpt>
      <trkpt lat="44.95812" lon="5.65385">
        <ele>846.338978</ele>
        <time>2011-02-13T09:38:05.953</time>
      </trkpt>
      <trkpt lat="44.95816" lon="5.6538">
        <ele>845.338978</ele>
        <time>2011-02-13T09:38:07.955</time>
      </trkpt>
      <trkpt lat="44.9582" lon="5.65375">
        <ele>845.338982</ele>
        <time>2011-02-13T09:38:09.958</time>
      </trkpt>
      <trkpt lat="44.95824" lon="5.6537">
        <ele>845.338982</ele>
        <time>2011-02-13T09:38:11.968</time>
      </trkpt>
      <trkpt lat="44.95828" lon="5.65365">
        <ele>845.338982</ele>
        <time>2011-02-13T09:38:13.957</time>
      </trkpt>
      <trkpt lat="44.95832" lon="5.6536">
        <ele>845.338978</ele>
        <time>2011-02-13T09:38:15.960</time>
      </trkpt>
      <trkpt lat="44.95836" lon="5.65355">
        <ele>845.338982</ele>
        <time>2011-02-13T09:38:17.955</time>
      </trkpt>
      <trkpt lat="44.95839" lon="5.6535">
        <ele>844.338982</ele>
        <time>2011-02-13T09:38:19.954</time>
      </trkpt>
      <trkpt lat="44.95843" lon="5.65345">
        <ele>845.338982</ele>
        <time>2011-02-13T09:38:21.958</time>
      </trkpt>
      <trkpt lat="44.95847" lon="5.65339">
        <ele>845.338982</ele>
        <time>2011-02-13T09:38:23.958</time>
      </trkpt>
      <trkpt lat="44.9585" lon="5.65334">
        <ele>845.338982</ele>
        <time>2011-02-13T09:38:25.953</time>
      </trkpt>
      <trkpt lat="44.95854" lon="5.65329">
        <ele>845.338985</ele>
        <time>2011-02-13T09:38:27.956</time>
      </trkpt>
      <trkpt lat="44.95857" lon="5.65323">
        <ele>845.338982</ele>
        <time>2011-02-13T09:38:29.960</time>
      </trkpt>
      <trkpt lat="44.95861" lon="5.65318">
        <ele>845.338982</ele>
        <time>2011-02-13T09:38:31.954</time>
      </trkpt>
      <trkpt lat="44.95865" lon="5.65313">
        <ele>845.338982</ele>
        <time>2011-02-13T09:38:33.958</time>
      </trkpt>
      <trkpt lat="44.95868" lon="5.65308">
        <ele>845.338982</ele>
        <time>2011-02-13T09:38:35.958</time>
      </trkpt>
      <trkpt lat="44.95872" lon="5.65303">
        <ele>845.338982</ele>
        <time>2011-02-13T09:38:37.958</time>
      </trkpt>
      <trkpt lat="44.95875" lon="5.65298">
        <ele>845.338982</ele>
        <time>2011-02-13T09:38:39.957</time>
      </trkpt>
      <trkpt lat="44.95879" lon="5.65293">
        <ele>845.338982</ele>
        <time>2011-02-13T09:38:41.958</time>
      </trkpt>
      <trkpt lat="44.95882" lon="5.65288">
        <ele>845.338982</ele>
        <time>2011-02-13T09:38:43.955</time>
      </trkpt>
      <trkpt lat="44.95885" lon="5.65282">
        <ele>845.338982</ele>
        <time>2011-02-13T09:38:45.960</time>
      </trkpt>
      <trkpt lat="44.95888" lon="5.65277">
        <ele>844.338978</ele>
        <time>2011-02-13T09:38:47.958</time>
      </trkpt>
      <trkpt lat="44.95892" lon="5.65272">
        <ele>845.338978</ele>
        <time>2011-02-13T09:38:49.954</time>
      </trkpt>
      <trkpt lat="44.95895" lon="5.65266">
        <ele>845.338978</ele>
        <time>2011-02-13T09:38:51.957</time>
      </trkpt>
      <trkpt lat="44.95898" lon="5.6526">
        <ele>845.338974</ele>
        <time>2011-02-13T09:38:53.959</time>
      </trkpt>
      <trkpt lat="44.95901" lon="5.65255">
        <ele>845.338974</ele>
        <time>2011-02-13T09:38:55.959</time>
      </trkpt>
      <trkpt lat="44.95904" lon="5.6525">
        <ele>845.338974</ele>
        <time>2011-02-13T09:38:57.963</time>
      </trkpt>
      <trkpt lat="44.95907" lon="5.65244">
        <ele>845.338974</ele>
        <time>2011-02-13T09:38:59.958</time>
      </trkpt>
      <trkpt lat="44.9591" lon="5.65239">
        <ele>845.33897</ele>
        <time>2011-02-13T09:39:01.999</time>
      </trkpt>
      <trkpt lat="44.95913" lon="5.65233">
        <ele>845.338966</ele>
        <time>2011-02-13T09:39:03.956</time>
      </trkpt>
      <trkpt lat="44.95915" lon="5.65227">
        <ele>844.338959</ele>
        <time>2011-02-13T09:39:05.956</time>
      </trkpt>
      <trkpt lat="44.95918" lon="5.65221">
        <ele>844.338959</ele>
        <time>2011-02-13T09:39:07.952</time>
      </trkpt>
      <trkpt lat="44.95921" lon="5.65216">
        <ele>844.338959</ele>
        <time>2011-02-13T09:39:09.955</time>
      </trkpt>
      <trkpt lat="44.95923" lon="5.65209">
        <ele>844.338955</ele>
        <time>2011-02-13T09:39:11.954</time>
      </trkpt>
      <trkpt lat="44.95926" lon="5.65203">
        <ele>844.338947</ele>
        <time>2011-02-13T09:39:13.953</time>
      </trkpt>
      <trkpt lat="44.95928" lon="5.65196">
        <ele>844.338943</ele>
        <time>2011-02-13T09:39:15.958</time>
      </trkpt>
      <trkpt lat="44.95931" lon="5.6519">
        <ele>844.338943</ele>
        <time>2011-02-13T09:39:17.955</time>
      </trkpt>
      <trkpt lat="44.95934" lon="5.65183">
        <ele>843.338936</ele>
        <time>2011-02-13T09:39:19.955</time>
      </trkpt>
      <trkpt lat="44.95937" lon="5.65176">
        <ele>843.338932</ele>
        <time>2011-02-13T09:39:21.960</time>
      </trkpt>
      <trkpt lat="44.9594" lon="5.65169">
        <ele>843.338928</ele>
        <time>2011-02-13T09:39:23.954</time>
      </trkpt>
      <trkpt lat="44.95942" lon="5.65162">
        <ele>842.338921</ele>
        <time>2011-02-13T09:39:25.954</time>
      </trkpt>
      <trkpt lat="44.95945" lon="5.65155">
        <ele>840.338921</ele>
        <time>2011-02-13T09:39:27.973</time>
      </trkpt>
      <trkpt lat="44.95948" lon="5.65149">
        <ele>840.338913</ele>
        <time>2011-02-13T09:39:29.957</time>
      </trkpt>
      <trkpt lat="44.95951" lon="5.65142">
        <ele>839.338909</ele>
        <time>2011-02-13T09:39:31.963</time>
      </trkpt>
      <trkpt lat="44.95953" lon="5.65136">
        <ele>839.338905</ele>
        <time>2011-02-13T09:39:33.950</time>
      </trkpt>
      <trkpt lat="44.95956" lon="5.65129">
        <ele>838.338898</ele>
        <time>2011-02-13T09:39:35.946</time>
      </trkpt>
      <trkpt lat="44.95958" lon="5.65122">
        <ele>838.338894</ele>
        <time>2011-02-13T09:39:37.958</time>
      </trkpt>
      <trkpt lat="44.95961" lon="5.65116">
        <ele>837.33889</ele>
        <time>2011-02-13T09:39:39.957</time>
      </trkpt>
      <trkpt lat="44.95963" lon="5.65109">
        <ele>836.338886</ele>
        <time>2011-02-13T09:39:41.957</time>
      </trkpt>
      <trkpt lat="44.95965" lon="5.65102">
        <ele>836.338879</ele>
        <time>2011-02-13T09:39:43.955</time>
      </trkpt>
      <trkpt lat="44.95968" lon="5.65095">
        <ele>835.338875</ele>
        <time>2011-02-13T09:39:46</time>
      </trkpt>
      <trkpt lat="44.95971" lon="5.65085">
        <ele>834.338867</ele>
        <time>2011-02-13T09:39:48.960</time>
      </trkpt>
      <trkpt lat="44.95974" lon="5.65078">
        <ele>834.338863</ele>
        <time>2011-02-13T09:39:50.955</time>
      </trkpt>
      <trkpt lat="44.95977" lon="5.65072">
        <ele>833.338856</ele>
        <time>2011-02-13T09:39:52.955</time>
      </trkpt>
      <trkpt lat="44.9598" lon="5.65066">
        <ele>833.33886</ele>
        <time>2011-02-13T09:39:54.956</time>
      </trkpt>
      <trkpt lat="44.95983" lon="5.6506">
        <ele>833.33886</ele>
        <time>2011-02-13T09:39:56.959</time>
      </trkpt>
      <trkpt lat="44.95986" lon="5.65055">
        <ele>833.338852</ele>
        <time>2011-02-13T09:39:58.959</time>
      </trkpt>
      <trkpt lat="44.95989" lon="5.65049">
        <ele>832.338848</ele>
        <time>2011-02-13T09:40:00.962</time>
      </trkpt>
      <trkpt lat="44.95992" lon="5.65044">
        <ele>832.338852</ele>
        <time>2011-02-13T09:40:02.962</time>
      </trkpt>
      <trkpt lat="44.95996" lon="5.65039">
        <ele>832.338852</ele>
        <time>2011-02-13T09:40:04.955</time>
      </trkpt>
      <trkpt lat="44.95999" lon="5.65035">
        <ele>831.338852</ele>
        <time>2011-02-13T09:40:06.960</time>
      </trkpt>
      <trkpt lat="44.96003" lon="5.65032">
        <ele>831.338856</ele>
        <time>2011-02-13T09:40:08.954</time>
      </trkpt>
      <trkpt lat="44.96008" lon="5.65031">
        <ele>831.338863</ele>
        <time>2011-02-13T09:40:10.956</time>
      </trkpt>
      <trkpt lat="44.96013" lon="5.6503">
        <ele>831.338871</ele>
        <time>2011-02-13T09:40:12.960</time>
      </trkpt>
      <trkpt lat="44.96018" lon="5.6503">
        <ele>831.338882</ele>
        <time>2011-02-13T09:40:14.997</time>
      </trkpt>
      <trkpt lat="44.96023" lon="5.65033">
        <ele>831.338902</ele>
        <time>2011-02-13T09:40:16.956</time>
      </trkpt>
      <trkpt lat="44.96029" lon="5.65036">
        <ele>831.338921</ele>
        <time>2011-02-13T09:40:18.958</time>
      </trkpt>
      <trkpt lat="44.96033" lon="5.65041">
        <ele>831.338936</ele>
        <time>2011-02-13T09:40:20.953</time>
      </trkpt>
      <trkpt lat="44.96037" lon="5.65047">
        <ele>831.338955</ele>
        <time>2011-02-13T09:40:22.953</time>
      </trkpt>
      <trkpt lat="44.96041" lon="5.65052">
        <ele>831.33897</ele>
        <time>2011-02-13T09:40:24.957</time>
      </trkpt>
      <trkpt lat="44.96045" lon="5.65057">
        <ele>830.338989</ele>
        <time>2011-02-13T09:40:26.958</time>
      </trkpt>
      <trkpt lat="44.96049" lon="5.65062">
        <ele>830.339005</ele>
        <time>2011-02-13T09:40:28.961</time>
      </trkpt>
      <trkpt lat="44.96053" lon="5.65067">
        <ele>830.339016</ele>
        <time>2011-02-13T09:40:30.960</time>
      </trkpt>
      <trkpt lat="44.96057" lon="5.65072">
        <ele>831.339031</ele>
        <time>2011-02-13T09:40:32.955</time>
      </trkpt>
      <trkpt lat="44.96061" lon="5.65077">
        <ele>831.339046</ele>
        <time>2011-02-13T09:40:34.952</time>
      </trkpt>
      <trkpt lat="44.96064" lon="5.65082">
        <ele>831.339066</ele>
        <time>2011-02-13T09:40:36.964</time>
      </trkpt>
      <trkpt lat="44.96067" lon="5.65088">
        <ele>831.339077</ele>
        <time>2011-02-13T09:40:38.955</time>
      </trkpt>
      <trkpt lat="44.96069" lon="5.65094">
        <ele>831.339096</ele>
        <time>2011-02-13T09:40:40.961</time>
      </trkpt>
      <trkpt lat="44.96071" lon="5.651">
        <ele>831.339104</ele>
        <time>2011-02-13T09:40:42.954</time>
      </trkpt>
      <trkpt lat="44.96072" lon="5.65106">
        <ele>832.339119</ele>
        <time>2011-02-13T09:40:44.958</time>
      </trkpt>
      <trkpt lat="44.96073" lon="5.65113">
        <ele>833.33913</ele>
        <time>2011-02-13T09:40:46.978</time>
      </trkpt>
      <trkpt lat="44.96074" lon="5.6512">
        <ele>833.339142</ele>
        <time>2011-02-13T09:40:48.950</time>
      </trkpt>
      <trkpt lat="44.96076" lon="5.65127">
        <ele>833.339157</ele>
        <time>2011-02-13T09:40:50.956</time>
      </trkpt>
      <trkpt lat="44.96076" lon="5.65134">
        <ele>833.339169</ele>
        <time>2011-02-13T09:40:52.956</time>
      </trkpt>
      <trkpt lat="44.96075" lon="5.65141">
        <ele>834.339176</ele>
        <time>2011-02-13T09:40:54.956</time>
      </trkpt>
      <trkpt lat="44.96074" lon="5.65148">
        <ele>834.339184</ele>
        <time>2011-02-13T09:40:56.955</time>
      </trkpt>
      <trkpt lat="44.96073" lon="5.65155">
        <ele>834.339195</ele>
        <time>2011-02-13T09:40:58.953</time>
      </trkpt>
      <trkpt lat="44.96071" lon="5.65162">
        <ele>834.339203</ele>
        <time>2011-02-13T09:41:00.957</time>
      </trkpt>
      <trkpt lat="44.9607" lon="5.65169">
        <ele>835.339207</ele>
        <time>2011-02-13T09:41:02.957</time>
      </trkpt>
      <trkpt lat="44.96068" lon="5.65176">
        <ele>835.339214</ele>
        <time>2011-02-13T09:41:04.951</time>
      </trkpt>
      <trkpt lat="44.96066" lon="5.65183">
        <ele>835.339226</ele>
        <time>2011-02-13T09:41:06.959</time>
      </trkpt>
      <trkpt lat="44.96064" lon="5.6519">
        <ele>835.339226</ele>
        <time>2011-02-13T09:41:08.955</time>
      </trkpt>
      <trkpt lat="44.96062" lon="5.65197">
        <ele>835.339233</ele>
        <time>2011-02-13T09:41:10.961</time>
      </trkpt>
      <trkpt lat="44.9606" lon="5.65204">
        <ele>834.339241</ele>
        <time>2011-02-13T09:41:12.957</time>
      </trkpt>
      <trkpt lat="44.96058" lon="5.65211">
        <ele>834.339249</ele>
        <time>2011-02-13T09:41:14.956</time>
      </trkpt>
      <trkpt lat="44.96057" lon="5.65218">
        <ele>835.339252</ele>
        <time>2011-02-13T09:41:16.952</time>
      </trkpt>
      <trkpt lat="44.96055" lon="5.65225">
        <ele>835.339264</ele>
        <time>2011-02-13T09:41:18.956</time>
      </trkpt>
      <trkpt lat="44.96055" lon="5.65233">
        <ele>834.339272</ele>
        <time>2011-02-13T09:41:20.954</time>
      </trkpt>
      <trkpt lat="44.96054" lon="5.6524">
        <ele>833.339287</ele>
        <time>2011-02-13T09:41:22.955</time>
      </trkpt>
      <trkpt lat="44.96054" lon="5.65248">
        <ele>833.339294</ele>
        <time>2011-02-13T09:41:24.959</time>
      </trkpt>
      <trkpt lat="44.96054" lon="5.65255">
        <ele>833.339302</ele>
        <time>2011-02-13T09:41:26.957</time>
      </trkpt>
      <trkpt lat="44.96055" lon="5.65263">
        <ele>832.339317</ele>
        <time>2011-02-13T09:41:28.952</time>
      </trkpt>
      <trkpt lat="44.96056" lon="5.65271">
        <ele>832.339336</ele>
        <time>2011-02-13T09:41:30.956</time>
      </trkpt>
      <trkpt lat="44.96058" lon="5.65279">
        <ele>833.339348</ele>
        <time>2011-02-13T09:41:32.980</time>
      </trkpt>
      <trkpt lat="44.9606" lon="5.65287">
        <ele>832.339367</ele>
        <time>2011-02-13T09:41:34.954</time>
      </trkpt>
      <trkpt lat="44.96063" lon="5.65294">
        <ele>832.339386</ele>
        <time>2011-02-13T09:41:36.958</time>
      </trkpt>
      <trkpt lat="44.96067" lon="5.65302">
        <ele>832.339405</ele>
        <time>2011-02-13T09:41:38.957</time>
      </trkpt>
      <trkpt lat="44.96071" lon="5.65309">
        <ele>832.339424</ele>
        <time>2011-02-13T09:41:40.952</time>
      </trkpt>
      <trkpt lat="44.96075" lon="5.65316">
        <ele>832.339443</ele>
        <time>2011-02-13T09:41:42.957</time>
      </trkpt>
      <trkpt lat="44.96079" lon="5.65322">
        <ele>832.339458</ele>
        <time>2011-02-13T09:41:44.954</time>
      </trkpt>
      <trkpt lat="44.96082" lon="5.65328">
        <ele>831.339478</ele>
        <time>2011-02-13T09:41:46.952</time>
      </trkpt>
      <trkpt lat="44.96086" lon="5.65333">
        <ele>831.339493</ele>
        <time>2011-02-13T09:41:48.960</time>
      </trkpt>
      <trkpt lat="44.9609" lon="5.65339">
        <ele>831.339512</ele>
        <time>2011-02-13T09:41:50.957</time>
      </trkpt>
      <trkpt lat="44.96094" lon="5.65345">
        <ele>830.339523</ele>
        <time>2011-02-13T09:41:52.952</time>
      </trkpt>
      <trkpt lat="44.96096" lon="5.65348">
        <ele>830.339539</ele>
        <time>2011-02-13T09:41:54.1</time>
      </trkpt>
      <trkpt lat="44.96102" lon="5.65356">
        <ele>830.339565</ele>
        <time>2011-02-13T09:41:56.968</time>
      </trkpt>
      <trkpt lat="44.96106" lon="5.65362">
        <ele>829.339577</ele>
        <time>2011-02-13T09:41:58.954</time>
      </trkpt>
      <trkpt lat="44.9611" lon="5.65368">
        <ele>829.3396</ele>
        <time>2011-02-13T09:42:00.957</time>
      </trkpt>
      <trkpt lat="44.96114" lon="5.65373">
        <ele>829.339611</ele>
        <time>2011-02-13T09:42:02.955</time>
      </trkpt>
      <trkpt lat="44.96117" lon="5.65379">
        <ele>828.33963</ele>
        <time>2011-02-13T09:42:04.955</time>
      </trkpt>
      <trkpt lat="44.96121" lon="5.65384">
        <ele>828.339645</ele>
        <time>2011-02-13T09:42:06.967</time>
      </trkpt>
      <trkpt lat="44.96125" lon="5.65388">
        <ele>828.339661</ele>
        <time>2011-02-13T09:42:08.956</time>
      </trkpt>
      <trkpt lat="44.96127" lon="5.6539">
        <ele>827.339668</ele>
        <time>2011-02-13T09:42:10.2</time>
      </trkpt>
      <trkpt lat="44.96135" lon="5.65393">
        <ele>827.339691</ele>
        <time>2011-02-13T09:42:12.965</time>
      </trkpt>
      <trkpt lat="44.96141" lon="5.65393">
        <ele>827.339703</ele>
        <time>2011-02-13T09:42:14.953</time>
      </trkpt>
      <trkpt lat="44.96146" lon="5.65392">
        <ele>826.339714</ele>
        <time>2011-02-13T09:42:16.956</time>
      </trkpt>
      <trkpt lat="44.96151" lon="5.6539">
        <ele>825.339722</ele>
        <time>2011-02-13T09:42:18.967</time>
      </trkpt>
      <trkpt lat="44.96155" lon="5.65387">
        <ele>825.339725</ele>
        <time>2011-02-13T09:42:20.957</time>
      </trkpt>
      <trkpt lat="44.96159" lon="5.65385">
        <ele>825.339729</ele>
        <time>2011-02-13T09:42:22.950</time>
      </trkpt>
      <trkpt lat="44.96161" lon="5.65382">
        <ele>825.339733</ele>
        <time>2011-02-13T09:42:24.958</time>
      </trkpt>
      <trkpt lat="44.96164" lon="5.65379">
        <ele>826.339733</ele>
        <time>2011-02-13T09:42:26.957</time>
      </trkpt>
      <trkpt lat="44.96166" lon="5.65376">
        <ele>826.339733</ele>
        <time>2011-02-13T09:42:28.961</time>
      </trkpt>
      <trkpt lat="44.96168" lon="5.65373">
        <ele>826.339733</ele>
        <time>2011-02-13T09:42:30.956</time>
      </trkpt>
      <trkpt lat="44.96171" lon="5.6537">
        <ele>827.339737</ele>
        <time>2011-02-13T09:42:32.956</time>
      </trkpt>
      <trkpt lat="44.96174" lon="5.65366">
        <ele>828.339733</ele>
        <time>2011-02-13T09:42:34.954</time>
      </trkpt>
      <trkpt lat="44.96177" lon="5.65362">
        <ele>829.339737</ele>
        <time>2011-02-13T09:42:36.984</time>
      </trkpt>
      <trkpt lat="44.9618" lon="5.65357">
        <ele>830.339737</ele>
        <time>2011-02-13T09:42:38.953</time>
      </trkpt>
      <trkpt lat="44.96183" lon="5.65352">
        <ele>830.339737</ele>
        <time>2011-02-13T09:42:40.951</time>
      </trkpt>
      <trkpt lat="44.96187" lon="5.65346">
        <ele>829.339729</ele>
        <time>2011-02-13T09:42:42.967</time>
      </trkpt>
      <trkpt lat="44.9619" lon="5.6534">
        <ele>829.339729</ele>
        <time>2011-02-13T09:42:44.962</time>
      </trkpt>
      <trkpt lat="44.96194" lon="5.65334">
        <ele>828.339729</ele>
        <time>2011-02-13T09:42:46.950</time>
      </trkpt>
      <trkpt lat="44.96197" lon="5.65328">
        <ele>828.339729</ele>
        <time>2011-02-13T09:42:48.954</time>
      </trkpt>
      <trkpt lat="44.96201" lon="5.65322">
        <ele>827.339729</ele>
        <time>2011-02-13T09:42:50.955</time>
      </trkpt>
      <trkpt lat="44.96205" lon="5.65316">
        <ele>827.339725</ele>
        <time>2011-02-13T09:42:52.953</time>
      </trkpt>
      <trkpt lat="44.96209" lon="5.6531">
        <ele>827.339725</ele>
        <time>2011-02-13T09:42:54.956</time>
      </trkpt>
      <trkpt lat="44.96213" lon="5.65304">
        <ele>826.339725</ele>
        <time>2011-02-13T09:42:56.989</time>
      </trkpt>
      <trkpt lat="44.96217" lon="5.65297">
        <ele>826.339722</ele>
        <time>2011-02-13T09:42:58.951</time>
      </trkpt>
      <trkpt lat="44.96221" lon="5.65291">
        <ele>825.339722</ele>
        <time>2011-02-13T09:43:00.959</time>
      </trkpt>
      <trkpt lat="44.96225" lon="5.65284">
        <ele>824.339722</ele>
        <time>2011-02-13T09:43:02.959</time>
      </trkpt>
      <trkpt lat="44.96229" lon="5.65277">
        <ele>823.339718</ele>
        <time>2011-02-13T09:43:04.954</time>
      </trkpt>
      <trkpt lat="44.96233" lon="5.65271">
        <ele>823.339718</ele>
        <time>2011-02-13T09:43:06.953</time>
      </trkpt>
      <trkpt lat="44.96237" lon="5.65265">
        <ele>823.339718</ele>
        <time>2011-02-13T09:43:08.956</time>
      </trkpt>
      <trkpt lat="44.9624" lon="5.65258">
        <ele>822.339714</ele>
        <time>2011-02-13T09:43:10.955</time>
      </trkpt>
      <trkpt lat="44.96244" lon="5.65252">
        <ele>821.339714</ele>
        <time>2011-02-13T09:43:12.955</time>
      </trkpt>
      <trkpt lat="44.96248" lon="5.65247">
        <ele>820.339714</ele>
        <time>2011-02-13T09:43:14.962</time>
      </trkpt>
      <trkpt lat="44.96251" lon="5.65242">
        <ele>820.339714</ele>
        <time>2011-02-13T09:43:16.953</time>
      </trkpt>
      <trkpt lat="44.96255" lon="5.65236">
        <ele>819.339714</ele>
        <time>2011-02-13T09:43:18.956</time>
      </trkpt>
      <trkpt lat="44.96258" lon="5.65232">
        <ele>818.339714</ele>
        <time>2011-02-13T09:43:20.952</time>
      </trkpt>
      <trkpt lat="44.96261" lon="5.65228">
        <ele>818.339714</ele>
        <time>2011-02-13T09:43:22.956</time>
      </trkpt>
      <trkpt lat="44.96264" lon="5.65224">
        <ele>818.339714</ele>
        <time>2011-02-13T09:43:24.954</time>
      </trkpt>
      <trkpt lat="44.96266" lon="5.65221">
        <ele>819.339714</ele>
        <time>2011-02-13T09:43:26.956</time>
      </trkpt>
      <trkpt lat="44.96269" lon="5.65217">
        <ele>820.339714</ele>
        <time>2011-02-13T09:43:28.951</time>
      </trkpt>
      <trkpt lat="44.96272" lon="5.65213">
        <ele>821.339714</ele>
        <time>2011-02-13T09:43:30.967</time>
      </trkpt>
      <trkpt lat="44.96274" lon="5.65211">
        <ele>822.339714</ele>
        <time>2011-02-13T09:43:32.955</time>
      </trkpt>
      <trkpt lat="44.96277" lon="5.65206">
        <ele>824.339714</ele>
        <time>2011-02-13T09:43:35.953</time>
      </trkpt>
      <trkpt lat="44.96281" lon="5.65201">
        <ele>826.339714</ele>
        <time>2011-02-13T09:43:38.953</time>
      </trkpt>
      <trkpt lat="44.96285" lon="5.65195">
        <ele>826.339714</ele>
        <time>2011-02-13T09:43:41.956</time>
      </trkpt>
      <trkpt lat="44.96289" lon="5.6519">
        <ele>829.339718</ele>
        <time>2011-02-13T09:43:44.958</time>
      </trkpt>
      <trkpt lat="44.96292" lon="5.65185">
        <ele>830.339714</ele>
        <time>2011-02-13T09:43:46.956</time>
      </trkpt>
      <trkpt lat="44.96295" lon="5.65179">
        <ele>831.339714</ele>
        <time>2011-02-13T09:43:48.955</time>
      </trkpt>
      <trkpt lat="44.96299" lon="5.65172">
        <ele>832.339714</ele>
        <time>2011-02-13T09:43:50.955</time>
      </trkpt>
      <trkpt lat="44.96303" lon="5.65166">
        <ele>832.33971</ele>
        <time>2011-02-13T09:43:52.954</time>
      </trkpt>
      <trkpt lat="44.96307" lon="5.65159">
        <ele>832.33971</ele>
        <time>2011-02-13T09:43:54.957</time>
      </trkpt>
      <trkpt lat="44.96311" lon="5.65152">
        <ele>831.339706</ele>
        <time>2011-02-13T09:43:56.951</time>
      </trkpt>
      <trkpt lat="44.96314" lon="5.65146">
        <ele>831.339706</ele>
        <time>2011-02-13T09:43:58.950</time>
      </trkpt>
      <trkpt lat="44.96318" lon="5.65139">
        <ele>831.339703</ele>
        <time>2011-02-13T09:44:00.954</time>
      </trkpt>
      <trkpt lat="44.96322" lon="5.65133">
        <ele>831.339703</ele>
        <time>2011-02-13T09:44:02.953</time>
      </trkpt>
      <trkpt lat="44.96326" lon="5.65127">
        <ele>831.339703</ele>
        <time>2011-02-13T09:44:04.953</time>
      </trkpt>
      <trkpt lat="44.9633" lon="5.65121">
        <ele>831.339699</ele>
        <time>2011-02-13T09:44:06.959</time>
      </trkpt>
      <trkpt lat="44.96334" lon="5.65114">
        <ele>831.339699</ele>
        <time>2011-02-13T09:44:08.953</time>
      </trkpt>
      <trkpt lat="44.96338" lon="5.65107">
        <ele>831.339699</ele>
        <time>2011-02-13T09:44:10.952</time>
      </trkpt>
      <trkpt lat="44.96343" lon="5.65101">
        <ele>830.339699</ele>
        <time>2011-02-13T09:44:12.959</time>
      </trkpt>
      <trkpt lat="44.96347" lon="5.65096">
        <ele>829.339699</ele>
        <time>2011-02-13T09:44:14.954</time>
      </trkpt>
      <trkpt lat="44.96351" lon="5.6509">
        <ele>829.339699</ele>
        <time>2011-02-13T09:44:16.954</time>
      </trkpt>
      <trkpt lat="44.96354" lon="5.65085">
        <ele>829.339699</ele>
        <time>2011-02-13T09:44:18.957</time>
      </trkpt>
      <trkpt lat="44.96358" lon="5.6508">
        <ele>829.339699</ele>
        <time>2011-02-13T09:44:20.958</time>
      </trkpt>
      <trkpt lat="44.96362" lon="5.65074">
        <ele>829.339703</ele>
        <time>2011-02-13T09:44:22.962</time>
      </trkpt>
      <trkpt lat="44.96365" lon="5.65069">
        <ele>830.339703</ele>
        <time>2011-02-13T09:44:24.956</time>
      </trkpt>
      <trkpt lat="44.96368" lon="5.65065">
        <ele>830.339699</ele>
        <time>2011-02-13T09:44:26.956</time>
      </trkpt>
      <trkpt lat="44.9637" lon="5.65061">
        <ele>831.339699</ele>
        <time>2011-02-13T09:44:28.958</time>
      </trkpt>
      <trkpt lat="44.96373" lon="5.65056">
        <ele>832.339695</ele>
        <time>2011-02-13T09:44:30.956</time>
      </trkpt>
      <trkpt lat="44.96376" lon="5.65051">
        <ele>832.339699</ele>
        <time>2011-02-13T09:44:32.956</time>
      </trkpt>
      <trkpt lat="44.96379" lon="5.65046">
        <ele>833.339699</ele>
        <time>2011-02-13T09:44:34.970</time>
      </trkpt>
      <trkpt lat="44.96383" lon="5.65041">
        <ele>833.339699</ele>
        <time>2011-02-13T09:44:36.954</time>
      </trkpt>
      <trkpt lat="44.96386" lon="5.65036">
        <ele>832.339691</ele>
        <time>2011-02-13T09:44:38.955</time>
      </trkpt>
      <trkpt lat="44.96389" lon="5.65031">
        <ele>832.339691</ele>
        <time>2011-02-13T09:44:40.953</time>
      </trkpt>
      <trkpt lat="44.96392" lon="5.65026">
        <ele>832.339691</ele>
        <time>2011-02-13T09:44:42.953</time>
      </trkpt>
      <trkpt lat="44.96394" lon="5.65021">
        <ele>831.339691</ele>
        <time>2011-02-13T09:44:44.954</time>
      </trkpt>
      <trkpt lat="44.96397" lon="5.65017">
        <ele>830.339684</ele>
        <time>2011-02-13T09:44:46.956</time>
      </trkpt>
      <trkpt lat="44.96399" lon="5.65013">
        <ele>830.339684</ele>
        <time>2011-02-13T09:44:48.967</time>
      </trkpt>
      <trkpt lat="44.96402" lon="5.65009">
        <ele>829.339687</ele>
        <time>2011-02-13T09:44:50.955</time>
      </trkpt>
      <trkpt lat="44.96407" lon="5.65002">
        <ele>829.339687</ele>
        <time>2011-02-13T09:44:55.956</time>
      </trkpt>
      <trkpt lat="44.96409" lon="5.64999">
        <ele>828.339684</ele>
        <time>2011-02-13T09:44:58.952</time>
      </trkpt>
      <trkpt lat="44.9641" lon="5.64996">
        <ele>827.339687</ele>
        <time>2011-02-13T09:45:00.956</time>
      </trkpt>
      <trkpt lat="44.96413" lon="5.64989">
        <ele>824.339684</ele>
        <time>2011-02-13T09:45:05.958</time>
      </trkpt>
      <trkpt lat="44.96416" lon="5.64984">
        <ele>825.339684</ele>
        <time>2011-02-13T09:45:11.955</time>
      </trkpt>
      <trkpt lat="44.96417" lon="5.64982">
        <ele>825.339676</ele>
        <time>2011-02-13T09:45:13.953</time>
      </trkpt>
      <trkpt lat="44.9642" lon="5.64976">
        <ele>824.339676</ele>
        <time>2011-02-13T09:45:17.957</time>
      </trkpt>
      <trkpt lat="44.96422" lon="5.64973">
        <ele>823.339676</ele>
        <time>2011-02-13T09:45:19.951</time>
      </trkpt>
      <trkpt lat="44.96423" lon="5.6497">
        <ele>823.339672</ele>
        <time>2011-02-13T09:45:21.959</time>
      </trkpt>
      <trkpt lat="44.96425" lon="5.64967">
        <ele>822.339672</ele>
        <time>2011-02-13T09:45:23.952</time>
      </trkpt>
      <trkpt lat="44.96428" lon="5.64962">
        <ele>823.339672</ele>
        <time>2011-02-13T09:45:27.958</time>
      </trkpt>
      <trkpt lat="44.9643" lon="5.64959">
        <ele>823.339672</ele>
        <time>2011-02-13T09:45:29.956</time>
      </trkpt>
      <trkpt lat="44.96431" lon="5.64957">
        <ele>823.339672</ele>
        <time>2011-02-13T09:45:31.959</time>
      </trkpt>
      <trkpt lat="44.96436" lon="5.64951">
        <ele>823.339672</ele>
        <time>2011-02-13T09:45:36.965</time>
      </trkpt>
      <trkpt lat="44.96437" lon="5.64949">
        <ele>823.339676</ele>
        <time>2011-02-13T09:45:38.956</time>
      </trkpt>
      <trkpt lat="44.96439" lon="5.64948">
        <ele>822.339676</ele>
        <time>2011-02-13T09:45:40.954</time>
      </trkpt>
      <trkpt lat="44.9644" lon="5.64946">
        <ele>820.339676</ele>
        <time>2011-02-13T09:45:43.952</time>
      </trkpt>
      <trkpt lat="44.96441" lon="5.64946">
        <ele>818.339676</ele>
        <time>2011-02-13T09:45:45.959</time>
      </trkpt>
      <trkpt lat="44.96441" lon="5.64945">
        <ele>816.339676</ele>
        <time>2011-02-13T09:45:48.956</time>
      </trkpt>
      <trkpt lat="44.96441" lon="5.64946">
        <ele>816.339676</ele>
        <time>2011-02-13T09:45:50.956</time>
      </trkpt>
      <trkpt lat="44.96442" lon="5.64946">
        <ele>815.339676</ele>
        <time>2011-02-13T09:45:52.950</time>
      </trkpt>
      <trkpt lat="44.96443" lon="5.64945">
        <ele>814.33968</ele>
        <time>2011-02-13T09:46:02.951</time>
      </trkpt>
      <trkpt lat="44.96443" lon="5.64945">
        <ele>813.33968</ele>
        <time>2011-02-13T09:46:05.953</time>
      </trkpt>
      <trkpt lat="44.96442" lon="5.64945">
        <ele>812.33968</ele>
        <time>2011-02-13T09:46:07.952</time>
      </trkpt>
      <trkpt lat="44.96442" lon="5.64945">
        <ele>812.339676</ele>
        <time>2011-02-13T09:46:10.952</time>
      </trkpt>
      <trkpt lat="44.96442" lon="5.64944">
        <ele>813.339676</ele>
        <time>2011-02-13T09:46:12.957</time>
      </trkpt>
      <trkpt lat="44.96442" lon="5.64944">
        <ele>813.339672</ele>
        <time>2011-02-13T09:46:15.957</time>
      </trkpt>
      <trkpt lat="44.96442" lon="5.64943">
        <ele>813.339672</ele>
        <time>2011-02-13T09:46:17.954</time>
      </trkpt>
      <trkpt lat="44.96441" lon="5.64943">
        <ele>811.339672</ele>
        <time>2011-02-13T09:46:19.952</time>
      </trkpt>
      <trkpt lat="44.96441" lon="5.64942">
        <ele>810.339672</ele>
        <time>2011-02-13T09:46:21.957</time>
      </trkpt>
      <trkpt lat="44.96441" lon="5.64941">
        <ele>809.339672</ele>
        <time>2011-02-13T09:46:23.954</time>
      </trkpt>
      <trkpt lat="44.96441" lon="5.64939">
        <ele>809.339668</ele>
        <time>2011-02-13T09:46:30.955</time>
      </trkpt>
      <trkpt lat="44.96441" lon="5.64939">
        <ele>808.339668</ele>
        <time>2011-02-13T09:46:32.954</time>
      </trkpt>
      <trkpt lat="44.96441" lon="5.64938">
        <ele>807.339664</ele>
        <time>2011-02-13T09:46:34.954</time>
      </trkpt>
      <trkpt lat="44.96441" lon="5.64938">
        <ele>807.339664</ele>
        <time>2011-02-13T09:46:36.953</time>
      </trkpt>
      <trkpt lat="44.96443" lon="5.64937">
        <ele>806.339668</ele>
        <time>2011-02-13T09:46:39.955</time>
      </trkpt>
      <trkpt lat="44.96447" lon="5.6493">
        <ele>806.339668</ele>
        <time>2011-02-13T09:46:42.955</time>
      </trkpt>
      <trkpt lat="44.9645" lon="5.64927">
        <ele>804.339664</ele>
        <time>2011-02-13T09:46:44.953</time>
      </trkpt>
      <trkpt lat="44.96452" lon="5.64924">
        <ele>804.339668</ele>
        <time>2011-02-13T09:46:46.961</time>
      </trkpt>
      <trkpt lat="44.96455" lon="5.6492">
        <ele>805.339668</ele>
        <time>2011-02-13T09:46:48.953</time>
      </trkpt>
      <trkpt lat="44.96459" lon="5.64915">
        <ele>807.339668</ele>
        <time>2011-02-13T09:46:50.968</time>
      </trkpt>
      <trkpt lat="44.96465" lon="5.64907">
        <ele>808.339672</ele>
        <time>2011-02-13T09:46:52.951</time>
      </trkpt>
      <trkpt lat="44.9647" lon="5.649">
        <ele>809.339668</ele>
        <time>2011-02-13T09:46:54.957</time>
      </trkpt>
      <trkpt lat="44.96474" lon="5.64893">
        <ele>809.339668</ele>
        <time>2011-02-13T09:46:56.955</time>
      </trkpt>
      <trkpt lat="44.96479" lon="5.64887">
        <ele>810.339668</ele>
        <time>2011-02-13T09:46:58.950</time>
      </trkpt>
      <trkpt lat="44.96483" lon="5.64881">
        <ele>812.339668</ele>
        <time>2011-02-13T09:47:00.958</time>
      </trkpt>
      <trkpt lat="44.96488" lon="5.64874">
        <ele>813.339668</ele>
        <time>2011-02-13T09:47:03.65</time>
      </trkpt>
      <trkpt lat="44.96493" lon="5.64866">
        <ele>814.339668</ele>
        <time>2011-02-13T09:47:05.86</time>
      </trkpt>
      <trkpt lat="44.96497" lon="5.64859">
        <ele>815.339664</ele>
        <time>2011-02-13T09:47:07.77</time>
      </trkpt>
      <trkpt lat="44.96502" lon="5.64851">
        <ele>816.339668</ele>
        <time>2011-02-13T09:47:09.83</time>
      </trkpt>
      <trkpt lat="44.96506" lon="5.64845">
        <ele>816.339664</ele>
        <time>2011-02-13T09:47:11.76</time>
      </trkpt>
      <trkpt lat="44.96509" lon="5.64838">
        <ele>817.339661</ele>
        <time>2011-02-13T09:47:13.72</time>
      </trkpt>
      <trkpt lat="44.96512" lon="5.64833">
        <ele>817.339661</ele>
        <time>2011-02-13T09:47:15.85</time>
      </trkpt>
      <trkpt lat="44.96515" lon="5.64828">
        <ele>816.339661</ele>
        <time>2011-02-13T09:47:17.75</time>
      </trkpt>
      <trkpt lat="44.96517" lon="5.64824">
        <ele>817.339657</ele>
        <time>2011-02-13T09:47:19.82</time>
      </trkpt>
      <trkpt lat="44.9652" lon="5.64819">
        <ele>816.339653</ele>
        <time>2011-02-13T09:47:22.77</time>
      </trkpt>
      <trkpt lat="44.96521" lon="5.64815">
        <ele>816.339653</ele>
        <time>2011-02-13T09:47:24.77</time>
      </trkpt>
      <trkpt lat="44.96523" lon="5.64812">
        <ele>815.339653</ele>
        <time>2011-02-13T09:47:26.75</time>
      </trkpt>
      <trkpt lat="44.96525" lon="5.64809">
        <ele>815.339653</ele>
        <time>2011-02-13T09:47:28.76</time>
      </trkpt>
      <trkpt lat="44.96528" lon="5.64804">
        <ele>816.339653</ele>
        <time>2011-02-13T09:47:31.76</time>
      </trkpt>
      <trkpt lat="44.9653" lon="5.64801">
        <ele>817.339653</ele>
        <time>2011-02-13T09:47:33.83</time>
      </trkpt>
      <trkpt lat="44.96533" lon="5.64798">
        <ele>818.339653</ele>
        <time>2011-02-13T09:47:36.77</time>
      </trkpt>
      <trkpt lat="44.96536" lon="5.64795">
        <ele>819.339653</ele>
        <time>2011-02-13T09:47:38.77</time>
      </trkpt>
      <trkpt lat="44.96539" lon="5.64794">
        <ele>820.339664</ele>
        <time>2011-02-13T09:47:40.83</time>
      </trkpt>
      <trkpt lat="44.96543" lon="5.64794">
        <ele>821.339668</ele>
        <time>2011-02-13T09:47:42.75</time>
      </trkpt>
      <trkpt lat="44.96547" lon="5.64795">
        <ele>821.339676</ele>
        <time>2011-02-13T09:47:44.78</time>
      </trkpt>
      <trkpt lat="44.96551" lon="5.64797">
        <ele>821.339691</ele>
        <time>2011-02-13T09:47:46.78</time>
      </trkpt>
      <trkpt lat="44.96556" lon="5.64799">
        <ele>821.339703</ele>
        <time>2011-02-13T09:47:48.78</time>
      </trkpt>
      <trkpt lat="44.96561" lon="5.64801">
        <ele>820.339714</ele>
        <time>2011-02-13T09:47:50.76</time>
      </trkpt>
      <trkpt lat="44.96565" lon="5.64803">
        <ele>820.339725</ele>
        <time>2011-02-13T09:47:52.76</time>
      </trkpt>
      <trkpt lat="44.9657" lon="5.64804">
        <ele>819.339745</ele>
        <time>2011-02-13T09:47:54.87</time>
      </trkpt>
      <trkpt lat="44.96574" lon="5.64806">
        <ele>819.339752</ele>
        <time>2011-02-13T09:47:56.78</time>
      </trkpt>
      <trkpt lat="44.96579" lon="5.64808">
        <ele>818.339767</ele>
        <time>2011-02-13T09:47:58.74</time>
      </trkpt>
      <trkpt lat="44.96584" lon="5.64809">
        <ele>818.339783</ele>
        <time>2011-02-13T09:48:00.98</time>
      </trkpt>
      <trkpt lat="44.96589" lon="5.64811">
        <ele>818.33979</ele>
        <time>2011-02-13T09:48:02.76</time>
      </trkpt>
      <trkpt lat="44.96594" lon="5.64812">
        <ele>817.339806</ele>
        <time>2011-02-13T09:48:04.76</time>
      </trkpt>
      <trkpt lat="44.96598" lon="5.64814">
        <ele>816.339821</ele>
        <time>2011-02-13T09:48:06.79</time>
      </trkpt>
      <trkpt lat="44.96603" lon="5.64815">
        <ele>815.339832</ele>
        <time>2011-02-13T09:48:08.80</time>
      </trkpt>
      <trkpt lat="44.96608" lon="5.64816">
        <ele>816.339844</ele>
        <time>2011-02-13T09:48:10.82</time>
      </trkpt>
      <trkpt lat="44.96613" lon="5.64817">
        <ele>816.339859</ele>
        <time>2011-02-13T09:48:12.78</time>
      </trkpt>
      <trkpt lat="44.96618" lon="5.64818">
        <ele>817.339867</ele>
        <time>2011-02-13T09:48:14.76</time>
      </trkpt>
      <trkpt lat="44.96623" lon="5.64819">
        <ele>816.339882</ele>
        <time>2011-02-13T09:48:16.75</time>
      </trkpt>
      <trkpt lat="44.96628" lon="5.6482">
        <ele>816.339893</ele>
        <time>2011-02-13T09:48:18.79</time>
      </trkpt>
      <trkpt lat="44.96634" lon="5.64821">
        <ele>815.339909</ele>
        <time>2011-02-13T09:48:20.74</time>
      </trkpt>
      <trkpt lat="44.96639" lon="5.64822">
        <ele>815.33992</ele>
        <time>2011-02-13T09:48:22.102</time>
      </trkpt>
      <trkpt lat="44.96644" lon="5.64823">
        <ele>815.339931</ele>
        <time>2011-02-13T09:48:24.77</time>
      </trkpt>
      <trkpt lat="44.96649" lon="5.64824">
        <ele>815.339943</ele>
        <time>2011-02-13T09:48:26.76</time>
      </trkpt>
      <trkpt lat="44.96654" lon="5.64826">
        <ele>815.339958</ele>
        <time>2011-02-13T09:48:28.76</time>
      </trkpt>
      <trkpt lat="44.96659" lon="5.64827">
        <ele>817.339973</ele>
        <time>2011-02-13T09:48:30.85</time>
      </trkpt>
      <trkpt lat="44.96664" lon="5.6483">
        <ele>817.339981</ele>
        <time>2011-02-13T09:48:32.74</time>
      </trkpt>
      <trkpt lat="44.96668" lon="5.64832">
        <ele>817.339993</ele>
        <time>2011-02-13T09:48:34.74</time>
      </trkpt>
      <trkpt lat="44.96673" lon="5.64834">
        <ele>817.340012</ele>
        <time>2011-02-13T09:48:36.77</time>
      </trkpt>
      <trkpt lat="44.96678" lon="5.64835">
        <ele>816.340027</ele>
        <time>2011-02-13T09:48:38.80</time>
      </trkpt>
      <trkpt lat="44.96682" lon="5.64837">
        <ele>816.340034</ele>
        <time>2011-02-13T09:48:40.85</time>
      </trkpt>
      <trkpt lat="44.96687" lon="5.6484">
        <ele>815.340054</ele>
        <time>2011-02-13T09:48:42.75</time>
      </trkpt>
      <trkpt lat="44.96692" lon="5.64843">
        <ele>814.340065</ele>
        <time>2011-02-13T09:48:44.76</time>
      </trkpt>
      <trkpt lat="44.96696" lon="5.64845">
        <ele>814.34008</ele>
        <time>2011-02-13T09:48:46.73</time>
      </trkpt>
      <trkpt lat="44.96701" lon="5.64848">
        <ele>814.340096</ele>
        <time>2011-02-13T09:48:48.77</time>
      </trkpt>
      <trkpt lat="44.96705" lon="5.64849">
        <ele>814.340103</ele>
        <time>2011-02-13T09:48:50.85</time>
      </trkpt>
      <trkpt lat="44.9671" lon="5.6485">
        <ele>813.340118</ele>
        <time>2011-02-13T09:48:52.84</time>
      </trkpt>
      <trkpt lat="44.96714" lon="5.64851">
        <ele>814.340126</ele>
        <time>2011-02-13T09:48:54.83</time>
      </trkpt>
      <trkpt lat="44.96718" lon="5.64852">
        <ele>815.340137</ele>
        <time>2011-02-13T09:48:56.75</time>
      </trkpt>
      <trkpt lat="44.96723" lon="5.64853">
        <ele>815.340149</ele>
        <time>2011-02-13T09:48:58.75</time>
      </trkpt>
      <trkpt lat="44.96727" lon="5.64854">
        <ele>815.340157</ele>
        <time>2011-02-13T09:49:00.85</time>
      </trkpt>
      <trkpt lat="44.96732" lon="5.64855">
        <ele>815.340172</ele>
        <time>2011-02-13T09:49:02.77</time>
      </trkpt>
      <trkpt lat="44.96738" lon="5.64856">
        <ele>814.340187</ele>
        <time>2011-02-13T09:49:04.73</time>
      </trkpt>
      <trkpt lat="44.96743" lon="5.64856">
        <ele>814.340199</ele>
        <time>2011-02-13T09:49:06.76</time>
      </trkpt>
      <trkpt lat="44.96748" lon="5.64856">
        <ele>813.340206</ele>
        <time>2011-02-13T09:49:08.81</time>
      </trkpt>
      <trkpt lat="44.96753" lon="5.64856">
        <ele>813.340218</ele>
        <time>2011-02-13T09:49:10.84</time>
      </trkpt>
      <trkpt lat="44.96758" lon="5.64856">
        <ele>814.340229</ele>
        <time>2011-02-13T09:49:12.78</time>
      </trkpt>
      <trkpt lat="44.96763" lon="5.64856">
        <ele>814.34024</ele>
        <time>2011-02-13T09:49:14.102</time>
      </trkpt>
      <trkpt lat="44.96769" lon="5.64856">
        <ele>814.340256</ele>
        <time>2011-02-13T09:49:16.77</time>
      </trkpt>
      <trkpt lat="44.96774" lon="5.64858">
        <ele>814.340271</ele>
        <time>2011-02-13T09:49:18.78</time>
      </trkpt>
      <trkpt lat="44.9678" lon="5.64859">
        <ele>814.340282</ele>
        <time>2011-02-13T09:49:20.91</time>
      </trkpt>
      <trkpt lat="44.96785" lon="5.6486">
        <ele>813.340294</ele>
        <time>2011-02-13T09:49:22.79</time>
      </trkpt>
      <trkpt lat="44.96791" lon="5.64861">
        <ele>813.340309</ele>
        <time>2011-02-13T09:49:24.81</time>
      </trkpt>
      <trkpt lat="44.96796" lon="5.64862">
        <ele>812.340324</ele>
        <time>2011-02-13T09:49:26.75</time>
      </trkpt>
      <trkpt lat="44.96802" lon="5.64863">
        <ele>811.340336</ele>
        <time>2011-02-13T09:49:28.76</time>
      </trkpt>
      <trkpt lat="44.96808" lon="5.64865">
        <ele>811.340351</ele>
        <time>2011-02-13T09:49:30.85</time>
      </trkpt>
      <trkpt lat="44.96813" lon="5.64867">
        <ele>810.340366</ele>
        <time>2011-02-13T09:49:32.76</time>
      </trkpt>
      <trkpt lat="44.96819" lon="5.64868">
        <ele>809.340378</ele>
        <time>2011-02-13T09:49:34.113</time>
      </trkpt>
      <trkpt lat="44.96824" lon="5.64869">
        <ele>808.340393</ele>
        <time>2011-02-13T09:49:36.78</time>
      </trkpt>
      <trkpt lat="44.96829" lon="5.64871">
        <ele>807.340408</ele>
        <time>2011-02-13T09:49:38.78</time>
      </trkpt>
      <trkpt lat="44.96835" lon="5.64872">
        <ele>807.340424</ele>
        <time>2011-02-13T09:49:40.102</time>
      </trkpt>
      <trkpt lat="44.9684" lon="5.64874">
        <ele>806.340439</ele>
        <time>2011-02-13T09:49:42.79</time>
      </trkpt>
      <trkpt lat="44.96846" lon="5.64876">
        <ele>806.34045</ele>
        <time>2011-02-13T09:49:44.76</time>
      </trkpt>
      <trkpt lat="44.96851" lon="5.64877">
        <ele>806.340466</ele>
        <time>2011-02-13T09:49:46.75</time>
      </trkpt>
      <trkpt lat="44.96857" lon="5.64879">
        <ele>805.340481</ele>
        <time>2011-02-13T09:49:48.74</time>
      </trkpt>
      <trkpt lat="44.96862" lon="5.6488">
        <ele>805.340492</ele>
        <time>2011-02-13T09:49:50.85</time>
      </trkpt>
      <trkpt lat="44.96867" lon="5.64881">
        <ele>805.340508</ele>
        <time>2011-02-13T09:49:52.75</time>
      </trkpt>
      <trkpt lat="44.96872" lon="5.64882">
        <ele>804.340515</ele>
        <time>2011-02-13T09:49:54.67</time>
      </trkpt>
      <trkpt lat="44.96877" lon="5.64882">
        <ele>804.34053</ele>
        <time>2011-02-13T09:49:56.76</time>
      </trkpt>
      <trkpt lat="44.96883" lon="5.64882">
        <ele>804.340542</ele>
        <time>2011-02-13T09:49:58.77</time>
      </trkpt>
      <trkpt lat="44.96887" lon="5.64881">
        <ele>804.340549</ele>
        <time>2011-02-13T09:50:00.85</time>
      </trkpt>
      <trkpt lat="44.96892" lon="5.6488">
        <ele>804.340561</ele>
        <time>2011-02-13T09:50:02.82</time>
      </trkpt>
      <trkpt lat="44.96897" lon="5.6488">
        <ele>805.340569</ele>
        <time>2011-02-13T09:50:04.78</time>
      </trkpt>
      <trkpt lat="44.96902" lon="5.6488">
        <ele>805.340576</ele>
        <time>2011-02-13T09:50:06.78</time>
      </trkpt>
      <trkpt lat="44.96907" lon="5.6488">
        <ele>805.340591</ele>
        <time>2011-02-13T09:50:08.77</time>
      </trkpt>
      <trkpt lat="44.96912" lon="5.64879">
        <ele>805.340599</ele>
        <time>2011-02-13T09:50:10.75</time>
      </trkpt>
      <trkpt lat="44.96917" lon="5.64879">
        <ele>805.340611</ele>
        <time>2011-02-13T09:50:12.80</time>
      </trkpt>
      <trkpt lat="44.96923" lon="5.64878">
        <ele>805.340622</ele>
        <time>2011-02-13T09:50:14.78</time>
      </trkpt>
      <trkpt lat="44.96928" lon="5.64878">
        <ele>805.340633</ele>
        <time>2011-02-13T09:50:16.73</time>
      </trkpt>
      <trkpt lat="44.96933" lon="5.64878">
        <ele>805.340645</ele>
        <time>2011-02-13T09:50:18.78</time>
      </trkpt>
      <trkpt lat="44.96938" lon="5.64879">
        <ele>804.34066</ele>
        <time>2011-02-13T09:50:20.84</time>
      </trkpt>
      <trkpt lat="44.96943" lon="5.6488">
        <ele>804.340668</ele>
        <time>2011-02-13T09:50:22.71</time>
      </trkpt>
      <trkpt lat="44.96948" lon="5.64881">
        <ele>804.340683</ele>
        <time>2011-02-13T09:50:24.75</time>
      </trkpt>
      <trkpt lat="44.96953" lon="5.64882">
        <ele>803.340691</ele>
        <time>2011-02-13T09:50:26.74</time>
      </trkpt>
      <trkpt lat="44.96958" lon="5.64884">
        <ele>803.340706</ele>
        <time>2011-02-13T09:50:28.78</time>
      </trkpt>
      <trkpt lat="44.96963" lon="5.64887">
        <ele>802.340721</ele>
        <time>2011-02-13T09:50:30.85</time>
      </trkpt>
      <trkpt lat="44.96967" lon="5.64889">
        <ele>802.340736</ele>
        <time>2011-02-13T09:50:32.77</time>
      </trkpt>
      <trkpt lat="44.96972" lon="5.64891">
        <ele>802.340752</ele>
        <time>2011-02-13T09:50:34.76</time>
      </trkpt>
      <trkpt lat="44.96977" lon="5.64894">
        <ele>802.340759</ele>
        <time>2011-02-13T09:50:36.80</time>
      </trkpt>
      <trkpt lat="44.96982" lon="5.64896">
        <ele>802.340778</ele>
        <time>2011-02-13T09:50:38.85</time>
      </trkpt>
      <trkpt lat="44.96987" lon="5.64899">
        <ele>802.340794</ele>
        <time>2011-02-13T09:50:40.84</time>
      </trkpt>
      <trkpt lat="44.96991" lon="5.64901">
        <ele>802.340809</ele>
        <time>2011-02-13T09:50:42.78</time>
      </trkpt>
      <trkpt lat="44.96996" lon="5.64904">
        <ele>802.34082</ele>
        <time>2011-02-13T09:50:44.77</time>
      </trkpt>
      <trkpt lat="44.97001" lon="5.64906">
        <ele>802.340836</ele>
        <time>2011-02-13T09:50:46.75</time>
      </trkpt>
      <trkpt lat="44.97006" lon="5.64908">
        <ele>802.340851</ele>
        <time>2011-02-13T09:50:48.86</time>
      </trkpt>
      <trkpt lat="44.9701" lon="5.6491">
        <ele>802.340862</ele>
        <time>2011-02-13T09:50:50.84</time>
      </trkpt>
      <trkpt lat="44.97015" lon="5.64912">
        <ele>802.340874</ele>
        <time>2011-02-13T09:50:52.77</time>
      </trkpt>
      <trkpt lat="44.9702" lon="5.64915">
        <ele>802.340885</ele>
        <time>2011-02-13T09:50:54.78</time>
      </trkpt>
      <trkpt lat="44.97024" lon="5.64917">
        <ele>802.3409</ele>
        <time>2011-02-13T09:50:56.76</time>
      </trkpt>
      <trkpt lat="44.97029" lon="5.64919">
        <ele>802.340912</ele>
        <time>2011-02-13T09:50:58.78</time>
      </trkpt>
      <trkpt lat="44.97033" lon="5.64921">
        <ele>802.340927</ele>
        <time>2011-02-13T09:51:00.85</time>
      </trkpt>
      <trkpt lat="44.97038" lon="5.64923">
        <ele>801.340942</ele>
        <time>2011-02-13T09:51:02.75</time>
      </trkpt>
      <trkpt lat="44.97043" lon="5.64925">
        <ele>801.340958</ele>
        <time>2011-02-13T09:51:04.74</time>
      </trkpt>
      <trkpt lat="44.97048" lon="5.64927">
        <ele>801.340965</ele>
        <time>2011-02-13T09:51:06.78</time>
      </trkpt>
      <trkpt lat="44.97052" lon="5.64929">
        <ele>802.340981</ele>
        <time>2011-02-13T09:51:08.77</time>
      </trkpt>
      <trkpt lat="44.97056" lon="5.64931">
        <ele>802.340996</ele>
        <time>2011-02-13T09:51:10.83</time>
      </trkpt>
      <trkpt lat="44.97061" lon="5.64934">
        <ele>802.341011</ele>
        <time>2011-02-13T09:51:12.76</time>
      </trkpt>
      <trkpt lat="44.97065" lon="5.64935">
        <ele>802.341019</ele>
        <time>2011-02-13T09:51:14.78</time>
      </trkpt>
      <trkpt lat="44.9707" lon="5.64937">
        <ele>802.34103</ele>
        <time>2011-02-13T09:51:16.73</time>
      </trkpt>
      <trkpt lat="44.97075" lon="5.64939">
        <ele>803.341049</ele>
        <time>2011-02-13T09:51:18.73</time>
      </trkpt>
      <trkpt lat="44.97079" lon="5.64941">
        <ele>804.341057</ele>
        <time>2011-02-13T09:51:20.85</time>
      </trkpt>
      <trkpt lat="44.97084" lon="5.64942">
        <ele>804.341068</ele>
        <time>2011-02-13T09:51:22.73</time>
      </trkpt>
      <trkpt lat="44.97088" lon="5.64944">
        <ele>804.34108</ele>
        <time>2011-02-13T09:51:24.76</time>
      </trkpt>
      <trkpt lat="44.97092" lon="5.64945">
        <ele>804.341095</ele>
        <time>2011-02-13T09:51:26.74</time>
      </trkpt>
      <trkpt lat="44.97097" lon="5.64945">
        <ele>805.341103</ele>
        <time>2011-02-13T09:51:28.74</time>
      </trkpt>
      <trkpt lat="44.97102" lon="5.64946">
        <ele>805.341118</ele>
        <time>2011-02-13T09:51:30.85</time>
      </trkpt>
      <trkpt lat="44.97107" lon="5.64947">
        <ele>805.341125</ele>
        <time>2011-02-13T09:51:32.80</time>
      </trkpt>
      <trkpt lat="44.97112" lon="5.64948">
        <ele>805.341137</ele>
        <time>2011-02-13T09:51:34.72</time>
      </trkpt>
      <trkpt lat="44.97116" lon="5.64949">
        <ele>805.341148</ele>
        <time>2011-02-13T09:51:36.76</time>
      </trkpt>
      <trkpt lat="44.97121" lon="5.6495">
        <ele>805.341164</ele>
        <time>2011-02-13T09:51:38.68</time>
      </trkpt>
      <trkpt lat="44.97126" lon="5.64951">
        <ele>805.341175</ele>
        <time>2011-02-13T09:51:40.83</time>
      </trkpt>
      <trkpt lat="44.97131" lon="5.64951">
        <ele>805.341187</ele>
        <time>2011-02-13T09:51:42.74</time>
      </trkpt>
      <trkpt lat="44.97136" lon="5.64952">
        <ele>805.341194</ele>
        <time>2011-02-13T09:51:44.77</time>
      </trkpt>
      <trkpt lat="44.97142" lon="5.64952">
        <ele>805.341213</ele>
        <time>2011-02-13T09:51:46.76</time>
      </trkpt>
      <trkpt lat="44.97147" lon="5.64953">
        <ele>805.341221</ele>
        <time>2011-02-13T09:51:48.77</time>
      </trkpt>
      <trkpt lat="44.97152" lon="5.64954">
        <ele>804.34124</ele>
        <time>2011-02-13T09:51:50.75</time>
      </trkpt>
      <trkpt lat="44.97158" lon="5.64955">
        <ele>804.341248</ele>
        <time>2011-02-13T09:51:52.104</time>
      </trkpt>
      <trkpt lat="44.97163" lon="5.64956">
        <ele>804.341263</ele>
        <time>2011-02-13T09:51:54.78</time>
      </trkpt>
      <trkpt lat="44.97168" lon="5.64958">
        <ele>803.341274</ele>
        <time>2011-02-13T09:51:56.77</time>
      </trkpt>
      <trkpt lat="44.97173" lon="5.6496">
        <ele>803.341293</ele>
        <time>2011-02-13T09:51:58.76</time>
      </trkpt>
      <trkpt lat="44.97179" lon="5.64962">
        <ele>803.341309</ele>
        <time>2011-02-13T09:52:00.86</time>
      </trkpt>
      <trkpt lat="44.97184" lon="5.64965">
        <ele>803.341316</ele>
        <time>2011-02-13T09:52:02.75</time>
      </trkpt>
      <trkpt lat="44.97189" lon="5.64968">
        <ele>802.341339</ele>
        <time>2011-02-13T09:52:04.74</time>
      </trkpt>
      <trkpt lat="44.97193" lon="5.64971">
        <ele>802.341354</ele>
        <time>2011-02-13T09:52:06.78</time>
      </trkpt>
      <trkpt lat="44.97198" lon="5.64974">
        <ele>802.341366</ele>
        <time>2011-02-13T09:52:08.78</time>
      </trkpt>
      <trkpt lat="44.97203" lon="5.64977">
        <ele>801.341381</ele>
        <time>2011-02-13T09:52:10.131</time>
      </trkpt>
      <trkpt lat="44.97208" lon="5.64979">
        <ele>802.341396</ele>
        <time>2011-02-13T09:52:12.76</time>
      </trkpt>
      <trkpt lat="44.97213" lon="5.64981">
        <ele>801.341408</ele>
        <time>2011-02-13T09:52:14.75</time>
      </trkpt>
      <trkpt lat="44.97218" lon="5.64983">
        <ele>801.341423</ele>
        <time>2011-02-13T09:52:16.72</time>
      </trkpt>
      <trkpt lat="44.97222" lon="5.64984">
        <ele>801.341434</ele>
        <time>2011-02-13T09:52:18.79</time>
      </trkpt>
      <trkpt lat="44.97227" lon="5.64986">
        <ele>801.341446</ele>
        <time>2011-02-13T09:52:20.73</time>
      </trkpt>
      <trkpt lat="44.97232" lon="5.64987">
        <ele>801.341461</ele>
        <time>2011-02-13T09:52:22.74</time>
      </trkpt>
      <trkpt lat="44.97236" lon="5.64988">
        <ele>801.341469</ele>
        <time>2011-02-13T09:52:24.78</time>
      </trkpt>
      <trkpt lat="44.97241" lon="5.64988">
        <ele>801.34148</ele>
        <time>2011-02-13T09:52:26.75</time>
      </trkpt>
      <trkpt lat="44.97246" lon="5.64989">
        <ele>801.341492</ele>
        <time>2011-02-13T09:52:28.75</time>
      </trkpt>
      <trkpt lat="44.97251" lon="5.64989">
        <ele>801.341507</ele>
        <time>2011-02-13T09:52:30.84</time>
      </trkpt>
      <trkpt lat="44.97257" lon="5.6499">
        <ele>801.341518</ele>
        <time>2011-02-13T09:52:32.74</time>
      </trkpt>
      <trkpt lat="44.97262" lon="5.6499">
        <ele>800.34153</ele>
        <time>2011-02-13T09:52:34.74</time>
      </trkpt>
      <trkpt lat="44.97266" lon="5.64992">
        <ele>800.341545</ele>
        <time>2011-02-13T09:52:36.78</time>
      </trkpt>
      <trkpt lat="44.97271" lon="5.64993">
        <ele>800.341553</ele>
        <time>2011-02-13T09:52:38.75</time>
      </trkpt>
      <trkpt lat="44.97276" lon="5.64995">
        <ele>800.341568</ele>
        <time>2011-02-13T09:52:40.107</time>
      </trkpt>
      <trkpt lat="44.9728" lon="5.64996">
        <ele>799.341583</ele>
        <time>2011-02-13T09:52:42.75</time>
      </trkpt>
      <trkpt lat="44.97285" lon="5.64998">
        <ele>799.341591</ele>
        <time>2011-02-13T09:52:44.75</time>
      </trkpt>
      <trkpt lat="44.97289" lon="5.65">
        <ele>799.341606</ele>
        <time>2011-02-13T09:52:46.73</time>
      </trkpt>
      <trkpt lat="44.97294" lon="5.65002">
        <ele>799.341618</ele>
        <time>2011-02-13T09:52:48.77</time>
      </trkpt>
      <trkpt lat="44.97298" lon="5.65003">
        <ele>798.341629</ele>
        <time>2011-02-13T09:52:50.72</time>
      </trkpt>
      <trkpt lat="44.97301" lon="5.65005">
        <ele>797.341637</ele>
        <time>2011-02-13T09:52:52.71</time>
      </trkpt>
      <trkpt lat="44.97305" lon="5.65007">
        <ele>797.341644</ele>
        <time>2011-02-13T09:52:54.75</time>
      </trkpt>
      <trkpt lat="44.97309" lon="5.65009">
        <ele>797.34166</ele>
        <time>2011-02-13T09:52:56.76</time>
      </trkpt>
      <trkpt lat="44.97312" lon="5.65012">
        <ele>797.341675</ele>
        <time>2011-02-13T09:52:58.73</time>
      </trkpt>
      <trkpt lat="44.97316" lon="5.65015">
        <ele>797.341682</ele>
        <time>2011-02-13T09:53:00.85</time>
      </trkpt>
      <trkpt lat="44.9732" lon="5.65018">
        <ele>797.341694</ele>
        <time>2011-02-13T09:53:02.73</time>
      </trkpt>
      <trkpt lat="44.97324" lon="5.65022">
        <ele>797.341709</ele>
        <time>2011-02-13T09:53:04.76</time>
      </trkpt>
      <trkpt lat="44.97327" lon="5.65026">
        <ele>797.341724</ele>
        <time>2011-02-13T09:53:06.75</time>
      </trkpt>
      <trkpt lat="44.97331" lon="5.65029">
        <ele>797.34174</ele>
        <time>2011-02-13T09:53:08.75</time>
      </trkpt>
      <trkpt lat="44.97333" lon="5.65033">
        <ele>797.341751</ele>
        <time>2011-02-13T09:53:10.74</time>
      </trkpt>
      <trkpt lat="44.97336" lon="5.65036">
        <ele>798.341759</ele>
        <time>2011-02-13T09:53:12.77</time>
      </trkpt>
      <trkpt lat="44.97339" lon="5.65039">
        <ele>798.341774</ele>
        <time>2011-02-13T09:53:14.72</time>
      </trkpt>
      <trkpt lat="44.97342" lon="5.65043">
        <ele>797.341785</ele>
        <time>2011-02-13T09:53:16.71</time>
      </trkpt>
      <trkpt lat="44.97345" lon="5.65046">
        <ele>797.341797</ele>
        <time>2011-02-13T09:53:18.74</time>
      </trkpt>
      <trkpt lat="44.97347" lon="5.6505">
        <ele>798.341805</ele>
        <time>2011-02-13T09:53:20.85</time>
      </trkpt>
      <trkpt lat="44.97349" lon="5.65053">
        <ele>798.341816</ele>
        <time>2011-02-13T09:53:22.74</time>
      </trkpt>
      <trkpt lat="44.97351" lon="5.65057">
        <ele>799.341824</ele>
        <time>2011-02-13T09:53:24.78</time>
      </trkpt>
      <trkpt lat="44.97353" lon="5.6506">
        <ele>800.341835</ele>
        <time>2011-02-13T09:53:26.72</time>
      </trkpt>
      <trkpt lat="44.97355" lon="5.65062">
        <ele>800.341843</ele>
        <time>2011-02-13T09:53:28.73</time>
      </trkpt>
      <trkpt lat="44.97357" lon="5.65065">
        <ele>800.34185</ele>
        <time>2011-02-13T09:53:30.84</time>
      </trkpt>
      <trkpt lat="44.97358" lon="5.65067">
        <ele>800.341854</ele>
        <time>2011-02-13T09:53:32.77</time>
      </trkpt>
      <trkpt lat="44.9736" lon="5.6507">
        <ele>801.341866</ele>
        <time>2011-02-13T09:53:34.74</time>
      </trkpt>
      <trkpt lat="44.97361" lon="5.65074">
        <ele>800.341869</ele>
        <time>2011-02-13T09:53:36.72</time>
      </trkpt>
      <trkpt lat="44.97364" lon="5.65078">
        <ele>801.341885</ele>
        <time>2011-02-13T09:53:38.77</time>
      </trkpt>
      <trkpt lat="44.97367" lon="5.65083">
        <ele>801.341896</ele>
        <time>2011-02-13T09:53:40.72</time>
      </trkpt>
      <trkpt lat="44.9737" lon="5.65088">
        <ele>803.341915</ele>
        <time>2011-02-13T09:53:42.115</time>
      </trkpt>
      <trkpt lat="44.97374" lon="5.65093">
        <ele>803.341927</ele>
        <time>2011-02-13T09:53:44.76</time>
      </trkpt>
      <trkpt lat="44.97377" lon="5.65097">
        <ele>804.341946</ele>
        <time>2011-02-13T09:53:46.74</time>
      </trkpt>
      <trkpt lat="44.97381" lon="5.65103">
        <ele>804.341961</ele>
        <time>2011-02-13T09:53:48.74</time>
      </trkpt>
      <trkpt lat="44.97385" lon="5.65108">
        <ele>804.341976</ele>
        <time>2011-02-13T09:53:50.72</time>
      </trkpt>
      <trkpt lat="44.97391" lon="5.65114">
        <ele>804.341995</ele>
        <time>2011-02-13T09:53:52.79</time>
      </trkpt>
      <trkpt lat="44.97396" lon="5.65121">
        <ele>803.342018</ele>
        <time>2011-02-13T09:53:54.121</time>
      </trkpt>
      <trkpt lat="44.974" lon="5.65127">
        <ele>802.342041</ele>
        <time>2011-02-13T09:53:56.75</time>
      </trkpt>
      <trkpt lat="44.97405" lon="5.65133">
        <ele>802.34206</ele>
        <time>2011-02-13T09:53:58.75</time>
      </trkpt>
      <trkpt lat="44.97409" lon="5.65139">
        <ele>802.342079</ele>
        <time>2011-02-13T09:54:00.92</time>
      </trkpt>
      <trkpt lat="44.97414" lon="5.65145">
        <ele>802.342094</ele>
        <time>2011-02-13T09:54:02.79</time>
      </trkpt>
      <trkpt lat="44.97419" lon="5.65151">
        <ele>801.342117</ele>
        <time>2011-02-13T09:54:04.76</time>
      </trkpt>
      <trkpt lat="44.97424" lon="5.65157">
        <ele>801.342133</ele>
        <time>2011-02-13T09:54:06.75</time>
      </trkpt>
      <trkpt lat="44.97429" lon="5.65162">
        <ele>801.342155</ele>
        <time>2011-02-13T09:54:08.71</time>
      </trkpt>
      <trkpt lat="44.97434" lon="5.65167">
        <ele>801.342171</ele>
        <time>2011-02-13T09:54:10.83</time>
      </trkpt>
      <trkpt lat="44.97439" lon="5.65173">
        <ele>801.34219</ele>
        <time>2011-02-13T09:54:12.77</time>
      </trkpt>
      <trkpt lat="44.97444" lon="5.65177">
        <ele>801.342209</ele>
        <time>2011-02-13T09:54:14.77</time>
      </trkpt>
      <trkpt lat="44.97449" lon="5.65182">
        <ele>801.342228</ele>
        <time>2011-02-13T09:54:16.76</time>
      </trkpt>
      <trkpt lat="44.97454" lon="5.65187">
        <ele>800.342247</ele>
        <time>2011-02-13T09:54:18.75</time>
      </trkpt>
      <trkpt lat="44.97458" lon="5.65191">
        <ele>800.342258</ele>
        <time>2011-02-13T09:54:20.84</time>
      </trkpt>
      <trkpt lat="44.97463" lon="5.65196">
        <ele>800.342278</ele>
        <time>2011-02-13T09:54:22.71</time>
      </trkpt>
      <trkpt lat="44.97468" lon="5.652">
        <ele>800.342297</ele>
        <time>2011-02-13T09:54:24.78</time>
      </trkpt>
      <trkpt lat="44.97472" lon="5.65204">
        <ele>800.342312</ele>
        <time>2011-02-13T09:54:26.77</time>
      </trkpt>
      <trkpt lat="44.97477" lon="5.65209">
        <ele>799.342327</ele>
        <time>2011-02-13T09:54:28.72</time>
      </trkpt>
      <trkpt lat="44.97482" lon="5.65213">
        <ele>799.342346</ele>
        <time>2011-02-13T09:54:30.85</time>
      </trkpt>
      <trkpt lat="44.97487" lon="5.65216">
        <ele>799.342361</ele>
        <time>2011-02-13T09:54:32.76</time>
      </trkpt>
      <trkpt lat="44.97492" lon="5.65221">
        <ele>799.342377</ele>
        <time>2011-02-13T09:54:34.74</time>
      </trkpt>
      <trkpt lat="44.97496" lon="5.65225">
        <ele>799.342396</ele>
        <time>2011-02-13T09:54:36.72</time>
      </trkpt>
      <trkpt lat="44.97501" lon="5.6523">
        <ele>799.342415</ele>
        <time>2011-02-13T09:54:38.77</time>
      </trkpt>
      <trkpt lat="44.97506" lon="5.65234">
        <ele>800.34243</ele>
        <time>2011-02-13T09:54:40.84</time>
      </trkpt>
      <trkpt lat="44.97511" lon="5.65239">
        <ele>800.342445</ele>
        <time>2011-02-13T09:54:42.78</time>
      </trkpt>
      <trkpt lat="44.97515" lon="5.65244">
        <ele>800.342464</ele>
        <time>2011-02-13T09:54:44.75</time>
      </trkpt>
      <trkpt lat="44.97519" lon="5.65249">
        <ele>800.342484</ele>
        <time>2011-02-13T09:54:46.74</time>
      </trkpt>
      <trkpt lat="44.97524" lon="5.65254">
        <ele>800.342499</ele>
        <time>2011-02-13T09:54:48.77</time>
      </trkpt>
      <trkpt lat="44.97527" lon="5.65259">
        <ele>800.342514</ele>
        <time>2011-02-13T09:54:50.73</time>
      </trkpt>
      <trkpt lat="44.97531" lon="5.65264">
        <ele>801.342529</ele>
        <time>2011-02-13T09:54:52.73</time>
      </trkpt>
      <trkpt lat="44.97534" lon="5.65269">
        <ele>801.342545</ele>
        <time>2011-02-13T09:54:54.77</time>
      </trkpt>
      <trkpt lat="44.97538" lon="5.65274">
        <ele>801.34256</ele>
        <time>2011-02-13T09:54:56.77</time>
      </trkpt>
      <trkpt lat="44.97542" lon="5.65279">
        <ele>801.342575</ele>
        <time>2011-02-13T09:54:58.74</time>
      </trkpt>
      <trkpt lat="44.97546" lon="5.65284">
        <ele>801.342594</ele>
        <time>2011-02-13T09:55:00.82</time>
      </trkpt>
      <trkpt lat="44.97549" lon="5.6529">
        <ele>801.342609</ele>
        <time>2011-02-13T09:55:02.78</time>
      </trkpt>
      <trkpt lat="44.97553" lon="5.65296">
        <ele>801.342628</ele>
        <time>2011-02-13T09:55:04.73</time>
      </trkpt>
      <trkpt lat="44.97557" lon="5.65301">
        <ele>801.342644</ele>
        <time>2011-02-13T09:55:06.78</time>
      </trkpt>
      <trkpt lat="44.97561" lon="5.65307">
        <ele>800.342663</ele>
        <time>2011-02-13T09:55:08.82</time>
      </trkpt>
      <trkpt lat="44.97565" lon="5.65313">
        <ele>800.342678</ele>
        <time>2011-02-13T09:55:10.71</time>
      </trkpt>
      <trkpt lat="44.97569" lon="5.65319">
        <ele>800.342693</ele>
        <time>2011-02-13T09:55:12.77</time>
      </trkpt>
      <trkpt lat="44.97572" lon="5.65325">
        <ele>800.342712</ele>
        <time>2011-02-13T09:55:14.74</time>
      </trkpt>
      <trkpt lat="44.97576" lon="5.6533">
        <ele>800.342728</ele>
        <time>2011-02-13T09:55:16.74</time>
      </trkpt>
      <trkpt lat="44.9758" lon="5.65336">
        <ele>800.342743</ele>
        <time>2011-02-13T09:55:18.106</time>
      </trkpt>
      <trkpt lat="44.97583" lon="5.65342">
        <ele>801.342762</ele>
        <time>2011-02-13T09:55:20.71</time>
      </trkpt>
      <trkpt lat="44.97587" lon="5.65347">
        <ele>801.342777</ele>
        <time>2011-02-13T09:55:22.71</time>
      </trkpt>
      <trkpt lat="44.97591" lon="5.65352">
        <ele>801.342793</ele>
        <time>2011-02-13T09:55:24.76</time>
      </trkpt>
      <trkpt lat="44.97594" lon="5.65357">
        <ele>801.342808</ele>
        <time>2011-02-13T09:55:26.74</time>
      </trkpt>
      <trkpt lat="44.97598" lon="5.65362">
        <ele>801.342819</ele>
        <time>2011-02-13T09:55:28.78</time>
      </trkpt>
      <trkpt lat="44.97601" lon="5.65367">
        <ele>801.342838</ele>
        <time>2011-02-13T09:55:30.85</time>
      </trkpt>
      <trkpt lat="44.97605" lon="5.65372">
        <ele>801.342857</ele>
        <time>2011-02-13T09:55:32.76</time>
      </trkpt>
      <trkpt lat="44.97609" lon="5.65378">
        <ele>801.342873</ele>
        <time>2011-02-13T09:55:34.76</time>
      </trkpt>
      <trkpt lat="44.97612" lon="5.65382">
        <ele>801.34288</ele>
        <time>2011-02-13T09:55:36.74</time>
      </trkpt>
      <trkpt lat="44.97616" lon="5.65387">
        <ele>801.342899</ele>
        <time>2011-02-13T09:55:38.78</time>
      </trkpt>
      <trkpt lat="44.9762" lon="5.65392">
        <ele>802.342918</ele>
        <time>2011-02-13T09:55:40.73</time>
      </trkpt>
      <trkpt lat="44.97624" lon="5.65396">
        <ele>802.342926</ele>
        <time>2011-02-13T09:55:42.76</time>
      </trkpt>
      <trkpt lat="44.97628" lon="5.65401">
        <ele>802.342949</ele>
        <time>2011-02-13T09:55:44.82</time>
      </trkpt>
      <trkpt lat="44.97632" lon="5.65405">
        <ele>802.342964</ele>
        <time>2011-02-13T09:55:46.70</time>
      </trkpt>
      <trkpt lat="44.97635" lon="5.6541">
        <ele>802.342979</ele>
        <time>2011-02-13T09:55:48.74</time>
      </trkpt>
      <trkpt lat="44.97639" lon="5.65414">
        <ele>803.342995</ele>
        <time>2011-02-13T09:55:50.85</time>
      </trkpt>
      <trkpt lat="44.97643" lon="5.65418">
        <ele>803.343006</ele>
        <time>2011-02-13T09:55:52.73</time>
      </trkpt>
      <trkpt lat="44.97647" lon="5.65423">
        <ele>802.343021</ele>
        <time>2011-02-13T09:55:54.104</time>
      </trkpt>
      <trkpt lat="44.97651" lon="5.65427">
        <ele>802.34304</ele>
        <time>2011-02-13T09:55:56.72</time>
      </trkpt>
      <trkpt lat="44.97655" lon="5.65432">
        <ele>802.343052</ele>
        <time>2011-02-13T09:55:58.71</time>
      </trkpt>
      <trkpt lat="44.97659" lon="5.65436">
        <ele>802.343067</ele>
        <time>2011-02-13T09:56:00.75</time>
      </trkpt>
      <trkpt lat="44.97663" lon="5.6544">
        <ele>802.343082</ele>
        <time>2011-02-13T09:56:02.74</time>
      </trkpt>
      <trkpt lat="44.97667" lon="5.65445">
        <ele>803.343098</ele>
        <time>2011-02-13T09:56:04.108</time>
      </trkpt>
      <trkpt lat="44.97671" lon="5.65449">
        <ele>802.343117</ele>
        <time>2011-02-13T09:56:06.73</time>
      </trkpt>
      <trkpt lat="44.97676" lon="5.65453">
        <ele>803.343124</ele>
        <time>2011-02-13T09:56:08.77</time>
      </trkpt>
      <trkpt lat="44.9768" lon="5.65458">
        <ele>803.343147</ele>
        <time>2011-02-13T09:56:10.95</time>
      </trkpt>
      <trkpt lat="44.97684" lon="5.65462">
        <ele>803.343159</ele>
        <time>2011-02-13T09:56:12.76</time>
      </trkpt>
      <trkpt lat="44.97688" lon="5.65466">
        <ele>803.343178</ele>
        <time>2011-02-13T09:56:14.76</time>
      </trkpt>
      <trkpt lat="44.97692" lon="5.65471">
        <ele>803.343193</ele>
        <time>2011-02-13T09:56:16.77</time>
      </trkpt>
      <trkpt lat="44.97696" lon="5.65475">
        <ele>803.343208</ele>
        <time>2011-02-13T09:56:18.77</time>
      </trkpt>
      <trkpt lat="44.977" lon="5.6548">
        <ele>804.343224</ele>
        <time>2011-02-13T09:56:20.72</time>
      </trkpt>
      <trkpt lat="44.97704" lon="5.65484">
        <ele>803.343239</ele>
        <time>2011-02-13T09:56:22.78</time>
      </trkpt>
      <trkpt lat="44.97707" lon="5.65489">
        <ele>803.343254</ele>
        <time>2011-02-13T09:56:24.75</time>
      </trkpt>
      <trkpt lat="44.97711" lon="5.65494">
        <ele>803.343266</ele>
        <time>2011-02-13T09:56:26.75</time>
      </trkpt>
      <trkpt lat="44.97715" lon="5.65498">
        <ele>803.343285</ele>
        <time>2011-02-13T09:56:28.75</time>
      </trkpt>
      <trkpt lat="44.9772" lon="5.65503">
        <ele>803.3433</ele>
        <time>2011-02-13T09:56:30.85</time>
      </trkpt>
      <trkpt lat="44.97724" lon="5.65508">
        <ele>804.343315</ele>
        <time>2011-02-13T09:56:32.92</time>
      </trkpt>
      <trkpt lat="44.97728" lon="5.65512">
        <ele>804.34333</ele>
        <time>2011-02-13T09:56:34.72</time>
      </trkpt>
      <trkpt lat="44.97732" lon="5.65517">
        <ele>804.343346</ele>
        <time>2011-02-13T09:56:36.76</time>
      </trkpt>
      <trkpt lat="44.97736" lon="5.65521">
        <ele>805.343361</ele>
        <time>2011-02-13T09:56:38.74</time>
      </trkpt>
      <trkpt lat="44.9774" lon="5.65525">
        <ele>805.34338</ele>
        <time>2011-02-13T09:56:40.83</time>
      </trkpt>
      <trkpt lat="44.97745" lon="5.6553">
        <ele>804.343391</ele>
        <time>2011-02-13T09:56:42.77</time>
      </trkpt>
      <trkpt lat="44.97749" lon="5.65533">
        <ele>805.34341</ele>
        <time>2011-02-13T09:56:44.83</time>
      </trkpt>
      <trkpt lat="44.97754" lon="5.65537">
        <ele>804.343422</ele>
        <time>2011-02-13T09:56:46.73</time>
      </trkpt>
      <trkpt lat="44.97758" lon="5.65541">
        <ele>805.343441</ele>
        <time>2011-02-13T09:56:48.81</time>
      </trkpt>
      <trkpt lat="44.97762" lon="5.65545">
        <ele>805.343456</ele>
        <time>2011-02-13T09:56:50.75</time>
      </trkpt>
      <trkpt lat="44.97767" lon="5.65548">
        <ele>805.343472</ele>
        <time>2011-02-13T09:56:52.74</time>
      </trkpt>
      <trkpt lat="44.97772" lon="5.65552">
        <ele>805.343487</ele>
        <time>2011-02-13T09:56:54.74</time>
      </trkpt>
      <trkpt lat="44.97777" lon="5.65556">
        <ele>805.343502</ele>
        <time>2011-02-13T09:56:56.73</time>
      </trkpt>
      <trkpt lat="44.97781" lon="5.6556">
        <ele>805.343517</ele>
        <time>2011-02-13T09:56:58.69</time>
      </trkpt>
      <trkpt lat="44.97786" lon="5.65564">
        <ele>805.343536</ele>
        <time>2011-02-13T09:57:00.84</time>
      </trkpt>
      <trkpt lat="44.9779" lon="5.65567">
        <ele>805.343548</ele>
        <time>2011-02-13T09:57:02.75</time>
      </trkpt>
      <trkpt lat="44.97795" lon="5.65571">
        <ele>804.343567</ele>
        <time>2011-02-13T09:57:04.74</time>
      </trkpt>
      <trkpt lat="44.97799" lon="5.65574">
        <ele>804.343578</ele>
        <time>2011-02-13T09:57:06.76</time>
      </trkpt>
      <trkpt lat="44.97804" lon="5.65577">
        <ele>805.343594</ele>
        <time>2011-02-13T09:57:08.97</time>
      </trkpt>
      <trkpt lat="44.97808" lon="5.65579">
        <ele>805.343605</ele>
        <time>2011-02-13T09:57:10.71</time>
      </trkpt>
      <trkpt lat="44.97813" lon="5.65582">
        <ele>806.343628</ele>
        <time>2011-02-13T09:57:12.76</time>
      </trkpt>
      <trkpt lat="44.97818" lon="5.65584">
        <ele>806.343636</ele>
        <time>2011-02-13T09:57:14.76</time>
      </trkpt>
      <trkpt lat="44.97824" lon="5.65587">
        <ele>806.343655</ele>
        <time>2011-02-13T09:57:16.70</time>
      </trkpt>
      <trkpt lat="44.97829" lon="5.65589">
        <ele>806.343666</ele>
        <time>2011-02-13T09:57:18.74</time>
      </trkpt>
      <trkpt lat="44.97834" lon="5.6559">
        <ele>806.343681</ele>
        <time>2011-02-13T09:57:20.74</time>
      </trkpt>
      <trkpt lat="44.9784" lon="5.65592">
        <ele>805.343697</ele>
        <time>2011-02-13T09:57:22.75</time>
      </trkpt>
      <trkpt lat="44.97845" lon="5.65594">
        <ele>805.343712</ele>
        <time>2011-02-13T09:57:24.75</time>
      </trkpt>
      <trkpt lat="44.9785" lon="5.65597">
        <ele>805.343727</ele>
        <time>2011-02-13T09:57:26.77</time>
      </trkpt>
      <trkpt lat="44.97856" lon="5.65599">
        <ele>806.343742</ele>
        <time>2011-02-13T09:57:28.126</time>
      </trkpt>
      <trkpt lat="44.97861" lon="5.65601">
        <ele>806.343754</ele>
        <time>2011-02-13T09:57:30.84</time>
      </trkpt>
      <trkpt lat="44.97867" lon="5.65603">
        <ele>806.343769</ele>
        <time>2011-02-13T09:57:32.73</time>
      </trkpt>
      <trkpt lat="44.97872" lon="5.65606">
        <ele>806.343788</ele>
        <time>2011-02-13T09:57:34.73</time>
      </trkpt>
      <trkpt lat="44.97877" lon="5.6561">
        <ele>806.343807</ele>
        <time>2011-02-13T09:57:36.76</time>
      </trkpt>
      <trkpt lat="44.97882" lon="5.65614">
        <ele>805.343822</ele>
        <time>2011-02-13T09:57:38.79</time>
      </trkpt>
      <trkpt lat="44.97887" lon="5.6562">
        <ele>805.343842</ele>
        <time>2011-02-13T09:57:40.71</time>
      </trkpt>
      <trkpt lat="44.97892" lon="5.65626">
        <ele>805.343861</ele>
        <time>2011-02-13T09:57:42.76</time>
      </trkpt>
      <trkpt lat="44.97896" lon="5.65634">
        <ele>804.34388</ele>
        <time>2011-02-13T09:57:44.75</time>
      </trkpt>
      <trkpt lat="44.97899" lon="5.65642">
        <ele>804.343899</ele>
        <time>2011-02-13T09:57:46.75</time>
      </trkpt>
      <trkpt lat="44.97902" lon="5.6565">
        <ele>803.343922</ele>
        <time>2011-02-13T09:57:48.72</time>
      </trkpt>
      <trkpt lat="44.97905" lon="5.6566">
        <ele>803.343941</ele>
        <time>2011-02-13T09:57:50.73</time>
      </trkpt>
      <trkpt lat="44.97909" lon="5.6567">
        <ele>803.343964</ele>
        <time>2011-02-13T09:57:52.71</time>
      </trkpt>
      <trkpt lat="44.97912" lon="5.65678">
        <ele>802.343983</ele>
        <time>2011-02-13T09:57:54.82</time>
      </trkpt>
      <trkpt lat="44.97916" lon="5.65685">
        <ele>802.344002</ele>
        <time>2011-02-13T09:57:56.73</time>
      </trkpt>
      <trkpt lat="44.97921" lon="5.65692">
        <ele>802.344025</ele>
        <time>2011-02-13T09:57:58.73</time>
      </trkpt>
      <trkpt lat="44.97926" lon="5.65696">
        <ele>802.344044</ele>
        <time>2011-02-13T09:58:00.72</time>
      </trkpt>
      <trkpt lat="44.97931" lon="5.65701">
        <ele>801.344059</ele>
        <time>2011-02-13T09:58:02.77</time>
      </trkpt>
      <trkpt lat="44.97937" lon="5.65705">
        <ele>801.344078</ele>
        <time>2011-02-13T09:58:04.71</time>
      </trkpt>
      <trkpt lat="44.97943" lon="5.65707">
        <ele>801.34409</ele>
        <time>2011-02-13T09:58:06.76</time>
      </trkpt>
      <trkpt lat="44.97949" lon="5.65709">
        <ele>801.344109</ele>
        <time>2011-02-13T09:58:08.74</time>
      </trkpt>
      <trkpt lat="44.97955" lon="5.65711">
        <ele>800.344124</ele>
        <time>2011-02-13T09:58:10.84</time>
      </trkpt>
      <trkpt lat="44.97961" lon="5.65712">
        <ele>800.344139</ele>
        <time>2011-02-13T09:58:12.77</time>
      </trkpt>
      <trkpt lat="44.97966" lon="5.65712">
        <ele>799.344154</ele>
        <time>2011-02-13T09:58:14.77</time>
      </trkpt>
      <trkpt lat="44.97971" lon="5.65713">
        <ele>799.344162</ele>
        <time>2011-02-13T09:58:16.77</time>
      </trkpt>
      <trkpt lat="44.97975" lon="5.65714">
        <ele>799.344177</ele>
        <time>2011-02-13T09:58:18.76</time>
      </trkpt>
      <trkpt lat="44.9798" lon="5.65714">
        <ele>799.344185</ele>
        <time>2011-02-13T09:58:20.73</time>
      </trkpt>
      <trkpt lat="44.97985" lon="5.65714">
        <ele>799.344193</ele>
        <time>2011-02-13T09:58:22.73</time>
      </trkpt>
      <trkpt lat="44.9799" lon="5.65715">
        <ele>799.344208</ele>
        <time>2011-02-13T09:58:24.77</time>
      </trkpt>
      <trkpt lat="44.97995" lon="5.65715">
        <ele>800.344219</ele>
        <time>2011-02-13T09:58:26.94</time>
      </trkpt>
      <trkpt lat="44.98" lon="5.65717">
        <ele>800.344231</ele>
        <time>2011-02-13T09:58:28.70</time>
      </trkpt>
      <trkpt lat="44.98005" lon="5.65718">
        <ele>800.344242</ele>
        <time>2011-02-13T09:58:30.83</time>
      </trkpt>
      <trkpt lat="44.9801" lon="5.65719">
        <ele>800.344254</ele>
        <time>2011-02-13T09:58:32.117</time>
      </trkpt>
      <trkpt lat="44.98015" lon="5.65719">
        <ele>799.344269</ele>
        <time>2011-02-13T09:58:34.72</time>
      </trkpt>
      <trkpt lat="44.98019" lon="5.6572">
        <ele>800.344276</ele>
        <time>2011-02-13T09:58:36.78</time>
      </trkpt>
      <trkpt lat="44.98024" lon="5.6572">
        <ele>800.344288</ele>
        <time>2011-02-13T09:58:38.83</time>
      </trkpt>
      <trkpt lat="44.98029" lon="5.65721">
        <ele>800.344303</ele>
        <time>2011-02-13T09:58:40.75</time>
      </trkpt>
      <trkpt lat="44.98034" lon="5.65722">
        <ele>800.344315</ele>
        <time>2011-02-13T09:58:42.73</time>
      </trkpt>
      <trkpt lat="44.98039" lon="5.65724">
        <ele>800.344326</ele>
        <time>2011-02-13T09:58:44.75</time>
      </trkpt>
      <trkpt lat="44.98044" lon="5.65725">
        <ele>800.344341</ele>
        <time>2011-02-13T09:58:46.70</time>
      </trkpt>
      <trkpt lat="44.98049" lon="5.65726">
        <ele>800.344353</ele>
        <time>2011-02-13T09:58:48.80</time>
      </trkpt>
      <trkpt lat="44.98054" lon="5.65727">
        <ele>800.344368</ele>
        <time>2011-02-13T09:58:50.72</time>
      </trkpt>
      <trkpt lat="44.98059" lon="5.65727">
        <ele>799.344376</ele>
        <time>2011-02-13T09:58:52.72</time>
      </trkpt>
      <trkpt lat="44.98064" lon="5.65728">
        <ele>798.344387</ele>
        <time>2011-02-13T09:58:54.76</time>
      </trkpt>
      <trkpt lat="44.9807" lon="5.65728">
        <ele>798.344406</ele>
        <time>2011-02-13T09:58:56.72</time>
      </trkpt>
      <trkpt lat="44.98075" lon="5.65728">
        <ele>798.344414</ele>
        <time>2011-02-13T09:58:58.69</time>
      </trkpt>
      <trkpt lat="44.9808" lon="5.65728">
        <ele>798.344421</ele>
        <time>2011-02-13T09:59:00.72</time>
      </trkpt>
      <trkpt lat="44.98085" lon="5.65728">
        <ele>798.344433</ele>
        <time>2011-02-13T09:59:02.73</time>
      </trkpt>
      <trkpt lat="44.98089" lon="5.65728">
        <ele>798.344444</ele>
        <time>2011-02-13T09:59:04.73</time>
      </trkpt>
      <trkpt lat="44.98095" lon="5.65728">
        <ele>798.344452</ele>
        <time>2011-02-13T09:59:06.71</time>
      </trkpt>
      <trkpt lat="44.981" lon="5.65727">
        <ele>798.344467</ele>
        <time>2011-02-13T09:59:08.108</time>
      </trkpt>
      <trkpt lat="44.98105" lon="5.65727">
        <ele>798.344475</ele>
        <time>2011-02-13T09:59:10.73</time>
      </trkpt>
      <trkpt lat="44.9811" lon="5.65726">
        <ele>798.344486</ele>
        <time>2011-02-13T09:59:12.72</time>
      </trkpt>
      <trkpt lat="44.9812" lon="5.65725">
        <ele>798.344505</ele>
        <time>2011-02-13T09:59:17.73</time>
      </trkpt>
      <trkpt lat="44.98129" lon="5.65725">
        <ele>798.344524</ele>
        <time>2011-02-13T09:59:21.73</time>
      </trkpt>
      <trkpt lat="44.98139" lon="5.65729">
        <ele>799.344551</ele>
        <time>2011-02-13T09:59:25.71</time>
      </trkpt>
      <trkpt lat="44.98146" lon="5.65733">
        <ele>799.34457</ele>
        <time>2011-02-13T09:59:28.72</time>
      </trkpt>
      <trkpt lat="44.9815" lon="5.65735">
        <ele>799.344585</ele>
        <time>2011-02-13T09:59:30.83</time>
      </trkpt>
      <trkpt lat="44.98155" lon="5.65738">
        <ele>799.344601</ele>
        <time>2011-02-13T09:59:32.79</time>
      </trkpt>
      <trkpt lat="44.9816" lon="5.65741">
        <ele>798.344616</ele>
        <time>2011-02-13T09:59:34.70</time>
      </trkpt>
      <trkpt lat="44.98165" lon="5.65745">
        <ele>799.344635</ele>
        <time>2011-02-13T09:59:36.75</time>
      </trkpt>
      <trkpt lat="44.9817" lon="5.65748">
        <ele>798.34465</ele>
        <time>2011-02-13T09:59:38.73</time>
      </trkpt>
      <trkpt lat="44.98174" lon="5.65751">
        <ele>798.344662</ele>
        <time>2011-02-13T09:59:40.73</time>
      </trkpt>
      <trkpt lat="44.98177" lon="5.65754">
        <ele>798.344673</ele>
        <time>2011-02-13T09:59:42.75</time>
      </trkpt>
      <trkpt lat="44.98181" lon="5.65757">
        <ele>798.344688</ele>
        <time>2011-02-13T09:59:44.75</time>
      </trkpt>
      <trkpt lat="44.98184" lon="5.6576">
        <ele>798.344696</ele>
        <time>2011-02-13T09:59:46.76</time>
      </trkpt>
      <trkpt lat="44.98188" lon="5.65763">
        <ele>797.344707</ele>
        <time>2011-02-13T09:59:48.74</time>
      </trkpt>
      <trkpt lat="44.98191" lon="5.65767">
        <ele>797.344723</ele>
        <time>2011-02-13T09:59:50.74</time>
      </trkpt>
      <trkpt lat="44.98194" lon="5.6577">
        <ele>796.344734</ele>
        <time>2011-02-13T09:59:52.73</time>
      </trkpt>
      <trkpt lat="44.98197" lon="5.65773">
        <ele>795.344746</ele>
        <time>2011-02-13T09:59:54.72</time>
      </trkpt>
      <trkpt lat="44.982" lon="5.65777">
        <ele>795.344757</ele>
        <time>2011-02-13T09:59:56.79</time>
      </trkpt>
      <trkpt lat="44.98202" lon="5.65779">
        <ele>794.344765</ele>
        <time>2011-02-13T09:59:58.74</time>
      </trkpt>
      <trkpt lat="44.98204" lon="5.65782">
        <ele>792.344772</ele>
        <time>2011-02-13T10:00:00.83</time>
      </trkpt>
      <trkpt lat="44.98206" lon="5.65784">
        <ele>792.344784</ele>
        <time>2011-02-13T10:00:02.72</time>
      </trkpt>
      <trkpt lat="44.98208" lon="5.65787">
        <ele>791.344791</ele>
        <time>2011-02-13T10:00:04.72</time>
      </trkpt>
      <trkpt lat="44.9821" lon="5.65789">
        <ele>791.344795</ele>
        <time>2011-02-13T10:00:06.72</time>
      </trkpt>
      <trkpt lat="44.98212" lon="5.65792">
        <ele>790.344807</ele>
        <time>2011-02-13T10:00:08.82</time>
      </trkpt>
      <trkpt lat="44.98213" lon="5.65794">
        <ele>790.34481</ele>
        <time>2011-02-13T10:00:10.71</time>
      </trkpt>
      <trkpt lat="44.98214" lon="5.65797">
        <ele>790.344818</ele>
        <time>2011-02-13T10:00:12.75</time>
      </trkpt>
      <trkpt lat="44.98216" lon="5.65801">
        <ele>789.344826</ele>
        <time>2011-02-13T10:00:14.119</time>
      </trkpt>
      <trkpt lat="44.98218" lon="5.65804">
        <ele>789.344833</ele>
        <time>2011-02-13T10:00:16.69</time>
      </trkpt>
      <trkpt lat="44.98221" lon="5.65809">
        <ele>789.344849</ele>
        <time>2011-02-13T10:00:19.73</time>
      </trkpt>
      <trkpt lat="44.98222" lon="5.65813">
        <ele>789.34486</ele>
        <time>2011-02-13T10:00:21.78</time>
      </trkpt>
      <trkpt lat="44.98224" lon="5.65816">
        <ele>790.344872</ele>
        <time>2011-02-13T10:00:23.72</time>
      </trkpt>
      <trkpt lat="44.98226" lon="5.65819">
        <ele>789.344879</ele>
        <time>2011-02-13T10:00:25.71</time>
      </trkpt>
      <trkpt lat="44.98227" lon="5.65822">
        <ele>787.344887</ele>
        <time>2011-02-13T10:00:27.73</time>
      </trkpt>
      <trkpt lat="44.98229" lon="5.65824">
        <ele>785.344894</ele>
        <time>2011-02-13T10:00:29.76</time>
      </trkpt>
      <trkpt lat="44.9823" lon="5.65825">
        <ele>783.344894</ele>
        <time>2011-02-13T10:00:31.74</time>
      </trkpt>
      <trkpt lat="44.9823" lon="5.65825">
        <ele>782.344894</ele>
        <time>2011-02-13T10:00:33.74</time>
      </trkpt>
      <trkpt lat="44.9823" lon="5.65825">
        <ele>781.344894</ele>
        <time>2011-02-13T10:00:35.82</time>
      </trkpt>
      <trkpt lat="44.9823" lon="5.65825">
        <ele>781.344894</ele>
        <time>2011-02-13T10:00:37.74</time>
      </trkpt>
      <trkpt lat="44.9823" lon="5.65827">
        <ele>781.344898</ele>
        <time>2011-02-13T10:00:39.79</time>
      </trkpt>
      <trkpt lat="44.98231" lon="5.65828">
        <ele>781.344902</ele>
        <time>2011-02-13T10:00:41.77</time>
      </trkpt>
      <trkpt lat="44.98232" lon="5.65831">
        <ele>781.344906</ele>
        <time>2011-02-13T10:00:43.69</time>
      </trkpt>
      <trkpt lat="44.98233" lon="5.65833">
        <ele>781.344917</ele>
        <time>2011-02-13T10:00:45.84</time>
      </trkpt>
      <trkpt lat="44.98234" lon="5.65836">
        <ele>780.344921</ele>
        <time>2011-02-13T10:00:47.73</time>
      </trkpt>
      <trkpt lat="44.98237" lon="5.6584">
        <ele>781.344933</ele>
        <time>2011-02-13T10:00:50.83</time>
      </trkpt>
      <trkpt lat="44.98239" lon="5.65842">
        <ele>780.34494</ele>
        <time>2011-02-13T10:00:52.69</time>
      </trkpt>
      <trkpt lat="44.98241" lon="5.65844">
        <ele>781.344944</ele>
        <time>2011-02-13T10:00:54.73</time>
      </trkpt>
      <trkpt lat="44.98243" lon="5.65847">
        <ele>780.344955</ele>
        <time>2011-02-13T10:00:56.72</time>
      </trkpt>
      <trkpt lat="44.98248" lon="5.65851">
        <ele>780.344971</ele>
        <time>2011-02-13T10:00:59.73</time>
      </trkpt>
      <trkpt lat="44.98251" lon="5.65854">
        <ele>780.344982</ele>
        <time>2011-02-13T10:01:01.78</time>
      </trkpt>
      <trkpt lat="44.98254" lon="5.65858">
        <ele>779.344994</ele>
        <time>2011-02-13T10:01:03.76</time>
      </trkpt>
      <trkpt lat="44.98257" lon="5.65861">
        <ele>779.345009</ele>
        <time>2011-02-13T10:01:05.84</time>
      </trkpt>
      <trkpt lat="44.98265" lon="5.65869">
        <ele>779.345036</ele>
        <time>2011-02-13T10:01:10.70</time>
      </trkpt>
      <trkpt lat="44.98268" lon="5.65872">
        <ele>778.345047</ele>
        <time>2011-02-13T10:01:12.75</time>
      </trkpt>
      <trkpt lat="44.98271" lon="5.65876">
        <ele>778.345062</ele>
        <time>2011-02-13T10:01:14.70</time>
      </trkpt>
      <trkpt lat="44.98274" lon="5.65881">
        <ele>779.345078</ele>
        <time>2011-02-13T10:01:17.78</time>
      </trkpt>
      <trkpt lat="44.98276" lon="5.65884">
        <ele>780.345081</ele>
        <time>2011-02-13T10:01:19.71</time>
      </trkpt>
      <trkpt lat="44.98278" lon="5.65887">
        <ele>780.345093</ele>
        <time>2011-02-13T10:01:21.77</time>
      </trkpt>
      <trkpt lat="44.98281" lon="5.6589">
        <ele>780.3451</ele>
        <time>2011-02-13T10:01:23.71</time>
      </trkpt>
      <trkpt lat="44.98283" lon="5.65892">
        <ele>780.345108</ele>
        <time>2011-02-13T10:01:25.71</time>
      </trkpt>
      <trkpt lat="44.98285" lon="5.65894">
        <ele>779.345116</ele>
        <time>2011-02-13T10:01:27.72</time>
      </trkpt>
      <trkpt lat="44.98286" lon="5.65895">
        <ele>779.345123</ele>
        <time>2011-02-13T10:01:29.73</time>
      </trkpt>
      <trkpt lat="44.98288" lon="5.65896">
        <ele>778.345131</ele>
        <time>2011-02-13T10:01:31.72</time>
      </trkpt>
      <trkpt lat="44.98289" lon="5.65897">
        <ele>778.345135</ele>
        <time>2011-02-13T10:01:33.74</time>
      </trkpt>
      <trkpt lat="44.98291" lon="5.65898">
        <ele>778.345135</ele>
        <time>2011-02-13T10:01:35.74</time>
      </trkpt>
      <trkpt lat="44.98292" lon="5.65898">
        <ele>777.345142</ele>
        <time>2011-02-13T10:01:37.69</time>
      </trkpt>
      <trkpt lat="44.98294" lon="5.65899">
        <ele>777.345146</ele>
        <time>2011-02-13T10:01:39.72</time>
      </trkpt>
      <trkpt lat="44.98297" lon="5.65901">
        <ele>777.345158</ele>
        <time>2011-02-13T10:01:42.78</time>
      </trkpt>
      <trkpt lat="44.983" lon="5.65902">
        <ele>777.345161</ele>
        <time>2011-02-13T10:01:44.72</time>
      </trkpt>
      <trkpt lat="44.98302" lon="5.65904">
        <ele>777.345169</ele>
        <time>2011-02-13T10:01:46.73</time>
      </trkpt>
      <trkpt lat="44.98304" lon="5.65905">
        <ele>777.345177</ele>
        <time>2011-02-13T10:01:48.75</time>
      </trkpt>
      <trkpt lat="44.98306" lon="5.65905">
        <ele>778.345181</ele>
        <time>2011-02-13T10:01:50.74</time>
      </trkpt>
      <trkpt lat="44.98308" lon="5.65906">
        <ele>778.345184</ele>
        <time>2011-02-13T10:01:52.70</time>
      </trkpt>
      <trkpt lat="44.9831" lon="5.65907">
        <ele>778.345188</ele>
        <time>2011-02-13T10:01:54.73</time>
      </trkpt>
      <trkpt lat="44.98312" lon="5.65908">
        <ele>777.3452</ele>
        <time>2011-02-13T10:01:56.77</time>
      </trkpt>
      <trkpt lat="44.98314" lon="5.65909">
        <ele>776.345203</ele>
        <time>2011-02-13T10:01:58.72</time>
      </trkpt>
      <trkpt lat="44.98316" lon="5.65909">
        <ele>776.345207</ele>
        <time>2011-02-13T10:02:00.71</time>
      </trkpt>
      <trkpt lat="44.98319" lon="5.65911">
        <ele>776.345215</ele>
        <time>2011-02-13T10:02:02.81</time>
      </trkpt>
      <trkpt lat="44.98321" lon="5.65912">
        <ele>776.345222</ele>
        <time>2011-02-13T10:02:04.70</time>
      </trkpt>
      <trkpt lat="44.98324" lon="5.65914">
        <ele>776.345234</ele>
        <time>2011-02-13T10:02:06.74</time>
      </trkpt>
      <trkpt lat="44.98326" lon="5.65915">
        <ele>776.345242</ele>
        <time>2011-02-13T10:02:08.72</time>
      </trkpt>
      <trkpt lat="44.98329" lon="5.65918">
        <ele>776.345249</ele>
        <time>2011-02-13T10:02:10.71</time>
      </trkpt>
      <trkpt lat="44.98333" lon="5.65922">
        <ele>776.345264</ele>
        <time>2011-02-13T10:02:13.68</time>
      </trkpt>
      <trkpt lat="44.98336" lon="5.65924">
        <ele>776.345272</ele>
        <time>2011-02-13T10:02:15.85</time>
      </trkpt>
      <trkpt lat="44.98338" lon="5.65927">
        <ele>776.345284</ele>
        <time>2011-02-13T10:02:17.71</time>
      </trkpt>
      <trkpt lat="44.98342" lon="5.6593">
        <ele>776.345295</ele>
        <time>2011-02-13T10:02:20.71</time>
      </trkpt>
      <trkpt lat="44.98343" lon="5.65933">
        <ele>776.345306</ele>
        <time>2011-02-13T10:02:22.68</time>
      </trkpt>
      <trkpt lat="44.98345" lon="5.65935">
        <ele>776.34531</ele>
        <time>2011-02-13T10:02:24.68</time>
      </trkpt>
      <trkpt lat="44.98346" lon="5.65937">
        <ele>776.345314</ele>
        <time>2011-02-13T10:02:26.64</time>
      </trkpt>
      <trkpt lat="44.98347" lon="5.65939">
        <ele>777.345322</ele>
        <time>2011-02-13T10:02:28.65</time>
      </trkpt>
      <trkpt lat="44.98348" lon="5.6594">
        <ele>777.345322</ele>
        <time>2011-02-13T10:02:31.72</time>
      </trkpt>
      <trkpt lat="44.9835" lon="5.65941">
        <ele>777.345329</ele>
        <time>2011-02-13T10:02:33.76</time>
      </trkpt>
      <trkpt lat="44.98351" lon="5.65942">
        <ele>778.345337</ele>
        <time>2011-02-13T10:02:35.70</time>
      </trkpt>
      <trkpt lat="44.98353" lon="5.65943">
        <ele>777.345337</ele>
        <time>2011-02-13T10:02:37.70</time>
      </trkpt>
      <trkpt lat="44.98356" lon="5.65945">
        <ele>777.345348</ele>
        <time>2011-02-13T10:02:39.74</time>
      </trkpt>
      <trkpt lat="44.98359" lon="5.65948">
        <ele>777.34536</ele>
        <time>2011-02-13T10:02:41.75</time>
      </trkpt>
      <trkpt lat="44.98363" lon="5.65951">
        <ele>777.345375</ele>
        <time>2011-02-13T10:02:43.71</time>
      </trkpt>
      <trkpt lat="44.98369" lon="5.65954">
        <ele>777.34539</ele>
        <time>2011-02-13T10:02:45.83</time>
      </trkpt>
      <trkpt lat="44.98375" lon="5.65958">
        <ele>777.345409</ele>
        <time>2011-02-13T10:02:47.79</time>
      </trkpt>
      <trkpt lat="44.98381" lon="5.65961">
        <ele>777.345428</ele>
        <time>2011-02-13T10:02:49.74</time>
      </trkpt>
      <trkpt lat="44.98387" lon="5.65964">
        <ele>777.345444</ele>
        <time>2011-02-13T10:02:51.77</time>
      </trkpt>
      <trkpt lat="44.98392" lon="5.65966">
        <ele>776.345459</ele>
        <time>2011-02-13T10:02:53.73</time>
      </trkpt>
      <trkpt lat="44.98397" lon="5.65968">
        <ele>776.34547</ele>
        <time>2011-02-13T10:02:55.71</time>
      </trkpt>
      <trkpt lat="44.98402" lon="5.6597">
        <ele>776.345482</ele>
        <time>2011-02-13T10:02:57.77</time>
      </trkpt>
      <trkpt lat="44.98406" lon="5.65973">
        <ele>776.345501</ele>
        <time>2011-02-13T10:02:59.70</time>
      </trkpt>
      <trkpt lat="44.98411" lon="5.65975">
        <ele>777.345516</ele>
        <time>2011-02-13T10:03:01.77</time>
      </trkpt>
      <trkpt lat="44.98416" lon="5.65978">
        <ele>776.345528</ele>
        <time>2011-02-13T10:03:03.75</time>
      </trkpt>
      <trkpt lat="44.98422" lon="5.6598">
        <ele>777.345543</ele>
        <time>2011-02-13T10:03:05.72</time>
      </trkpt>
      <trkpt lat="44.98427" lon="5.65983">
        <ele>776.345562</ele>
        <time>2011-02-13T10:03:07.72</time>
      </trkpt>
      <trkpt lat="44.98432" lon="5.65986">
        <ele>776.345577</ele>
        <time>2011-02-13T10:03:09.70</time>
      </trkpt>
      <trkpt lat="44.98437" lon="5.65988">
        <ele>775.345592</ele>
        <time>2011-02-13T10:03:11.69</time>
      </trkpt>
      <trkpt lat="44.98441" lon="5.65991">
        <ele>775.3456</ele>
        <time>2011-02-13T10:03:13.74</time>
      </trkpt>
      <trkpt lat="44.98445" lon="5.65993">
        <ele>775.345619</ele>
        <time>2011-02-13T10:03:15.72</time>
      </trkpt>
      <trkpt lat="44.98449" lon="5.65996">
        <ele>775.345627</ele>
        <time>2011-02-13T10:03:17.72</time>
      </trkpt>
      <trkpt lat="44.98453" lon="5.65999">
        <ele>775.345642</ele>
        <time>2011-02-13T10:03:19.71</time>
      </trkpt>
      <trkpt lat="44.98458" lon="5.66002">
        <ele>775.345657</ele>
        <time>2011-02-13T10:03:21.78</time>
      </trkpt>
      <trkpt lat="44.98462" lon="5.66005">
        <ele>775.345673</ele>
        <time>2011-02-13T10:03:23.72</time>
      </trkpt>
      <trkpt lat="44.98466" lon="5.66009">
        <ele>776.345684</ele>
        <time>2011-02-13T10:03:25.85</time>
      </trkpt>
      <trkpt lat="44.9847" lon="5.66013">
        <ele>776.345703</ele>
        <time>2011-02-13T10:03:27.75</time>
      </trkpt>
      <trkpt lat="44.98474" lon="5.66017">
        <ele>776.345718</ele>
        <time>2011-02-13T10:03:29.78</time>
      </trkpt>
      <trkpt lat="44.98479" lon="5.66021">
        <ele>776.34573</ele>
        <time>2011-02-13T10:03:31.68</time>
      </trkpt>
      <trkpt lat="44.98483" lon="5.66026">
        <ele>775.345749</ele>
        <time>2011-02-13T10:03:33.78</time>
      </trkpt>
      <trkpt lat="44.98487" lon="5.6603">
        <ele>775.345764</ele>
        <time>2011-02-13T10:03:35.84</time>
      </trkpt>
      <trkpt lat="44.98491" lon="5.66035">
        <ele>775.345776</ele>
        <time>2011-02-13T10:03:37.70</time>
      </trkpt>
      <trkpt lat="44.98495" lon="5.66039">
        <ele>775.345795</ele>
        <time>2011-02-13T10:03:39.73</time>
      </trkpt>
      <trkpt lat="44.985" lon="5.66044">
        <ele>776.34581</ele>
        <time>2011-02-13T10:03:41.73</time>
      </trkpt>
      <trkpt lat="44.98504" lon="5.66049">
        <ele>776.345833</ele>
        <time>2011-02-13T10:03:43.72</time>
      </trkpt>
      <trkpt lat="44.98508" lon="5.66053">
        <ele>775.34584</ele>
        <time>2011-02-13T10:03:45.84</time>
      </trkpt>
      <trkpt lat="44.98512" lon="5.6606">
        <ele>775.34586</ele>
        <time>2011-02-13T10:03:52.76</time>
      </trkpt>
      <trkpt lat="44.98513" lon="5.66061">
        <ele>774.345863</ele>
        <time>2011-02-13T10:03:54.107</time>
      </trkpt>
      <trkpt lat="44.98517" lon="5.66065">
        <ele>774.345879</ele>
        <time>2011-02-13T10:04:03.78</time>
      </trkpt>
      <trkpt lat="44.98519" lon="5.66066">
        <ele>771.345886</ele>
        <time>2011-02-13T10:04:10.68</time>
      </trkpt>
      <trkpt lat="44.98519" lon="5.66066">
        <ele>770.345886</ele>
        <time>2011-02-13T10:04:13.70</time>
      </trkpt>
      <trkpt lat="44.98519" lon="5.66066">
        <ele>769.345886</ele>
        <time>2011-02-13T10:04:15.77</time>
      </trkpt>
      <trkpt lat="44.98518" lon="5.66066">
        <ele>768.345886</ele>
        <time>2011-02-13T10:04:17.85</time>
      </trkpt>
      <trkpt lat="44.98518" lon="5.66066">
        <ele>765.345886</ele>
        <time>2011-02-13T10:04:22.77</time>
      </trkpt>
      <trkpt lat="44.98518" lon="5.66066">
        <ele>764.345886</ele>
        <time>2011-02-13T10:04:27.94</time>
      </trkpt>
      <trkpt lat="44.98519" lon="5.66065">
        <ele>764.345882</ele>
        <time>2011-02-13T10:04:29.73</time>
      </trkpt>
      <trkpt lat="44.9852" lon="5.66065">
        <ele>764.345882</ele>
        <time>2011-02-13T10:04:31.161</time>
      </trkpt>
      <trkpt lat="44.9852" lon="5.66064">
        <ele>764.345886</ele>
        <time>2011-02-13T10:04:33.85</time>
      </trkpt>
      <trkpt lat="44.98521" lon="5.66064">
        <ele>763.345886</ele>
        <time>2011-02-13T10:04:36.72</time>
      </trkpt>
      <trkpt lat="44.98522" lon="5.66063">
        <ele>762.345886</ele>
        <time>2011-02-13T10:04:38.72</time>
      </trkpt>
      <trkpt lat="44.98522" lon="5.66063">
        <ele>761.345886</ele>
        <time>2011-02-13T10:04:40.68</time>
      </trkpt>
      <trkpt lat="44.98522" lon="5.66062">
        <ele>761.345886</ele>
        <time>2011-02-13T10:04:42.72</time>
      </trkpt>
      <trkpt lat="44.98523" lon="5.66061">
        <ele>761.345886</ele>
        <time>2011-02-13T10:04:47.72</time>
      </trkpt>
      <trkpt lat="44.98524" lon="5.66062">
        <ele>761.34589</ele>
        <time>2011-02-13T10:04:55.70</time>
      </trkpt>
      <trkpt lat="44.98524" lon="5.66062">
        <ele>761.34589</ele>
        <time>2011-02-13T10:04:58.71</time>
      </trkpt>
      <trkpt lat="44.98524" lon="5.66062">
        <ele>760.34589</ele>
        <time>2011-02-13T10:05:00.74</time>
      </trkpt>
      <trkpt lat="44.98524" lon="5.66063">
        <ele>760.34589</ele>
        <time>2011-02-13T10:05:02.80</time>
      </trkpt>
      <trkpt lat="44.98524" lon="5.66062">
        <ele>760.34589</ele>
        <time>2011-02-13T10:05:04.72</time>
      </trkpt>
      <trkpt lat="44.98525" lon="5.66064">
        <ele>759.345894</ele>
        <time>2011-02-13T10:05:07.70</time>
      </trkpt>
      <trkpt lat="44.98527" lon="5.66067">
        <ele>759.345905</ele>
        <time>2011-02-13T10:05:09.87</time>
      </trkpt>
      <trkpt lat="44.98531" lon="5.66072">
        <ele>758.345924</ele>
        <time>2011-02-13T10:05:11.74</time>
      </trkpt>
      <trkpt lat="44.98536" lon="5.66078">
        <ele>757.345943</ele>
        <time>2011-02-13T10:05:13.67</time>
      </trkpt>
      <trkpt lat="44.98541" lon="5.66085">
        <ele>757.345959</ele>
        <time>2011-02-13T10:05:15.73</time>
      </trkpt>
      <trkpt lat="44.98547" lon="5.6609">
        <ele>756.345982</ele>
        <time>2011-02-13T10:05:17.70</time>
      </trkpt>
      <trkpt lat="44.98553" lon="5.66096">
        <ele>756.346004</ele>
        <time>2011-02-13T10:05:19.75</time>
      </trkpt>
      <trkpt lat="44.98562" lon="5.66102">
        <ele>756.346035</ele>
        <time>2011-02-13T10:05:21.76</time>
      </trkpt>
      <trkpt lat="44.98571" lon="5.66108">
        <ele>756.346062</ele>
        <time>2011-02-13T10:05:23.72</time>
      </trkpt>
      <trkpt lat="44.9858" lon="5.66115">
        <ele>756.346088</ele>
        <time>2011-02-13T10:05:25.72</time>
      </trkpt>
      <trkpt lat="44.98589" lon="5.66121">
        <ele>755.346119</ele>
        <time>2011-02-13T10:05:27.76</time>
      </trkpt>
      <trkpt lat="44.98599" lon="5.66126">
        <ele>754.346149</ele>
        <time>2011-02-13T10:05:29.137</time>
      </trkpt>
      <trkpt lat="44.98608" lon="5.66129">
        <ele>754.346176</ele>
        <time>2011-02-13T10:05:31.69</time>
      </trkpt>
      <trkpt lat="44.98618" lon="5.66133">
        <ele>754.346203</ele>
        <time>2011-02-13T10:05:33.74</time>
      </trkpt>
      <trkpt lat="44.98629" lon="5.66135">
        <ele>754.34623</ele>
        <time>2011-02-13T10:05:35.83</time>
      </trkpt>
      <trkpt lat="44.98639" lon="5.66138">
        <ele>754.346252</ele>
        <time>2011-02-13T10:05:37.73</time>
      </trkpt>
      <trkpt lat="44.98649" lon="5.6614">
        <ele>754.346275</ele>
        <time>2011-02-13T10:05:39.75</time>
      </trkpt>
      <trkpt lat="44.98658" lon="5.66142">
        <ele>754.346298</ele>
        <time>2011-02-13T10:05:41.76</time>
      </trkpt>
      <trkpt lat="44.98667" lon="5.66143">
        <ele>754.346321</ele>
        <time>2011-02-13T10:05:43.73</time>
      </trkpt>
      <trkpt lat="44.98674" lon="5.66145">
        <ele>754.34634</ele>
        <time>2011-02-13T10:05:45.81</time>
      </trkpt>
      <trkpt lat="44.98681" lon="5.66147">
        <ele>754.346359</ele>
        <time>2011-02-13T10:05:47.72</time>
      </trkpt>
      <trkpt lat="44.98687" lon="5.66148">
        <ele>754.346375</ele>
        <time>2011-02-13T10:05:49.72</time>
      </trkpt>
      <trkpt lat="44.98694" lon="5.6615">
        <ele>753.34639</ele>
        <time>2011-02-13T10:05:51.73</time>
      </trkpt>
      <trkpt lat="44.98699" lon="5.66151">
        <ele>752.346401</ele>
        <time>2011-02-13T10:05:53.70</time>
      </trkpt>
      <trkpt lat="44.98704" lon="5.66153">
        <ele>752.34642</ele>
        <time>2011-02-13T10:05:55.70</time>
      </trkpt>
      <trkpt lat="44.98707" lon="5.66154">
        <ele>751.346424</ele>
        <time>2011-02-13T10:05:57.73</time>
      </trkpt>
      <trkpt lat="44.98709" lon="5.66154">
        <ele>751.346428</ele>
        <time>2011-02-13T10:05:59.75</time>
      </trkpt>
      <trkpt lat="44.98712" lon="5.66156">
        <ele>751.346439</ele>
        <time>2011-02-13T10:06:01.112</time>
      </trkpt>
      <trkpt lat="44.98716" lon="5.66158">
        <ele>751.346451</ele>
        <time>2011-02-13T10:06:03.72</time>
      </trkpt>
      <trkpt lat="44.98719" lon="5.6616">
        <ele>751.346462</ele>
        <time>2011-02-13T10:06:05.83</time>
      </trkpt>
      <trkpt lat="44.98722" lon="5.66163">
        <ele>751.346474</ele>
        <time>2011-02-13T10:06:07.70</time>
      </trkpt>
      <trkpt lat="44.98725" lon="5.66169">
        <ele>752.346489</ele>
        <time>2011-02-13T10:06:09.98</time>
      </trkpt>
      <trkpt lat="44.98729" lon="5.66175">
        <ele>752.346504</ele>
        <time>2011-02-13T10:06:11.73</time>
      </trkpt>
      <trkpt lat="44.98732" lon="5.66183">
        <ele>752.346523</ele>
        <time>2011-02-13T10:06:13.72</time>
      </trkpt>
      <trkpt lat="44.98735" lon="5.6619">
        <ele>752.346542</ele>
        <time>2011-02-13T10:06:15.82</time>
      </trkpt>
      <trkpt lat="44.98738" lon="5.66197">
        <ele>752.346554</ele>
        <time>2011-02-13T10:06:17.75</time>
      </trkpt>
      <trkpt lat="44.9874" lon="5.66203">
        <ele>752.346573</ele>
        <time>2011-02-13T10:06:19.84</time>
      </trkpt>
      <trkpt lat="44.98743" lon="5.6621">
        <ele>752.346592</ele>
        <time>2011-02-13T10:06:21.72</time>
      </trkpt>
      <trkpt lat="44.98746" lon="5.66217">
        <ele>752.346607</ele>
        <time>2011-02-13T10:06:23.73</time>
      </trkpt>
      <trkpt lat="44.98749" lon="5.66224">
        <ele>752.346619</ele>
        <time>2011-02-13T10:06:25.69</time>
      </trkpt>
      <trkpt lat="44.98752" lon="5.66231">
        <ele>752.346638</ele>
        <time>2011-02-13T10:06:27.76</time>
      </trkpt>
      <trkpt lat="44.98755" lon="5.66237">
        <ele>753.346653</ele>
        <time>2011-02-13T10:06:29.93</time>
      </trkpt>
      <trkpt lat="44.98758" lon="5.66244">
        <ele>753.346672</ele>
        <time>2011-02-13T10:06:31.72</time>
      </trkpt>
      <trkpt lat="44.98761" lon="5.6625">
        <ele>753.346687</ele>
        <time>2011-02-13T10:06:33.74</time>
      </trkpt>
      <trkpt lat="44.98764" lon="5.66257">
        <ele>753.346703</ele>
        <time>2011-02-13T10:06:35.83</time>
      </trkpt>
      <trkpt lat="44.98767" lon="5.66263">
        <ele>752.346722</ele>
        <time>2011-02-13T10:06:37.126</time>
      </trkpt>
      <trkpt lat="44.9877" lon="5.6627">
        <ele>751.346737</ele>
        <time>2011-02-13T10:06:39.73</time>
      </trkpt>
      <trkpt lat="44.98773" lon="5.66276">
        <ele>751.346756</ele>
        <time>2011-02-13T10:06:41.76</time>
      </trkpt>
      <trkpt lat="44.98777" lon="5.66283">
        <ele>751.346771</ele>
        <time>2011-02-13T10:06:43.72</time>
      </trkpt>
      <trkpt lat="44.9878" lon="5.6629">
        <ele>751.34679</ele>
        <time>2011-02-13T10:06:45.83</time>
      </trkpt>
      <trkpt lat="44.98783" lon="5.66297">
        <ele>751.346809</ele>
        <time>2011-02-13T10:06:47.77</time>
      </trkpt>
      <trkpt lat="44.98786" lon="5.66304">
        <ele>751.346825</ele>
        <time>2011-02-13T10:06:49.68</time>
      </trkpt>
      <trkpt lat="44.9879" lon="5.66312">
        <ele>750.34684</ele>
        <time>2011-02-13T10:06:51.72</time>
      </trkpt>
      <trkpt lat="44.98793" lon="5.66319">
        <ele>750.346855</ele>
        <time>2011-02-13T10:06:53.73</time>
      </trkpt>
      <trkpt lat="44.98796" lon="5.66326">
        <ele>749.346878</ele>
        <time>2011-02-13T10:06:55.70</time>
      </trkpt>
      <trkpt lat="44.98799" lon="5.66333">
        <ele>749.346897</ele>
        <time>2011-02-13T10:06:57.75</time>
      </trkpt>
      <trkpt lat="44.98803" lon="5.6634">
        <ele>748.346916</ele>
        <time>2011-02-13T10:06:59.69</time>
      </trkpt>
      <trkpt lat="44.98806" lon="5.66346">
        <ele>748.346931</ele>
        <time>2011-02-13T10:07:01.92</time>
      </trkpt>
      <trkpt lat="44.98809" lon="5.66353">
        <ele>747.346947</ele>
        <time>2011-02-13T10:07:03.77</time>
      </trkpt>
      <trkpt lat="44.98812" lon="5.6636">
        <ele>748.346966</ele>
        <time>2011-02-13T10:07:05.71</time>
      </trkpt>
      <trkpt lat="44.98815" lon="5.66367">
        <ele>748.346981</ele>
        <time>2011-02-13T10:07:07.67</time>
      </trkpt>
      <trkpt lat="44.98818" lon="5.66374">
        <ele>748.347</ele>
        <time>2011-02-13T10:07:09.71</time>
      </trkpt>
      <trkpt lat="44.98821" lon="5.66381">
        <ele>747.347015</ele>
        <time>2011-02-13T10:07:11.74</time>
      </trkpt>
      <trkpt lat="44.98824" lon="5.66388">
        <ele>747.347031</ele>
        <time>2011-02-13T10:07:13.71</time>
      </trkpt>
      <trkpt lat="44.98827" lon="5.66395">
        <ele>747.347046</ele>
        <time>2011-02-13T10:07:15.73</time>
      </trkpt>
      <trkpt lat="44.9883" lon="5.66401">
        <ele>746.347061</ele>
        <time>2011-02-13T10:07:17.72</time>
      </trkpt>
      <trkpt lat="44.98832" lon="5.66408">
        <ele>746.34708</ele>
        <time>2011-02-13T10:07:19.70</time>
      </trkpt>
      <trkpt lat="44.98835" lon="5.66414">
        <ele>745.347092</ele>
        <time>2011-02-13T10:07:21.78</time>
      </trkpt>
      <trkpt lat="44.98838" lon="5.6642">
        <ele>745.347111</ele>
        <time>2011-02-13T10:07:23.70</time>
      </trkpt>
      <trkpt lat="44.98841" lon="5.66426">
        <ele>745.34713</ele>
        <time>2011-02-13T10:07:25.69</time>
      </trkpt>
      <trkpt lat="44.98845" lon="5.66433">
        <ele>745.347141</ele>
        <time>2011-02-13T10:07:27.72</time>
      </trkpt>
      <trkpt lat="44.98848" lon="5.6644">
        <ele>745.34716</ele>
        <time>2011-02-13T10:07:29.72</time>
      </trkpt>
      <trkpt lat="44.98851" lon="5.66446">
        <ele>744.347176</ele>
        <time>2011-02-13T10:07:31.67</time>
      </trkpt>
      <trkpt lat="44.98855" lon="5.66452">
        <ele>744.347195</ele>
        <time>2011-02-13T10:07:33.75</time>
      </trkpt>
      <trkpt lat="44.98858" lon="5.66458">
        <ele>742.347206</ele>
        <time>2011-02-13T10:07:35.69</time>
      </trkpt>
      <trkpt lat="44.98861" lon="5.66463">
        <ele>741.347225</ele>
        <time>2011-02-13T10:07:37.68</time>
      </trkpt>
      <trkpt lat="44.98864" lon="5.66469">
        <ele>739.347244</ele>
        <time>2011-02-13T10:07:39.75</time>
      </trkpt>
      <trkpt lat="44.98867" lon="5.66474">
        <ele>737.347256</ele>
        <time>2011-02-13T10:07:41.89</time>
      </trkpt>
      <trkpt lat="44.98869" lon="5.6648">
        <ele>735.347271</ele>
        <time>2011-02-13T10:07:43.67</time>
      </trkpt>
      <trkpt lat="44.98871" lon="5.66485">
        <ele>734.347275</ele>
        <time>2011-02-13T10:07:45.77</time>
      </trkpt>
      <trkpt lat="44.98873" lon="5.66491">
        <ele>732.347294</ele>
        <time>2011-02-13T10:07:47.69</time>
      </trkpt>
      <trkpt lat="44.98875" lon="5.66496">
        <ele>730.347305</ele>
        <time>2011-02-13T10:07:49.70</time>
      </trkpt>
      <trkpt lat="44.98877" lon="5.66502">
        <ele>729.347321</ele>
        <time>2011-02-13T10:07:51.73</time>
      </trkpt>
      <trkpt lat="44.98878" lon="5.66508">
        <ele>727.347328</ele>
        <time>2011-02-13T10:07:53.91</time>
      </trkpt>
      <trkpt lat="44.98878" lon="5.66514">
        <ele>726.34734</ele>
        <time>2011-02-13T10:07:58.73</time>
      </trkpt>
      <trkpt lat="44.98878" lon="5.66514">
        <ele>726.347336</ele>
        <time>2011-02-13T10:08:00.83</time>
      </trkpt>
      <trkpt lat="44.98869" lon="5.66509">
        <ele>727.347313</ele>
        <time>2011-02-13T10:08:12.70</time>
      </trkpt>
      <trkpt lat="44.98866" lon="5.66507">
        <ele>727.347301</ele>
        <time>2011-02-13T10:08:14.71</time>
      </trkpt>
      <trkpt lat="44.98864" lon="5.66506">
        <ele>725.347298</ele>
        <time>2011-02-13T10:08:16.74</time>
      </trkpt>
      <trkpt lat="44.98862" lon="5.66504">
        <ele>725.34729</ele>
        <time>2011-02-13T10:08:18.71</time>
      </trkpt>
      <trkpt lat="44.9886" lon="5.66502">
        <ele>725.347282</ele>
        <time>2011-02-13T10:08:20.69</time>
      </trkpt>
      <trkpt lat="44.98857" lon="5.665">
        <ele>726.347275</ele>
        <time>2011-02-13T10:08:22.72</time>
      </trkpt>
      <trkpt lat="44.98855" lon="5.66498">
        <ele>725.347267</ele>
        <time>2011-02-13T10:08:24.76</time>
      </trkpt>
      <trkpt lat="44.98852" lon="5.66496">
        <ele>724.347256</ele>
        <time>2011-02-13T10:08:26.74</time>
      </trkpt>
      <trkpt lat="44.9885" lon="5.66494">
        <ele>724.347252</ele>
        <time>2011-02-13T10:08:28.66</time>
      </trkpt>
      <trkpt lat="44.98847" lon="5.66491">
        <ele>724.34724</ele>
        <time>2011-02-13T10:08:30.82</time>
      </trkpt>
      <trkpt lat="44.98844" lon="5.66489">
        <ele>725.347225</ele>
        <time>2011-02-13T10:08:32.76</time>
      </trkpt>
      <trkpt lat="44.98839" lon="5.66485">
        <ele>724.347214</ele>
        <time>2011-02-13T10:08:35.71</time>
      </trkpt>
      <trkpt lat="44.98836" lon="5.66482">
        <ele>724.347198</ele>
        <time>2011-02-13T10:08:37.72</time>
      </trkpt>
      <trkpt lat="44.98833" lon="5.66479">
        <ele>723.347187</ele>
        <time>2011-02-13T10:08:39.70</time>
      </trkpt>
      <trkpt lat="44.98829" lon="5.66476">
        <ele>723.347176</ele>
        <time>2011-02-13T10:08:41.71</time>
      </trkpt>
      <trkpt lat="44.98826" lon="5.66472">
        <ele>723.347164</ele>
        <time>2011-02-13T10:08:43.69</time>
      </trkpt>
      <trkpt lat="44.98818" lon="5.66463">
        <ele>723.347134</ele>
        <time>2011-02-13T10:08:49.70</time>
      </trkpt>
      <trkpt lat="44.98814" lon="5.6646">
        <ele>723.347118</ele>
        <time>2011-02-13T10:08:51.74</time>
      </trkpt>
      <trkpt lat="44.98811" lon="5.66457">
        <ele>723.347107</ele>
        <time>2011-02-13T10:08:53.73</time>
      </trkpt>
      <trkpt lat="44.98807" lon="5.66455">
        <ele>724.347092</ele>
        <time>2011-02-13T10:08:55.68</time>
      </trkpt>
      <trkpt lat="44.98803" lon="5.66453">
        <ele>724.347088</ele>
        <time>2011-02-13T10:08:57.83</time>
      </trkpt>
      <trkpt lat="44.98795" lon="5.66449">
        <ele>726.347061</ele>
        <time>2011-02-13T10:09:02.71</time>
      </trkpt>
      <trkpt lat="44.98791" lon="5.66448">
        <ele>726.34705</ele>
        <time>2011-02-13T10:09:04.66</time>
      </trkpt>
      <trkpt lat="44.98787" lon="5.66446">
        <ele>727.347038</ele>
        <time>2011-02-13T10:09:06.63</time>
      </trkpt>
      <trkpt lat="44.98783" lon="5.66445">
        <ele>727.347027</ele>
        <time>2011-02-13T10:09:08.69</time>
      </trkpt>
      <trkpt lat="44.98778" lon="5.66444">
        <ele>727.347015</ele>
        <time>2011-02-13T10:09:10.70</time>
      </trkpt>
      <trkpt lat="44.98774" lon="5.66443">
        <ele>727.347008</ele>
        <time>2011-02-13T10:09:12.71</time>
      </trkpt>
      <trkpt lat="44.98763" lon="5.66441">
        <ele>728.346981</ele>
        <time>2011-02-13T10:09:17.71</time>
      </trkpt>
      <trkpt lat="44.98759" lon="5.66439">
        <ele>728.34697</ele>
        <time>2011-02-13T10:09:19.71</time>
      </trkpt>
      <trkpt lat="44.98755" lon="5.66438">
        <ele>728.346958</ele>
        <time>2011-02-13T10:09:21.73</time>
      </trkpt>
      <trkpt lat="44.98751" lon="5.66437">
        <ele>728.346947</ele>
        <time>2011-02-13T10:09:23.67</time>
      </trkpt>
      <trkpt lat="44.98746" lon="5.66436">
        <ele>729.346935</ele>
        <time>2011-02-13T10:09:25.70</time>
      </trkpt>
      <trkpt lat="44.98738" lon="5.66435">
        <ele>729.346916</ele>
        <time>2011-02-13T10:09:29.76</time>
      </trkpt>
      <trkpt lat="44.98734" lon="5.66434">
        <ele>728.346905</ele>
        <time>2011-02-13T10:09:31.86</time>
      </trkpt>
      <trkpt lat="44.9873" lon="5.66433">
        <ele>728.346893</ele>
        <time>2011-02-13T10:09:33.72</time>
      </trkpt>
      <trkpt lat="44.98725" lon="5.66432">
        <ele>728.346886</ele>
        <time>2011-02-13T10:09:35.73</time>
      </trkpt>
      <trkpt lat="44.98721" lon="5.66431">
        <ele>727.346874</ele>
        <time>2011-02-13T10:09:37.67</time>
      </trkpt>
      <trkpt lat="44.98717" lon="5.6643">
        <ele>728.346863</ele>
        <time>2011-02-13T10:09:39.74</time>
      </trkpt>
      <trkpt lat="44.98713" lon="5.66429">
        <ele>727.346855</ele>
        <time>2011-02-13T10:09:41.71</time>
      </trkpt>
      <trkpt lat="44.98709" lon="5.66427">
        <ele>728.346844</ele>
        <time>2011-02-13T10:09:43.69</time>
      </trkpt>
      <trkpt lat="44.98705" lon="5.66426">
        <ele>728.346832</ele>
        <time>2011-02-13T10:09:45.70</time>
      </trkpt>
      <trkpt lat="44.98696" lon="5.66423">
        <ele>729.346809</ele>
        <time>2011-02-13T10:09:49.66</time>
      </trkpt>
      <trkpt lat="44.98692" lon="5.66422">
        <ele>729.346798</ele>
        <time>2011-02-13T10:09:51.71</time>
      </trkpt>
      <trkpt lat="44.98688" lon="5.66421">
        <ele>729.34679</ele>
        <time>2011-02-13T10:09:53.71</time>
      </trkpt>
      <trkpt lat="44.98685" lon="5.66419">
        <ele>729.346779</ele>
        <time>2011-02-13T10:09:55.94</time>
      </trkpt>
      <trkpt lat="44.98677" lon="5.66415">
        <ele>730.346756</ele>
        <time>2011-02-13T10:10:00.70</time>
      </trkpt>
      <trkpt lat="44.98675" lon="5.66414">
        <ele>730.346745</ele>
        <time>2011-02-13T10:10:02.69</time>
      </trkpt>
      <trkpt lat="44.98672" lon="5.66413">
        <ele>730.346741</ele>
        <time>2011-02-13T10:10:04.72</time>
      </trkpt>
      <trkpt lat="44.98669" lon="5.66412">
        <ele>730.346733</ele>
        <time>2011-02-13T10:10:06.109</time>
      </trkpt>
      <trkpt lat="44.98667" lon="5.66412">
        <ele>730.346729</ele>
        <time>2011-02-13T10:10:08.71</time>
      </trkpt>
      <trkpt lat="44.98664" lon="5.66411">
        <ele>731.346718</ele>
        <time>2011-02-13T10:10:10.69</time>
      </trkpt>
      <trkpt lat="44.98655" lon="5.66411">
        <ele>733.346695</ele>
        <time>2011-02-13T10:10:16.68</time>
      </trkpt>
      <trkpt lat="44.98651" lon="5.66411">
        <ele>732.346691</ele>
        <time>2011-02-13T10:10:18.70</time>
      </trkpt>
      <trkpt lat="44.98646" lon="5.6641">
        <ele>732.34668</ele>
        <time>2011-02-13T10:10:21.71</time>
      </trkpt>
      <trkpt lat="44.98635" lon="5.66409">
        <ele>733.346653</ele>
        <time>2011-02-13T10:10:27.69</time>
      </trkpt>
      <trkpt lat="44.98631" lon="5.66409">
        <ele>733.346645</ele>
        <time>2011-02-13T10:10:29.68</time>
      </trkpt>
      <trkpt lat="44.98627" lon="5.66408">
        <ele>733.346638</ele>
        <time>2011-02-13T10:10:31.69</time>
      </trkpt>
      <trkpt lat="44.98623" lon="5.66408">
        <ele>734.34663</ele>
        <time>2011-02-13T10:10:33.79</time>
      </trkpt>
      <trkpt lat="44.98619" lon="5.66407">
        <ele>735.346615</ele>
        <time>2011-02-13T10:10:35.81</time>
      </trkpt>
      <trkpt lat="44.98611" lon="5.66406">
        <ele>736.346596</ele>
        <time>2011-02-13T10:10:39.72</time>
      </trkpt>
      <trkpt lat="44.98606" lon="5.66405">
        <ele>737.346588</ele>
        <time>2011-02-13T10:10:41.73</time>
      </trkpt>
      <trkpt lat="44.98602" lon="5.66404">
        <ele>737.346573</ele>
        <time>2011-02-13T10:10:43.70</time>
      </trkpt>
      <trkpt lat="44.98592" lon="5.66402">
        <ele>738.346554</ele>
        <time>2011-02-13T10:10:48.70</time>
      </trkpt>
      <trkpt lat="44.98589" lon="5.66401">
        <ele>739.346539</ele>
        <time>2011-02-13T10:10:50.70</time>
      </trkpt>
      <trkpt lat="44.98586" lon="5.664">
        <ele>739.346535</ele>
        <time>2011-02-13T10:10:52.69</time>
      </trkpt>
      <trkpt lat="44.98582" lon="5.664">
        <ele>740.346523</ele>
        <time>2011-02-13T10:10:54.73</time>
      </trkpt>
      <trkpt lat="44.98576" lon="5.66398">
        <ele>741.346504</ele>
        <time>2011-02-13T10:10:57.74</time>
      </trkpt>
      <trkpt lat="44.98572" lon="5.66396">
        <ele>741.3465</ele>
        <time>2011-02-13T10:10:59.105</time>
      </trkpt>
      <trkpt lat="44.98568" lon="5.66394">
        <ele>742.346489</ele>
        <time>2011-02-13T10:11:01.96</time>
      </trkpt>
      <trkpt lat="44.98564" lon="5.66392">
        <ele>742.346474</ele>
        <time>2011-02-13T10:11:03.71</time>
      </trkpt>
      <trkpt lat="44.98555" lon="5.66389">
        <ele>743.346451</ele>
        <time>2011-02-13T10:11:07.69</time>
      </trkpt>
      <trkpt lat="44.9855" lon="5.66387">
        <ele>744.346439</ele>
        <time>2011-02-13T10:11:09.74</time>
      </trkpt>
      <trkpt lat="44.98546" lon="5.66384">
        <ele>744.346424</ele>
        <time>2011-02-13T10:11:11.69</time>
      </trkpt>
      <trkpt lat="44.98541" lon="5.66382">
        <ele>745.346409</ele>
        <time>2011-02-13T10:11:13.67</time>
      </trkpt>
      <trkpt lat="44.98536" lon="5.66379">
        <ele>746.346394</ele>
        <time>2011-02-13T10:11:15.72</time>
      </trkpt>
      <trkpt lat="44.98531" lon="5.66376">
        <ele>746.346378</ele>
        <time>2011-02-13T10:11:17.77</time>
      </trkpt>
      <trkpt lat="44.98526" lon="5.66372">
        <ele>746.346363</ele>
        <time>2011-02-13T10:11:19.69</time>
      </trkpt>
      <trkpt lat="44.98516" lon="5.66366">
        <ele>749.346329</ele>
        <time>2011-02-13T10:11:25.71</time>
      </trkpt>
      <trkpt lat="44.98511" lon="5.66364">
        <ele>750.346321</ele>
        <time>2011-02-13T10:11:27.120</time>
      </trkpt>
      <trkpt lat="44.98507" lon="5.66362">
        <ele>750.346306</ele>
        <time>2011-02-13T10:11:29.72</time>
      </trkpt>
      <trkpt lat="44.985" lon="5.66363">
        <ele>751.346291</ele>
        <time>2011-02-13T10:11:31.70</time>
      </trkpt>
      <trkpt lat="44.98494" lon="5.66366">
        <ele>752.346283</ele>
        <time>2011-02-13T10:11:33.75</time>
      </trkpt>
      <trkpt lat="44.98487" lon="5.66369">
        <ele>752.346272</ele>
        <time>2011-02-13T10:11:35.68</time>
      </trkpt>
      <trkpt lat="44.98479" lon="5.66372">
        <ele>753.34626</ele>
        <time>2011-02-13T10:11:37.68</time>
      </trkpt>
      <trkpt lat="44.98472" lon="5.66375">
        <ele>753.346245</ele>
        <time>2011-02-13T10:11:39.74</time>
      </trkpt>
      <trkpt lat="44.98464" lon="5.66378">
        <ele>753.346237</ele>
        <time>2011-02-13T10:11:41.73</time>
      </trkpt>
      <trkpt lat="44.98457" lon="5.66381">
        <ele>754.346226</ele>
        <time>2011-02-13T10:11:43.69</time>
      </trkpt>
      <trkpt lat="44.98451" lon="5.66383">
        <ele>753.346214</ele>
        <time>2011-02-13T10:11:45.85</time>
      </trkpt>
      <trkpt lat="44.98444" lon="5.66384">
        <ele>753.346203</ele>
        <time>2011-02-13T10:11:47.73</time>
      </trkpt>
      <trkpt lat="44.98439" lon="5.6638">
        <ele>754.346184</ele>
        <time>2011-02-13T10:11:49.83</time>
      </trkpt>
      <trkpt lat="44.98433" lon="5.66374">
        <ele>754.346161</ele>
        <time>2011-02-13T10:11:51.71</time>
      </trkpt>
      <trkpt lat="44.98429" lon="5.66367">
        <ele>754.346142</ele>
        <time>2011-02-13T10:11:53.78</time>
      </trkpt>
      <trkpt lat="44.98425" lon="5.66359">
        <ele>754.346123</ele>
        <time>2011-02-13T10:11:55.70</time>
      </trkpt>
      <trkpt lat="44.98422" lon="5.66352">
        <ele>755.346107</ele>
        <time>2011-02-13T10:11:57.71</time>
      </trkpt>
      <trkpt lat="44.9842" lon="5.66345">
        <ele>755.346092</ele>
        <time>2011-02-13T10:11:59.73</time>
      </trkpt>
      <trkpt lat="44.98419" lon="5.66339">
        <ele>754.346081</ele>
        <time>2011-02-13T10:12:01.93</time>
      </trkpt>
      <trkpt lat="44.98418" lon="5.66333">
        <ele>755.346069</ele>
        <time>2011-02-13T10:12:03.70</time>
      </trkpt>
      <trkpt lat="44.98417" lon="5.66328">
        <ele>754.346058</ele>
        <time>2011-02-13T10:12:05.95</time>
      </trkpt>
      <trkpt lat="44.98417" lon="5.66325">
        <ele>754.346054</ele>
        <time>2011-02-13T10:12:07.72</time>
      </trkpt>
      <trkpt lat="44.98418" lon="5.66322">
        <ele>755.346054</ele>
        <time>2011-02-13T10:12:09.74</time>
      </trkpt>
      <trkpt lat="44.98421" lon="5.66321">
        <ele>756.346062</ele>
        <time>2011-02-13T10:12:11.78</time>
      </trkpt>
      <trkpt lat="44.98424" lon="5.6632">
        <ele>757.346062</ele>
        <time>2011-02-13T10:12:13.84</time>
      </trkpt>
      <trkpt lat="44.98429" lon="5.66319">
        <ele>757.346073</ele>
        <time>2011-02-13T10:12:16.89</time>
      </trkpt>
      <trkpt lat="44.98432" lon="5.66319">
        <ele>758.346077</ele>
        <time>2011-02-13T10:12:18.73</time>
      </trkpt>
      <trkpt lat="44.98436" lon="5.66319">
        <ele>759.346088</ele>
        <time>2011-02-13T10:12:20.69</time>
      </trkpt>
      <trkpt lat="44.9844" lon="5.66319">
        <ele>758.346092</ele>
        <time>2011-02-13T10:12:22.133</time>
      </trkpt>
      <trkpt lat="44.98445" lon="5.6632">
        <ele>759.346107</ele>
        <time>2011-02-13T10:12:24.100</time>
      </trkpt>
      <trkpt lat="44.98449" lon="5.66321">
        <ele>759.346123</ele>
        <time>2011-02-13T10:12:26.70</time>
      </trkpt>
      <trkpt lat="44.98453" lon="5.66322">
        <ele>759.346127</ele>
        <time>2011-02-13T10:12:28.69</time>
      </trkpt>
      <trkpt lat="44.98458" lon="5.66323">
        <ele>760.346138</ele>
        <time>2011-02-13T10:12:30.70</time>
      </trkpt>
      <trkpt lat="44.98462" lon="5.66324">
        <ele>760.346153</ele>
        <time>2011-02-13T10:12:32.69</time>
      </trkpt>
      <trkpt lat="44.98467" lon="5.66326">
        <ele>760.346161</ele>
        <time>2011-02-13T10:12:34.74</time>
      </trkpt>
      <trkpt lat="44.98471" lon="5.66327">
        <ele>760.346176</ele>
        <time>2011-02-13T10:12:36.71</time>
      </trkpt>
      <trkpt lat="44.98476" lon="5.66328">
        <ele>761.346188</ele>
        <time>2011-02-13T10:12:38.71</time>
      </trkpt>
      <trkpt lat="44.9848" lon="5.66328">
        <ele>761.346199</ele>
        <time>2011-02-13T10:12:40.68</time>
      </trkpt>
      <trkpt lat="44.98484" lon="5.66327">
        <ele>762.346203</ele>
        <time>2011-02-13T10:12:42.74</time>
      </trkpt>
      <trkpt lat="44.98487" lon="5.66325">
        <ele>763.346207</ele>
        <time>2011-02-13T10:12:44.67</time>
      </trkpt>
      <trkpt lat="44.98488" lon="5.66324">
        <ele>763.346207</ele>
        <time>2011-02-13T10:12:46.71</time>
      </trkpt>
      <trkpt lat="44.98491" lon="5.66313">
        <ele>764.346199</ele>
        <time>2011-02-13T10:12:53.73</time>
      </trkpt>
      <trkpt lat="44.98491" lon="5.66304">
        <ele>766.34618</ele>
        <time>2011-02-13T10:12:57.70</time>
      </trkpt>
      <trkpt lat="44.9849" lon="5.66289">
        <ele>769.346161</ele>
        <time>2011-02-13T10:13:02.74</time>
      </trkpt>
      <trkpt lat="44.98489" lon="5.66284">
        <ele>769.346149</ele>
        <time>2011-02-13T10:13:04.66</time>
      </trkpt>
      <trkpt lat="44.98489" lon="5.66277">
        <ele>770.346138</ele>
        <time>2011-02-13T10:13:06.71</time>
      </trkpt>
      <trkpt lat="44.98488" lon="5.66271">
        <ele>771.346127</ele>
        <time>2011-02-13T10:13:08.69</time>
      </trkpt>
      <trkpt lat="44.98486" lon="5.66255">
        <ele>771.346104</ele>
        <time>2011-02-13T10:13:13.64</time>
      </trkpt>
      <trkpt lat="44.98485" lon="5.66249">
        <ele>773.346088</ele>
        <time>2011-02-13T10:13:15.82</time>
      </trkpt>
      <trkpt lat="44.98481" lon="5.66235">
        <ele>775.346058</ele>
        <time>2011-02-13T10:13:22.69</time>
      </trkpt>
      <trkpt lat="44.98479" lon="5.66227">
        <ele>776.346046</ele>
        <time>2011-02-13T10:13:25.70</time>
      </trkpt>
      <trkpt lat="44.98479" lon="5.66222">
        <ele>776.346031</ele>
        <time>2011-02-13T10:13:27.73</time>
      </trkpt>
      <trkpt lat="44.98478" lon="5.66216">
        <ele>777.346024</ele>
        <time>2011-02-13T10:13:29.135</time>
      </trkpt>
      <trkpt lat="44.98477" lon="5.6621">
        <ele>778.346016</ele>
        <time>2011-02-13T10:13:31.72</time>
      </trkpt>
      <trkpt lat="44.98475" lon="5.66193">
        <ele>780.345982</ele>
        <time>2011-02-13T10:13:37.68</time>
      </trkpt>
      <trkpt lat="44.98474" lon="5.66187">
        <ele>779.34597</ele>
        <time>2011-02-13T10:13:39.69</time>
      </trkpt>
      <trkpt lat="44.98474" lon="5.66181">
        <ele>779.345963</ele>
        <time>2011-02-13T10:13:41.70</time>
      </trkpt>
      <trkpt lat="44.98473" lon="5.66175">
        <ele>780.345951</ele>
        <time>2011-02-13T10:13:43.66</time>
      </trkpt>
      <trkpt lat="44.98471" lon="5.66169">
        <ele>781.345936</ele>
        <time>2011-02-13T10:13:45.71</time>
      </trkpt>
      <trkpt lat="44.98468" lon="5.66159">
        <ele>782.345917</ele>
        <time>2011-02-13T10:13:49.66</time>
      </trkpt>
      <trkpt lat="44.98465" lon="5.66153">
        <ele>782.345901</ele>
        <time>2011-02-13T10:13:51.69</time>
      </trkpt>
      <trkpt lat="44.98463" lon="5.66147">
        <ele>783.345886</ele>
        <time>2011-02-13T10:13:53.69</time>
      </trkpt>
      <trkpt lat="44.9846" lon="5.66142">
        <ele>783.345871</ele>
        <time>2011-02-13T10:13:55.69</time>
      </trkpt>
      <trkpt lat="44.98456" lon="5.66135">
        <ele>782.345856</ele>
        <time>2011-02-13T10:13:57.72</time>
      </trkpt>
      <trkpt lat="44.98447" lon="5.66119">
        <ele>779.345806</ele>
        <time>2011-02-13T10:14:01.95</time>
      </trkpt>
      <trkpt lat="44.98442" lon="5.66109">
        <ele>777.345783</ele>
        <time>2011-02-13T10:14:03.69</time>
      </trkpt>
      <trkpt lat="44.98436" lon="5.66097">
        <ele>775.345753</ele>
        <time>2011-02-13T10:14:06.71</time>
      </trkpt>
      <trkpt lat="44.98432" lon="5.66089">
        <ele>774.345734</ele>
        <time>2011-02-13T10:14:08.70</time>
      </trkpt>
      <trkpt lat="44.98428" lon="5.66081">
        <ele>772.345715</ele>
        <time>2011-02-13T10:14:10.82</time>
      </trkpt>
      <trkpt lat="44.98424" lon="5.66073">
        <ele>770.345688</ele>
        <time>2011-02-13T10:14:12.73</time>
      </trkpt>
      <trkpt lat="44.98421" lon="5.66066">
        <ele>769.345669</ele>
        <time>2011-02-13T10:14:14.67</time>
      </trkpt>
      <trkpt lat="44.98417" lon="5.66059">
        <ele>768.345657</ele>
        <time>2011-02-13T10:14:16.81</time>
      </trkpt>
      <trkpt lat="44.98414" lon="5.66052">
        <ele>767.345634</ele>
        <time>2011-02-13T10:14:18.72</time>
      </trkpt>
      <trkpt lat="44.98411" lon="5.66046">
        <ele>767.345619</ele>
        <time>2011-02-13T10:14:20.70</time>
      </trkpt>
      <trkpt lat="44.98408" lon="5.6604">
        <ele>767.345604</ele>
        <time>2011-02-13T10:14:22.95</time>
      </trkpt>
      <trkpt lat="44.98405" lon="5.66034">
        <ele>766.345589</ele>
        <time>2011-02-13T10:14:24.80</time>
      </trkpt>
      <trkpt lat="44.98403" lon="5.66028">
        <ele>766.345577</ele>
        <time>2011-02-13T10:14:26.68</time>
      </trkpt>
      <trkpt lat="44.984" lon="5.66022">
        <ele>765.345562</ele>
        <time>2011-02-13T10:14:28.68</time>
      </trkpt>
      <trkpt lat="44.98398" lon="5.66016">
        <ele>765.345547</ele>
        <time>2011-02-13T10:14:30.94</time>
      </trkpt>
      <trkpt lat="44.98396" lon="5.6601">
        <ele>766.345535</ele>
        <time>2011-02-13T10:14:32.69</time>
      </trkpt>
      <trkpt lat="44.98395" lon="5.66004">
        <ele>766.345524</ele>
        <time>2011-02-13T10:14:34.67</time>
      </trkpt>
      <trkpt lat="44.98394" lon="5.65997">
        <ele>766.345512</ele>
        <time>2011-02-13T10:14:36.71</time>
      </trkpt>
      <trkpt lat="44.98392" lon="5.65991">
        <ele>767.345497</ele>
        <time>2011-02-13T10:14:38.70</time>
      </trkpt>
      <trkpt lat="44.98391" lon="5.65986">
        <ele>767.34549</ele>
        <time>2011-02-13T10:14:40.69</time>
      </trkpt>
      <trkpt lat="44.98389" lon="5.6598">
        <ele>767.345478</ele>
        <time>2011-02-13T10:14:42.69</time>
      </trkpt>
      <trkpt lat="44.98388" lon="5.65974">
        <ele>768.345463</ele>
        <time>2011-02-13T10:14:44.70</time>
      </trkpt>
      <trkpt lat="44.98387" lon="5.65968">
        <ele>768.345451</ele>
        <time>2011-02-13T10:14:46.67</time>
      </trkpt>
      <trkpt lat="44.98385" lon="5.65962">
        <ele>769.345432</ele>
        <time>2011-02-13T10:14:48.68</time>
      </trkpt>
      <trkpt lat="44.98381" lon="5.65957">
        <ele>770.345421</ele>
        <time>2011-02-13T10:14:50.83</time>
      </trkpt>
      <trkpt lat="44.98377" lon="5.65952">
        <ele>770.345406</ele>
        <time>2011-02-13T10:14:52.65</time>
      </trkpt>
      <trkpt lat="44.98373" lon="5.65948">
        <ele>770.34539</ele>
        <time>2011-02-13T10:14:54.68</time>
      </trkpt>
      <trkpt lat="44.98369" lon="5.65944">
        <ele>770.345379</ele>
        <time>2011-02-13T10:14:56.59</time>
      </trkpt>
      <trkpt lat="44.98366" lon="5.65941">
        <ele>770.345367</ele>
        <time>2011-02-13T10:14:58.68</time>
      </trkpt>
      <trkpt lat="44.98363" lon="5.65939">
        <ele>770.345356</ele>
        <time>2011-02-13T10:15:00.69</time>
      </trkpt>
      <trkpt lat="44.98361" lon="5.65937">
        <ele>771.345348</ele>
        <time>2011-02-13T10:15:02.67</time>
      </trkpt>
      <trkpt lat="44.98359" lon="5.65936">
        <ele>771.345341</ele>
        <time>2011-02-13T10:15:05.70</time>
      </trkpt>
      <trkpt lat="44.98357" lon="5.65935">
        <ele>771.345337</ele>
        <time>2011-02-13T10:15:07.71</time>
      </trkpt>
      <trkpt lat="44.98352" lon="5.6593">
        <ele>772.345314</ele>
        <time>2011-02-13T10:15:14.65</time>
      </trkpt>
      <trkpt lat="44.9835" lon="5.65928">
        <ele>772.34531</ele>
        <time>2011-02-13T10:15:16.66</time>
      </trkpt>
      <trkpt lat="44.98348" lon="5.65927">
        <ele>772.345306</ele>
        <time>2011-02-13T10:15:18.70</time>
      </trkpt>
      <trkpt lat="44.98347" lon="5.65925">
        <ele>772.345299</ele>
        <time>2011-02-13T10:15:20.69</time>
      </trkpt>
      <trkpt lat="44.98342" lon="5.65921">
        <ele>771.34528</ele>
        <time>2011-02-13T10:15:25.72</time>
      </trkpt>
      <trkpt lat="44.98341" lon="5.65918">
        <ele>771.345276</ele>
        <time>2011-02-13T10:15:27.70</time>
      </trkpt>
      <trkpt lat="44.98339" lon="5.65916">
        <ele>772.345268</ele>
        <time>2011-02-13T10:15:29.68</time>
      </trkpt>
      <trkpt lat="44.98338" lon="5.65913">
        <ele>773.345261</ele>
        <time>2011-02-13T10:15:31.128</time>
      </trkpt>
      <trkpt lat="44.98336" lon="5.6591">
        <ele>773.345257</ele>
        <time>2011-02-13T10:15:33.67</time>
      </trkpt>
      <trkpt lat="44.98334" lon="5.65908">
        <ele>773.345242</ele>
        <time>2011-02-13T10:15:35.69</time>
      </trkpt>
      <trkpt lat="44.98332" lon="5.65905">
        <ele>772.345238</ele>
        <time>2011-02-13T10:15:37.68</time>
      </trkpt>
      <trkpt lat="44.9833" lon="5.65903">
        <ele>771.34523</ele>
        <time>2011-02-13T10:15:39.72</time>
      </trkpt>
      <trkpt lat="44.98328" lon="5.65901">
        <ele>771.345222</ele>
        <time>2011-02-13T10:15:41.71</time>
      </trkpt>
      <trkpt lat="44.98326" lon="5.659">
        <ele>771.345215</ele>
        <time>2011-02-13T10:15:43.91</time>
      </trkpt>
      <trkpt lat="44.98324" lon="5.65899">
        <ele>771.345215</ele>
        <time>2011-02-13T10:15:45.72</time>
      </trkpt>
      <trkpt lat="44.98323" lon="5.65898">
        <ele>771.345203</ele>
        <time>2011-02-13T10:15:47.67</time>
      </trkpt>
      <trkpt lat="44.98312" lon="5.65895">
        <ele>773.345181</ele>
        <time>2011-02-13T10:15:57.77</time>
      </trkpt>
      <trkpt lat="44.9831" lon="5.65895">
        <ele>773.345177</ele>
        <time>2011-02-13T10:15:59.67</time>
      </trkpt>
      <trkpt lat="44.98308" lon="5.65895">
        <ele>774.345169</ele>
        <time>2011-02-13T10:16:01.92</time>
      </trkpt>
      <trkpt lat="44.98305" lon="5.65895">
        <ele>775.345161</ele>
        <time>2011-02-13T10:16:05.70</time>
      </trkpt>
      <trkpt lat="44.98304" lon="5.65895">
        <ele>776.345161</ele>
        <time>2011-02-13T10:16:07.64</time>
      </trkpt>
      <trkpt lat="44.98303" lon="5.65895">
        <ele>777.345161</ele>
        <time>2011-02-13T10:16:09.70</time>
      </trkpt>
      <trkpt lat="44.98301" lon="5.65894">
        <ele>777.34515</ele>
        <time>2011-02-13T10:16:11.70</time>
      </trkpt>
      <trkpt lat="44.98299" lon="5.65893">
        <ele>777.34515</ele>
        <time>2011-02-13T10:16:13.66</time>
      </trkpt>
      <trkpt lat="44.98297" lon="5.65893">
        <ele>777.345146</ele>
        <time>2011-02-13T10:16:15.69</time>
      </trkpt>
      <trkpt lat="44.98288" lon="5.65888">
        <ele>777.345116</ele>
        <time>2011-02-13T10:16:24.72</time>
      </trkpt>
      <trkpt lat="44.98284" lon="5.65884">
        <ele>779.3451</ele>
        <time>2011-02-13T10:16:28.63</time>
      </trkpt>
      <trkpt lat="44.98281" lon="5.65882">
        <ele>778.345093</ele>
        <time>2011-02-13T10:16:30.69</time>
      </trkpt>
      <trkpt lat="44.98278" lon="5.6588">
        <ele>778.345085</ele>
        <time>2011-02-13T10:16:32.59</time>
      </trkpt>
      <trkpt lat="44.98276" lon="5.65878">
        <ele>779.345074</ele>
        <time>2011-02-13T10:16:34.62</time>
      </trkpt>
      <trkpt lat="44.98273" lon="5.65876">
        <ele>780.345066</ele>
        <time>2011-02-13T10:16:36.61</time>
      </trkpt>
      <trkpt lat="44.98272" lon="5.65873">
        <ele>779.345058</ele>
        <time>2011-02-13T10:16:38.64</time>
      </trkpt>
      <trkpt lat="44.98268" lon="5.65868">
        <ele>780.345039</ele>
        <time>2011-02-13T10:16:42.63</time>
      </trkpt>
      <trkpt lat="44.98267" lon="5.65866">
        <ele>780.345039</ele>
        <time>2011-02-13T10:16:44.68</time>
      </trkpt>
      <trkpt lat="44.98265" lon="5.65863">
        <ele>781.345028</ele>
        <time>2011-02-13T10:16:46.65</time>
      </trkpt>
      <trkpt lat="44.98261" lon="5.65856">
        <ele>780.345009</ele>
        <time>2011-02-13T10:16:51.76</time>
      </trkpt>
      <trkpt lat="44.98259" lon="5.65854">
        <ele>780.345001</ele>
        <time>2011-02-13T10:16:53.69</time>
      </trkpt>
      <trkpt lat="44.98255" lon="5.65849">
        <ele>781.344986</ele>
        <time>2011-02-13T10:16:57.72</time>
      </trkpt>
      <trkpt lat="44.98253" lon="5.65847">
        <ele>782.344978</ele>
        <time>2011-02-13T10:16:59.78</time>
      </trkpt>
      <trkpt lat="44.98251" lon="5.65845">
        <ele>781.344975</ele>
        <time>2011-02-13T10:17:01.93</time>
      </trkpt>
      <trkpt lat="44.98249" lon="5.65842">
        <ele>781.344963</ele>
        <time>2011-02-13T10:17:03.71</time>
      </trkpt>
      <trkpt lat="44.98248" lon="5.65839">
        <ele>780.344955</ele>
        <time>2011-02-13T10:17:05.69</time>
      </trkpt>
      <trkpt lat="44.98246" lon="5.65836">
        <ele>780.344948</ele>
        <time>2011-02-13T10:17:07.65</time>
      </trkpt>
      <trkpt lat="44.98244" lon="5.65832">
        <ele>779.344936</ele>
        <time>2011-02-13T10:17:09.72</time>
      </trkpt>
      <trkpt lat="44.98243" lon="5.65828">
        <ele>779.344933</ele>
        <time>2011-02-13T10:17:11.74</time>
      </trkpt>
      <trkpt lat="44.98242" lon="5.65825">
        <ele>778.344921</ele>
        <time>2011-02-13T10:17:13.63</time>
      </trkpt>
      <trkpt lat="44.98241" lon="5.65821">
        <ele>778.344913</ele>
        <time>2011-02-13T10:17:15.70</time>
      </trkpt>
      <trkpt lat="44.9824" lon="5.65817">
        <ele>777.344906</ele>
        <time>2011-02-13T10:17:17.93</time>
      </trkpt>
      <trkpt lat="44.9824" lon="5.65814">
        <ele>777.344902</ele>
        <time>2011-02-13T10:17:19.66</time>
      </trkpt>
      <trkpt lat="44.98239" lon="5.65812">
        <ele>777.344891</ele>
        <time>2011-02-13T10:17:21.71</time>
      </trkpt>
      <trkpt lat="44.98236" lon="5.65807">
        <ele>778.344879</ele>
        <time>2011-02-13T10:17:25.70</time>
      </trkpt>
      <trkpt lat="44.98235" lon="5.65805">
        <ele>778.344875</ele>
        <time>2011-02-13T10:17:27.70</time>
      </trkpt>
      <trkpt lat="44.98233" lon="5.65802">
        <ele>780.344864</ele>
        <time>2011-02-13T10:17:31.64</time>
      </trkpt>
      <trkpt lat="44.9823" lon="5.658">
        <ele>782.344856</ele>
        <time>2011-02-13T10:17:36.66</time>
      </trkpt>
      <trkpt lat="44.98228" lon="5.65798">
        <ele>782.344849</ele>
        <time>2011-02-13T10:17:38.68</time>
      </trkpt>
      <trkpt lat="44.98225" lon="5.65797">
        <ele>782.344841</ele>
        <time>2011-02-13T10:17:40.70</time>
      </trkpt>
      <trkpt lat="44.98224" lon="5.65794">
        <ele>782.344833</ele>
        <time>2011-02-13T10:17:42.66</time>
      </trkpt>
      <trkpt lat="44.98222" lon="5.65792">
        <ele>782.34483</ele>
        <time>2011-02-13T10:17:44.68</time>
      </trkpt>
      <trkpt lat="44.9822" lon="5.65789">
        <ele>782.344822</ele>
        <time>2011-02-13T10:17:46.66</time>
      </trkpt>
      <trkpt lat="44.98218" lon="5.65786">
        <ele>783.34481</ele>
        <time>2011-02-13T10:17:48.69</time>
      </trkpt>
      <trkpt lat="44.98217" lon="5.65784">
        <ele>783.344807</ele>
        <time>2011-02-13T10:17:50.69</time>
      </trkpt>
      <trkpt lat="44.98215" lon="5.65781">
        <ele>783.344795</ele>
        <time>2011-02-13T10:17:52.64</time>
      </trkpt>
      <trkpt lat="44.9821" lon="5.65776">
        <ele>783.344776</ele>
        <time>2011-02-13T10:17:56.108</time>
      </trkpt>
      <trkpt lat="44.98208" lon="5.65773">
        <ele>783.344769</ele>
        <time>2011-02-13T10:17:58.67</time>
      </trkpt>
      <trkpt lat="44.98205" lon="5.6577">
        <ele>783.344757</ele>
        <time>2011-02-13T10:18:00.70</time>
      </trkpt>
      <trkpt lat="44.98202" lon="5.65767">
        <ele>783.344746</ele>
        <time>2011-02-13T10:18:02.69</time>
      </trkpt>
      <trkpt lat="44.98195" lon="5.65763">
        <ele>784.34473</ele>
        <time>2011-02-13T10:18:05.70</time>
      </trkpt>
      <trkpt lat="44.98191" lon="5.6576">
        <ele>785.344711</ele>
        <time>2011-02-13T10:18:07.80</time>
      </trkpt>
      <trkpt lat="44.98178" lon="5.65743">
        <ele>787.344658</ele>
        <time>2011-02-13T10:18:18.68</time>
      </trkpt>
      <trkpt lat="44.98174" lon="5.65738">
        <ele>787.344646</ele>
        <time>2011-02-13T10:18:21.71</time>
      </trkpt>
      <trkpt lat="44.98171" lon="5.65729">
        <ele>789.344627</ele>
        <time>2011-02-13T10:18:25.69</time>
      </trkpt>
      <trkpt lat="44.98171" lon="5.65726">
        <ele>789.344616</ele>
        <time>2011-02-13T10:18:27.82</time>
      </trkpt>
      <trkpt lat="44.98165" lon="5.65718">
        <ele>790.344593</ele>
        <time>2011-02-13T10:18:30.71</time>
      </trkpt>
      <trkpt lat="44.98157" lon="5.6571">
        <ele>791.344563</ele>
        <time>2011-02-13T10:18:33.65</time>
      </trkpt>
      <trkpt lat="44.98156" lon="5.65708">
        <ele>791.344555</ele>
        <time>2011-02-13T10:18:35.58</time>
      </trkpt>
      <trkpt lat="44.98151" lon="5.65694">
        <ele>794.344528</ele>
        <time>2011-02-13T10:18:40.70</time>
      </trkpt>
      <trkpt lat="44.9815" lon="5.65686">
        <ele>794.344513</ele>
        <time>2011-02-13T10:18:42.72</time>
      </trkpt>
      <trkpt lat="44.98148" lon="5.65679">
        <ele>796.344494</ele>
        <time>2011-02-13T10:18:44.64</time>
      </trkpt>
      <trkpt lat="44.98145" lon="5.65673">
        <ele>796.344482</ele>
        <time>2011-02-13T10:18:46.62</time>
      </trkpt>
      <trkpt lat="44.98144" lon="5.65666">
        <ele>796.344467</ele>
        <time>2011-02-13T10:18:48.66</time>
      </trkpt>
      <trkpt lat="44.98141" lon="5.6565">
        <ele>798.344437</ele>
        <time>2011-02-13T10:18:53.65</time>
      </trkpt>
      <trkpt lat="44.9814" lon="5.65645">
        <ele>799.344429</ele>
        <time>2011-02-13T10:18:55.69</time>
      </trkpt>
      <trkpt lat="44.9814" lon="5.65641">
        <ele>800.344421</ele>
        <time>2011-02-13T10:18:57.70</time>
      </trkpt>
      <trkpt lat="44.9814" lon="5.65636">
        <ele>801.344414</ele>
        <time>2011-02-13T10:18:59.69</time>
      </trkpt>
      <trkpt lat="44.9814" lon="5.65632">
        <ele>802.34441</ele>
        <time>2011-02-13T10:19:01.118</time>
      </trkpt>
      <trkpt lat="44.98141" lon="5.65628">
        <ele>803.344402</ele>
        <time>2011-02-13T10:19:03.68</time>
      </trkpt>
      <trkpt lat="44.98143" lon="5.65625">
        <ele>803.344402</ele>
        <time>2011-02-13T10:19:08.66</time>
      </trkpt>
      <trkpt lat="44.98146" lon="5.65624">
        <ele>804.34441</ele>
        <time>2011-02-13T10:19:12.70</time>
      </trkpt>
      <trkpt lat="44.98145" lon="5.65587">
        <ele>809.344353</ele>
        <time>2011-02-13T10:19:31.70</time>
      </trkpt>
      <trkpt lat="44.98142" lon="5.65572">
        <ele>811.344318</ele>
        <time>2011-02-13T10:19:33.71</time>
      </trkpt>
      <trkpt lat="44.98136" lon="5.65541">
        <ele>813.344261</ele>
        <time>2011-02-13T10:19:38.66</time>
      </trkpt>
      <trkpt lat="44.98129" lon="5.65506">
        <ele>814.344196</ele>
        <time>2011-02-13T10:19:46.68</time>
      </trkpt>
      <trkpt lat="44.98128" lon="5.65499">
        <ele>814.344181</ele>
        <time>2011-02-13T10:19:48.68</time>
      </trkpt>
      <trkpt lat="44.98126" lon="5.6548">
        <ele>815.344147</ele>
        <time>2011-02-13T10:19:53.67</time>
      </trkpt>
      <trkpt lat="44.98124" lon="5.65473">
        <ele>816.344135</ele>
        <time>2011-02-13T10:19:55.69</time>
      </trkpt>
      <trkpt lat="44.98121" lon="5.65463">
        <ele>816.344109</ele>
        <time>2011-02-13T10:19:58.63</time>
      </trkpt>
      <trkpt lat="44.98121" lon="5.65456">
        <ele>816.344101</ele>
        <time>2011-02-13T10:20:00.69</time>
      </trkpt>
      <trkpt lat="44.98126" lon="5.65418">
        <ele>819.344055</ele>
        <time>2011-02-13T10:20:22.66</time>
      </trkpt>
      <trkpt lat="44.98139" lon="5.65384">
        <ele>821.344032</ele>
        <time>2011-02-13T10:20:35.69</time>
      </trkpt>
      <trkpt lat="44.98153" lon="5.6536">
        <ele>822.344025</ele>
        <time>2011-02-13T10:20:43.65</time>
      </trkpt>
      <trkpt lat="44.98164" lon="5.65351">
        <ele>822.344036</ele>
        <time>2011-02-13T10:20:46.63</time>
      </trkpt>
      <trkpt lat="44.9817" lon="5.65345">
        <ele>821.34404</ele>
        <time>2011-02-13T10:20:48.68</time>
      </trkpt>
      <trkpt lat="44.98178" lon="5.6534">
        <ele>821.344048</ele>
        <time>2011-02-13T10:20:50.69</time>
      </trkpt>
      <trkpt lat="44.98192" lon="5.65332">
        <ele>822.34407</ele>
        <time>2011-02-13T10:20:54.69</time>
      </trkpt>
      <trkpt lat="44.98198" lon="5.65328">
        <ele>822.344078</ele>
        <time>2011-02-13T10:20:56.69</time>
      </trkpt>
      <trkpt lat="44.98204" lon="5.65323">
        <ele>822.344078</ele>
        <time>2011-02-13T10:20:58.65</time>
      </trkpt>
      <trkpt lat="44.9821" lon="5.65318">
        <ele>822.34409</ele>
        <time>2011-02-13T10:21:00.70</time>
      </trkpt>
      <trkpt lat="44.98216" lon="5.65313">
        <ele>821.344093</ele>
        <time>2011-02-13T10:21:02.67</time>
      </trkpt>
      <trkpt lat="44.98221" lon="5.65306">
        <ele>820.34409</ele>
        <time>2011-02-13T10:21:04.66</time>
      </trkpt>
      <trkpt lat="44.98226" lon="5.653">
        <ele>819.344093</ele>
        <time>2011-02-13T10:21:06.66</time>
      </trkpt>
      <trkpt lat="44.98231" lon="5.65293">
        <ele>818.344093</ele>
        <time>2011-02-13T10:21:08.67</time>
      </trkpt>
      <trkpt lat="44.98235" lon="5.65287">
        <ele>817.344093</ele>
        <time>2011-02-13T10:21:10.69</time>
      </trkpt>
      <trkpt lat="44.9824" lon="5.65281">
        <ele>816.344093</ele>
        <time>2011-02-13T10:21:12.68</time>
      </trkpt>
      <trkpt lat="44.98244" lon="5.65275">
        <ele>815.344093</ele>
        <time>2011-02-13T10:21:14.63</time>
      </trkpt>
      <trkpt lat="44.98248" lon="5.65269">
        <ele>813.344093</ele>
        <time>2011-02-13T10:21:16.63</time>
      </trkpt>
      <trkpt lat="44.98252" lon="5.65263">
        <ele>812.344093</ele>
        <time>2011-02-13T10:21:18.70</time>
      </trkpt>
      <trkpt lat="44.98256" lon="5.65258">
        <ele>811.344097</ele>
        <time>2011-02-13T10:21:20.69</time>
      </trkpt>
      <trkpt lat="44.9826" lon="5.65252">
        <ele>810.344097</ele>
        <time>2011-02-13T10:21:22.84</time>
      </trkpt>
      <trkpt lat="44.98263" lon="5.65246">
        <ele>809.344093</ele>
        <time>2011-02-13T10:21:24.64</time>
      </trkpt>
      <trkpt lat="44.98267" lon="5.6524">
        <ele>809.34409</ele>
        <time>2011-02-13T10:21:26.67</time>
      </trkpt>
      <trkpt lat="44.9827" lon="5.65234">
        <ele>808.34409</ele>
        <time>2011-02-13T10:21:28.63</time>
      </trkpt>
      <trkpt lat="44.98274" lon="5.65229">
        <ele>808.34409</ele>
        <time>2011-02-13T10:21:30.69</time>
      </trkpt>
      <trkpt lat="44.98277" lon="5.65224">
        <ele>807.34409</ele>
        <time>2011-02-13T10:21:32.65</time>
      </trkpt>
      <trkpt lat="44.98281" lon="5.65219">
        <ele>806.344093</ele>
        <time>2011-02-13T10:21:34.65</time>
      </trkpt>
      <trkpt lat="44.98285" lon="5.65215">
        <ele>806.344093</ele>
        <time>2011-02-13T10:21:36.65</time>
      </trkpt>
      <trkpt lat="44.98288" lon="5.65211">
        <ele>806.344097</ele>
        <time>2011-02-13T10:21:38.67</time>
      </trkpt>
      <trkpt lat="44.98292" lon="5.65208">
        <ele>807.344101</ele>
        <time>2011-02-13T10:21:40.69</time>
      </trkpt>
      <trkpt lat="44.98295" lon="5.65204">
        <ele>807.344101</ele>
        <time>2011-02-13T10:21:42.70</time>
      </trkpt>
      <trkpt lat="44.98299" lon="5.65201">
        <ele>807.344101</ele>
        <time>2011-02-13T10:21:44.66</time>
      </trkpt>
      <trkpt lat="44.98303" lon="5.65198">
        <ele>807.344105</ele>
        <time>2011-02-13T10:21:46.66</time>
      </trkpt>
      <trkpt lat="44.98307" lon="5.65195">
        <ele>808.344112</ele>
        <time>2011-02-13T10:21:48.68</time>
      </trkpt>
      <trkpt lat="44.98311" lon="5.65193">
        <ele>808.34412</ele>
        <time>2011-02-13T10:21:50.70</time>
      </trkpt>
      <trkpt lat="44.98316" lon="5.65191">
        <ele>809.344124</ele>
        <time>2011-02-13T10:21:52.64</time>
      </trkpt>
      <trkpt lat="44.9832" lon="5.65188">
        <ele>810.344128</ele>
        <time>2011-02-13T10:21:54.66</time>
      </trkpt>
      <trkpt lat="44.98324" lon="5.65186">
        <ele>811.344131</ele>
        <time>2011-02-13T10:21:56.66</time>
      </trkpt>
      <trkpt lat="44.98328" lon="5.65183">
        <ele>812.344139</ele>
        <time>2011-02-13T10:21:58.62</time>
      </trkpt>
      <trkpt lat="44.98332" lon="5.65181">
        <ele>812.344147</ele>
        <time>2011-02-13T10:22:00.70</time>
      </trkpt>
      <trkpt lat="44.98336" lon="5.65178">
        <ele>813.344147</ele>
        <time>2011-02-13T10:22:02.64</time>
      </trkpt>
      <trkpt lat="44.98339" lon="5.65175">
        <ele>814.344151</ele>
        <time>2011-02-13T10:22:04.63</time>
      </trkpt>
      <trkpt lat="44.98342" lon="5.65172">
        <ele>814.344158</ele>
        <time>2011-02-13T10:22:06.64</time>
      </trkpt>
      <trkpt lat="44.98346" lon="5.6517">
        <ele>814.344162</ele>
        <time>2011-02-13T10:22:08.66</time>
      </trkpt>
      <trkpt lat="44.98349" lon="5.65168">
        <ele>814.344162</ele>
        <time>2011-02-13T10:22:10.69</time>
      </trkpt>
      <trkpt lat="44.98353" lon="5.65167">
        <ele>815.34417</ele>
        <time>2011-02-13T10:22:12.69</time>
      </trkpt>
      <trkpt lat="44.98357" lon="5.65166">
        <ele>815.344177</ele>
        <time>2011-02-13T10:22:14.66</time>
      </trkpt>
      <trkpt lat="44.98361" lon="5.65166">
        <ele>814.344189</ele>
        <time>2011-02-13T10:22:16.63</time>
      </trkpt>
      <trkpt lat="44.98365" lon="5.65165">
        <ele>814.344189</ele>
        <time>2011-02-13T10:22:18.67</time>
      </trkpt>
      <trkpt lat="44.98373" lon="5.65161">
        <ele>815.344204</ele>
        <time>2011-02-13T10:22:23.64</time>
      </trkpt>
      <trkpt lat="44.98377" lon="5.6516">
        <ele>815.344208</ele>
        <time>2011-02-13T10:22:25.69</time>
      </trkpt>
      <trkpt lat="44.98384" lon="5.65159">
        <ele>815.344223</ele>
        <time>2011-02-13T10:22:29.66</time>
      </trkpt>
      <trkpt lat="44.98394" lon="5.6516">
        <ele>817.344246</ele>
        <time>2011-02-13T10:22:34.102</time>
      </trkpt>
      <trkpt lat="44.98398" lon="5.65161">
        <ele>818.344257</ele>
        <time>2011-02-13T10:22:36.66</time>
      </trkpt>
      <trkpt lat="44.98402" lon="5.65161">
        <ele>818.344269</ele>
        <time>2011-02-13T10:22:38.64</time>
      </trkpt>
      <trkpt lat="44.98406" lon="5.65162">
        <ele>818.344276</ele>
        <time>2011-02-13T10:22:40.68</time>
      </trkpt>
      <trkpt lat="44.98409" lon="5.65161">
        <ele>819.344284</ele>
        <time>2011-02-13T10:22:42.68</time>
      </trkpt>
      <trkpt lat="44.98422" lon="5.65162">
        <ele>823.344311</ele>
        <time>2011-02-13T10:22:49.62</time>
      </trkpt>
      <trkpt lat="44.98426" lon="5.6516">
        <ele>824.344322</ele>
        <time>2011-02-13T10:22:51.83</time>
      </trkpt>
      <trkpt lat="44.9843" lon="5.65158">
        <ele>824.344322</ele>
        <time>2011-02-13T10:22:53.67</time>
      </trkpt>
      <trkpt lat="44.98436" lon="5.65154">
        <ele>825.34433</ele>
        <time>2011-02-13T10:22:56.62</time>
      </trkpt>
      <trkpt lat="44.98439" lon="5.65149">
        <ele>826.34433</ele>
        <time>2011-02-13T10:22:58.61</time>
      </trkpt>
      <trkpt lat="44.98442" lon="5.65145">
        <ele>827.344334</ele>
        <time>2011-02-13T10:23:00.70</time>
      </trkpt>
      <trkpt lat="44.98444" lon="5.65141">
        <ele>828.34433</ele>
        <time>2011-02-13T10:23:02.64</time>
      </trkpt>
      <trkpt lat="44.98445" lon="5.65135">
        <ele>827.344322</ele>
        <time>2011-02-13T10:23:04.65</time>
      </trkpt>
      <trkpt lat="44.98446" lon="5.65127">
        <ele>824.344307</ele>
        <time>2011-02-13T10:23:06.67</time>
      </trkpt>
      <trkpt lat="44.98446" lon="5.65121">
        <ele>821.344299</ele>
        <time>2011-02-13T10:23:08.67</time>
      </trkpt>
      <trkpt lat="44.98445" lon="5.65117">
        <ele>818.344292</ele>
        <time>2011-02-13T10:23:10.69</time>
      </trkpt>
      <trkpt lat="44.98443" lon="5.65115">
        <ele>816.344288</ele>
        <time>2011-02-13T10:23:12.66</time>
      </trkpt>
      <trkpt lat="44.98441" lon="5.65115">
        <ele>814.344284</ele>
        <time>2011-02-13T10:23:14.65</time>
      </trkpt>
      <trkpt lat="44.98439" lon="5.65116">
        <ele>813.34428</ele>
        <time>2011-02-13T10:23:16.64</time>
      </trkpt>
      <trkpt lat="44.98437" lon="5.65118">
        <ele>811.34428</ele>
        <time>2011-02-13T10:23:18.79</time>
      </trkpt>
      <trkpt lat="44.98435" lon="5.65121">
        <ele>810.34428</ele>
        <time>2011-02-13T10:23:20.70</time>
      </trkpt>
      <trkpt lat="44.98433" lon="5.65123">
        <ele>809.344276</ele>
        <time>2011-02-13T10:23:22.66</time>
      </trkpt>
      <trkpt lat="44.98431" lon="5.65126">
        <ele>808.34428</ele>
        <time>2011-02-13T10:23:24.66</time>
      </trkpt>
      <trkpt lat="44.98429" lon="5.65129">
        <ele>808.344276</ele>
        <time>2011-02-13T10:23:26.64</time>
      </trkpt>
      <trkpt lat="44.98427" lon="5.65131">
        <ele>807.344276</ele>
        <time>2011-02-13T10:23:28.83</time>
      </trkpt>
      <trkpt lat="44.98426" lon="5.65132">
        <ele>807.344276</ele>
        <time>2011-02-13T10:23:30.104</time>
      </trkpt>
      <trkpt lat="44.98424" lon="5.65133">
        <ele>807.344269</ele>
        <time>2011-02-13T10:23:32.64</time>
      </trkpt>
      <trkpt lat="44.98422" lon="5.65133">
        <ele>808.344269</ele>
        <time>2011-02-13T10:23:34.62</time>
      </trkpt>
      <trkpt lat="44.98418" lon="5.65133">
        <ele>808.344265</ele>
        <time>2011-02-13T10:23:36.70</time>
      </trkpt>
      <trkpt lat="44.98415" lon="5.65133">
        <ele>808.344254</ele>
        <time>2011-02-13T10:23:38.93</time>
      </trkpt>
      <trkpt lat="44.98411" lon="5.65133">
        <ele>809.344246</ele>
        <time>2011-02-13T10:23:40.69</time>
      </trkpt>
      <trkpt lat="44.98407" lon="5.65132">
        <ele>809.344234</ele>
        <time>2011-02-13T10:23:42.67</time>
      </trkpt>
      <trkpt lat="44.984" lon="5.6513">
        <ele>811.344215</ele>
        <time>2011-02-13T10:23:46.63</time>
      </trkpt>
      <trkpt lat="44.98397" lon="5.65129">
        <ele>812.344215</ele>
        <time>2011-02-13T10:23:48.66</time>
      </trkpt>
      <trkpt lat="44.98393" lon="5.65129">
        <ele>813.3442</ele>
        <time>2011-02-13T10:23:50.70</time>
      </trkpt>
      <trkpt lat="44.98381" lon="5.65126">
        <ele>815.34417</ele>
        <time>2011-02-13T10:23:55.69</time>
      </trkpt>
      <trkpt lat="44.98376" lon="5.65124">
        <ele>816.344154</ele>
        <time>2011-02-13T10:23:57.65</time>
      </trkpt>
      <trkpt lat="44.98371" lon="5.65123">
        <ele>817.344143</ele>
        <time>2011-02-13T10:23:59.64</time>
      </trkpt>
      <trkpt lat="44.98365" lon="5.65122">
        <ele>818.344128</ele>
        <time>2011-02-13T10:24:01.93</time>
      </trkpt>
      <trkpt lat="44.9835" lon="5.6512">
        <ele>821.344093</ele>
        <time>2011-02-13T10:24:06.65</time>
      </trkpt>
      <trkpt lat="44.98344" lon="5.65121">
        <ele>821.344082</ele>
        <time>2011-02-13T10:24:08.63</time>
      </trkpt>
      <trkpt lat="44.98337" lon="5.65123">
        <ele>821.34407</ele>
        <time>2011-02-13T10:24:10.70</time>
      </trkpt>
      <trkpt lat="44.98331" lon="5.65126">
        <ele>821.344059</ele>
        <time>2011-02-13T10:24:12.66</time>
      </trkpt>
      <trkpt lat="44.98325" lon="5.65129">
        <ele>821.344051</ele>
        <time>2011-02-13T10:24:14.62</time>
      </trkpt>
      <trkpt lat="44.98318" lon="5.65133">
        <ele>821.344044</ele>
        <time>2011-02-13T10:24:16.64</time>
      </trkpt>
      <trkpt lat="44.98312" lon="5.65137">
        <ele>820.344032</ele>
        <time>2011-02-13T10:24:18.70</time>
      </trkpt>
      <trkpt lat="44.98305" lon="5.65142">
        <ele>820.344025</ele>
        <time>2011-02-13T10:24:20.71</time>
      </trkpt>
      <trkpt lat="44.98298" lon="5.65147">
        <ele>819.344021</ele>
        <time>2011-02-13T10:24:22.64</time>
      </trkpt>
      <trkpt lat="44.98292" lon="5.65153">
        <ele>818.344017</ele>
        <time>2011-02-13T10:24:24.68</time>
      </trkpt>
      <trkpt lat="44.98286" lon="5.65159">
        <ele>817.344013</ele>
        <time>2011-02-13T10:24:26.83</time>
      </trkpt>
      <trkpt lat="44.98281" lon="5.65165">
        <ele>817.344009</ele>
        <time>2011-02-13T10:24:28.62</time>
      </trkpt>
      <trkpt lat="44.98276" lon="5.65172">
        <ele>816.344009</ele>
        <time>2011-02-13T10:24:30.70</time>
      </trkpt>
      <trkpt lat="44.98272" lon="5.65178">
        <ele>814.344009</ele>
        <time>2011-02-13T10:24:32.65</time>
      </trkpt>
      <trkpt lat="44.98267" lon="5.65184">
        <ele>813.344009</ele>
        <time>2011-02-13T10:24:34.68</time>
      </trkpt>
      <trkpt lat="44.98263" lon="5.65189">
        <ele>813.344009</ele>
        <time>2011-02-13T10:24:36.79</time>
      </trkpt>
      <trkpt lat="44.98258" lon="5.65195">
        <ele>812.344006</ele>
        <time>2011-02-13T10:24:38.63</time>
      </trkpt>
      <trkpt lat="44.98254" lon="5.652">
        <ele>812.344009</ele>
        <time>2011-02-13T10:24:40.70</time>
      </trkpt>
      <trkpt lat="44.9825" lon="5.65206">
        <ele>810.344006</ele>
        <time>2011-02-13T10:24:42.68</time>
      </trkpt>
      <trkpt lat="44.98245" lon="5.65211">
        <ele>809.344002</ele>
        <time>2011-02-13T10:24:44.69</time>
      </trkpt>
      <trkpt lat="44.98241" lon="5.65217">
        <ele>808.343998</ele>
        <time>2011-02-13T10:24:46.75</time>
      </trkpt>
      <trkpt lat="44.98236" lon="5.65222">
        <ele>808.344002</ele>
        <time>2011-02-13T10:24:48.68</time>
      </trkpt>
      <trkpt lat="44.98231" lon="5.65226">
        <ele>807.343994</ele>
        <time>2011-02-13T10:24:50.85</time>
      </trkpt>
      <trkpt lat="44.98227" lon="5.6523">
        <ele>806.343987</ele>
        <time>2011-02-13T10:24:52.63</time>
      </trkpt>
      <trkpt lat="44.98222" lon="5.65232">
        <ele>805.343987</ele>
        <time>2011-02-13T10:24:54.71</time>
      </trkpt>
      <trkpt lat="44.98217" lon="5.65235">
        <ele>805.343975</ele>
        <time>2011-02-13T10:24:56.69</time>
      </trkpt>
      <trkpt lat="44.98213" lon="5.65236">
        <ele>805.343971</ele>
        <time>2011-02-13T10:24:58.64</time>
      </trkpt>
      <trkpt lat="44.98209" lon="5.65238">
        <ele>805.343964</ele>
        <time>2011-02-13T10:25:00.69</time>
      </trkpt>
      <trkpt lat="44.98205" lon="5.6524">
        <ele>805.343956</ele>
        <time>2011-02-13T10:25:02.69</time>
      </trkpt>
      <trkpt lat="44.98202" lon="5.65241">
        <ele>805.343952</ele>
        <time>2011-02-13T10:25:04.62</time>
      </trkpt>
      <trkpt lat="44.98201" lon="5.6524">
        <ele>805.343948</ele>
        <time>2011-02-13T10:25:06.77</time>
      </trkpt>
      <trkpt lat="44.982" lon="5.65238">
        <ele>804.343945</ele>
        <time>2011-02-13T10:25:08.67</time>
      </trkpt>
      <trkpt lat="44.98201" lon="5.65237">
        <ele>803.343945</ele>
        <time>2011-02-13T10:25:10.69</time>
      </trkpt>
      <trkpt lat="44.98204" lon="5.65232">
        <ele>803.343941</ele>
        <time>2011-02-13T10:25:14.68</time>
      </trkpt>
      <trkpt lat="44.98208" lon="5.65226">
        <ele>804.343941</ele>
        <time>2011-02-13T10:25:18.72</time>
      </trkpt>
      <trkpt lat="44.98209" lon="5.65224">
        <ele>805.343941</ele>
        <time>2011-02-13T10:25:20.70</time>
      </trkpt>
      <trkpt lat="44.98211" lon="5.65222">
        <ele>807.343945</ele>
        <time>2011-02-13T10:25:25.70</time>
      </trkpt>
      <trkpt lat="44.98211" lon="5.65222">
        <ele>808.343945</ele>
        <time>2011-02-13T10:25:27.66</time>
      </trkpt>
      <trkpt lat="44.98211" lon="5.65221">
        <ele>809.343941</ele>
        <time>2011-02-13T10:25:29.64</time>
      </trkpt>
      <trkpt lat="44.98213" lon="5.65217">
        <ele>811.343945</ele>
        <time>2011-02-13T10:25:38.64</time>
      </trkpt>
      <trkpt lat="44.98215" lon="5.65215">
        <ele>812.343941</ele>
        <time>2011-02-13T10:25:40.67</time>
      </trkpt>
      <trkpt lat="44.98217" lon="5.65213">
        <ele>813.343941</ele>
        <time>2011-02-13T10:25:42.67</time>
      </trkpt>
      <trkpt lat="44.98219" lon="5.6521">
        <ele>814.343948</ele>
        <time>2011-02-13T10:25:44.66</time>
      </trkpt>
      <trkpt lat="44.98229" lon="5.65198">
        <ele>818.343945</ele>
        <time>2011-02-13T10:25:52.62</time>
      </trkpt>
      <trkpt lat="44.98232" lon="5.65189">
        <ele>822.343941</ele>
        <time>2011-02-13T10:25:56.66</time>
      </trkpt>
      <trkpt lat="44.98233" lon="5.65184">
        <ele>824.343933</ele>
        <time>2011-02-13T10:25:58.61</time>
      </trkpt>
      <trkpt lat="44.98234" lon="5.65179">
        <ele>826.343929</ele>
        <time>2011-02-13T10:26:00.70</time>
      </trkpt>
      <trkpt lat="44.98238" lon="5.65157">
        <ele>829.343906</ele>
        <time>2011-02-13T10:26:07.70</time>
      </trkpt>
      <trkpt lat="44.98241" lon="5.65149">
        <ele>826.343903</ele>
        <time>2011-02-13T10:26:09.68</time>
      </trkpt>
      <trkpt lat="44.98244" lon="5.65137">
        <ele>823.343884</ele>
        <time>2011-02-13T10:26:11.96</time>
      </trkpt>
      <trkpt lat="44.98247" lon="5.65124">
        <ele>819.343872</ele>
        <time>2011-02-13T10:26:13.66</time>
      </trkpt>
      <trkpt lat="44.9825" lon="5.65109">
        <ele>815.343857</ele>
        <time>2011-02-13T10:26:15.69</time>
      </trkpt>
      <trkpt lat="44.98251" lon="5.65094">
        <ele>812.343842</ele>
        <time>2011-02-13T10:26:17.67</time>
      </trkpt>
      <trkpt lat="44.98254" lon="5.65074">
        <ele>807.343811</ele>
        <time>2011-02-13T10:26:20.68</time>
      </trkpt>
      <trkpt lat="44.98254" lon="5.65068">
        <ele>805.343803</ele>
        <time>2011-02-13T10:26:22.65</time>
      </trkpt>
      <trkpt lat="44.98256" lon="5.65059">
        <ele>803.343796</ele>
        <time>2011-02-13T10:26:24.67</time>
      </trkpt>
      <trkpt lat="44.98257" lon="5.65053">
        <ele>801.343788</ele>
        <time>2011-02-13T10:26:26.68</time>
      </trkpt>
      <trkpt lat="44.98258" lon="5.65049">
        <ele>801.343781</ele>
        <time>2011-02-13T10:26:28.65</time>
      </trkpt>
      <trkpt lat="44.98258" lon="5.65045">
        <ele>800.343781</ele>
        <time>2011-02-13T10:26:30.70</time>
      </trkpt>
      <trkpt lat="44.98259" lon="5.65041">
        <ele>800.343773</ele>
        <time>2011-02-13T10:26:32.85</time>
      </trkpt>
      <trkpt lat="44.9826" lon="5.65034">
        <ele>801.343765</ele>
        <time>2011-02-13T10:26:35.68</time>
      </trkpt>
      <trkpt lat="44.9826" lon="5.65029">
        <ele>802.343758</ele>
        <time>2011-02-13T10:26:38.65</time>
      </trkpt>
      <trkpt lat="44.9826" lon="5.65027">
        <ele>803.343754</ele>
        <time>2011-02-13T10:26:40.89</time>
      </trkpt>
      <trkpt lat="44.98258" lon="5.65022">
        <ele>806.343746</ele>
        <time>2011-02-13T10:26:44.66</time>
      </trkpt>
      <trkpt lat="44.98257" lon="5.65021">
        <ele>806.343742</ele>
        <time>2011-02-13T10:26:46.66</time>
      </trkpt>
      <trkpt lat="44.98255" lon="5.65021">
        <ele>806.343735</ele>
        <time>2011-02-13T10:26:48.72</time>
      </trkpt>
      <trkpt lat="44.98254" lon="5.65022">
        <ele>805.343735</ele>
        <time>2011-02-13T10:26:51.70</time>
      </trkpt>
      <trkpt lat="44.98253" lon="5.65023">
        <ele>805.343735</ele>
        <time>2011-02-13T10:26:53.66</time>
      </trkpt>
      <trkpt lat="44.98253" lon="5.65025">
        <ele>805.343742</ele>
        <time>2011-02-13T10:26:55.69</time>
      </trkpt>
      <trkpt lat="44.98254" lon="5.65028">
        <ele>804.343742</ele>
        <time>2011-02-13T10:26:57.65</time>
      </trkpt>
      <trkpt lat="44.98255" lon="5.65032">
        <ele>804.343754</ele>
        <time>2011-02-13T10:26:59.62</time>
      </trkpt>
      <trkpt lat="44.98255" lon="5.65038">
        <ele>803.343761</ele>
        <time>2011-02-13T10:27:01.107</time>
      </trkpt>
      <trkpt lat="44.98255" lon="5.65044">
        <ele>803.343773</ele>
        <time>2011-02-13T10:27:03.71</time>
      </trkpt>
      <trkpt lat="44.98255" lon="5.6505">
        <ele>803.343781</ele>
        <time>2011-02-13T10:27:05.68</time>
      </trkpt>
      <trkpt lat="44.98255" lon="5.65056">
        <ele>802.343788</ele>
        <time>2011-02-13T10:27:07.62</time>
      </trkpt>
      <trkpt lat="44.98255" lon="5.65062">
        <ele>801.343796</ele>
        <time>2011-02-13T10:27:09.65</time>
      </trkpt>
      <trkpt lat="44.98254" lon="5.65068">
        <ele>802.343803</ele>
        <time>2011-02-13T10:27:11.63</time>
      </trkpt>
      <trkpt lat="44.98254" lon="5.65073">
        <ele>801.343815</ele>
        <time>2011-02-13T10:27:13.62</time>
      </trkpt>
      <trkpt lat="44.98253" lon="5.65079">
        <ele>801.343819</ele>
        <time>2011-02-13T10:27:15.64</time>
      </trkpt>
      <trkpt lat="44.98253" lon="5.65085">
        <ele>801.343826</ele>
        <time>2011-02-13T10:27:17.62</time>
      </trkpt>
      <trkpt lat="44.98252" lon="5.6509">
        <ele>801.343834</ele>
        <time>2011-02-13T10:27:19.58</time>
      </trkpt>
      <trkpt lat="44.98251" lon="5.65095">
        <ele>800.343838</ele>
        <time>2011-02-13T10:27:21.62</time>
      </trkpt>
      <trkpt lat="44.9825" lon="5.651">
        <ele>801.343845</ele>
        <time>2011-02-13T10:27:23.68</time>
      </trkpt>
      <trkpt lat="44.9825" lon="5.65105">
        <ele>800.343853</ele>
        <time>2011-02-13T10:27:25.69</time>
      </trkpt>
      <trkpt lat="44.98249" lon="5.6511">
        <ele>800.343857</ele>
        <time>2011-02-13T10:27:27.67</time>
      </trkpt>
      <trkpt lat="44.98247" lon="5.65122">
        <ele>798.343868</ele>
        <time>2011-02-13T10:27:32.67</time>
      </trkpt>
      <trkpt lat="44.98245" lon="5.65126">
        <ele>799.343876</ele>
        <time>2011-02-13T10:27:34.62</time>
      </trkpt>
      <trkpt lat="44.98244" lon="5.6513">
        <ele>801.34388</ele>
        <time>2011-02-13T10:27:36.68</time>
      </trkpt>
      <trkpt lat="44.98242" lon="5.65134">
        <ele>801.34388</ele>
        <time>2011-02-13T10:27:38.70</time>
      </trkpt>
      <trkpt lat="44.98239" lon="5.65139">
        <ele>801.34388</ele>
        <time>2011-02-13T10:27:41.69</time>
      </trkpt>
      <trkpt lat="44.98237" lon="5.65143">
        <ele>802.343884</ele>
        <time>2011-02-13T10:27:43.65</time>
      </trkpt>
      <trkpt lat="44.98236" lon="5.65147">
        <ele>802.343887</ele>
        <time>2011-02-13T10:27:45.68</time>
      </trkpt>
      <trkpt lat="44.98234" lon="5.65151">
        <ele>804.343887</ele>
        <time>2011-02-13T10:27:47.70</time>
      </trkpt>
      <trkpt lat="44.98232" lon="5.65156">
        <ele>804.343887</ele>
        <time>2011-02-13T10:27:49.64</time>
      </trkpt>
      <trkpt lat="44.9823" lon="5.6516">
        <ele>806.343895</ele>
        <time>2011-02-13T10:27:51.68</time>
      </trkpt>
      <trkpt lat="44.98229" lon="5.65164">
        <ele>806.343895</ele>
        <time>2011-02-13T10:27:53.64</time>
      </trkpt>
      <trkpt lat="44.98227" lon="5.65168">
        <ele>807.343895</ele>
        <time>2011-02-13T10:27:55.69</time>
      </trkpt>
      <trkpt lat="44.98226" lon="5.65173">
        <ele>807.343903</ele>
        <time>2011-02-13T10:27:57.66</time>
      </trkpt>
      <trkpt lat="44.98225" lon="5.65178">
        <ele>809.343906</ele>
        <time>2011-02-13T10:27:59.65</time>
      </trkpt>
      <trkpt lat="44.98223" lon="5.65183">
        <ele>810.34391</ele>
        <time>2011-02-13T10:28:01.94</time>
      </trkpt>
      <trkpt lat="44.98221" lon="5.65188">
        <ele>810.343914</ele>
        <time>2011-02-13T10:28:03.67</time>
      </trkpt>
      <trkpt lat="44.98218" lon="5.65193">
        <ele>811.343914</ele>
        <time>2011-02-13T10:28:05.70</time>
      </trkpt>
      <trkpt lat="44.98215" lon="5.65199">
        <ele>812.343922</ele>
        <time>2011-02-13T10:28:07.67</time>
      </trkpt>
      <trkpt lat="44.98213" lon="5.65205">
        <ele>812.343922</ele>
        <time>2011-02-13T10:28:09.66</time>
      </trkpt>
      <trkpt lat="44.9821" lon="5.65211">
        <ele>812.343925</ele>
        <time>2011-02-13T10:28:11.71</time>
      </trkpt>
      <trkpt lat="44.98207" lon="5.65217">
        <ele>813.343929</ele>
        <time>2011-02-13T10:28:13.64</time>
      </trkpt>
      <trkpt lat="44.98205" lon="5.65224">
        <ele>813.343933</ele>
        <time>2011-02-13T10:28:15.69</time>
      </trkpt>
      <trkpt lat="44.98201" lon="5.6523">
        <ele>814.343933</ele>
        <time>2011-02-13T10:28:17.67</time>
      </trkpt>
      <trkpt lat="44.98198" lon="5.65235">
        <ele>815.343933</ele>
        <time>2011-02-13T10:28:19.62</time>
      </trkpt>
      <trkpt lat="44.98194" lon="5.65241">
        <ele>816.343933</ele>
        <time>2011-02-13T10:28:21.68</time>
      </trkpt>
      <trkpt lat="44.98191" lon="5.65246">
        <ele>816.343937</ele>
        <time>2011-02-13T10:28:23.66</time>
      </trkpt>
      <trkpt lat="44.98187" lon="5.65252">
        <ele>816.343937</ele>
        <time>2011-02-13T10:28:25.70</time>
      </trkpt>
      <trkpt lat="44.98183" lon="5.65257">
        <ele>816.343937</ele>
        <time>2011-02-13T10:28:27.68</time>
      </trkpt>
      <trkpt lat="44.98179" lon="5.65263">
        <ele>816.343933</ele>
        <time>2011-02-13T10:28:29.63</time>
      </trkpt>
      <trkpt lat="44.98176" lon="5.6527">
        <ele>816.343941</ele>
        <time>2011-02-13T10:28:31.62</time>
      </trkpt>
      <trkpt lat="44.98172" lon="5.65276">
        <ele>816.343945</ele>
        <time>2011-02-13T10:28:33.65</time>
      </trkpt>
      <trkpt lat="44.98169" lon="5.65283">
        <ele>816.343945</ele>
        <time>2011-02-13T10:28:35.70</time>
      </trkpt>
      <trkpt lat="44.98166" lon="5.6529">
        <ele>816.343948</ele>
        <time>2011-02-13T10:28:37.67</time>
      </trkpt>
      <trkpt lat="44.98162" lon="5.65297">
        <ele>816.343952</ele>
        <time>2011-02-13T10:28:39.63</time>
      </trkpt>
      <trkpt lat="44.98158" lon="5.65305">
        <ele>815.343952</ele>
        <time>2011-02-13T10:28:41.69</time>
      </trkpt>
      <trkpt lat="44.98155" lon="5.65313">
        <ele>814.343964</ele>
        <time>2011-02-13T10:28:43.66</time>
      </trkpt>
      <trkpt lat="44.98152" lon="5.6532">
        <ele>813.343964</ele>
        <time>2011-02-13T10:28:45.70</time>
      </trkpt>
      <trkpt lat="44.98149" lon="5.65327">
        <ele>813.343964</ele>
        <time>2011-02-13T10:28:47.64</time>
      </trkpt>
      <trkpt lat="44.98147" lon="5.65334">
        <ele>814.343971</ele>
        <time>2011-02-13T10:28:49.64</time>
      </trkpt>
      <trkpt lat="44.98145" lon="5.6534">
        <ele>814.343975</ele>
        <time>2011-02-13T10:28:51.64</time>
      </trkpt>
      <trkpt lat="44.98144" lon="5.65347">
        <ele>815.343987</ele>
        <time>2011-02-13T10:28:53.66</time>
      </trkpt>
      <trkpt lat="44.98143" lon="5.65354">
        <ele>815.343994</ele>
        <time>2011-02-13T10:28:55.69</time>
      </trkpt>
      <trkpt lat="44.98142" lon="5.65361">
        <ele>815.344006</ele>
        <time>2011-02-13T10:28:57.62</time>
      </trkpt>
      <trkpt lat="44.98141" lon="5.65368">
        <ele>816.344013</ele>
        <time>2011-02-13T10:28:59.65</time>
      </trkpt>
      <trkpt lat="44.9814" lon="5.65375">
        <ele>816.344017</ele>
        <time>2011-02-13T10:29:01.92</time>
      </trkpt>
      <trkpt lat="44.9814" lon="5.65382">
        <ele>817.344028</ele>
        <time>2011-02-13T10:29:03.68</time>
      </trkpt>
      <trkpt lat="44.9814" lon="5.65389">
        <ele>817.34404</ele>
        <time>2011-02-13T10:29:05.82</time>
      </trkpt>
      <trkpt lat="44.9814" lon="5.65396">
        <ele>818.344051</ele>
        <time>2011-02-13T10:29:07.68</time>
      </trkpt>
      <trkpt lat="44.9814" lon="5.65403">
        <ele>819.344063</ele>
        <time>2011-02-13T10:29:09.63</time>
      </trkpt>
      <trkpt lat="44.98139" lon="5.65411">
        <ele>819.34407</ele>
        <time>2011-02-13T10:29:11.66</time>
      </trkpt>
      <trkpt lat="44.98139" lon="5.65418">
        <ele>820.344082</ele>
        <time>2011-02-13T10:29:13.63</time>
      </trkpt>
      <trkpt lat="44.98138" lon="5.65425">
        <ele>820.344093</ele>
        <time>2011-02-13T10:29:15.69</time>
      </trkpt>
      <trkpt lat="44.98138" lon="5.65432">
        <ele>821.344101</ele>
        <time>2011-02-13T10:29:17.64</time>
      </trkpt>
      <trkpt lat="44.98138" lon="5.6544">
        <ele>821.344116</ele>
        <time>2011-02-13T10:29:19.63</time>
      </trkpt>
      <trkpt lat="44.98138" lon="5.65447">
        <ele>821.344124</ele>
        <time>2011-02-13T10:29:21.90</time>
      </trkpt>
      <trkpt lat="44.98137" lon="5.65454">
        <ele>821.344135</ele>
        <time>2011-02-13T10:29:23.66</time>
      </trkpt>
      <trkpt lat="44.98137" lon="5.65461">
        <ele>821.344147</ele>
        <time>2011-02-13T10:29:25.69</time>
      </trkpt>
      <trkpt lat="44.98137" lon="5.65469">
        <ele>821.344154</ele>
        <time>2011-02-13T10:29:27.69</time>
      </trkpt>
      <trkpt lat="44.98136" lon="5.65476">
        <ele>821.344166</ele>
        <time>2011-02-13T10:29:29.70</time>
      </trkpt>
      <trkpt lat="44.98136" lon="5.65483">
        <ele>821.344177</ele>
        <time>2011-02-13T10:29:31.71</time>
      </trkpt>
      <trkpt lat="44.98135" lon="5.6549">
        <ele>821.344185</ele>
        <time>2011-02-13T10:29:33.67</time>
      </trkpt>
      <trkpt lat="44.98134" lon="5.65497">
        <ele>821.344196</ele>
        <time>2011-02-13T10:29:35.69</time>
      </trkpt>
      <trkpt lat="44.98134" lon="5.65504">
        <ele>820.344204</ele>
        <time>2011-02-13T10:29:37.67</time>
      </trkpt>
      <trkpt lat="44.98134" lon="5.6551">
        <ele>820.344208</ele>
        <time>2011-02-13T10:29:39.64</time>
      </trkpt>
      <trkpt lat="44.98133" lon="5.65516">
        <ele>820.344215</ele>
        <time>2011-02-13T10:29:41.68</time>
      </trkpt>
      <trkpt lat="44.98133" lon="5.65521">
        <ele>820.344223</ele>
        <time>2011-02-13T10:29:43.102</time>
      </trkpt>
      <trkpt lat="44.98133" lon="5.65526">
        <ele>819.344238</ele>
        <time>2011-02-13T10:29:45.69</time>
      </trkpt>
      <trkpt lat="44.98133" lon="5.65531">
        <ele>820.344238</ele>
        <time>2011-02-13T10:29:47.63</time>
      </trkpt>
      <trkpt lat="44.98133" lon="5.65535">
        <ele>820.344246</ele>
        <time>2011-02-13T10:29:49.55</time>
      </trkpt>
      <trkpt lat="44.98133" lon="5.65539">
        <ele>820.344254</ele>
        <time>2011-02-13T10:29:51.65</time>
      </trkpt>
      <trkpt lat="44.98133" lon="5.65542">
        <ele>821.344261</ele>
        <time>2011-02-13T10:29:53.66</time>
      </trkpt>
      <trkpt lat="44.98133" lon="5.65546">
        <ele>821.344261</ele>
        <time>2011-02-13T10:29:55.65</time>
      </trkpt>
      <trkpt lat="44.98132" lon="5.65549">
        <ele>820.344269</ele>
        <time>2011-02-13T10:29:57.68</time>
      </trkpt>
      <trkpt lat="44.98132" lon="5.65553">
        <ele>819.344269</ele>
        <time>2011-02-13T10:29:59.67</time>
      </trkpt>
      <trkpt lat="44.9813" lon="5.65594">
        <ele>811.34433</ele>
        <time>2011-02-13T10:30:28.62</time>
      </trkpt>
      <trkpt lat="44.98136" lon="5.65638">
        <ele>808.344406</ele>
        <time>2011-02-13T10:30:39.107</time>
      </trkpt>
      <trkpt lat="44.98137" lon="5.65663">
        <ele>804.344444</ele>
        <time>2011-02-13T10:30:46.61</time>
      </trkpt>
      <trkpt lat="44.98138" lon="5.65667">
        <ele>801.344452</ele>
        <time>2011-02-13T10:30:48.68</time>
      </trkpt>
      <trkpt lat="44.98138" lon="5.65669">
        <ele>799.344463</ele>
        <time>2011-02-13T10:30:50.70</time>
      </trkpt>
      <trkpt lat="44.98138" lon="5.65673">
        <ele>796.344467</ele>
        <time>2011-02-13T10:30:52.63</time>
      </trkpt>
      <trkpt lat="44.98139" lon="5.65676">
        <ele>795.344475</ele>
        <time>2011-02-13T10:30:54.67</time>
      </trkpt>
      <trkpt lat="44.98139" lon="5.6568">
        <ele>794.344479</ele>
        <time>2011-02-13T10:30:56.61</time>
      </trkpt>
      <trkpt lat="44.98141" lon="5.65684">
        <ele>793.344486</ele>
        <time>2011-02-13T10:30:58.75</time>
      </trkpt>
      <trkpt lat="44.98142" lon="5.65687">
        <ele>792.344498</ele>
        <time>2011-02-13T10:31:00.68</time>
      </trkpt>
      <trkpt lat="44.98143" lon="5.6569">
        <ele>792.344501</ele>
        <time>2011-02-13T10:31:02.63</time>
      </trkpt>
      <trkpt lat="44.98144" lon="5.65694">
        <ele>791.344505</ele>
        <time>2011-02-13T10:31:04.66</time>
      </trkpt>
      <trkpt lat="44.98144" lon="5.65697">
        <ele>791.344517</ele>
        <time>2011-02-13T10:31:06.67</time>
      </trkpt>
      <trkpt lat="44.98145" lon="5.657">
        <ele>791.344521</ele>
        <time>2011-02-13T10:31:08.66</time>
      </trkpt>
      <trkpt lat="44.98145" lon="5.65708">
        <ele>790.344532</ele>
        <time>2011-02-13T10:31:13.68</time>
      </trkpt>
      <trkpt lat="44.98145" lon="5.65711">
        <ele>790.344536</ele>
        <time>2011-02-13T10:31:15.68</time>
      </trkpt>
      <trkpt lat="44.98144" lon="5.65713">
        <ele>790.344543</ele>
        <time>2011-02-13T10:31:17.65</time>
      </trkpt>
      <trkpt lat="44.98143" lon="5.65716">
        <ele>790.344543</ele>
        <time>2011-02-13T10:31:19.60</time>
      </trkpt>
      <trkpt lat="44.98138" lon="5.65722">
        <ele>790.34454</ele>
        <time>2011-02-13T10:31:26.64</time>
      </trkpt>
      <trkpt lat="44.98136" lon="5.65723">
        <ele>790.344536</ele>
        <time>2011-02-13T10:31:28.63</time>
      </trkpt>
      <trkpt lat="44.98134" lon="5.65724">
        <ele>790.344536</ele>
        <time>2011-02-13T10:31:30.68</time>
      </trkpt>
      <trkpt lat="44.98133" lon="5.65725">
        <ele>790.344532</ele>
        <time>2011-02-13T10:31:32.74</time>
      </trkpt>
      <trkpt lat="44.98131" lon="5.65726">
        <ele>789.344528</ele>
        <time>2011-02-13T10:31:34.60</time>
      </trkpt>
      <trkpt lat="44.98126" lon="5.65723">
        <ele>789.344517</ele>
        <time>2011-02-13T10:31:41.55</time>
      </trkpt>
      <trkpt lat="44.98122" lon="5.6572">
        <ele>789.344501</ele>
        <time>2011-02-13T10:31:46.62</time>
      </trkpt>
      <trkpt lat="44.98119" lon="5.6572">
        <ele>789.344498</ele>
        <time>2011-02-13T10:31:48.64</time>
      </trkpt>
      <trkpt lat="44.98116" lon="5.6572">
        <ele>789.344486</ele>
        <time>2011-02-13T10:31:50.70</time>
      </trkpt>
      <trkpt lat="44.98113" lon="5.6572">
        <ele>789.344479</ele>
        <time>2011-02-13T10:31:52.61</time>
      </trkpt>
      <trkpt lat="44.9811" lon="5.65719">
        <ele>790.344475</ele>
        <time>2011-02-13T10:31:54.64</time>
      </trkpt>
      <trkpt lat="44.981" lon="5.65717">
        <ele>791.344452</ele>
        <time>2011-02-13T10:32:01.112</time>
      </trkpt>
      <trkpt lat="44.98097" lon="5.65717">
        <ele>791.344448</ele>
        <time>2011-02-13T10:32:03.67</time>
      </trkpt>
      <trkpt lat="44.98095" lon="5.65716">
        <ele>791.344437</ele>
        <time>2011-02-13T10:32:05.69</time>
      </trkpt>
      <trkpt lat="44.98086" lon="5.65716">
        <ele>792.344418</ele>
        <time>2011-02-13T10:32:12.64</time>
      </trkpt>
      <trkpt lat="44.98084" lon="5.65717">
        <ele>792.344414</ele>
        <time>2011-02-13T10:32:14.66</time>
      </trkpt>
      <trkpt lat="44.98082" lon="5.65716">
        <ele>792.34441</ele>
        <time>2011-02-13T10:32:16.58</time>
      </trkpt>
      <trkpt lat="44.9808" lon="5.65716">
        <ele>792.344402</ele>
        <time>2011-02-13T10:32:18.94</time>
      </trkpt>
      <trkpt lat="44.98078" lon="5.65716">
        <ele>792.344398</ele>
        <time>2011-02-13T10:32:20.70</time>
      </trkpt>
      <trkpt lat="44.98071" lon="5.65715">
        <ele>792.344383</ele>
        <time>2011-02-13T10:32:26.65</time>
      </trkpt>
      <trkpt lat="44.98065" lon="5.65713">
        <ele>792.344368</ele>
        <time>2011-02-13T10:32:32.68</time>
      </trkpt>
      <trkpt lat="44.98063" lon="5.65713">
        <ele>792.34436</ele>
        <time>2011-02-13T10:32:34.61</time>
      </trkpt>
      <trkpt lat="44.98061" lon="5.65712">
        <ele>792.34436</ele>
        <time>2011-02-13T10:32:36.63</time>
      </trkpt>
      <trkpt lat="44.98058" lon="5.65712">
        <ele>791.344353</ele>
        <time>2011-02-13T10:32:38.97</time>
      </trkpt>
      <trkpt lat="44.98055" lon="5.65711">
        <ele>791.344345</ele>
        <time>2011-02-13T10:32:40.70</time>
      </trkpt>
      <trkpt lat="44.98053" lon="5.65711">
        <ele>791.344337</ele>
        <time>2011-02-13T10:32:42.72</time>
      </trkpt>
      <trkpt lat="44.98049" lon="5.6571">
        <ele>792.34433</ele>
        <time>2011-02-13T10:32:44.65</time>
      </trkpt>
      <trkpt lat="44.98045" lon="5.6571">
        <ele>792.344322</ele>
        <time>2011-02-13T10:32:46.60</time>
      </trkpt>
      <trkpt lat="44.98041" lon="5.65709">
        <ele>793.344307</ele>
        <time>2011-02-13T10:32:48.65</time>
      </trkpt>
      <trkpt lat="44.98038" lon="5.65709">
        <ele>794.344299</ele>
        <time>2011-02-13T10:32:50.70</time>
      </trkpt>
      <trkpt lat="44.98033" lon="5.65709">
        <ele>794.344292</ele>
        <time>2011-02-13T10:32:52.62</time>
      </trkpt>
      <trkpt lat="44.98029" lon="5.65708">
        <ele>795.344284</ele>
        <time>2011-02-13T10:32:54.63</time>
      </trkpt>
      <trkpt lat="44.98025" lon="5.65707">
        <ele>795.344269</ele>
        <time>2011-02-13T10:32:56.65</time>
      </trkpt>
      <trkpt lat="44.98019" lon="5.65704">
        <ele>795.344254</ele>
        <time>2011-02-13T10:32:59.63</time>
      </trkpt>
      <trkpt lat="44.98014" lon="5.65703">
        <ele>795.344238</ele>
        <time>2011-02-13T10:33:01.109</time>
      </trkpt>
      <trkpt lat="44.9801" lon="5.65701">
        <ele>796.344231</ele>
        <time>2011-02-13T10:33:03.62</time>
      </trkpt>
      <trkpt lat="44.98006" lon="5.65699">
        <ele>796.344223</ele>
        <time>2011-02-13T10:33:05.69</time>
      </trkpt>
      <trkpt lat="44.98001" lon="5.65698">
        <ele>796.344208</ele>
        <time>2011-02-13T10:33:07.69</time>
      </trkpt>
      <trkpt lat="44.97996" lon="5.65697">
        <ele>796.344193</ele>
        <time>2011-02-13T10:33:09.65</time>
      </trkpt>
      <trkpt lat="44.9799" lon="5.65696">
        <ele>796.344177</ele>
        <time>2011-02-13T10:33:11.62</time>
      </trkpt>
      <trkpt lat="44.97985" lon="5.65696">
        <ele>796.344166</ele>
        <time>2011-02-13T10:33:13.87</time>
      </trkpt>
      <trkpt lat="44.9798" lon="5.65695">
        <ele>795.344154</ele>
        <time>2011-02-13T10:33:15.69</time>
      </trkpt>
      <trkpt lat="44.97975" lon="5.65694">
        <ele>795.344147</ele>
        <time>2011-02-13T10:33:17.64</time>
      </trkpt>
      <trkpt lat="44.97969" lon="5.65694">
        <ele>794.344128</ele>
        <time>2011-02-13T10:33:19.65</time>
      </trkpt>
      <trkpt lat="44.97964" lon="5.65693">
        <ele>794.34412</ele>
        <time>2011-02-13T10:33:21.66</time>
      </trkpt>
      <trkpt lat="44.97959" lon="5.65693">
        <ele>795.344109</ele>
        <time>2011-02-13T10:33:23.63</time>
      </trkpt>
      <trkpt lat="44.97953" lon="5.65694">
        <ele>795.344097</ele>
        <time>2011-02-13T10:33:25.68</time>
      </trkpt>
      <trkpt lat="44.97948" lon="5.65695">
        <ele>795.344086</ele>
        <time>2011-02-13T10:33:27.66</time>
      </trkpt>
      <trkpt lat="44.97942" lon="5.65696">
        <ele>796.344074</ele>
        <time>2011-02-13T10:33:29.65</time>
      </trkpt>
      <trkpt lat="44.97936" lon="5.65696">
        <ele>796.344063</ele>
        <time>2011-02-13T10:33:31.63</time>
      </trkpt>
      <trkpt lat="44.97929" lon="5.65697">
        <ele>797.344048</ele>
        <time>2011-02-13T10:33:33.62</time>
      </trkpt>
      <trkpt lat="44.97923" lon="5.657">
        <ele>797.34404</ele>
        <time>2011-02-13T10:33:35.67</time>
      </trkpt>
      <trkpt lat="44.97916" lon="5.65703">
        <ele>797.344028</ele>
        <time>2011-02-13T10:33:37.60</time>
      </trkpt>
      <trkpt lat="44.9791" lon="5.65706">
        <ele>798.344021</ele>
        <time>2011-02-13T10:33:39.66</time>
      </trkpt>
      <trkpt lat="44.97904" lon="5.6571">
        <ele>797.344017</ele>
        <time>2011-02-13T10:33:41.63</time>
      </trkpt>
      <trkpt lat="44.97899" lon="5.65713">
        <ele>797.344009</ele>
        <time>2011-02-13T10:33:43.59</time>
      </trkpt>
      <trkpt lat="44.97893" lon="5.65717">
        <ele>797.344002</ele>
        <time>2011-02-13T10:33:45.83</time>
      </trkpt>
      <trkpt lat="44.97888" lon="5.65721">
        <ele>797.343994</ele>
        <time>2011-02-13T10:33:47.63</time>
      </trkpt>
      <trkpt lat="44.97883" lon="5.65725">
        <ele>797.343994</ele>
        <time>2011-02-13T10:33:49.58</time>
      </trkpt>
      <trkpt lat="44.97879" lon="5.65729">
        <ele>798.343987</ele>
        <time>2011-02-13T10:33:51.66</time>
      </trkpt>
      <trkpt lat="44.97874" lon="5.65732">
        <ele>798.343979</ele>
        <time>2011-02-13T10:33:53.60</time>
      </trkpt>
      <trkpt lat="44.9787" lon="5.65736">
        <ele>798.343979</ele>
        <time>2011-02-13T10:33:55.69</time>
      </trkpt>
      <trkpt lat="44.97866" lon="5.6574">
        <ele>798.343979</ele>
        <time>2011-02-13T10:33:57.64</time>
      </trkpt>
      <trkpt lat="44.97862" lon="5.65744">
        <ele>798.343971</ele>
        <time>2011-02-13T10:33:59.63</time>
      </trkpt>
      <trkpt lat="44.97858" lon="5.65748">
        <ele>799.343971</ele>
        <time>2011-02-13T10:34:01.93</time>
      </trkpt>
      <trkpt lat="44.97854" lon="5.65752">
        <ele>799.343971</ele>
        <time>2011-02-13T10:34:03.66</time>
      </trkpt>
      <trkpt lat="44.97851" lon="5.65755">
        <ele>800.343964</ele>
        <time>2011-02-13T10:34:05.68</time>
      </trkpt>
      <trkpt lat="44.97847" lon="5.65757">
        <ele>800.343964</ele>
        <time>2011-02-13T10:34:07.79</time>
      </trkpt>
      <trkpt lat="44.97844" lon="5.6576">
        <ele>800.343956</ele>
        <time>2011-02-13T10:34:09.69</time>
      </trkpt>
      <trkpt lat="44.97841" lon="5.65762">
        <ele>800.343956</ele>
        <time>2011-02-13T10:34:11.63</time>
      </trkpt>
      <trkpt lat="44.97837" lon="5.65763">
        <ele>800.343948</ele>
        <time>2011-02-13T10:34:13.58</time>
      </trkpt>
      <trkpt lat="44.97834" lon="5.65765">
        <ele>801.343945</ele>
        <time>2011-02-13T10:34:15.69</time>
      </trkpt>
      <trkpt lat="44.97829" lon="5.65767">
        <ele>802.343941</ele>
        <time>2011-02-13T10:34:17.104</time>
      </trkpt>
      <trkpt lat="44.97826" lon="5.65769">
        <ele>803.343933</ele>
        <time>2011-02-13T10:34:19.60</time>
      </trkpt>
      <trkpt lat="44.97822" lon="5.65771">
        <ele>803.343929</ele>
        <time>2011-02-13T10:34:21.68</time>
      </trkpt>
      <trkpt lat="44.97819" lon="5.65774">
        <ele>803.343925</ele>
        <time>2011-02-13T10:34:23.62</time>
      </trkpt>
      <trkpt lat="44.97817" lon="5.65777">
        <ele>803.343925</ele>
        <time>2011-02-13T10:34:25.69</time>
      </trkpt>
      <trkpt lat="44.97814" lon="5.65779">
        <ele>804.343922</ele>
        <time>2011-02-13T10:34:27.61</time>
      </trkpt>
      <trkpt lat="44.97811" lon="5.65782">
        <ele>805.343922</ele>
        <time>2011-02-13T10:34:29.61</time>
      </trkpt>
      <trkpt lat="44.97808" lon="5.65785">
        <ele>805.343914</ele>
        <time>2011-02-13T10:34:31.57</time>
      </trkpt>
      <trkpt lat="44.97803" lon="5.65788">
        <ele>805.343914</ele>
        <time>2011-02-13T10:34:33.60</time>
      </trkpt>
      <trkpt lat="44.97797" lon="5.65792">
        <ele>805.343906</ele>
        <time>2011-02-13T10:34:35.70</time>
      </trkpt>
      <trkpt lat="44.97791" lon="5.65795">
        <ele>805.343895</ele>
        <time>2011-02-13T10:34:37.58</time>
      </trkpt>
      <trkpt lat="44.97785" lon="5.65797">
        <ele>805.343887</ele>
        <time>2011-02-13T10:34:39.62</time>
      </trkpt>
      <trkpt lat="44.97779" lon="5.65799">
        <ele>804.34388</ele>
        <time>2011-02-13T10:34:41.64</time>
      </trkpt>
      <trkpt lat="44.97773" lon="5.65801">
        <ele>804.343868</ele>
        <time>2011-02-13T10:34:43.65</time>
      </trkpt>
      <trkpt lat="44.97768" lon="5.65803">
        <ele>804.343857</ele>
        <time>2011-02-13T10:34:45.70</time>
      </trkpt>
      <trkpt lat="44.97762" lon="5.65804">
        <ele>803.343849</ele>
        <time>2011-02-13T10:34:47.58</time>
      </trkpt>
      <trkpt lat="44.97759" lon="5.65804">
        <ele>803.343838</ele>
        <time>2011-02-13T10:34:49.60</time>
      </trkpt>
      <trkpt lat="44.97755" lon="5.65805">
        <ele>803.343834</ele>
        <time>2011-02-13T10:34:51.65</time>
      </trkpt>
      <trkpt lat="44.97751" lon="5.65805">
        <ele>803.343826</ele>
        <time>2011-02-13T10:34:53.62</time>
      </trkpt>
      <trkpt lat="44.97746" lon="5.65806">
        <ele>803.343815</ele>
        <time>2011-02-13T10:34:55.70</time>
      </trkpt>
      <trkpt lat="44.97741" lon="5.65807">
        <ele>803.343803</ele>
        <time>2011-02-13T10:34:57.65</time>
      </trkpt>
      <trkpt lat="44.97737" lon="5.65807">
        <ele>803.343796</ele>
        <time>2011-02-13T10:34:59.60</time>
      </trkpt>
      <trkpt lat="44.97733" lon="5.65807">
        <ele>804.343788</ele>
        <time>2011-02-13T10:35:01.93</time>
      </trkpt>
      <trkpt lat="44.97728" lon="5.65808">
        <ele>804.343781</ele>
        <time>2011-02-13T10:35:03.62</time>
      </trkpt>
      <trkpt lat="44.97723" lon="5.65808">
        <ele>805.343765</ele>
        <time>2011-02-13T10:35:05.70</time>
      </trkpt>
      <trkpt lat="44.97718" lon="5.65808">
        <ele>806.343758</ele>
        <time>2011-02-13T10:35:07.67</time>
      </trkpt>
      <trkpt lat="44.97712" lon="5.65808">
        <ele>805.343746</ele>
        <time>2011-02-13T10:35:09.64</time>
      </trkpt>
      <trkpt lat="44.97707" lon="5.65807">
        <ele>806.343731</ele>
        <time>2011-02-13T10:35:11.75</time>
      </trkpt>
      <trkpt lat="44.97702" lon="5.65807">
        <ele>806.343723</ele>
        <time>2011-02-13T10:35:13.58</time>
      </trkpt>
      <trkpt lat="44.97696" lon="5.65807">
        <ele>806.343708</ele>
        <time>2011-02-13T10:35:15.70</time>
      </trkpt>
      <trkpt lat="44.9769" lon="5.65806">
        <ele>807.343697</ele>
        <time>2011-02-13T10:35:17.65</time>
      </trkpt>
      <trkpt lat="44.97684" lon="5.65806">
        <ele>807.343681</ele>
        <time>2011-02-13T10:35:19.69</time>
      </trkpt>
      <trkpt lat="44.97679" lon="5.65806">
        <ele>808.34367</ele>
        <time>2011-02-13T10:35:21.63</time>
      </trkpt>
      <trkpt lat="44.97673" lon="5.65806">
        <ele>809.343655</ele>
        <time>2011-02-13T10:35:23.71</time>
      </trkpt>
      <trkpt lat="44.97668" lon="5.65807">
        <ele>809.343647</ele>
        <time>2011-02-13T10:35:25.61</time>
      </trkpt>
      <trkpt lat="44.97662" lon="5.65807">
        <ele>809.343636</ele>
        <time>2011-02-13T10:35:27.64</time>
      </trkpt>
      <trkpt lat="44.97657" lon="5.65809">
        <ele>809.343624</ele>
        <time>2011-02-13T10:35:29.62</time>
      </trkpt>
      <trkpt lat="44.97651" lon="5.65811">
        <ele>809.343616</ele>
        <time>2011-02-13T10:35:31.58</time>
      </trkpt>
      <trkpt lat="44.97646" lon="5.65814">
        <ele>809.343613</ele>
        <time>2011-02-13T10:35:33.61</time>
      </trkpt>
      <trkpt lat="44.97641" lon="5.65817">
        <ele>810.343605</ele>
        <time>2011-02-13T10:35:35.68</time>
      </trkpt>
      <trkpt lat="44.97636" lon="5.65821">
        <ele>810.343601</ele>
        <time>2011-02-13T10:35:37.60</time>
      </trkpt>
      <trkpt lat="44.97631" lon="5.65826">
        <ele>810.343597</ele>
        <time>2011-02-13T10:35:39.65</time>
      </trkpt>
      <trkpt lat="44.97625" lon="5.6583">
        <ele>809.34359</ele>
        <time>2011-02-13T10:35:41.61</time>
      </trkpt>
      <trkpt lat="44.9762" lon="5.65835">
        <ele>809.343582</ele>
        <time>2011-02-13T10:35:43.61</time>
      </trkpt>
      <trkpt lat="44.97615" lon="5.6584">
        <ele>809.343582</ele>
        <time>2011-02-13T10:35:45.70</time>
      </trkpt>
      <trkpt lat="44.9761" lon="5.65845">
        <ele>808.343582</ele>
        <time>2011-02-13T10:35:47.64</time>
      </trkpt>
      <trkpt lat="44.97606" lon="5.65851">
        <ele>808.343578</ele>
        <time>2011-02-13T10:35:49.61</time>
      </trkpt>
      <trkpt lat="44.97601" lon="5.65857">
        <ele>808.343578</ele>
        <time>2011-02-13T10:35:51.66</time>
      </trkpt>
      <trkpt lat="44.97597" lon="5.65863">
        <ele>808.343578</ele>
        <time>2011-02-13T10:35:53.62</time>
      </trkpt>
      <trkpt lat="44.97593" lon="5.6587">
        <ele>808.343578</ele>
        <time>2011-02-13T10:35:55.70</time>
      </trkpt>
      <trkpt lat="44.97589" lon="5.65877">
        <ele>808.343582</ele>
        <time>2011-02-13T10:35:57.62</time>
      </trkpt>
      <trkpt lat="44.97585" lon="5.65884">
        <ele>807.343586</ele>
        <time>2011-02-13T10:35:59.71</time>
      </trkpt>
      <trkpt lat="44.97581" lon="5.65891">
        <ele>807.34359</ele>
        <time>2011-02-13T10:36:01.92</time>
      </trkpt>
      <trkpt lat="44.97577" lon="5.65898">
        <ele>807.343586</ele>
        <time>2011-02-13T10:36:03.63</time>
      </trkpt>
      <trkpt lat="44.97574" lon="5.65905">
        <ele>807.34359</ele>
        <time>2011-02-13T10:36:05.69</time>
      </trkpt>
      <trkpt lat="44.97571" lon="5.65911">
        <ele>806.343594</ele>
        <time>2011-02-13T10:36:07.58</time>
      </trkpt>
      <trkpt lat="44.97568" lon="5.65917">
        <ele>806.343597</ele>
        <time>2011-02-13T10:36:09.61</time>
      </trkpt>
      <trkpt lat="44.97566" lon="5.65924">
        <ele>807.343601</ele>
        <time>2011-02-13T10:36:11.64</time>
      </trkpt>
      <trkpt lat="44.97563" lon="5.6593">
        <ele>807.343605</ele>
        <time>2011-02-13T10:36:13.63</time>
      </trkpt>
      <trkpt lat="44.97561" lon="5.65935">
        <ele>808.343613</ele>
        <time>2011-02-13T10:36:15.70</time>
      </trkpt>
      <trkpt lat="44.97559" lon="5.6594">
        <ele>808.343613</ele>
        <time>2011-02-13T10:36:17.66</time>
      </trkpt>
      <trkpt lat="44.97557" lon="5.65945">
        <ele>809.343613</ele>
        <time>2011-02-13T10:36:19.58</time>
      </trkpt>
      <trkpt lat="44.97555" lon="5.65948">
        <ele>809.343616</ele>
        <time>2011-02-13T10:36:21.64</time>
      </trkpt>
      <trkpt lat="44.97553" lon="5.65952">
        <ele>810.343616</ele>
        <time>2011-02-13T10:36:23.67</time>
      </trkpt>
      <trkpt lat="44.9755" lon="5.65957">
        <ele>811.343616</ele>
        <time>2011-02-13T10:36:25.68</time>
      </trkpt>
      <trkpt lat="44.97547" lon="5.65962">
        <ele>811.34362</ele>
        <time>2011-02-13T10:36:27.59</time>
      </trkpt>
      <trkpt lat="44.97545" lon="5.65966">
        <ele>812.34362</ele>
        <time>2011-02-13T10:36:29.65</time>
      </trkpt>
      <trkpt lat="44.97542" lon="5.6597">
        <ele>813.34362</ele>
        <time>2011-02-13T10:36:31.61</time>
      </trkpt>
      <trkpt lat="44.9754" lon="5.65972">
        <ele>814.34362</ele>
        <time>2011-02-13T10:36:33.64</time>
      </trkpt>
      <trkpt lat="44.97536" lon="5.65978">
        <ele>814.34362</ele>
        <time>2011-02-13T10:36:36.64</time>
      </trkpt>
      <trkpt lat="44.97532" lon="5.65983">
        <ele>814.34362</ele>
        <time>2011-02-13T10:36:38.63</time>
      </trkpt>
      <trkpt lat="44.97529" lon="5.65987">
        <ele>814.343616</ele>
        <time>2011-02-13T10:36:40.68</time>
      </trkpt>
      <trkpt lat="44.97525" lon="5.65992">
        <ele>814.34362</ele>
        <time>2011-02-13T10:36:42.61</time>
      </trkpt>
      <trkpt lat="44.97521" lon="5.65997">
        <ele>813.34362</ele>
        <time>2011-02-13T10:36:44.67</time>
      </trkpt>
      <trkpt lat="44.97514" lon="5.66013">
        <ele>812.343628</ele>
        <time>2011-02-13T10:36:50.58</time>
      </trkpt>
      <trkpt lat="44.97513" lon="5.66017">
        <ele>812.343628</ele>
        <time>2011-02-13T10:36:52.63</time>
      </trkpt>
      <trkpt lat="44.97512" lon="5.66021">
        <ele>812.343632</ele>
        <time>2011-02-13T10:36:54.60</time>
      </trkpt>
      <trkpt lat="44.97512" lon="5.66024">
        <ele>812.343636</ele>
        <time>2011-02-13T10:36:56.61</time>
      </trkpt>
      <trkpt lat="44.97515" lon="5.66032">
        <ele>810.343655</ele>
        <time>2011-02-13T10:37:02.65</time>
      </trkpt>
      <trkpt lat="44.97517" lon="5.66033">
        <ele>811.343658</ele>
        <time>2011-02-13T10:37:04.57</time>
      </trkpt>
      <trkpt lat="44.9752" lon="5.66032">
        <ele>811.343666</ele>
        <time>2011-02-13T10:37:07.64</time>
      </trkpt>
      <trkpt lat="44.97522" lon="5.66031">
        <ele>811.343666</ele>
        <time>2011-02-13T10:37:09.63</time>
      </trkpt>
      <trkpt lat="44.97525" lon="5.66028">
        <ele>812.343674</ele>
        <time>2011-02-13T10:37:11.61</time>
      </trkpt>
      <trkpt lat="44.97534" lon="5.66016">
        <ele>814.343674</ele>
        <time>2011-02-13T10:37:19.57</time>
      </trkpt>
      <trkpt lat="44.97536" lon="5.66013">
        <ele>815.34367</ele>
        <time>2011-02-13T10:37:21.66</time>
      </trkpt>
      <trkpt lat="44.97537" lon="5.6601">
        <ele>816.343674</ele>
        <time>2011-02-13T10:37:23.60</time>
      </trkpt>
      <trkpt lat="44.9754" lon="5.66006">
        <ele>817.343666</ele>
        <time>2011-02-13T10:37:25.55</time>
      </trkpt>
      <trkpt lat="44.97544" lon="5.65997">
        <ele>818.34367</ele>
        <time>2011-02-13T10:37:29.61</time>
      </trkpt>
      <trkpt lat="44.97547" lon="5.65992">
        <ele>818.343662</ele>
        <time>2011-02-13T10:37:31.59</time>
      </trkpt>
      <trkpt lat="44.9755" lon="5.65987">
        <ele>818.343662</ele>
        <time>2011-02-13T10:37:33.63</time>
      </trkpt>
      <trkpt lat="44.97558" lon="5.65975">
        <ele>820.343666</ele>
        <time>2011-02-13T10:37:38.76</time>
      </trkpt>
      <trkpt lat="44.97562" lon="5.65969">
        <ele>820.343662</ele>
        <time>2011-02-13T10:37:40.70</time>
      </trkpt>
      <trkpt lat="44.97566" lon="5.65963">
        <ele>821.343666</ele>
        <time>2011-02-13T10:37:42.62</time>
      </trkpt>
      <trkpt lat="44.97573" lon="5.65955">
        <ele>820.343666</ele>
        <time>2011-02-13T10:37:44.62</time>
      </trkpt>
      <trkpt lat="44.9758" lon="5.65942">
        <ele>819.343662</ele>
        <time>2011-02-13T10:37:46.60</time>
      </trkpt>
      <trkpt lat="44.97588" lon="5.65923">
        <ele>818.343651</ele>
        <time>2011-02-13T10:37:49.60</time>
      </trkpt>
      <trkpt lat="44.97593" lon="5.65911">
        <ele>818.343643</ele>
        <time>2011-02-13T10:37:51.61</time>
      </trkpt>
      <trkpt lat="44.97598" lon="5.659">
        <ele>817.343636</ele>
        <time>2011-02-13T10:37:53.59</time>
      </trkpt>
      <trkpt lat="44.97603" lon="5.65891">
        <ele>817.343636</ele>
        <time>2011-02-13T10:37:55.71</time>
      </trkpt>
      <trkpt lat="44.97608" lon="5.65883">
        <ele>817.343632</ele>
        <time>2011-02-13T10:37:57.61</time>
      </trkpt>
      <trkpt lat="44.97613" lon="5.65875">
        <ele>816.343628</ele>
        <time>2011-02-13T10:37:59.57</time>
      </trkpt>
      <trkpt lat="44.97619" lon="5.65867">
        <ele>815.343628</ele>
        <time>2011-02-13T10:38:01.93</time>
      </trkpt>
      <trkpt lat="44.97625" lon="5.65859">
        <ele>814.343632</ele>
        <time>2011-02-13T10:38:03.66</time>
      </trkpt>
      <trkpt lat="44.97632" lon="5.65852">
        <ele>814.343636</ele>
        <time>2011-02-13T10:38:05.60</time>
      </trkpt>
      <trkpt lat="44.97639" lon="5.65845">
        <ele>813.343643</ele>
        <time>2011-02-13T10:38:07.77</time>
      </trkpt>
      <trkpt lat="44.97645" lon="5.6584">
        <ele>812.343647</ele>
        <time>2011-02-13T10:38:09.63</time>
      </trkpt>
      <trkpt lat="44.97651" lon="5.65836">
        <ele>811.343651</ele>
        <time>2011-02-13T10:38:11.60</time>
      </trkpt>
      <trkpt lat="44.97657" lon="5.65835">
        <ele>811.343662</ele>
        <time>2011-02-13T10:38:13.62</time>
      </trkpt>
      <trkpt lat="44.97662" lon="5.65834">
        <ele>810.343678</ele>
        <time>2011-02-13T10:38:15.71</time>
      </trkpt>
      <trkpt lat="44.97666" lon="5.65833">
        <ele>810.343681</ele>
        <time>2011-02-13T10:38:17.59</time>
      </trkpt>
      <trkpt lat="44.9767" lon="5.65833">
        <ele>810.343689</ele>
        <time>2011-02-13T10:38:19.63</time>
      </trkpt>
      <trkpt lat="44.97675" lon="5.65831">
        <ele>811.3437</ele>
        <time>2011-02-13T10:38:21.71</time>
      </trkpt>
      <trkpt lat="44.9768" lon="5.65829">
        <ele>812.343704</ele>
        <time>2011-02-13T10:38:23.58</time>
      </trkpt>
      <trkpt lat="44.97685" lon="5.65828">
        <ele>812.343719</ele>
        <time>2011-02-13T10:38:25.59</time>
      </trkpt>
      <trkpt lat="44.9769" lon="5.65828">
        <ele>811.343727</ele>
        <time>2011-02-13T10:38:27.64</time>
      </trkpt>
      <trkpt lat="44.97695" lon="5.65829">
        <ele>811.343742</ele>
        <time>2011-02-13T10:38:29.58</time>
      </trkpt>
      <trkpt lat="44.97699" lon="5.65831">
        <ele>810.34375</ele>
        <time>2011-02-13T10:38:31.59</time>
      </trkpt>
      <trkpt lat="44.97703" lon="5.65833">
        <ele>811.343761</ele>
        <time>2011-02-13T10:38:33.62</time>
      </trkpt>
      <trkpt lat="44.97706" lon="5.65835">
        <ele>811.343773</ele>
        <time>2011-02-13T10:38:35.68</time>
      </trkpt>
      <trkpt lat="44.97709" lon="5.65837">
        <ele>810.343784</ele>
        <time>2011-02-13T10:38:37.56</time>
      </trkpt>
      <trkpt lat="44.97712" lon="5.6584">
        <ele>809.343792</ele>
        <time>2011-02-13T10:38:39.60</time>
      </trkpt>
      <trkpt lat="44.97715" lon="5.65844">
        <ele>808.343803</ele>
        <time>2011-02-13T10:38:41.104</time>
      </trkpt>
      <trkpt lat="44.97718" lon="5.65847">
        <ele>806.343819</ele>
        <time>2011-02-13T10:38:43.61</time>
      </trkpt>
      <trkpt lat="44.9772" lon="5.65849">
        <ele>804.343826</ele>
        <time>2011-02-13T10:38:45.70</time>
      </trkpt>
      <trkpt lat="44.97723" lon="5.65852">
        <ele>802.343834</ele>
        <time>2011-02-13T10:38:47.61</time>
      </trkpt>
      <trkpt lat="44.97729" lon="5.65855">
        <ele>799.343853</ele>
        <time>2011-02-13T10:38:54.62</time>
      </trkpt>
      <trkpt lat="44.97732" lon="5.65854">
        <ele>796.343857</ele>
        <time>2011-02-13T10:38:58.61</time>
      </trkpt>
      <trkpt lat="44.97739" lon="5.65852">
        <ele>793.343872</ele>
        <time>2011-02-13T10:39:05.68</time>
      </trkpt>
      <trkpt lat="44.97742" lon="5.65851">
        <ele>793.343876</ele>
        <time>2011-02-13T10:39:07.57</time>
      </trkpt>
      <trkpt lat="44.97744" lon="5.6585">
        <ele>793.343876</ele>
        <time>2011-02-13T10:39:09.66</time>
      </trkpt>
      <trkpt lat="44.97747" lon="5.65848">
        <ele>793.34388</ele>
        <time>2011-02-13T10:39:11.63</time>
      </trkpt>
      <trkpt lat="44.97758" lon="5.6584">
        <ele>791.343891</ele>
        <time>2011-02-13T10:39:16.64</time>
      </trkpt>
      <trkpt lat="44.97762" lon="5.65837">
        <ele>791.343895</ele>
        <time>2011-02-13T10:39:18.63</time>
      </trkpt>
      <trkpt lat="44.97767" lon="5.65833">
        <ele>792.343899</ele>
        <time>2011-02-13T10:39:20.69</time>
      </trkpt>
      <trkpt lat="44.97771" lon="5.65829">
        <ele>791.343903</ele>
        <time>2011-02-13T10:39:22.60</time>
      </trkpt>
      <trkpt lat="44.9778" lon="5.65822">
        <ele>791.343914</ele>
        <time>2011-02-13T10:39:27.67</time>
      </trkpt>
      <trkpt lat="44.97783" lon="5.6582">
        <ele>792.343918</ele>
        <time>2011-02-13T10:39:29.59</time>
      </trkpt>
      <trkpt lat="44.97787" lon="5.65819">
        <ele>792.343922</ele>
        <time>2011-02-13T10:39:31.53</time>
      </trkpt>
      <trkpt lat="44.9779" lon="5.65818">
        <ele>793.343933</ele>
        <time>2011-02-13T10:39:33.62</time>
      </trkpt>
      <trkpt lat="44.97799" lon="5.65815">
        <ele>796.343941</ele>
        <time>2011-02-13T10:39:40.54</time>
      </trkpt>
      <trkpt lat="44.97808" lon="5.65805">
        <ele>798.343948</ele>
        <time>2011-02-13T10:39:44.61</time>
      </trkpt>
      <trkpt lat="44.97813" lon="5.658">
        <ele>799.343956</ele>
        <time>2011-02-13T10:39:46.56</time>
      </trkpt>
      <trkpt lat="44.97829" lon="5.65787">
        <ele>801.343964</ele>
        <time>2011-02-13T10:39:51.61</time>
      </trkpt>
      <trkpt lat="44.97834" lon="5.65783">
        <ele>801.343967</ele>
        <time>2011-02-13T10:39:53.60</time>
      </trkpt>
      <trkpt lat="44.97843" lon="5.65776">
        <ele>804.343979</ele>
        <time>2011-02-13T10:39:55.58</time>
      </trkpt>
      <trkpt lat="44.97856" lon="5.65759">
        <ele>808.343983</ele>
        <time>2011-02-13T10:39:58.61</time>
      </trkpt>
      <trkpt lat="44.97866" lon="5.65741">
        <ele>809.343979</ele>
        <time>2011-02-13T10:40:00.69</time>
      </trkpt>
      <trkpt lat="44.97876" lon="5.65721">
        <ele>809.343971</ele>
        <time>2011-02-13T10:40:02.55</time>
      </trkpt>
      <trkpt lat="44.97883" lon="5.65704">
        <ele>808.34396</ele>
        <time>2011-02-13T10:40:04.58</time>
      </trkpt>
      <trkpt lat="44.97889" lon="5.65689">
        <ele>807.343952</ele>
        <time>2011-02-13T10:40:06.70</time>
      </trkpt>
      <trkpt lat="44.97892" lon="5.65678">
        <ele>806.343941</ele>
        <time>2011-02-13T10:40:08.59</time>
      </trkpt>
      <trkpt lat="44.97895" lon="5.65668">
        <ele>805.343933</ele>
        <time>2011-02-13T10:40:10.57</time>
      </trkpt>
      <trkpt lat="44.97897" lon="5.65659">
        <ele>804.343918</ele>
        <time>2011-02-13T10:40:12.64</time>
      </trkpt>
      <trkpt lat="44.97897" lon="5.6565">
        <ele>804.343906</ele>
        <time>2011-02-13T10:40:14.64</time>
      </trkpt>
      <trkpt lat="44.97898" lon="5.65641">
        <ele>803.343895</ele>
        <time>2011-02-13T10:40:16.54</time>
      </trkpt>
      <trkpt lat="44.97897" lon="5.65634">
        <ele>803.343884</ele>
        <time>2011-02-13T10:40:18.59</time>
      </trkpt>
      <trkpt lat="44.97896" lon="5.65627">
        <ele>802.343872</ele>
        <time>2011-02-13T10:40:20.68</time>
      </trkpt>
      <trkpt lat="44.97894" lon="5.65621">
        <ele>800.343857</ele>
        <time>2011-02-13T10:40:22.60</time>
      </trkpt>
      <trkpt lat="44.97892" lon="5.65615">
        <ele>800.343845</ele>
        <time>2011-02-13T10:40:24.64</time>
      </trkpt>
      <trkpt lat="44.97889" lon="5.65609">
        <ele>799.343826</ele>
        <time>2011-02-13T10:40:26.55</time>
      </trkpt>
      <trkpt lat="44.97885" lon="5.65603">
        <ele>798.343811</ele>
        <time>2011-02-13T10:40:28.58</time>
      </trkpt>
      <trkpt lat="44.97882" lon="5.65598">
        <ele>798.343796</ele>
        <time>2011-02-13T10:40:30.70</time>
      </trkpt>
      <trkpt lat="44.97878" lon="5.65594">
        <ele>798.343781</ele>
        <time>2011-02-13T10:40:32.56</time>
      </trkpt>
      <trkpt lat="44.97876" lon="5.65592">
        <ele>798.343777</ele>
        <time>2011-02-13T10:40:34.57</time>
      </trkpt>
      <trkpt lat="44.97873" lon="5.6559">
        <ele>798.343765</ele>
        <time>2011-02-13T10:40:36.59</time>
      </trkpt>
      <trkpt lat="44.97869" lon="5.65587">
        <ele>797.343754</ele>
        <time>2011-02-13T10:40:38.59</time>
      </trkpt>
      <trkpt lat="44.97862" lon="5.65584">
        <ele>797.343735</ele>
        <time>2011-02-13T10:40:41.57</time>
      </trkpt>
      <trkpt lat="44.97857" lon="5.65582">
        <ele>796.343719</ele>
        <time>2011-02-13T10:40:43.64</time>
      </trkpt>
      <trkpt lat="44.97852" lon="5.6558">
        <ele>796.343704</ele>
        <time>2011-02-13T10:40:45.70</time>
      </trkpt>
      <trkpt lat="44.97847" lon="5.65578">
        <ele>796.343689</ele>
        <time>2011-02-13T10:40:47.60</time>
      </trkpt>
      <trkpt lat="44.97842" lon="5.65576">
        <ele>796.343678</ele>
        <time>2011-02-13T10:40:49.58</time>
      </trkpt>
      <trkpt lat="44.97836" lon="5.65574">
        <ele>797.343658</ele>
        <time>2011-02-13T10:40:51.57</time>
      </trkpt>
      <trkpt lat="44.97831" lon="5.65572">
        <ele>797.343647</ele>
        <time>2011-02-13T10:40:53.60</time>
      </trkpt>
      <trkpt lat="44.97825" lon="5.6557">
        <ele>797.343636</ele>
        <time>2011-02-13T10:40:55.55</time>
      </trkpt>
      <trkpt lat="44.9782" lon="5.65568">
        <ele>796.343616</ele>
        <time>2011-02-13T10:40:57.60</time>
      </trkpt>
      <trkpt lat="44.97814" lon="5.65565">
        <ele>797.343601</ele>
        <time>2011-02-13T10:40:59.58</time>
      </trkpt>
      <trkpt lat="44.97809" lon="5.65563">
        <ele>797.34359</ele>
        <time>2011-02-13T10:41:01.94</time>
      </trkpt>
      <trkpt lat="44.97804" lon="5.6556">
        <ele>798.343567</ele>
        <time>2011-02-13T10:41:03.61</time>
      </trkpt>
      <trkpt lat="44.97799" lon="5.65557">
        <ele>798.343555</ele>
        <time>2011-02-13T10:41:05.58</time>
      </trkpt>
      <trkpt lat="44.97795" lon="5.65554">
        <ele>798.34354</ele>
        <time>2011-02-13T10:41:07.59</time>
      </trkpt>
      <trkpt lat="44.9779" lon="5.6555">
        <ele>798.343529</ele>
        <time>2011-02-13T10:41:09.84</time>
      </trkpt>
      <trkpt lat="44.97787" lon="5.65547">
        <ele>799.343513</ele>
        <time>2011-02-13T10:41:11.64</time>
      </trkpt>
      <trkpt lat="44.97783" lon="5.65544">
        <ele>799.343498</ele>
        <time>2011-02-13T10:41:13.56</time>
      </trkpt>
      <trkpt lat="44.97779" lon="5.65541">
        <ele>799.343487</ele>
        <time>2011-02-13T10:41:15.54</time>
      </trkpt>
      <trkpt lat="44.97776" lon="5.65538">
        <ele>799.343475</ele>
        <time>2011-02-13T10:41:17.61</time>
      </trkpt>
      <trkpt lat="44.97772" lon="5.65535">
        <ele>799.343464</ele>
        <time>2011-02-13T10:41:19.59</time>
      </trkpt>
      <trkpt lat="44.97768" lon="5.65532">
        <ele>799.343449</ele>
        <time>2011-02-13T10:41:21.62</time>
      </trkpt>
      <trkpt lat="44.97765" lon="5.65529">
        <ele>799.343437</ele>
        <time>2011-02-13T10:41:23.58</time>
      </trkpt>
      <trkpt lat="44.97761" lon="5.65526">
        <ele>799.343422</ele>
        <time>2011-02-13T10:41:25.58</time>
      </trkpt>
      <trkpt lat="44.97757" lon="5.65522">
        <ele>799.34341</ele>
        <time>2011-02-13T10:41:27.60</time>
      </trkpt>
      <trkpt lat="44.97753" lon="5.65519">
        <ele>799.343399</ele>
        <time>2011-02-13T10:41:29.56</time>
      </trkpt>
      <trkpt lat="44.9775" lon="5.65516">
        <ele>799.343384</ele>
        <time>2011-02-13T10:41:31.57</time>
      </trkpt>
      <trkpt lat="44.97746" lon="5.65512">
        <ele>799.343372</ele>
        <time>2011-02-13T10:41:33.60</time>
      </trkpt>
      <trkpt lat="44.97742" lon="5.65508">
        <ele>799.343357</ele>
        <time>2011-02-13T10:41:35.68</time>
      </trkpt>
      <trkpt lat="44.97738" lon="5.65505">
        <ele>800.343342</ele>
        <time>2011-02-13T10:41:37.56</time>
      </trkpt>
      <trkpt lat="44.97734" lon="5.65501">
        <ele>800.34333</ele>
        <time>2011-02-13T10:41:39.58</time>
      </trkpt>
      <trkpt lat="44.9773" lon="5.65498">
        <ele>799.343315</ele>
        <time>2011-02-13T10:41:41.57</time>
      </trkpt>
      <trkpt lat="44.97727" lon="5.65493">
        <ele>799.3433</ele>
        <time>2011-02-13T10:41:43.56</time>
      </trkpt>
      <trkpt lat="44.97723" lon="5.65489">
        <ele>799.343288</ele>
        <time>2011-02-13T10:41:45.68</time>
      </trkpt>
      <trkpt lat="44.97719" lon="5.65485">
        <ele>799.343273</ele>
        <time>2011-02-13T10:41:47.55</time>
      </trkpt>
      <trkpt lat="44.97716" lon="5.6548">
        <ele>800.343258</ele>
        <time>2011-02-13T10:41:49.51</time>
      </trkpt>
      <trkpt lat="44.97712" lon="5.65476">
        <ele>801.343243</ele>
        <time>2011-02-13T10:41:51.62</time>
      </trkpt>
      <trkpt lat="44.97709" lon="5.65472">
        <ele>801.343227</ele>
        <time>2011-02-13T10:41:53.75</time>
      </trkpt>
      <trkpt lat="44.97705" lon="5.65467">
        <ele>801.343216</ele>
        <time>2011-02-13T10:41:55.59</time>
      </trkpt>
      <trkpt lat="44.97701" lon="5.65462">
        <ele>802.343201</ele>
        <time>2011-02-13T10:41:57.60</time>
      </trkpt>
      <trkpt lat="44.97698" lon="5.65458">
        <ele>802.343185</ele>
        <time>2011-02-13T10:41:59.60</time>
      </trkpt>
      <trkpt lat="44.97695" lon="5.65453">
        <ele>801.343166</ele>
        <time>2011-02-13T10:42:01.117</time>
      </trkpt>
      <trkpt lat="44.97691" lon="5.65448">
        <ele>802.343151</ele>
        <time>2011-02-13T10:42:03.60</time>
      </trkpt>
      <trkpt lat="44.97687" lon="5.65444">
        <ele>802.34314</ele>
        <time>2011-02-13T10:42:05.68</time>
      </trkpt>
      <trkpt lat="44.97683" lon="5.65439">
        <ele>802.343124</ele>
        <time>2011-02-13T10:42:07.54</time>
      </trkpt>
      <trkpt lat="44.97679" lon="5.65435">
        <ele>802.343109</ele>
        <time>2011-02-13T10:42:09.81</time>
      </trkpt>
      <trkpt lat="44.97676" lon="5.6543">
        <ele>802.34309</ele>
        <time>2011-02-13T10:42:11.57</time>
      </trkpt>
      <trkpt lat="44.97672" lon="5.65425">
        <ele>802.343079</ele>
        <time>2011-02-13T10:42:13.57</time>
      </trkpt>
      <trkpt lat="44.97668" lon="5.65421">
        <ele>802.343063</ele>
        <time>2011-02-13T10:42:15.70</time>
      </trkpt>
      <trkpt lat="44.97664" lon="5.65417">
        <ele>802.343048</ele>
        <time>2011-02-13T10:42:17.59</time>
      </trkpt>
      <trkpt lat="44.9766" lon="5.65412">
        <ele>802.343037</ele>
        <time>2011-02-13T10:42:19.83</time>
      </trkpt>
      <trkpt lat="44.97656" lon="5.65407">
        <ele>802.343018</ele>
        <time>2011-02-13T10:42:21.64</time>
      </trkpt>
      <trkpt lat="44.97652" lon="5.65403">
        <ele>802.343002</ele>
        <time>2011-02-13T10:42:23.61</time>
      </trkpt>
      <trkpt lat="44.97649" lon="5.65398">
        <ele>802.342983</ele>
        <time>2011-02-13T10:42:25.71</time>
      </trkpt>
      <trkpt lat="44.97645" lon="5.65393">
        <ele>803.342968</ele>
        <time>2011-02-13T10:42:27.60</time>
      </trkpt>
      <trkpt lat="44.97641" lon="5.65389">
        <ele>803.342957</ele>
        <time>2011-02-13T10:42:29.64</time>
      </trkpt>
      <trkpt lat="44.97637" lon="5.65384">
        <ele>803.342941</ele>
        <time>2011-02-13T10:42:31.58</time>
      </trkpt>
      <trkpt lat="44.97633" lon="5.65379">
        <ele>803.342926</ele>
        <time>2011-02-13T10:42:33.71</time>
      </trkpt>
      <trkpt lat="44.97629" lon="5.65375">
        <ele>803.342911</ele>
        <time>2011-02-13T10:42:35.70</time>
      </trkpt>
      <trkpt lat="44.97625" lon="5.6537">
        <ele>803.342896</ele>
        <time>2011-02-13T10:42:37.58</time>
      </trkpt>
      <trkpt lat="44.97621" lon="5.65365">
        <ele>803.34288</ele>
        <time>2011-02-13T10:42:39.61</time>
      </trkpt>
      <trkpt lat="44.97618" lon="5.6536">
        <ele>804.342861</ele>
        <time>2011-02-13T10:42:41.61</time>
      </trkpt>
      <trkpt lat="44.97614" lon="5.65355">
        <ele>804.34285</ele>
        <time>2011-02-13T10:42:43.58</time>
      </trkpt>
      <trkpt lat="44.9761" lon="5.65349">
        <ele>804.342831</ele>
        <time>2011-02-13T10:42:45.70</time>
      </trkpt>
      <trkpt lat="44.97607" lon="5.65344">
        <ele>803.342815</ele>
        <time>2011-02-13T10:42:47.99</time>
      </trkpt>
      <trkpt lat="44.97603" lon="5.65338">
        <ele>803.3428</ele>
        <time>2011-02-13T10:42:49.57</time>
      </trkpt>
      <trkpt lat="44.976" lon="5.65333">
        <ele>803.342781</ele>
        <time>2011-02-13T10:42:51.60</time>
      </trkpt>
      <trkpt lat="44.97596" lon="5.65328">
        <ele>803.34277</ele>
        <time>2011-02-13T10:42:53.59</time>
      </trkpt>
      <trkpt lat="44.97593" lon="5.65323">
        <ele>803.342751</ele>
        <time>2011-02-13T10:42:55.83</time>
      </trkpt>
      <trkpt lat="44.9759" lon="5.65318">
        <ele>804.342735</ele>
        <time>2011-02-13T10:42:57.58</time>
      </trkpt>
      <trkpt lat="44.97586" lon="5.65313">
        <ele>804.34272</ele>
        <time>2011-02-13T10:42:59.61</time>
      </trkpt>
      <trkpt lat="44.97583" lon="5.65307">
        <ele>805.342705</ele>
        <time>2011-02-13T10:43:01.93</time>
      </trkpt>
      <trkpt lat="44.97579" lon="5.65302">
        <ele>804.342693</ele>
        <time>2011-02-13T10:43:03.60</time>
      </trkpt>
      <trkpt lat="44.97576" lon="5.65296">
        <ele>804.342674</ele>
        <time>2011-02-13T10:43:05.69</time>
      </trkpt>
      <trkpt lat="44.97572" lon="5.65291">
        <ele>804.342655</ele>
        <time>2011-02-13T10:43:07.58</time>
      </trkpt>
      <trkpt lat="44.97568" lon="5.65285">
        <ele>804.34264</ele>
        <time>2011-02-13T10:43:09.62</time>
      </trkpt>
      <trkpt lat="44.97565" lon="5.65279">
        <ele>805.342625</ele>
        <time>2011-02-13T10:43:11.57</time>
      </trkpt>
      <trkpt lat="44.97561" lon="5.65274">
        <ele>805.342609</ele>
        <time>2011-02-13T10:43:13.54</time>
      </trkpt>
      <trkpt lat="44.97558" lon="5.65269">
        <ele>804.342594</ele>
        <time>2011-02-13T10:43:15.68</time>
      </trkpt>
      <trkpt lat="44.97554" lon="5.65263">
        <ele>804.342575</ele>
        <time>2011-02-13T10:43:17.85</time>
      </trkpt>
      <trkpt lat="44.97551" lon="5.65257">
        <ele>804.34256</ele>
        <time>2011-02-13T10:43:19.60</time>
      </trkpt>
      <trkpt lat="44.97547" lon="5.65252">
        <ele>804.342548</ele>
        <time>2011-02-13T10:43:21.61</time>
      </trkpt>
      <trkpt lat="44.97543" lon="5.65247">
        <ele>804.342529</ele>
        <time>2011-02-13T10:43:23.109</time>
      </trkpt>
      <trkpt lat="44.97539" lon="5.65241">
        <ele>804.34251</ele>
        <time>2011-02-13T10:43:25.58</time>
      </trkpt>
      <trkpt lat="44.97535" lon="5.65236">
        <ele>803.342491</ele>
        <time>2011-02-13T10:43:27.61</time>
      </trkpt>
      <trkpt lat="44.97531" lon="5.65231">
        <ele>803.342484</ele>
        <time>2011-02-13T10:43:29.57</time>
      </trkpt>
      <trkpt lat="44.97527" lon="5.65226">
        <ele>802.342461</ele>
        <time>2011-02-13T10:43:31.49</time>
      </trkpt>
      <trkpt lat="44.97522" lon="5.65222">
        <ele>803.342449</ele>
        <time>2011-02-13T10:43:33.55</time>
      </trkpt>
      <trkpt lat="44.9752" lon="5.65219">
        <ele>803.342438</ele>
        <time>2011-02-13T10:43:35.57</time>
      </trkpt>
      <trkpt lat="44.97515" lon="5.65214">
        <ele>804.342419</ele>
        <time>2011-02-13T10:43:38.61</time>
      </trkpt>
      <trkpt lat="44.97512" lon="5.65211">
        <ele>804.342407</ele>
        <time>2011-02-13T10:43:40.57</time>
      </trkpt>
      <trkpt lat="44.97508" lon="5.65206">
        <ele>804.342392</ele>
        <time>2011-02-13T10:43:42.63</time>
      </trkpt>
      <trkpt lat="44.97504" lon="5.65202">
        <ele>804.342373</ele>
        <time>2011-02-13T10:43:44.58</time>
      </trkpt>
      <trkpt lat="44.97495" lon="5.65194">
        <ele>804.342342</ele>
        <time>2011-02-13T10:43:49.58</time>
      </trkpt>
      <trkpt lat="44.97487" lon="5.65187">
        <ele>804.342316</ele>
        <time>2011-02-13T10:43:53.60</time>
      </trkpt>
      <trkpt lat="44.97465" lon="5.65165">
        <ele>804.342236</ele>
        <time>2011-02-13T10:44:06.62</time>
      </trkpt>
      <trkpt lat="44.97444" lon="5.65137">
        <ele>803.342148</ele>
        <time>2011-02-13T10:44:14.61</time>
      </trkpt>
      <trkpt lat="44.97423" lon="5.65113">
        <ele>802.342064</ele>
        <time>2011-02-13T10:44:27.61</time>
      </trkpt>
      <trkpt lat="44.97401" lon="5.65085">
        <ele>799.341972</ele>
        <time>2011-02-13T10:44:53.62</time>
      </trkpt>
      <trkpt lat="44.97392" lon="5.65073">
        <ele>799.341938</ele>
        <time>2011-02-13T10:44:56.62</time>
      </trkpt>
      <trkpt lat="44.97387" lon="5.65066">
        <ele>799.341919</ele>
        <time>2011-02-13T10:44:58.58</time>
      </trkpt>
      <trkpt lat="44.97383" lon="5.65061">
        <ele>797.3419</ele>
        <time>2011-02-13T10:45:00.68</time>
      </trkpt>
      <trkpt lat="44.9738" lon="5.65057">
        <ele>797.341888</ele>
        <time>2011-02-13T10:45:02.75</time>
      </trkpt>
      <trkpt lat="44.97378" lon="5.65053">
        <ele>797.341877</ele>
        <time>2011-02-13T10:45:05.68</time>
      </trkpt>
      <trkpt lat="44.97376" lon="5.65051">
        <ele>798.341873</ele>
        <time>2011-02-13T10:45:07.56</time>
      </trkpt>
      <trkpt lat="44.97375" lon="5.6505">
        <ele>799.341866</ele>
        <time>2011-02-13T10:45:09.61</time>
      </trkpt>
      <trkpt lat="44.97374" lon="5.65048">
        <ele>798.341862</ele>
        <time>2011-02-13T10:45:11.64</time>
      </trkpt>
      <trkpt lat="44.97371" lon="5.65043">
        <ele>801.34185</ele>
        <time>2011-02-13T10:45:16.62</time>
      </trkpt>
      <trkpt lat="44.9737" lon="5.6504">
        <ele>802.341839</ele>
        <time>2011-02-13T10:45:18.63</time>
      </trkpt>
      <trkpt lat="44.97369" lon="5.65037">
        <ele>804.341835</ele>
        <time>2011-02-13T10:45:20.68</time>
      </trkpt>
      <trkpt lat="44.97368" lon="5.65034">
        <ele>805.341827</ele>
        <time>2011-02-13T10:45:22.61</time>
      </trkpt>
      <trkpt lat="44.97367" lon="5.65031">
        <ele>806.34182</ele>
        <time>2011-02-13T10:45:24.61</time>
      </trkpt>
      <trkpt lat="44.97366" lon="5.65028">
        <ele>807.341808</ele>
        <time>2011-02-13T10:45:26.57</time>
      </trkpt>
      <trkpt lat="44.97364" lon="5.65025">
        <ele>808.341805</ele>
        <time>2011-02-13T10:45:28.61</time>
      </trkpt>
      <trkpt lat="44.97363" lon="5.65023">
        <ele>808.341801</ele>
        <time>2011-02-13T10:45:30.68</time>
      </trkpt>
      <trkpt lat="44.97361" lon="5.6502">
        <ele>808.341789</ele>
        <time>2011-02-13T10:45:32.59</time>
      </trkpt>
      <trkpt lat="44.9736" lon="5.65017">
        <ele>809.341782</ele>
        <time>2011-02-13T10:45:34.58</time>
      </trkpt>
      <trkpt lat="44.97358" lon="5.65015">
        <ele>810.341774</ele>
        <time>2011-02-13T10:45:36.61</time>
      </trkpt>
      <trkpt lat="44.97357" lon="5.65012">
        <ele>810.341766</ele>
        <time>2011-02-13T10:45:38.61</time>
      </trkpt>
      <trkpt lat="44.97355" lon="5.6501">
        <ele>810.341763</ele>
        <time>2011-02-13T10:45:40.57</time>
      </trkpt>
      <trkpt lat="44.97353" lon="5.65008">
        <ele>810.341755</ele>
        <time>2011-02-13T10:45:42.59</time>
      </trkpt>
      <trkpt lat="44.97351" lon="5.65006">
        <ele>811.341747</ele>
        <time>2011-02-13T10:45:44.59</time>
      </trkpt>
      <trkpt lat="44.97349" lon="5.65003">
        <ele>811.341743</ele>
        <time>2011-02-13T10:45:46.57</time>
      </trkpt>
      <trkpt lat="44.97346" lon="5.65001">
        <ele>811.341732</ele>
        <time>2011-02-13T10:45:48.61</time>
      </trkpt>
      <trkpt lat="44.97344" lon="5.64999">
        <ele>811.341724</ele>
        <time>2011-02-13T10:45:50.68</time>
      </trkpt>
      <trkpt lat="44.97342" lon="5.64997">
        <ele>811.341713</ele>
        <time>2011-02-13T10:45:52.55</time>
      </trkpt>
      <trkpt lat="44.9734" lon="5.64995">
        <ele>812.341705</ele>
        <time>2011-02-13T10:45:54.59</time>
      </trkpt>
      <trkpt lat="44.97338" lon="5.64993">
        <ele>812.341702</ele>
        <time>2011-02-13T10:45:56.58</time>
      </trkpt>
      <trkpt lat="44.97336" lon="5.64991">
        <ele>813.34169</ele>
        <time>2011-02-13T10:45:58.54</time>
      </trkpt>
      <trkpt lat="44.97334" lon="5.64989">
        <ele>812.341686</ele>
        <time>2011-02-13T10:46:00.65</time>
      </trkpt>
      <trkpt lat="44.97332" lon="5.64987">
        <ele>812.341679</ele>
        <time>2011-02-13T10:46:02.59</time>
      </trkpt>
      <trkpt lat="44.9733" lon="5.64985">
        <ele>813.341667</ele>
        <time>2011-02-13T10:46:04.61</time>
      </trkpt>
      <trkpt lat="44.97327" lon="5.64983">
        <ele>813.34166</ele>
        <time>2011-02-13T10:46:06.62</time>
      </trkpt>
      <trkpt lat="44.97325" lon="5.64981">
        <ele>813.341656</ele>
        <time>2011-02-13T10:46:08.60</time>
      </trkpt>
      <trkpt lat="44.97322" lon="5.6498">
        <ele>813.341648</ele>
        <time>2011-02-13T10:46:10.55</time>
      </trkpt>
      <trkpt lat="44.9732" lon="5.64979">
        <ele>813.341637</ele>
        <time>2011-02-13T10:46:12.58</time>
      </trkpt>
      <trkpt lat="44.97317" lon="5.64978">
        <ele>812.341629</ele>
        <time>2011-02-13T10:46:14.60</time>
      </trkpt>
      <trkpt lat="44.97313" lon="5.64976">
        <ele>811.341621</ele>
        <time>2011-02-13T10:46:17.58</time>
      </trkpt>
      <trkpt lat="44.97311" lon="5.64975">
        <ele>811.34161</ele>
        <time>2011-02-13T10:46:19.61</time>
      </trkpt>
      <trkpt lat="44.97308" lon="5.64974">
        <ele>810.341606</ele>
        <time>2011-02-13T10:46:21.63</time>
      </trkpt>
      <trkpt lat="44.97305" lon="5.64973">
        <ele>810.341599</ele>
        <time>2011-02-13T10:46:23.56</time>
      </trkpt>
      <trkpt lat="44.97303" lon="5.64972">
        <ele>810.341591</ele>
        <time>2011-02-13T10:46:25.84</time>
      </trkpt>
      <trkpt lat="44.97297" lon="5.64971">
        <ele>810.341576</ele>
        <time>2011-02-13T10:46:29.58</time>
      </trkpt>
      <trkpt lat="44.97294" lon="5.6497">
        <ele>810.341572</ele>
        <time>2011-02-13T10:46:31.57</time>
      </trkpt>
      <trkpt lat="44.97291" lon="5.64969">
        <ele>810.34156</ele>
        <time>2011-02-13T10:46:33.63</time>
      </trkpt>
      <trkpt lat="44.97288" lon="5.64969">
        <ele>809.341553</ele>
        <time>2011-02-13T10:46:35.70</time>
      </trkpt>
      <trkpt lat="44.97286" lon="5.64968">
        <ele>809.341549</ele>
        <time>2011-02-13T10:46:37.59</time>
      </trkpt>
      <trkpt lat="44.97283" lon="5.64967">
        <ele>808.341545</ele>
        <time>2011-02-13T10:46:39.59</time>
      </trkpt>
      <trkpt lat="44.97281" lon="5.64967">
        <ele>808.341534</ele>
        <time>2011-02-13T10:46:41.59</time>
      </trkpt>
      <trkpt lat="44.97278" lon="5.64966">
        <ele>808.34153</ele>
        <time>2011-02-13T10:46:43.57</time>
      </trkpt>
      <trkpt lat="44.97276" lon="5.64966">
        <ele>808.341526</ele>
        <time>2011-02-13T10:46:45.68</time>
      </trkpt>
      <trkpt lat="44.97273" lon="5.64966">
        <ele>808.341518</ele>
        <time>2011-02-13T10:46:47.60</time>
      </trkpt>
      <trkpt lat="44.9727" lon="5.64966">
        <ele>808.341507</ele>
        <time>2011-02-13T10:46:49.56</time>
      </trkpt>
      <trkpt lat="44.97268" lon="5.64966">
        <ele>808.341507</ele>
        <time>2011-02-13T10:46:51.78</time>
      </trkpt>
      <trkpt lat="44.97266" lon="5.64965">
        <ele>808.341499</ele>
        <time>2011-02-13T10:46:53.54</time>
      </trkpt>
      <trkpt lat="44.97263" lon="5.64965">
        <ele>808.341496</ele>
        <time>2011-02-13T10:46:55.53</time>
      </trkpt>
      <trkpt lat="44.97261" lon="5.64965">
        <ele>808.341488</ele>
        <time>2011-02-13T10:46:57.57</time>
      </trkpt>
      <trkpt lat="44.97258" lon="5.64964">
        <ele>808.34148</ele>
        <time>2011-02-13T10:46:59.56</time>
      </trkpt>
      <trkpt lat="44.97256" lon="5.64963">
        <ele>808.341476</ele>
        <time>2011-02-13T10:47:01.108</time>
      </trkpt>
      <trkpt lat="44.97253" lon="5.64962">
        <ele>808.341469</ele>
        <time>2011-02-13T10:47:03.66</time>
      </trkpt>
      <trkpt lat="44.97251" lon="5.64961">
        <ele>808.341461</ele>
        <time>2011-02-13T10:47:05.69</time>
      </trkpt>
      <trkpt lat="44.97249" lon="5.6496">
        <ele>808.341457</ele>
        <time>2011-02-13T10:47:07.54</time>
      </trkpt>
      <trkpt lat="44.97246" lon="5.64959">
        <ele>809.34145</ele>
        <time>2011-02-13T10:47:09.88</time>
      </trkpt>
      <trkpt lat="44.97244" lon="5.64959">
        <ele>809.341442</ele>
        <time>2011-02-13T10:47:11.56</time>
      </trkpt>
      <trkpt lat="44.97242" lon="5.64958">
        <ele>809.341438</ele>
        <time>2011-02-13T10:47:13.59</time>
      </trkpt>
      <trkpt lat="44.9724" lon="5.64958">
        <ele>810.341434</ele>
        <time>2011-02-13T10:47:15.68</time>
      </trkpt>
      <trkpt lat="44.97238" lon="5.64958">
        <ele>810.341431</ele>
        <time>2011-02-13T10:47:17.59</time>
      </trkpt>
      <trkpt lat="44.97235" lon="5.64957">
        <ele>811.341423</ele>
        <time>2011-02-13T10:47:19.54</time>
      </trkpt>
      <trkpt lat="44.97233" lon="5.64956">
        <ele>811.341415</ele>
        <time>2011-02-13T10:47:21.60</time>
      </trkpt>
      <trkpt lat="44.97231" lon="5.64955">
        <ele>810.341408</ele>
        <time>2011-02-13T10:47:23.66</time>
      </trkpt>
      <trkpt lat="44.97229" lon="5.64954">
        <ele>810.3414</ele>
        <time>2011-02-13T10:47:25.57</time>
      </trkpt>
      <trkpt lat="44.97226" lon="5.64952">
        <ele>811.341396</ele>
        <time>2011-02-13T10:47:27.65</time>
      </trkpt>
      <trkpt lat="44.97224" lon="5.64951">
        <ele>811.341389</ele>
        <time>2011-02-13T10:47:29.61</time>
      </trkpt>
      <trkpt lat="44.97222" lon="5.6495">
        <ele>810.341377</ele>
        <time>2011-02-13T10:47:31.53</time>
      </trkpt>
      <trkpt lat="44.97219" lon="5.64948">
        <ele>810.34137</ele>
        <time>2011-02-13T10:47:33.61</time>
      </trkpt>
      <trkpt lat="44.97217" lon="5.64946">
        <ele>810.34137</ele>
        <time>2011-02-13T10:47:35.58</time>
      </trkpt>
      <trkpt lat="44.97215" lon="5.64945">
        <ele>810.341362</ele>
        <time>2011-02-13T10:47:37.66</time>
      </trkpt>
      <trkpt lat="44.97212" lon="5.64943">
        <ele>811.341351</ele>
        <time>2011-02-13T10:47:39.62</time>
      </trkpt>
      <trkpt lat="44.97208" lon="5.64941">
        <ele>811.341339</ele>
        <time>2011-02-13T10:47:41.61</time>
      </trkpt>
      <trkpt lat="44.97204" lon="5.64939">
        <ele>811.341328</ele>
        <time>2011-02-13T10:47:43.54</time>
      </trkpt>
      <trkpt lat="44.972" lon="5.64936">
        <ele>811.341312</ele>
        <time>2011-02-13T10:47:45.59</time>
      </trkpt>
      <trkpt lat="44.97195" lon="5.64934">
        <ele>811.341297</ele>
        <time>2011-02-13T10:47:47.57</time>
      </trkpt>
      <trkpt lat="44.9719" lon="5.64932">
        <ele>811.341286</ele>
        <time>2011-02-13T10:47:49.60</time>
      </trkpt>
      <trkpt lat="44.97185" lon="5.6493">
        <ele>810.34127</ele>
        <time>2011-02-13T10:47:51.83</time>
      </trkpt>
      <trkpt lat="44.9718" lon="5.64929">
        <ele>810.341263</ele>
        <time>2011-02-13T10:47:53.55</time>
      </trkpt>
      <trkpt lat="44.97174" lon="5.64928">
        <ele>810.341248</ele>
        <time>2011-02-13T10:47:55.55</time>
      </trkpt>
      <trkpt lat="44.97169" lon="5.64926">
        <ele>809.341228</ele>
        <time>2011-02-13T10:47:57.57</time>
      </trkpt>
      <trkpt lat="44.97164" lon="5.64925">
        <ele>809.341221</ele>
        <time>2011-02-13T10:47:59.57</time>
      </trkpt>
      <trkpt lat="44.97159" lon="5.64925">
        <ele>810.341206</ele>
        <time>2011-02-13T10:48:01.92</time>
      </trkpt>
      <trkpt lat="44.97153" lon="5.64924">
        <ele>811.341194</ele>
        <time>2011-02-13T10:48:03.60</time>
      </trkpt>
      <trkpt lat="44.97148" lon="5.64924">
        <ele>811.341179</ele>
        <time>2011-02-13T10:48:05.69</time>
      </trkpt>
      <trkpt lat="44.97143" lon="5.64923">
        <ele>811.341167</ele>
        <time>2011-02-13T10:48:07.58</time>
      </trkpt>
      <trkpt lat="44.97138" lon="5.64922">
        <ele>812.341156</ele>
        <time>2011-02-13T10:48:09.58</time>
      </trkpt>
      <trkpt lat="44.97133" lon="5.64921">
        <ele>812.341145</ele>
        <time>2011-02-13T10:48:11.56</time>
      </trkpt>
      <trkpt lat="44.97127" lon="5.6492">
        <ele>813.341133</ele>
        <time>2011-02-13T10:48:13.56</time>
      </trkpt>
      <trkpt lat="44.97122" lon="5.64919">
        <ele>813.341118</ele>
        <time>2011-02-13T10:48:15.91</time>
      </trkpt>
      <trkpt lat="44.97117" lon="5.64918">
        <ele>813.341103</ele>
        <time>2011-02-13T10:48:17.56</time>
      </trkpt>
      <trkpt lat="44.97112" lon="5.64917">
        <ele>814.341091</ele>
        <time>2011-02-13T10:48:19.55</time>
      </trkpt>
      <trkpt lat="44.97108" lon="5.64916">
        <ele>814.341084</ele>
        <time>2011-02-13T10:48:21.111</time>
      </trkpt>
      <trkpt lat="44.97103" lon="5.64915">
        <ele>814.341072</ele>
        <time>2011-02-13T10:48:23.57</time>
      </trkpt>
      <trkpt lat="44.97098" lon="5.64914">
        <ele>815.341057</ele>
        <time>2011-02-13T10:48:25.59</time>
      </trkpt>
      <trkpt lat="44.97093" lon="5.64912">
        <ele>815.341042</ele>
        <time>2011-02-13T10:48:27.64</time>
      </trkpt>
      <trkpt lat="44.97088" lon="5.64911">
        <ele>815.341034</ele>
        <time>2011-02-13T10:48:29.60</time>
      </trkpt>
      <trkpt lat="44.97083" lon="5.64909">
        <ele>816.341015</ele>
        <time>2011-02-13T10:48:31.68</time>
      </trkpt>
      <trkpt lat="44.97078" lon="5.64908">
        <ele>816.341003</ele>
        <time>2011-02-13T10:48:33.60</time>
      </trkpt>
      <trkpt lat="44.97073" lon="5.64906">
        <ele>816.340992</ele>
        <time>2011-02-13T10:48:35.60</time>
      </trkpt>
      <trkpt lat="44.97068" lon="5.64904">
        <ele>816.340973</ele>
        <time>2011-02-13T10:48:37.66</time>
      </trkpt>
      <trkpt lat="44.97063" lon="5.64902">
        <ele>817.340961</ele>
        <time>2011-02-13T10:48:39.60</time>
      </trkpt>
      <trkpt lat="44.97058" lon="5.649">
        <ele>817.34095</ele>
        <time>2011-02-13T10:48:41.57</time>
      </trkpt>
      <trkpt lat="44.97053" lon="5.64897">
        <ele>817.340935</ele>
        <time>2011-02-13T10:48:43.59</time>
      </trkpt>
      <trkpt lat="44.97048" lon="5.64895">
        <ele>817.340919</ele>
        <time>2011-02-13T10:48:45.68</time>
      </trkpt>
      <trkpt lat="44.97043" lon="5.64892">
        <ele>817.340904</ele>
        <time>2011-02-13T10:48:47.61</time>
      </trkpt>
      <trkpt lat="44.97038" lon="5.6489">
        <ele>818.340893</ele>
        <time>2011-02-13T10:48:49.57</time>
      </trkpt>
      <trkpt lat="44.97033" lon="5.64887">
        <ele>818.340878</ele>
        <time>2011-02-13T10:48:51.60</time>
      </trkpt>
      <trkpt lat="44.97028" lon="5.64884">
        <ele>818.340862</ele>
        <time>2011-02-13T10:48:53.56</time>
      </trkpt>
      <trkpt lat="44.97024" lon="5.64882">
        <ele>817.340847</ele>
        <time>2011-02-13T10:48:55.58</time>
      </trkpt>
      <trkpt lat="44.97019" lon="5.6488">
        <ele>818.340836</ele>
        <time>2011-02-13T10:48:57.66</time>
      </trkpt>
      <trkpt lat="44.97014" lon="5.64878">
        <ele>818.34082</ele>
        <time>2011-02-13T10:48:59.58</time>
      </trkpt>
      <trkpt lat="44.97009" lon="5.64875">
        <ele>818.340805</ele>
        <time>2011-02-13T10:49:01.93</time>
      </trkpt>
      <trkpt lat="44.97005" lon="5.64873">
        <ele>817.340794</ele>
        <time>2011-02-13T10:49:03.57</time>
      </trkpt>
      <trkpt lat="44.97" lon="5.6487">
        <ele>817.340778</ele>
        <time>2011-02-13T10:49:05.68</time>
      </trkpt>
      <trkpt lat="44.96995" lon="5.64867">
        <ele>818.340763</ele>
        <time>2011-02-13T10:49:07.51</time>
      </trkpt>
      <trkpt lat="44.9699" lon="5.64864">
        <ele>818.340752</ele>
        <time>2011-02-13T10:49:09.59</time>
      </trkpt>
      <trkpt lat="44.96986" lon="5.64862">
        <ele>818.340736</ele>
        <time>2011-02-13T10:49:11.58</time>
      </trkpt>
      <trkpt lat="44.96981" lon="5.64859">
        <ele>818.340721</ele>
        <time>2011-02-13T10:49:13.57</time>
      </trkpt>
      <trkpt lat="44.96976" lon="5.64857">
        <ele>818.340706</ele>
        <time>2011-02-13T10:49:15.70</time>
      </trkpt>
      <trkpt lat="44.96972" lon="5.64855">
        <ele>819.340698</ele>
        <time>2011-02-13T10:49:17.60</time>
      </trkpt>
      <trkpt lat="44.96967" lon="5.64853">
        <ele>819.340683</ele>
        <time>2011-02-13T10:49:19.55</time>
      </trkpt>
      <trkpt lat="44.96962" lon="5.64852">
        <ele>819.340668</ele>
        <time>2011-02-13T10:49:21.58</time>
      </trkpt>
      <trkpt lat="44.96957" lon="5.64851">
        <ele>819.340656</ele>
        <time>2011-02-13T10:49:23.59</time>
      </trkpt>
      <trkpt lat="44.96952" lon="5.6485">
        <ele>818.340641</ele>
        <time>2011-02-13T10:49:25.60</time>
      </trkpt>
      <trkpt lat="44.96948" lon="5.64849">
        <ele>818.340633</ele>
        <time>2011-02-13T10:49:27.59</time>
      </trkpt>
      <trkpt lat="44.96943" lon="5.6485">
        <ele>819.340622</ele>
        <time>2011-02-13T10:49:29.56</time>
      </trkpt>
      <trkpt lat="44.96938" lon="5.6485">
        <ele>819.340614</ele>
        <time>2011-02-13T10:49:31.56</time>
      </trkpt>
      <trkpt lat="44.96934" lon="5.64851">
        <ele>820.340603</ele>
        <time>2011-02-13T10:49:33.59</time>
      </trkpt>
      <trkpt lat="44.96929" lon="5.64851">
        <ele>820.340595</ele>
        <time>2011-02-13T10:49:35.95</time>
      </trkpt>
      <trkpt lat="44.96925" lon="5.64852">
        <ele>819.340584</ele>
        <time>2011-02-13T10:49:37.53</time>
      </trkpt>
      <trkpt lat="44.9692" lon="5.64853">
        <ele>819.34058</ele>
        <time>2011-02-13T10:49:39.57</time>
      </trkpt>
      <trkpt lat="44.96916" lon="5.64854">
        <ele>819.340569</ele>
        <time>2011-02-13T10:49:41.62</time>
      </trkpt>
      <trkpt lat="44.96911" lon="5.64855">
        <ele>819.340561</ele>
        <time>2011-02-13T10:49:43.55</time>
      </trkpt>
      <trkpt lat="44.96907" lon="5.64856">
        <ele>820.340553</ele>
        <time>2011-02-13T10:49:45.66</time>
      </trkpt>
      <trkpt lat="44.96903" lon="5.64857">
        <ele>820.340546</ele>
        <time>2011-02-13T10:49:47.54</time>
      </trkpt>
      <trkpt lat="44.96898" lon="5.64858">
        <ele>820.340538</ele>
        <time>2011-02-13T10:49:49.54</time>
      </trkpt>
      <trkpt lat="44.96894" lon="5.64858">
        <ele>820.34053</ele>
        <time>2011-02-13T10:49:51.61</time>
      </trkpt>
      <trkpt lat="44.9689" lon="5.64858">
        <ele>820.340515</ele>
        <time>2011-02-13T10:49:53.57</time>
      </trkpt>
      <trkpt lat="44.96886" lon="5.64858">
        <ele>820.340515</ele>
        <time>2011-02-13T10:49:55.54</time>
      </trkpt>
      <trkpt lat="44.96885" lon="5.64858">
        <ele>821.340511</ele>
        <time>2011-02-13T10:49:58.57</time>
      </trkpt>
      <trkpt lat="44.96882" lon="5.64858">
        <ele>821.340504</ele>
        <time>2011-02-13T10:50:00.58</time>
      </trkpt>
      <trkpt lat="44.9688" lon="5.64857">
        <ele>820.3405</ele>
        <time>2011-02-13T10:50:02.76</time>
      </trkpt>
      <trkpt lat="44.96876" lon="5.64856">
        <ele>820.340488</ele>
        <time>2011-02-13T10:50:04.54</time>
      </trkpt>
      <trkpt lat="44.96873" lon="5.64856">
        <ele>820.340485</ele>
        <time>2011-02-13T10:50:06.53</time>
      </trkpt>
      <trkpt lat="44.9687" lon="5.64855">
        <ele>820.340473</ele>
        <time>2011-02-13T10:50:08.52</time>
      </trkpt>
      <trkpt lat="44.96867" lon="5.64855">
        <ele>820.340466</ele>
        <time>2011-02-13T10:50:10.58</time>
      </trkpt>
      <trkpt lat="44.96863" lon="5.64854">
        <ele>820.340454</ele>
        <time>2011-02-13T10:50:12.56</time>
      </trkpt>
      <trkpt lat="44.96859" lon="5.64854">
        <ele>819.340446</ele>
        <time>2011-02-13T10:50:14.59</time>
      </trkpt>
      <trkpt lat="44.96855" lon="5.64853">
        <ele>820.340435</ele>
        <time>2011-02-13T10:50:16.55</time>
      </trkpt>
      <trkpt lat="44.9685" lon="5.64851">
        <ele>820.34042</ele>
        <time>2011-02-13T10:50:18.58</time>
      </trkpt>
      <trkpt lat="44.96844" lon="5.64849">
        <ele>820.340408</ele>
        <time>2011-02-13T10:50:20.59</time>
      </trkpt>
      <trkpt lat="44.96819" lon="5.64839">
        <ele>820.34034</ele>
        <time>2011-02-13T10:50:29.56</time>
      </trkpt>
      <trkpt lat="44.96811" lon="5.64837">
        <ele>819.340317</ele>
        <time>2011-02-13T10:50:32.51</time>
      </trkpt>
      <trkpt lat="44.96806" lon="5.64836">
        <ele>818.340305</ele>
        <time>2011-02-13T10:50:34.57</time>
      </trkpt>
      <trkpt lat="44.968" lon="5.64834">
        <ele>817.340286</ele>
        <time>2011-02-13T10:50:36.61</time>
      </trkpt>
      <trkpt lat="44.96794" lon="5.64833">
        <ele>817.340275</ele>
        <time>2011-02-13T10:50:38.56</time>
      </trkpt>
      <trkpt lat="44.96789" lon="5.64832">
        <ele>817.340256</ele>
        <time>2011-02-13T10:50:40.64</time>
      </trkpt>
      <trkpt lat="44.96783" lon="5.6483">
        <ele>816.340248</ele>
        <time>2011-02-13T10:50:42.59</time>
      </trkpt>
      <trkpt lat="44.96777" lon="5.64829">
        <ele>816.340233</ele>
        <time>2011-02-13T10:50:44.54</time>
      </trkpt>
      <trkpt lat="44.96772" lon="5.64828">
        <ele>815.340221</ele>
        <time>2011-02-13T10:50:46.58</time>
      </trkpt>
      <trkpt lat="44.96766" lon="5.64827">
        <ele>815.340202</ele>
        <time>2011-02-13T10:50:48.57</time>
      </trkpt>
      <trkpt lat="44.96761" lon="5.64827">
        <ele>816.340195</ele>
        <time>2011-02-13T10:50:50.71</time>
      </trkpt>
      <trkpt lat="44.96755" lon="5.64827">
        <ele>815.340179</ele>
        <time>2011-02-13T10:50:52.55</time>
      </trkpt>
      <trkpt lat="44.9675" lon="5.64826">
        <ele>815.340168</ele>
        <time>2011-02-13T10:50:54.59</time>
      </trkpt>
      <trkpt lat="44.96745" lon="5.64826">
        <ele>815.34016</ele>
        <time>2011-02-13T10:50:56.58</time>
      </trkpt>
      <trkpt lat="44.9674" lon="5.64826">
        <ele>816.340149</ele>
        <time>2011-02-13T10:50:58.53</time>
      </trkpt>
      <trkpt lat="44.96735" lon="5.64826">
        <ele>816.340134</ele>
        <time>2011-02-13T10:51:00.108</time>
      </trkpt>
      <trkpt lat="44.9673" lon="5.64825">
        <ele>816.340118</ele>
        <time>2011-02-13T10:51:02.56</time>
      </trkpt>
      <trkpt lat="44.96725" lon="5.64824">
        <ele>817.340111</ele>
        <time>2011-02-13T10:51:04.52</time>
      </trkpt>
      <trkpt lat="44.9672" lon="5.64823">
        <ele>817.340096</ele>
        <time>2011-02-13T10:51:06.60</time>
      </trkpt>
      <trkpt lat="44.96715" lon="5.64821">
        <ele>817.340084</ele>
        <time>2011-02-13T10:51:08.58</time>
      </trkpt>
      <trkpt lat="44.96711" lon="5.6482">
        <ele>817.340073</ele>
        <time>2011-02-13T10:51:10.58</time>
      </trkpt>
      <trkpt lat="44.96706" lon="5.64818">
        <ele>818.340061</ele>
        <time>2011-02-13T10:51:12.63</time>
      </trkpt>
      <trkpt lat="44.96702" lon="5.64816">
        <ele>818.34005</ele>
        <time>2011-02-13T10:51:14.56</time>
      </trkpt>
      <trkpt lat="44.96698" lon="5.64814">
        <ele>818.340034</ele>
        <time>2011-02-13T10:51:16.56</time>
      </trkpt>
      <trkpt lat="44.96694" lon="5.64812">
        <ele>818.340023</ele>
        <time>2011-02-13T10:51:18.59</time>
      </trkpt>
      <trkpt lat="44.9669" lon="5.6481">
        <ele>819.340012</ele>
        <time>2011-02-13T10:51:20.54</time>
      </trkpt>
      <trkpt lat="44.96686" lon="5.64807">
        <ele>819.34</ele>
        <time>2011-02-13T10:51:22.58</time>
      </trkpt>
      <trkpt lat="44.96681" lon="5.64805">
        <ele>819.339989</ele>
        <time>2011-02-13T10:51:24.61</time>
      </trkpt>
      <trkpt lat="44.96677" lon="5.64803">
        <ele>820.339973</ele>
        <time>2011-02-13T10:51:26.56</time>
      </trkpt>
      <trkpt lat="44.96673" lon="5.64802">
        <ele>820.339966</ele>
        <time>2011-02-13T10:51:28.56</time>
      </trkpt>
      <trkpt lat="44.96668" lon="5.648">
        <ele>820.339951</ele>
        <time>2011-02-13T10:51:30.66</time>
      </trkpt>
      <trkpt lat="44.96663" lon="5.64799">
        <ele>820.339939</ele>
        <time>2011-02-13T10:51:32.55</time>
      </trkpt>
      <trkpt lat="44.96659" lon="5.64798">
        <ele>820.339928</ele>
        <time>2011-02-13T10:51:34.55</time>
      </trkpt>
      <trkpt lat="44.96654" lon="5.64797">
        <ele>820.339916</ele>
        <time>2011-02-13T10:51:36.58</time>
      </trkpt>
      <trkpt lat="44.9665" lon="5.64797">
        <ele>820.339905</ele>
        <time>2011-02-13T10:51:38.56</time>
      </trkpt>
      <trkpt lat="44.96646" lon="5.64796">
        <ele>821.339893</ele>
        <time>2011-02-13T10:51:40.55</time>
      </trkpt>
      <trkpt lat="44.96642" lon="5.64795">
        <ele>821.339886</ele>
        <time>2011-02-13T10:51:42.60</time>
      </trkpt>
      <trkpt lat="44.96638" lon="5.64794">
        <ele>822.339878</ele>
        <time>2011-02-13T10:51:44.55</time>
      </trkpt>
      <trkpt lat="44.96634" lon="5.64793">
        <ele>823.339867</ele>
        <time>2011-02-13T10:51:46.52</time>
      </trkpt>
      <trkpt lat="44.9663" lon="5.64792">
        <ele>824.339851</ele>
        <time>2011-02-13T10:51:48.58</time>
      </trkpt>
      <trkpt lat="44.96627" lon="5.64791">
        <ele>824.339848</ele>
        <time>2011-02-13T10:51:50.71</time>
      </trkpt>
      <trkpt lat="44.96623" lon="5.6479">
        <ele>824.339836</ele>
        <time>2011-02-13T10:51:52.56</time>
      </trkpt>
      <trkpt lat="44.96619" lon="5.64788">
        <ele>825.339825</ele>
        <time>2011-02-13T10:51:54.60</time>
      </trkpt>
      <trkpt lat="44.96615" lon="5.64786">
        <ele>825.339817</ele>
        <time>2011-02-13T10:51:56.56</time>
      </trkpt>
      <trkpt lat="44.96611" lon="5.64785">
        <ele>826.339806</ele>
        <time>2011-02-13T10:51:58.58</time>
      </trkpt>
      <trkpt lat="44.96607" lon="5.64784">
        <ele>826.33979</ele>
        <time>2011-02-13T10:52:00.58</time>
      </trkpt>
      <trkpt lat="44.96603" lon="5.64783">
        <ele>826.339783</ele>
        <time>2011-02-13T10:52:02.57</time>
      </trkpt>
      <trkpt lat="44.96598" lon="5.64781">
        <ele>826.339771</ele>
        <time>2011-02-13T10:52:04.56</time>
      </trkpt>
      <trkpt lat="44.96594" lon="5.6478">
        <ele>826.339756</ele>
        <time>2011-02-13T10:52:06.61</time>
      </trkpt>
      <trkpt lat="44.96589" lon="5.64779">
        <ele>826.339748</ele>
        <time>2011-02-13T10:52:08.59</time>
      </trkpt>
      <trkpt lat="44.96585" lon="5.64777">
        <ele>827.339733</ele>
        <time>2011-02-13T10:52:10.55</time>
      </trkpt>
      <trkpt lat="44.9658" lon="5.64776">
        <ele>827.339718</ele>
        <time>2011-02-13T10:52:12.58</time>
      </trkpt>
      <trkpt lat="44.96575" lon="5.64774">
        <ele>828.339706</ele>
        <time>2011-02-13T10:52:14.57</time>
      </trkpt>
      <trkpt lat="44.96571" lon="5.64773">
        <ele>828.339699</ele>
        <time>2011-02-13T10:52:16.53</time>
      </trkpt>
      <trkpt lat="44.96566" lon="5.64774">
        <ele>829.339684</ele>
        <time>2011-02-13T10:52:18.60</time>
      </trkpt>
      <trkpt lat="44.96562" lon="5.64775">
        <ele>829.339676</ele>
        <time>2011-02-13T10:52:20.55</time>
      </trkpt>
      <trkpt lat="44.96557" lon="5.64778">
        <ele>829.339676</ele>
        <time>2011-02-13T10:52:22.55</time>
      </trkpt>
      <trkpt lat="44.96553" lon="5.64781">
        <ele>830.339672</ele>
        <time>2011-02-13T10:52:24.59</time>
      </trkpt>
      <trkpt lat="44.96549" lon="5.64785">
        <ele>830.339668</ele>
        <time>2011-02-13T10:52:26.78</time>
      </trkpt>
      <trkpt lat="44.96545" lon="5.64789">
        <ele>831.339664</ele>
        <time>2011-02-13T10:52:28.57</time>
      </trkpt>
      <trkpt lat="44.96541" lon="5.64794">
        <ele>831.339661</ele>
        <time>2011-02-13T10:52:30.59</time>
      </trkpt>
      <trkpt lat="44.96537" lon="5.64798">
        <ele>830.339661</ele>
        <time>2011-02-13T10:52:32.58</time>
      </trkpt>
      <trkpt lat="44.96532" lon="5.64803">
        <ele>828.339661</ele>
        <time>2011-02-13T10:52:34.57</time>
      </trkpt>
      <trkpt lat="44.96526" lon="5.64808">
        <ele>826.339653</ele>
        <time>2011-02-13T10:52:36.58</time>
      </trkpt>
      <trkpt lat="44.96519" lon="5.64814">
        <ele>823.339645</ele>
        <time>2011-02-13T10:52:38.59</time>
      </trkpt>
      <trkpt lat="44.96513" lon="5.6482">
        <ele>820.339642</ele>
        <time>2011-02-13T10:52:40.55</time>
      </trkpt>
      <trkpt lat="44.96506" lon="5.64826">
        <ele>817.339634</ele>
        <time>2011-02-13T10:52:42.58</time>
      </trkpt>
      <trkpt lat="44.96501" lon="5.64832">
        <ele>815.339634</ele>
        <time>2011-02-13T10:52:44.57</time>
      </trkpt>
      <trkpt lat="44.96495" lon="5.64838">
        <ele>814.339634</ele>
        <time>2011-02-13T10:52:46.85</time>
      </trkpt>
      <trkpt lat="44.96491" lon="5.64844">
        <ele>812.33963</ele>
        <time>2011-02-13T10:52:48.60</time>
      </trkpt>
      <trkpt lat="44.96486" lon="5.64849">
        <ele>811.33963</ele>
        <time>2011-02-13T10:52:50.59</time>
      </trkpt>
      <trkpt lat="44.96482" lon="5.64855">
        <ele>810.33963</ele>
        <time>2011-02-13T10:52:52.59</time>
      </trkpt>
      <trkpt lat="44.96479" lon="5.64861">
        <ele>809.33963</ele>
        <time>2011-02-13T10:52:54.59</time>
      </trkpt>
      <trkpt lat="44.96475" lon="5.64866">
        <ele>809.339634</ele>
        <time>2011-02-13T10:52:56.76</time>
      </trkpt>
      <trkpt lat="44.96472" lon="5.64871">
        <ele>809.33963</ele>
        <time>2011-02-13T10:52:58.50</time>
      </trkpt>
      <trkpt lat="44.96468" lon="5.64876">
        <ele>808.339634</ele>
        <time>2011-02-13T10:53:00.65</time>
      </trkpt>
      <trkpt lat="44.96465" lon="5.64881">
        <ele>808.33963</ele>
        <time>2011-02-13T10:53:02.56</time>
      </trkpt>
      <trkpt lat="44.96462" lon="5.64886">
        <ele>808.339634</ele>
        <time>2011-02-13T10:53:04.59</time>
      </trkpt>
      <trkpt lat="44.96458" lon="5.64892">
        <ele>807.339634</ele>
        <time>2011-02-13T10:53:06.62</time>
      </trkpt>
      <trkpt lat="44.96455" lon="5.64897">
        <ele>807.339634</ele>
        <time>2011-02-13T10:53:08.66</time>
      </trkpt>
      <trkpt lat="44.96452" lon="5.64903">
        <ele>807.339634</ele>
        <time>2011-02-13T10:53:10.59</time>
      </trkpt>
      <trkpt lat="44.96449" lon="5.64908">
        <ele>807.339634</ele>
        <time>2011-02-13T10:53:12.61</time>
      </trkpt>
      <trkpt lat="44.96445" lon="5.64913">
        <ele>807.339638</ele>
        <time>2011-02-13T10:53:14.56</time>
      </trkpt>
      <trkpt lat="44.96442" lon="5.64919">
        <ele>807.339638</ele>
        <time>2011-02-13T10:53:16.58</time>
      </trkpt>
      <trkpt lat="44.96439" lon="5.64924">
        <ele>807.339642</ele>
        <time>2011-02-13T10:53:18.58</time>
      </trkpt>
      <trkpt lat="44.96436" lon="5.64929">
        <ele>807.339638</ele>
        <time>2011-02-13T10:53:20.58</time>
      </trkpt>
      <trkpt lat="44.96433" lon="5.64933">
        <ele>806.339638</ele>
        <time>2011-02-13T10:53:22.53</time>
      </trkpt>
      <trkpt lat="44.9643" lon="5.64938">
        <ele>806.339638</ele>
        <time>2011-02-13T10:53:24.61</time>
      </trkpt>
      <trkpt lat="44.96427" lon="5.64943">
        <ele>807.339642</ele>
        <time>2011-02-13T10:53:26.52</time>
      </trkpt>
      <trkpt lat="44.96424" lon="5.64948">
        <ele>807.339638</ele>
        <time>2011-02-13T10:53:28.59</time>
      </trkpt>
      <trkpt lat="44.96421" lon="5.64953">
        <ele>807.339645</ele>
        <time>2011-02-13T10:53:30.60</time>
      </trkpt>
      <trkpt lat="44.96418" lon="5.64958">
        <ele>807.339645</ele>
        <time>2011-02-13T10:53:32.58</time>
      </trkpt>
      <trkpt lat="44.96415" lon="5.64963">
        <ele>807.339645</ele>
        <time>2011-02-13T10:53:34.57</time>
      </trkpt>
      <trkpt lat="44.96412" lon="5.64968">
        <ele>807.339645</ele>
        <time>2011-02-13T10:53:36.61</time>
      </trkpt>
      <trkpt lat="44.96409" lon="5.64973">
        <ele>807.339645</ele>
        <time>2011-02-13T10:53:38.62</time>
      </trkpt>
      <trkpt lat="44.96406" lon="5.64977">
        <ele>808.339645</ele>
        <time>2011-02-13T10:53:40.56</time>
      </trkpt>
      <trkpt lat="44.96403" lon="5.64982">
        <ele>808.339649</ele>
        <time>2011-02-13T10:53:42.58</time>
      </trkpt>
      <trkpt lat="44.964" lon="5.64988">
        <ele>809.339653</ele>
        <time>2011-02-13T10:53:44.62</time>
      </trkpt>
      <trkpt lat="44.96398" lon="5.64992">
        <ele>808.339653</ele>
        <time>2011-02-13T10:53:46.56</time>
      </trkpt>
      <trkpt lat="44.96395" lon="5.64997">
        <ele>808.339657</ele>
        <time>2011-02-13T10:53:48.61</time>
      </trkpt>
      <trkpt lat="44.96393" lon="5.65001">
        <ele>809.339657</ele>
        <time>2011-02-13T10:53:50.58</time>
      </trkpt>
      <trkpt lat="44.9639" lon="5.65005">
        <ele>810.339653</ele>
        <time>2011-02-13T10:53:52.56</time>
      </trkpt>
      <trkpt lat="44.96388" lon="5.65009">
        <ele>809.339653</ele>
        <time>2011-02-13T10:53:54.59</time>
      </trkpt>
      <trkpt lat="44.96385" lon="5.65013">
        <ele>810.339657</ele>
        <time>2011-02-13T10:53:56.53</time>
      </trkpt>
      <trkpt lat="44.96383" lon="5.65017">
        <ele>810.339661</ele>
        <time>2011-02-13T10:53:58.54</time>
      </trkpt>
      <trkpt lat="44.9638" lon="5.65021">
        <ele>810.339657</ele>
        <time>2011-02-13T10:54:00.58</time>
      </trkpt>
      <trkpt lat="44.96376" lon="5.65026">
        <ele>810.339657</ele>
        <time>2011-02-13T10:54:02.57</time>
      </trkpt>
      <trkpt lat="44.96373" lon="5.65031">
        <ele>811.339661</ele>
        <time>2011-02-13T10:54:04.55</time>
      </trkpt>
      <trkpt lat="44.96369" lon="5.65035">
        <ele>811.339653</ele>
        <time>2011-02-13T10:54:06.74</time>
      </trkpt>
      <trkpt lat="44.96365" lon="5.6504">
        <ele>811.339653</ele>
        <time>2011-02-13T10:54:08.63</time>
      </trkpt>
      <trkpt lat="44.96362" lon="5.65045">
        <ele>812.339653</ele>
        <time>2011-02-13T10:54:10.59</time>
      </trkpt>
      <trkpt lat="44.96359" lon="5.6505">
        <ele>812.339657</ele>
        <time>2011-02-13T10:54:12.66</time>
      </trkpt>
      <trkpt lat="44.96355" lon="5.65055">
        <ele>812.339657</ele>
        <time>2011-02-13T10:54:14.60</time>
      </trkpt>
      <trkpt lat="44.96352" lon="5.65059">
        <ele>812.339657</ele>
        <time>2011-02-13T10:54:16.55</time>
      </trkpt>
      <trkpt lat="44.96349" lon="5.65064">
        <ele>812.339657</ele>
        <time>2011-02-13T10:54:18.59</time>
      </trkpt>
      <trkpt lat="44.96346" lon="5.65069">
        <ele>812.339657</ele>
        <time>2011-02-13T10:54:20.59</time>
      </trkpt>
      <trkpt lat="44.96343" lon="5.65073">
        <ele>812.339657</ele>
        <time>2011-02-13T10:54:22.55</time>
      </trkpt>
      <trkpt lat="44.96339" lon="5.65078">
        <ele>813.339657</ele>
        <time>2011-02-13T10:54:24.62</time>
      </trkpt>
      <trkpt lat="44.96336" lon="5.65083">
        <ele>813.339661</ele>
        <time>2011-02-13T10:54:26.57</time>
      </trkpt>
      <trkpt lat="44.96333" lon="5.65088">
        <ele>813.339661</ele>
        <time>2011-02-13T10:54:28.55</time>
      </trkpt>
      <trkpt lat="44.9633" lon="5.65093">
        <ele>812.339657</ele>
        <time>2011-02-13T10:54:30.58</time>
      </trkpt>
      <trkpt lat="44.96327" lon="5.65098">
        <ele>812.339661</ele>
        <time>2011-02-13T10:54:32.58</time>
      </trkpt>
      <trkpt lat="44.96324" lon="5.65103">
        <ele>812.339661</ele>
        <time>2011-02-13T10:54:34.54</time>
      </trkpt>
      <trkpt lat="44.96321" lon="5.65107">
        <ele>812.339661</ele>
        <time>2011-02-13T10:54:36.67</time>
      </trkpt>
      <trkpt lat="44.96318" lon="5.65112">
        <ele>812.339661</ele>
        <time>2011-02-13T10:54:38.60</time>
      </trkpt>
      <trkpt lat="44.96316" lon="5.65117">
        <ele>813.339664</ele>
        <time>2011-02-13T10:54:40.58</time>
      </trkpt>
      <trkpt lat="44.96313" lon="5.65122">
        <ele>813.339668</ele>
        <time>2011-02-13T10:54:42.60</time>
      </trkpt>
      <trkpt lat="44.9631" lon="5.65127">
        <ele>813.339664</ele>
        <time>2011-02-13T10:54:44.55</time>
      </trkpt>
      <trkpt lat="44.96307" lon="5.65131">
        <ele>813.339668</ele>
        <time>2011-02-13T10:54:46.58</time>
      </trkpt>
      <trkpt lat="44.96304" lon="5.65136">
        <ele>814.339668</ele>
        <time>2011-02-13T10:54:48.63</time>
      </trkpt>
      <trkpt lat="44.96301" lon="5.65141">
        <ele>814.339668</ele>
        <time>2011-02-13T10:54:50.58</time>
      </trkpt>
      <trkpt lat="44.96298" lon="5.65145">
        <ele>814.339668</ele>
        <time>2011-02-13T10:54:52.96</time>
      </trkpt>
      <trkpt lat="44.96294" lon="5.6515">
        <ele>814.339664</ele>
        <time>2011-02-13T10:54:54.60</time>
      </trkpt>
      <trkpt lat="44.96291" lon="5.65155">
        <ele>814.339664</ele>
        <time>2011-02-13T10:54:56.59</time>
      </trkpt>
      <trkpt lat="44.96288" lon="5.6516">
        <ele>814.339668</ele>
        <time>2011-02-13T10:54:58.55</time>
      </trkpt>
      <trkpt lat="44.96285" lon="5.65165">
        <ele>814.339668</ele>
        <time>2011-02-13T10:55:00.64</time>
      </trkpt>
      <trkpt lat="44.96282" lon="5.6517">
        <ele>814.339668</ele>
        <time>2011-02-13T10:55:02.56</time>
      </trkpt>
      <trkpt lat="44.96279" lon="5.65175">
        <ele>813.339672</ele>
        <time>2011-02-13T10:55:04.65</time>
      </trkpt>
      <trkpt lat="44.96276" lon="5.6518">
        <ele>814.339676</ele>
        <time>2011-02-13T10:55:06.60</time>
      </trkpt>
      <trkpt lat="44.96274" lon="5.65185">
        <ele>814.339676</ele>
        <time>2011-02-13T10:55:08.58</time>
      </trkpt>
      <trkpt lat="44.96271" lon="5.6519">
        <ele>815.339676</ele>
        <time>2011-02-13T10:55:10.60</time>
      </trkpt>
      <trkpt lat="44.96268" lon="5.65194">
        <ele>814.33968</ele>
        <time>2011-02-13T10:55:12.58</time>
      </trkpt>
      <trkpt lat="44.96266" lon="5.65199">
        <ele>814.33968</ele>
        <time>2011-02-13T10:55:14.56</time>
      </trkpt>
      <trkpt lat="44.96263" lon="5.65203">
        <ele>814.339684</ele>
        <time>2011-02-13T10:55:16.57</time>
      </trkpt>
      <trkpt lat="44.96261" lon="5.65208">
        <ele>814.339684</ele>
        <time>2011-02-13T10:55:18.58</time>
      </trkpt>
      <trkpt lat="44.96258" lon="5.65212">
        <ele>814.339687</ele>
        <time>2011-02-13T10:55:20.65</time>
      </trkpt>
      <trkpt lat="44.96255" lon="5.65216">
        <ele>815.339684</ele>
        <time>2011-02-13T10:55:22.58</time>
      </trkpt>
      <trkpt lat="44.96252" lon="5.65221">
        <ele>815.33968</ele>
        <time>2011-02-13T10:55:24.64</time>
      </trkpt>
      <trkpt lat="44.96249" lon="5.65226">
        <ele>815.339684</ele>
        <time>2011-02-13T10:55:26.56</time>
      </trkpt>
      <trkpt lat="44.96245" lon="5.6523">
        <ele>816.339684</ele>
        <time>2011-02-13T10:55:28.56</time>
      </trkpt>
      <trkpt lat="44.96243" lon="5.65235">
        <ele>816.339684</ele>
        <time>2011-02-13T10:55:30.61</time>
      </trkpt>
      <trkpt lat="44.9624" lon="5.65239">
        <ele>815.339684</ele>
        <time>2011-02-13T10:55:32.56</time>
      </trkpt>
      <trkpt lat="44.96238" lon="5.65244">
        <ele>816.339687</ele>
        <time>2011-02-13T10:55:34.55</time>
      </trkpt>
      <trkpt lat="44.96236" lon="5.65248">
        <ele>816.339691</ele>
        <time>2011-02-13T10:55:36.62</time>
      </trkpt>
      <trkpt lat="44.96232" lon="5.65254">
        <ele>817.339691</ele>
        <time>2011-02-13T10:55:39.56</time>
      </trkpt>
      <trkpt lat="44.9623" lon="5.65259">
        <ele>818.339691</ele>
        <time>2011-02-13T10:55:41.61</time>
      </trkpt>
      <trkpt lat="44.96228" lon="5.65264">
        <ele>818.339695</ele>
        <time>2011-02-13T10:55:43.53</time>
      </trkpt>
      <trkpt lat="44.96225" lon="5.65268">
        <ele>819.339695</ele>
        <time>2011-02-13T10:55:45.58</time>
      </trkpt>
      <trkpt lat="44.96223" lon="5.65273">
        <ele>819.339699</ele>
        <time>2011-02-13T10:55:47.61</time>
      </trkpt>
      <trkpt lat="44.96219" lon="5.6528">
        <ele>820.339703</ele>
        <time>2011-02-13T10:55:50.66</time>
      </trkpt>
      <trkpt lat="44.96216" lon="5.65285">
        <ele>820.339706</ele>
        <time>2011-02-13T10:55:52.57</time>
      </trkpt>
      <trkpt lat="44.96213" lon="5.65289">
        <ele>821.339703</ele>
        <time>2011-02-13T10:55:54.61</time>
      </trkpt>
      <trkpt lat="44.9621" lon="5.65294">
        <ele>821.339706</ele>
        <time>2011-02-13T10:55:56.57</time>
      </trkpt>
      <trkpt lat="44.96207" lon="5.65298">
        <ele>821.339706</ele>
        <time>2011-02-13T10:55:58.50</time>
      </trkpt>
      <trkpt lat="44.96203" lon="5.65302">
        <ele>821.339699</ele>
        <time>2011-02-13T10:56:00.59</time>
      </trkpt>
      <trkpt lat="44.962" lon="5.65307">
        <ele>821.339699</ele>
        <time>2011-02-13T10:56:02.59</time>
      </trkpt>
      <trkpt lat="44.96196" lon="5.65311">
        <ele>821.339699</ele>
        <time>2011-02-13T10:56:04.71</time>
      </trkpt>
      <trkpt lat="44.96193" lon="5.65315">
        <ele>821.339699</ele>
        <time>2011-02-13T10:56:06.59</time>
      </trkpt>
      <trkpt lat="44.96189" lon="5.6532">
        <ele>821.339691</ele>
        <time>2011-02-13T10:56:08.55</time>
      </trkpt>
      <trkpt lat="44.96185" lon="5.65324">
        <ele>821.339695</ele>
        <time>2011-02-13T10:56:10.56</time>
      </trkpt>
      <trkpt lat="44.96181" lon="5.6533">
        <ele>820.339695</ele>
        <time>2011-02-13T10:56:12.64</time>
      </trkpt>
      <trkpt lat="44.96177" lon="5.65335">
        <ele>819.339691</ele>
        <time>2011-02-13T10:56:14.58</time>
      </trkpt>
      <trkpt lat="44.96173" lon="5.6534">
        <ele>819.339691</ele>
        <time>2011-02-13T10:56:16.53</time>
      </trkpt>
      <trkpt lat="44.96169" lon="5.65345">
        <ele>819.339691</ele>
        <time>2011-02-13T10:56:18.63</time>
      </trkpt>
      <trkpt lat="44.96166" lon="5.6535">
        <ele>818.339691</ele>
        <time>2011-02-13T10:56:20.58</time>
      </trkpt>
      <trkpt lat="44.96162" lon="5.65355">
        <ele>818.339695</ele>
        <time>2011-02-13T10:56:22.56</time>
      </trkpt>
      <trkpt lat="44.96158" lon="5.65359">
        <ele>818.339691</ele>
        <time>2011-02-13T10:56:24.58</time>
      </trkpt>
      <trkpt lat="44.96155" lon="5.65364">
        <ele>817.339695</ele>
        <time>2011-02-13T10:56:26.59</time>
      </trkpt>
      <trkpt lat="44.96152" lon="5.65369">
        <ele>817.339695</ele>
        <time>2011-02-13T10:56:28.58</time>
      </trkpt>
      <trkpt lat="44.96149" lon="5.65373">
        <ele>817.339687</ele>
        <time>2011-02-13T10:56:30.51</time>
      </trkpt>
      <trkpt lat="44.96145" lon="5.65376">
        <ele>817.339687</ele>
        <time>2011-02-13T10:56:32.52</time>
      </trkpt>
      <trkpt lat="44.96142" lon="5.65379">
        <ele>818.339684</ele>
        <time>2011-02-13T10:56:34.59</time>
      </trkpt>
      <trkpt lat="44.96138" lon="5.6538">
        <ele>819.339676</ele>
        <time>2011-02-13T10:56:36.70</time>
      </trkpt>
      <trkpt lat="44.96135" lon="5.6538">
        <ele>820.339668</ele>
        <time>2011-02-13T10:56:38.54</time>
      </trkpt>
      <trkpt lat="44.96132" lon="5.65378">
        <ele>820.339661</ele>
        <time>2011-02-13T10:56:40.59</time>
      </trkpt>
      <trkpt lat="44.96129" lon="5.65375">
        <ele>821.339649</ele>
        <time>2011-02-13T10:56:42.64</time>
      </trkpt>
      <trkpt lat="44.96127" lon="5.65371">
        <ele>821.339638</ele>
        <time>2011-02-13T10:56:44.56</time>
      </trkpt>
      <trkpt lat="44.96125" lon="5.65366">
        <ele>822.33963</ele>
        <time>2011-02-13T10:56:46.57</time>
      </trkpt>
      <trkpt lat="44.96124" lon="5.65361">
        <ele>823.339615</ele>
        <time>2011-02-13T10:56:48.59</time>
      </trkpt>
      <trkpt lat="44.96122" lon="5.65357">
        <ele>823.339607</ele>
        <time>2011-02-13T10:56:50.58</time>
      </trkpt>
      <trkpt lat="44.9612" lon="5.65352">
        <ele>824.339596</ele>
        <time>2011-02-13T10:56:52.57</time>
      </trkpt>
      <trkpt lat="44.96117" lon="5.65347">
        <ele>824.339581</ele>
        <time>2011-02-13T10:56:54.60</time>
      </trkpt>
      <trkpt lat="44.96115" lon="5.65342">
        <ele>825.339569</ele>
        <time>2011-02-13T10:56:56.57</time>
      </trkpt>
      <trkpt lat="44.96112" lon="5.65338">
        <ele>825.339558</ele>
        <time>2011-02-13T10:56:58.59</time>
      </trkpt>
      <trkpt lat="44.9611" lon="5.65334">
        <ele>825.339546</ele>
        <time>2011-02-13T10:57:00.54</time>
      </trkpt>
      <trkpt lat="44.96107" lon="5.6533">
        <ele>825.339535</ele>
        <time>2011-02-13T10:57:02.58</time>
      </trkpt>
      <trkpt lat="44.96104" lon="5.65326">
        <ele>825.339523</ele>
        <time>2011-02-13T10:57:04.53</time>
      </trkpt>
      <trkpt lat="44.96101" lon="5.65321">
        <ele>824.339508</ele>
        <time>2011-02-13T10:57:06.61</time>
      </trkpt>
      <trkpt lat="44.96098" lon="5.65317">
        <ele>824.339493</ele>
        <time>2011-02-13T10:57:08.55</time>
      </trkpt>
      <trkpt lat="44.96095" lon="5.65313">
        <ele>824.339481</ele>
        <time>2011-02-13T10:57:10.58</time>
      </trkpt>
      <trkpt lat="44.96092" lon="5.65309">
        <ele>825.33947</ele>
        <time>2011-02-13T10:57:12.56</time>
      </trkpt>
      <trkpt lat="44.96089" lon="5.65305">
        <ele>825.339455</ele>
        <time>2011-02-13T10:57:14.61</time>
      </trkpt>
      <trkpt lat="44.96086" lon="5.653">
        <ele>825.339443</ele>
        <time>2011-02-13T10:57:16.55</time>
      </trkpt>
      <trkpt lat="44.96082" lon="5.65296">
        <ele>825.339428</ele>
        <time>2011-02-13T10:57:18.59</time>
      </trkpt>
      <trkpt lat="44.96079" lon="5.65292">
        <ele>825.339417</ele>
        <time>2011-02-13T10:57:20.53</time>
      </trkpt>
      <trkpt lat="44.96077" lon="5.65288">
        <ele>826.339401</ele>
        <time>2011-02-13T10:57:22.55</time>
      </trkpt>
      <trkpt lat="44.96074" lon="5.65283">
        <ele>826.33939</ele>
        <time>2011-02-13T10:57:24.73</time>
      </trkpt>
      <trkpt lat="44.96072" lon="5.65278">
        <ele>826.339378</ele>
        <time>2011-02-13T10:57:26.57</time>
      </trkpt>
      <trkpt lat="44.96069" lon="5.65273">
        <ele>826.339367</ele>
        <time>2011-02-13T10:57:28.54</time>
      </trkpt>
      <trkpt lat="44.96067" lon="5.65268">
        <ele>825.339355</ele>
        <time>2011-02-13T10:57:30.59</time>
      </trkpt>
      <trkpt lat="44.96066" lon="5.65262">
        <ele>826.33934</ele>
        <time>2011-02-13T10:57:32.56</time>
      </trkpt>
      <trkpt lat="44.96065" lon="5.65257">
        <ele>825.339329</ele>
        <time>2011-02-13T10:57:34.57</time>
      </trkpt>
      <trkpt lat="44.96064" lon="5.65251">
        <ele>825.339317</ele>
        <time>2011-02-13T10:57:36.56</time>
      </trkpt>
      <trkpt lat="44.96064" lon="5.65245">
        <ele>825.33931</ele>
        <time>2011-02-13T10:57:38.59</time>
      </trkpt>
      <trkpt lat="44.96063" lon="5.6524">
        <ele>825.339302</ele>
        <time>2011-02-13T10:57:40.52</time>
      </trkpt>
      <trkpt lat="44.96063" lon="5.65234">
        <ele>824.339294</ele>
        <time>2011-02-13T10:57:42.56</time>
      </trkpt>
      <trkpt lat="44.96064" lon="5.65229">
        <ele>824.339287</ele>
        <time>2011-02-13T10:57:44.58</time>
      </trkpt>
      <trkpt lat="44.96064" lon="5.65223">
        <ele>824.339279</ele>
        <time>2011-02-13T10:57:46.57</time>
      </trkpt>
      <trkpt lat="44.96065" lon="5.65218">
        <ele>824.339272</ele>
        <time>2011-02-13T10:57:48.63</time>
      </trkpt>
      <trkpt lat="44.96066" lon="5.65213">
        <ele>824.339272</ele>
        <time>2011-02-13T10:57:50.55</time>
      </trkpt>
      <trkpt lat="44.96067" lon="5.65208">
        <ele>824.339264</ele>
        <time>2011-02-13T10:57:52.56</time>
      </trkpt>
      <trkpt lat="44.96068" lon="5.65203">
        <ele>825.339256</ele>
        <time>2011-02-13T10:57:54.58</time>
      </trkpt>
      <trkpt lat="44.96069" lon="5.65198">
        <ele>826.339252</ele>
        <time>2011-02-13T10:57:56.60</time>
      </trkpt>
      <trkpt lat="44.9607" lon="5.65193">
        <ele>826.339245</ele>
        <time>2011-02-13T10:57:58.57</time>
      </trkpt>
      <trkpt lat="44.9607" lon="5.65188">
        <ele>827.339237</ele>
        <time>2011-02-13T10:58:00.58</time>
      </trkpt>
      <trkpt lat="44.9607" lon="5.65183">
        <ele>827.339233</ele>
        <time>2011-02-13T10:58:02.55</time>
      </trkpt>
      <trkpt lat="44.96071" lon="5.65178">
        <ele>827.339226</ele>
        <time>2011-02-13T10:58:04.55</time>
      </trkpt>
      <trkpt lat="44.96072" lon="5.65173">
        <ele>827.339218</ele>
        <time>2011-02-13T10:58:06.57</time>
      </trkpt>
      <trkpt lat="44.96073" lon="5.65167">
        <ele>827.339214</ele>
        <time>2011-02-13T10:58:08.57</time>
      </trkpt>
      <trkpt lat="44.96074" lon="5.65162">
        <ele>828.339211</ele>
        <time>2011-02-13T10:58:10.59</time>
      </trkpt>
      <trkpt lat="44.96075" lon="5.65157">
        <ele>828.339199</ele>
        <time>2011-02-13T10:58:12.60</time>
      </trkpt>
      <trkpt lat="44.96077" lon="5.65153">
        <ele>827.339203</ele>
        <time>2011-02-13T10:58:14.60</time>
      </trkpt>
      <trkpt lat="44.96078" lon="5.65148">
        <ele>827.339195</ele>
        <time>2011-02-13T10:58:16.55</time>
      </trkpt>
      <trkpt lat="44.96079" lon="5.65142">
        <ele>827.339188</ele>
        <time>2011-02-13T10:58:18.56</time>
      </trkpt>
      <trkpt lat="44.96081" lon="5.65136">
        <ele>828.33918</ele>
        <time>2011-02-13T10:58:20.59</time>
      </trkpt>
      <trkpt lat="44.96082" lon="5.6513">
        <ele>828.339176</ele>
        <time>2011-02-13T10:58:22.57</time>
      </trkpt>
      <trkpt lat="44.96083" lon="5.65123">
        <ele>828.339169</ele>
        <time>2011-02-13T10:58:24.57</time>
      </trkpt>
      <trkpt lat="44.96083" lon="5.65116">
        <ele>828.339161</ele>
        <time>2011-02-13T10:58:26.60</time>
      </trkpt>
      <trkpt lat="44.96083" lon="5.65109">
        <ele>828.339146</ele>
        <time>2011-02-13T10:58:28.56</time>
      </trkpt>
      <trkpt lat="44.96083" lon="5.65102">
        <ele>828.339134</ele>
        <time>2011-02-13T10:58:30.59</time>
      </trkpt>
      <trkpt lat="44.96082" lon="5.65095">
        <ele>829.339127</ele>
        <time>2011-02-13T10:58:32.53</time>
      </trkpt>
      <trkpt lat="44.9608" lon="5.65088">
        <ele>828.339111</ele>
        <time>2011-02-13T10:58:34.59</time>
      </trkpt>
      <trkpt lat="44.96078" lon="5.65081">
        <ele>828.339092</ele>
        <time>2011-02-13T10:58:36.57</time>
      </trkpt>
      <trkpt lat="44.96076" lon="5.65075">
        <ele>829.339081</ele>
        <time>2011-02-13T10:58:38.59</time>
      </trkpt>
      <trkpt lat="44.96074" lon="5.65069">
        <ele>828.339066</ele>
        <time>2011-02-13T10:58:40.59</time>
      </trkpt>
      <trkpt lat="44.9607" lon="5.65063">
        <ele>829.33905</ele>
        <time>2011-02-13T10:58:42.55</time>
      </trkpt>
      <trkpt lat="44.96067" lon="5.65057">
        <ele>829.339035</ele>
        <time>2011-02-13T10:58:44.58</time>
      </trkpt>
      <trkpt lat="44.96063" lon="5.65052">
        <ele>829.33902</ele>
        <time>2011-02-13T10:58:46.86</time>
      </trkpt>
      <trkpt lat="44.9606" lon="5.65047">
        <ele>829.339005</ele>
        <time>2011-02-13T10:58:48.62</time>
      </trkpt>
      <trkpt lat="44.96056" lon="5.65043">
        <ele>830.338985</ele>
        <time>2011-02-13T10:58:50.56</time>
      </trkpt>
      <trkpt lat="44.96052" lon="5.65039">
        <ele>829.33897</ele>
        <time>2011-02-13T10:58:52.55</time>
      </trkpt>
      <trkpt lat="44.96048" lon="5.65035">
        <ele>830.338959</ele>
        <time>2011-02-13T10:58:54.56</time>
      </trkpt>
      <trkpt lat="44.96044" lon="5.65032">
        <ele>830.338943</ele>
        <time>2011-02-13T10:58:56.54</time>
      </trkpt>
      <trkpt lat="44.9604" lon="5.65028">
        <ele>829.338928</ele>
        <time>2011-02-13T10:58:58.58</time>
      </trkpt>
      <trkpt lat="44.96036" lon="5.65024">
        <ele>830.338913</ele>
        <time>2011-02-13T10:59:00.66</time>
      </trkpt>
      <trkpt lat="44.96032" lon="5.65022">
        <ele>830.338902</ele>
        <time>2011-02-13T10:59:02.57</time>
      </trkpt>
      <trkpt lat="44.96028" lon="5.65021">
        <ele>831.33889</ele>
        <time>2011-02-13T10:59:04.56</time>
      </trkpt>
      <trkpt lat="44.96024" lon="5.65021">
        <ele>831.338886</ele>
        <time>2011-02-13T10:59:06.55</time>
      </trkpt>
      <trkpt lat="44.96019" lon="5.65022">
        <ele>832.338875</ele>
        <time>2011-02-13T10:59:08.58</time>
      </trkpt>
      <trkpt lat="44.96016" lon="5.65024">
        <ele>833.338871</ele>
        <time>2011-02-13T10:59:10.53</time>
      </trkpt>
      <trkpt lat="44.96011" lon="5.65025">
        <ele>833.33886</ele>
        <time>2011-02-13T10:59:12.58</time>
      </trkpt>
      <trkpt lat="44.96007" lon="5.65027">
        <ele>834.338856</ele>
        <time>2011-02-13T10:59:14.57</time>
      </trkpt>
      <trkpt lat="44.96002" lon="5.65032">
        <ele>834.338852</ele>
        <time>2011-02-13T10:59:16.55</time>
      </trkpt>
      <trkpt lat="44.95997" lon="5.65037">
        <ele>835.338848</ele>
        <time>2011-02-13T10:59:18.58</time>
      </trkpt>
      <trkpt lat="44.95992" lon="5.65043">
        <ele>835.338848</ele>
        <time>2011-02-13T10:59:20.58</time>
      </trkpt>
      <trkpt lat="44.95988" lon="5.6505">
        <ele>835.338848</ele>
        <time>2011-02-13T10:59:22.55</time>
      </trkpt>
      <trkpt lat="44.95984" lon="5.65056">
        <ele>834.338848</ele>
        <time>2011-02-13T10:59:24.57</time>
      </trkpt>
      <trkpt lat="44.9598" lon="5.65062">
        <ele>834.338852</ele>
        <time>2011-02-13T10:59:26.56</time>
      </trkpt>
      <trkpt lat="44.95977" lon="5.65069">
        <ele>833.338856</ele>
        <time>2011-02-13T10:59:28.54</time>
      </trkpt>
      <trkpt lat="44.95973" lon="5.65075">
        <ele>833.338856</ele>
        <time>2011-02-13T10:59:30.66</time>
      </trkpt>
      <trkpt lat="44.9597" lon="5.65081">
        <ele>832.338856</ele>
        <time>2011-02-13T10:59:32.58</time>
      </trkpt>
      <trkpt lat="44.95968" lon="5.65087">
        <ele>833.338863</ele>
        <time>2011-02-13T10:59:34.53</time>
      </trkpt>
      <trkpt lat="44.95965" lon="5.65093">
        <ele>832.338867</ele>
        <time>2011-02-13T10:59:36.58</time>
      </trkpt>
      <trkpt lat="44.95963" lon="5.65099">
        <ele>832.338871</ele>
        <time>2011-02-13T10:59:38.56</time>
      </trkpt>
      <trkpt lat="44.95961" lon="5.65104">
        <ele>831.338871</ele>
        <time>2011-02-13T10:59:40.58</time>
      </trkpt>
      <trkpt lat="44.95959" lon="5.65107">
        <ele>831.338875</ele>
        <time>2011-02-13T10:59:42.60</time>
      </trkpt>
      <trkpt lat="44.95958" lon="5.65109">
        <ele>831.338875</ele>
        <time>2011-02-13T10:59:44.55</time>
      </trkpt>
      <trkpt lat="44.95957" lon="5.65112">
        <ele>831.338875</ele>
        <time>2011-02-13T10:59:46.63</time>
      </trkpt>
      <trkpt lat="44.95956" lon="5.65114">
        <ele>831.338875</ele>
        <time>2011-02-13T10:59:48.59</time>
      </trkpt>
      <trkpt lat="44.95955" lon="5.65115">
        <ele>831.338879</ele>
        <time>2011-02-13T10:59:50.58</time>
      </trkpt>
      <trkpt lat="44.95954" lon="5.65116">
        <ele>830.338875</ele>
        <time>2011-02-13T10:59:52.56</time>
      </trkpt>
      <trkpt lat="44.95954" lon="5.65116">
        <ele>828.338875</ele>
        <time>2011-02-13T10:59:54.63</time>
      </trkpt>
      <trkpt lat="44.95953" lon="5.65115">
        <ele>826.338875</ele>
        <time>2011-02-13T10:59:56.59</time>
      </trkpt>
      <trkpt lat="44.95952" lon="5.65116">
        <ele>825.338871</ele>
        <time>2011-02-13T10:59:58.48</time>
      </trkpt>
      <trkpt lat="44.9595" lon="5.65117">
        <ele>823.338871</ele>
        <time>2011-02-13T11:00:03.59</time>
      </trkpt>
      <trkpt lat="44.9595" lon="5.65118">
        <ele>827.338871</ele>
        <time>2011-02-13T11:00:06.56</time>
      </trkpt>
      <trkpt lat="44.95947" lon="5.65116">
        <ele>828.33886</ele>
        <time>2011-02-13T11:00:14.56</time>
      </trkpt>
      <trkpt lat="44.95947" lon="5.65117">
        <ele>829.338863</ele>
        <time>2011-02-13T11:00:16.56</time>
      </trkpt>
      <trkpt lat="44.95946" lon="5.65119">
        <ele>830.338863</ele>
        <time>2011-02-13T11:00:18.56</time>
      </trkpt>
      <trkpt lat="44.95945" lon="5.65122">
        <ele>830.338863</ele>
        <time>2011-02-13T11:00:20.55</time>
      </trkpt>
      <trkpt lat="44.95944" lon="5.65124">
        <ele>830.338867</ele>
        <time>2011-02-13T11:00:22.54</time>
      </trkpt>
      <trkpt lat="44.95943" lon="5.65127">
        <ele>830.338867</ele>
        <time>2011-02-13T11:00:24.58</time>
      </trkpt>
      <trkpt lat="44.95942" lon="5.6513">
        <ele>829.338875</ele>
        <time>2011-02-13T11:00:26.89</time>
      </trkpt>
      <trkpt lat="44.95941" lon="5.65133">
        <ele>829.338875</ele>
        <time>2011-02-13T11:00:28.56</time>
      </trkpt>
      <trkpt lat="44.9594" lon="5.65135">
        <ele>830.338875</ele>
        <time>2011-02-13T11:00:30.58</time>
      </trkpt>
      <trkpt lat="44.95939" lon="5.65138">
        <ele>829.338879</ele>
        <time>2011-02-13T11:00:32.56</time>
      </trkpt>
      <trkpt lat="44.95938" lon="5.6514">
        <ele>830.338879</ele>
        <time>2011-02-13T11:00:34.54</time>
      </trkpt>
      <trkpt lat="44.95937" lon="5.65142">
        <ele>830.338879</ele>
        <time>2011-02-13T11:00:36.58</time>
      </trkpt>
      <trkpt lat="44.95936" lon="5.65145">
        <ele>830.338882</ele>
        <time>2011-02-13T11:00:38.56</time>
      </trkpt>
      <trkpt lat="44.95935" lon="5.65147">
        <ele>830.338882</ele>
        <time>2011-02-13T11:00:40.58</time>
      </trkpt>
      <trkpt lat="44.95934" lon="5.6515">
        <ele>830.338882</ele>
        <time>2011-02-13T11:00:42.56</time>
      </trkpt>
      <trkpt lat="44.95934" lon="5.65153">
        <ele>830.33889</ele>
        <time>2011-02-13T11:00:44.58</time>
      </trkpt>
      <trkpt lat="44.95933" lon="5.65155">
        <ele>831.33889</ele>
        <time>2011-02-13T11:00:46.55</time>
      </trkpt>
      <trkpt lat="44.95932" lon="5.65158">
        <ele>831.338898</ele>
        <time>2011-02-13T11:00:48.64</time>
      </trkpt>
      <trkpt lat="44.95931" lon="5.65161">
        <ele>831.338894</ele>
        <time>2011-02-13T11:00:50.59</time>
      </trkpt>
      <trkpt lat="44.9593" lon="5.65163">
        <ele>831.338894</ele>
        <time>2011-02-13T11:00:52.54</time>
      </trkpt>
      <trkpt lat="44.95929" lon="5.65166">
        <ele>831.338898</ele>
        <time>2011-02-13T11:00:54.58</time>
      </trkpt>
      <trkpt lat="44.95928" lon="5.65169">
        <ele>831.338898</ele>
        <time>2011-02-13T11:00:56.57</time>
      </trkpt>
      <trkpt lat="44.95928" lon="5.65172">
        <ele>830.338902</ele>
        <time>2011-02-13T11:00:58.55</time>
      </trkpt>
      <trkpt lat="44.95927" lon="5.65175">
        <ele>830.338905</ele>
        <time>2011-02-13T11:01:00.63</time>
      </trkpt>
      <trkpt lat="44.95926" lon="5.65179">
        <ele>830.338909</ele>
        <time>2011-02-13T11:01:02.62</time>
      </trkpt>
      <trkpt lat="44.95925" lon="5.65182">
        <ele>829.338913</ele>
        <time>2011-02-13T11:01:04.52</time>
      </trkpt>
      <trkpt lat="44.95924" lon="5.65185">
        <ele>828.338917</ele>
        <time>2011-02-13T11:01:06.60</time>
      </trkpt>
      <trkpt lat="44.95923" lon="5.65188">
        <ele>828.338917</ele>
        <time>2011-02-13T11:01:08.58</time>
      </trkpt>
      <trkpt lat="44.95922" lon="5.65191">
        <ele>827.338921</ele>
        <time>2011-02-13T11:01:10.56</time>
      </trkpt>
      <trkpt lat="44.95921" lon="5.65194">
        <ele>827.338924</ele>
        <time>2011-02-13T11:01:12.54</time>
      </trkpt>
      <trkpt lat="44.95919" lon="5.65197">
        <ele>826.338924</ele>
        <time>2011-02-13T11:01:14.55</time>
      </trkpt>
      <trkpt lat="44.95918" lon="5.652">
        <ele>826.338928</ele>
        <time>2011-02-13T11:01:16.55</time>
      </trkpt>
      <trkpt lat="44.95917" lon="5.65203">
        <ele>827.338924</ele>
        <time>2011-02-13T11:01:18.67</time>
      </trkpt>
      <trkpt lat="44.95916" lon="5.65206">
        <ele>827.338928</ele>
        <time>2011-02-13T11:01:20.65</time>
      </trkpt>
      <trkpt lat="44.95915" lon="5.65209">
        <ele>826.338932</ele>
        <time>2011-02-13T11:01:22.56</time>
      </trkpt>
      <trkpt lat="44.95914" lon="5.65212">
        <ele>826.338936</ele>
        <time>2011-02-13T11:01:24.58</time>
      </trkpt>
      <trkpt lat="44.95912" lon="5.65214">
        <ele>826.338936</ele>
        <time>2011-02-13T11:01:26.58</time>
      </trkpt>
      <trkpt lat="44.95911" lon="5.65217">
        <ele>827.338936</ele>
        <time>2011-02-13T11:01:28.53</time>
      </trkpt>
      <trkpt lat="44.9591" lon="5.6522">
        <ele>828.33894</ele>
        <time>2011-02-13T11:01:30.58</time>
      </trkpt>
      <trkpt lat="44.95909" lon="5.65223">
        <ele>828.338943</ele>
        <time>2011-02-13T11:01:32.60</time>
      </trkpt>
      <trkpt lat="44.95908" lon="5.65226">
        <ele>828.338943</ele>
        <time>2011-02-13T11:01:34.55</time>
      </trkpt>
      <trkpt lat="44.95907" lon="5.65228">
        <ele>828.33894</ele>
        <time>2011-02-13T11:01:36.55</time>
      </trkpt>
      <trkpt lat="44.95905" lon="5.65231">
        <ele>827.338943</ele>
        <time>2011-02-13T11:01:38.57</time>
      </trkpt>
      <trkpt lat="44.95904" lon="5.65234">
        <ele>827.338947</ele>
        <time>2011-02-13T11:01:40.55</time>
      </trkpt>
      <trkpt lat="44.95903" lon="5.65236">
        <ele>827.338951</ele>
        <time>2011-02-13T11:01:42.61</time>
      </trkpt>
      <trkpt lat="44.95902" lon="5.65239">
        <ele>827.338951</ele>
        <time>2011-02-13T11:01:44.56</time>
      </trkpt>
      <trkpt lat="44.959" lon="5.65242">
        <ele>828.338951</ele>
        <time>2011-02-13T11:01:47.57</time>
      </trkpt>
      <trkpt lat="44.95899" lon="5.65245">
        <ele>828.338951</ele>
        <time>2011-02-13T11:01:49.85</time>
      </trkpt>
      <trkpt lat="44.95898" lon="5.65247">
        <ele>829.338951</ele>
        <time>2011-02-13T11:01:51.56</time>
      </trkpt>
      <trkpt lat="44.95897" lon="5.6525">
        <ele>828.338955</ele>
        <time>2011-02-13T11:01:53.56</time>
      </trkpt>
      <trkpt lat="44.95895" lon="5.65252">
        <ele>829.338959</ele>
        <time>2011-02-13T11:01:55.55</time>
      </trkpt>
      <trkpt lat="44.95894" lon="5.65254">
        <ele>829.338959</ele>
        <time>2011-02-13T11:01:57.59</time>
      </trkpt>
      <trkpt lat="44.95893" lon="5.65256">
        <ele>829.338955</ele>
        <time>2011-02-13T11:01:59.57</time>
      </trkpt>
      <trkpt lat="44.95891" lon="5.65258">
        <ele>829.338955</ele>
        <time>2011-02-13T11:02:01.57</time>
      </trkpt>
      <trkpt lat="44.9589" lon="5.6526">
        <ele>828.338955</ele>
        <time>2011-02-13T11:02:03.58</time>
      </trkpt>
      <trkpt lat="44.95888" lon="5.65262">
        <ele>828.338955</ele>
        <time>2011-02-13T11:02:05.57</time>
      </trkpt>
      <trkpt lat="44.95886" lon="5.65264">
        <ele>828.338955</ele>
        <time>2011-02-13T11:02:07.55</time>
      </trkpt>
      <trkpt lat="44.95885" lon="5.65266">
        <ele>829.338951</ele>
        <time>2011-02-13T11:02:09.59</time>
      </trkpt>
      <trkpt lat="44.95883" lon="5.65268">
        <ele>829.338955</ele>
        <time>2011-02-13T11:02:11.74</time>
      </trkpt>
      <trkpt lat="44.95882" lon="5.6527">
        <ele>830.338951</ele>
        <time>2011-02-13T11:02:13.56</time>
      </trkpt>
      <trkpt lat="44.9588" lon="5.65272">
        <ele>830.338955</ele>
        <time>2011-02-13T11:02:15.58</time>
      </trkpt>
      <trkpt lat="44.95879" lon="5.65275">
        <ele>831.338955</ele>
        <time>2011-02-13T11:02:17.56</time>
      </trkpt>
      <trkpt lat="44.95877" lon="5.65277">
        <ele>831.338955</ele>
        <time>2011-02-13T11:02:19.51</time>
      </trkpt>
      <trkpt lat="44.95876" lon="5.6528">
        <ele>831.338955</ele>
        <time>2011-02-13T11:02:21.57</time>
      </trkpt>
      <trkpt lat="44.95874" lon="5.65283">
        <ele>832.338959</ele>
        <time>2011-02-13T11:02:23.55</time>
      </trkpt>
      <trkpt lat="44.95872" lon="5.65285">
        <ele>832.338955</ele>
        <time>2011-02-13T11:02:25.52</time>
      </trkpt>
      <trkpt lat="44.95871" lon="5.65288">
        <ele>832.338955</ele>
        <time>2011-02-13T11:02:27.61</time>
      </trkpt>
      <trkpt lat="44.95869" lon="5.6529">
        <ele>832.338955</ele>
        <time>2011-02-13T11:02:29.55</time>
      </trkpt>
      <trkpt lat="44.95868" lon="5.65292">
        <ele>832.338955</ele>
        <time>2011-02-13T11:02:31.53</time>
      </trkpt>
      <trkpt lat="44.95866" lon="5.65294">
        <ele>832.338959</ele>
        <time>2011-02-13T11:02:33.71</time>
      </trkpt>
      <trkpt lat="44.95865" lon="5.65297">
        <ele>832.338955</ele>
        <time>2011-02-13T11:02:35.53</time>
      </trkpt>
      <trkpt lat="44.95863" lon="5.65299">
        <ele>832.338959</ele>
        <time>2011-02-13T11:02:37.53</time>
      </trkpt>
      <trkpt lat="44.95861" lon="5.65302">
        <ele>833.338959</ele>
        <time>2011-02-13T11:02:39.58</time>
      </trkpt>
      <trkpt lat="44.95858" lon="5.65306">
        <ele>833.338951</ele>
        <time>2011-02-13T11:02:41.59</time>
      </trkpt>
      <trkpt lat="44.95854" lon="5.65313">
        <ele>832.338963</ele>
        <time>2011-02-13T11:02:44.57</time>
      </trkpt>
      <trkpt lat="44.95851" lon="5.65318">
        <ele>832.338963</ele>
        <time>2011-02-13T11:02:46.52</time>
      </trkpt>
      <trkpt lat="44.95848" lon="5.65323">
        <ele>832.338959</ele>
        <time>2011-02-13T11:02:48.64</time>
      </trkpt>
      <trkpt lat="44.95845" lon="5.65328">
        <ele>832.338963</ele>
        <time>2011-02-13T11:02:50.55</time>
      </trkpt>
      <trkpt lat="44.95842" lon="5.65334">
        <ele>831.338966</ele>
        <time>2011-02-13T11:02:52.55</time>
      </trkpt>
      <trkpt lat="44.95839" lon="5.6534">
        <ele>830.338966</ele>
        <time>2011-02-13T11:02:54.58</time>
      </trkpt>
      <trkpt lat="44.95836" lon="5.65346">
        <ele>830.338966</ele>
        <time>2011-02-13T11:02:56.71</time>
      </trkpt>
      <trkpt lat="44.95832" lon="5.65352">
        <ele>829.33897</ele>
        <time>2011-02-13T11:02:58.54</time>
      </trkpt>
      <trkpt lat="44.95829" lon="5.65357">
        <ele>828.33897</ele>
        <time>2011-02-13T11:03:00.58</time>
      </trkpt>
      <trkpt lat="44.95826" lon="5.65362">
        <ele>828.33897</ele>
        <time>2011-02-13T11:03:02.56</time>
      </trkpt>
      <trkpt lat="44.95822" lon="5.65366">
        <ele>829.338966</ele>
        <time>2011-02-13T11:03:04.51</time>
      </trkpt>
      <trkpt lat="44.95819" lon="5.6537">
        <ele>829.338966</ele>
        <time>2011-02-13T11:03:06.58</time>
      </trkpt>
      <trkpt lat="44.95815" lon="5.65375">
        <ele>829.338966</ele>
        <time>2011-02-13T11:03:08.53</time>
      </trkpt>
      <trkpt lat="44.95811" lon="5.65379">
        <ele>830.338963</ele>
        <time>2011-02-13T11:03:10.52</time>
      </trkpt>
      <trkpt lat="44.95808" lon="5.65383">
        <ele>830.338963</ele>
        <time>2011-02-13T11:03:12.56</time>
      </trkpt>
      <trkpt lat="44.95804" lon="5.65386">
        <ele>831.338959</ele>
        <time>2011-02-13T11:03:14.51</time>
      </trkpt>
      <trkpt lat="44.958" lon="5.6539">
        <ele>831.338959</ele>
        <time>2011-02-13T11:03:16.57</time>
      </trkpt>
      <trkpt lat="44.95797" lon="5.65394">
        <ele>831.338955</ele>
        <time>2011-02-13T11:03:18.55</time>
      </trkpt>
      <trkpt lat="44.95793" lon="5.65398">
        <ele>831.338955</ele>
        <time>2011-02-13T11:03:20.64</time>
      </trkpt>
      <trkpt lat="44.95789" lon="5.65402">
        <ele>832.338959</ele>
        <time>2011-02-13T11:03:22.52</time>
      </trkpt>
      <trkpt lat="44.95785" lon="5.65406">
        <ele>832.338951</ele>
        <time>2011-02-13T11:03:24.58</time>
      </trkpt>
      <trkpt lat="44.95782" lon="5.6541">
        <ele>832.338951</ele>
        <time>2011-02-13T11:03:26.98</time>
      </trkpt>
      <trkpt lat="44.95778" lon="5.65414">
        <ele>832.338947</ele>
        <time>2011-02-13T11:03:28.56</time>
      </trkpt>
      <trkpt lat="44.95775" lon="5.65418">
        <ele>832.338943</ele>
        <time>2011-02-13T11:03:30.55</time>
      </trkpt>
      <trkpt lat="44.95771" lon="5.65421">
        <ele>833.338943</ele>
        <time>2011-02-13T11:03:32.61</time>
      </trkpt>
      <trkpt lat="44.95767" lon="5.65425">
        <ele>833.338936</ele>
        <time>2011-02-13T11:03:34.53</time>
      </trkpt>
      <trkpt lat="44.95764" lon="5.65428">
        <ele>833.338936</ele>
        <time>2011-02-13T11:03:36.59</time>
      </trkpt>
      <trkpt lat="44.9576" lon="5.65431">
        <ele>833.338936</ele>
        <time>2011-02-13T11:03:38.52</time>
      </trkpt>
      <trkpt lat="44.95756" lon="5.65434">
        <ele>833.338928</ele>
        <time>2011-02-13T11:03:40.51</time>
      </trkpt>
      <trkpt lat="44.95752" lon="5.65437">
        <ele>833.338924</ele>
        <time>2011-02-13T11:03:42.59</time>
      </trkpt>
      <trkpt lat="44.95748" lon="5.6544">
        <ele>834.338921</ele>
        <time>2011-02-13T11:03:44.59</time>
      </trkpt>
      <trkpt lat="44.95744" lon="5.65443">
        <ele>835.338917</ele>
        <time>2011-02-13T11:03:46.53</time>
      </trkpt>
      <trkpt lat="44.9574" lon="5.65447">
        <ele>835.338913</ele>
        <time>2011-02-13T11:03:48.53</time>
      </trkpt>
      <trkpt lat="44.95736" lon="5.6545">
        <ele>835.338913</ele>
        <time>2011-02-13T11:03:50.52</time>
      </trkpt>
      <trkpt lat="44.95733" lon="5.65453">
        <ele>835.338905</ele>
        <time>2011-02-13T11:03:52.55</time>
      </trkpt>
      <trkpt lat="44.95729" lon="5.65456">
        <ele>836.338905</ele>
        <time>2011-02-13T11:03:54.58</time>
      </trkpt>
      <trkpt lat="44.95725" lon="5.65459">
        <ele>836.338898</ele>
        <time>2011-02-13T11:03:56.54</time>
      </trkpt>
      <trkpt lat="44.95721" lon="5.65462">
        <ele>836.338898</ele>
        <time>2011-02-13T11:03:58.53</time>
      </trkpt>
      <trkpt lat="44.95717" lon="5.65465">
        <ele>836.33889</ele>
        <time>2011-02-13T11:04:00.64</time>
      </trkpt>
      <trkpt lat="44.95714" lon="5.65467">
        <ele>836.33889</ele>
        <time>2011-02-13T11:04:02.61</time>
      </trkpt>
      <trkpt lat="44.9571" lon="5.65469">
        <ele>836.338886</ele>
        <time>2011-02-13T11:04:04.51</time>
      </trkpt>
      <trkpt lat="44.95706" lon="5.65471">
        <ele>836.338875</ele>
        <time>2011-02-13T11:04:06.58</time>
      </trkpt>
      <trkpt lat="44.95702" lon="5.65473">
        <ele>836.338871</ele>
        <time>2011-02-13T11:04:08.57</time>
      </trkpt>
      <trkpt lat="44.95698" lon="5.65475">
        <ele>836.338867</ele>
        <time>2011-02-13T11:04:10.54</time>
      </trkpt>
      <trkpt lat="44.95694" lon="5.65478">
        <ele>836.33886</ele>
        <time>2011-02-13T11:04:12.57</time>
      </trkpt>
      <trkpt lat="44.9569" lon="5.6548">
        <ele>837.338856</ele>
        <time>2011-02-13T11:04:14.57</time>
      </trkpt>
      <trkpt lat="44.95687" lon="5.65482">
        <ele>837.338852</ele>
        <time>2011-02-13T11:04:16.54</time>
      </trkpt>
      <trkpt lat="44.95683" lon="5.65484">
        <ele>838.338844</ele>
        <time>2011-02-13T11:04:18.70</time>
      </trkpt>
      <trkpt lat="44.95679" lon="5.65486">
        <ele>838.338837</ele>
        <time>2011-02-13T11:04:20.55</time>
      </trkpt>
      <trkpt lat="44.95675" lon="5.65487">
        <ele>838.338833</ele>
        <time>2011-02-13T11:04:22.53</time>
      </trkpt>
      <trkpt lat="44.95671" lon="5.65488">
        <ele>838.338829</ele>
        <time>2011-02-13T11:04:24.54</time>
      </trkpt>
      <trkpt lat="44.95667" lon="5.6549">
        <ele>839.338825</ele>
        <time>2011-02-13T11:04:26.56</time>
      </trkpt>
      <trkpt lat="44.95663" lon="5.65491">
        <ele>839.338814</ele>
        <time>2011-02-13T11:04:28.51</time>
      </trkpt>
      <trkpt lat="44.9566" lon="5.65493">
        <ele>839.338806</ele>
        <time>2011-02-13T11:04:30.64</time>
      </trkpt>
      <trkpt lat="44.95656" lon="5.65494">
        <ele>840.338806</ele>
        <time>2011-02-13T11:04:32.55</time>
      </trkpt>
      <trkpt lat="44.95652" lon="5.65496">
        <ele>841.338799</ele>
        <time>2011-02-13T11:04:34.82</time>
      </trkpt>
      <trkpt lat="44.95648" lon="5.65497">
        <ele>841.338791</ele>
        <time>2011-02-13T11:04:36.57</time>
      </trkpt>
      <trkpt lat="44.95645" lon="5.65498">
        <ele>842.338783</ele>
        <time>2011-02-13T11:04:38.54</time>
      </trkpt>
      <trkpt lat="44.95641" lon="5.65498">
        <ele>842.338776</ele>
        <time>2011-02-13T11:04:40.51</time>
      </trkpt>
      <trkpt lat="44.95637" lon="5.65499">
        <ele>842.338768</ele>
        <time>2011-02-13T11:04:42.59</time>
      </trkpt>
      <trkpt lat="44.95633" lon="5.65499">
        <ele>842.33876</ele>
        <time>2011-02-13T11:04:44.59</time>
      </trkpt>
      <trkpt lat="44.95628" lon="5.655">
        <ele>842.338753</ele>
        <time>2011-02-13T11:04:46.57</time>
      </trkpt>
      <trkpt lat="44.95624" lon="5.655">
        <ele>842.338745</ele>
        <time>2011-02-13T11:04:48.54</time>
      </trkpt>
      <trkpt lat="44.95621" lon="5.65501">
        <ele>843.338737</ele>
        <time>2011-02-13T11:04:50.71</time>
      </trkpt>
      <trkpt lat="44.95617" lon="5.65501">
        <ele>843.33873</ele>
        <time>2011-02-13T11:04:52.52</time>
      </trkpt>
      <trkpt lat="44.95613" lon="5.65501">
        <ele>844.338718</ele>
        <time>2011-02-13T11:04:54.56</time>
      </trkpt>
      <trkpt lat="44.95608" lon="5.65501">
        <ele>843.338707</ele>
        <time>2011-02-13T11:04:56.57</time>
      </trkpt>
      <trkpt lat="44.95604" lon="5.655">
        <ele>843.338699</ele>
        <time>2011-02-13T11:04:58.54</time>
      </trkpt>
      <trkpt lat="44.956" lon="5.655">
        <ele>844.338696</ele>
        <time>2011-02-13T11:05:00.58</time>
      </trkpt>
      <trkpt lat="44.95597" lon="5.655">
        <ele>844.338684</ele>
        <time>2011-02-13T11:05:02.52</time>
      </trkpt>
      <trkpt lat="44.95594" lon="5.655">
        <ele>845.338676</ele>
        <time>2011-02-13T11:05:04.52</time>
      </trkpt>
      <trkpt lat="44.9559" lon="5.655">
        <ele>845.338669</ele>
        <time>2011-02-13T11:05:06.55</time>
      </trkpt>
      <trkpt lat="44.95588" lon="5.65499">
        <ele>845.338661</ele>
        <time>2011-02-13T11:05:08.54</time>
      </trkpt>
      <trkpt lat="44.95585" lon="5.65498">
        <ele>845.338657</ele>
        <time>2011-02-13T11:05:10.50</time>
      </trkpt>
      <trkpt lat="44.95583" lon="5.65497">
        <ele>845.338646</ele>
        <time>2011-02-13T11:05:12.59</time>
      </trkpt>
      <trkpt lat="44.95581" lon="5.65496">
        <ele>846.338642</ele>
        <time>2011-02-13T11:05:14.57</time>
      </trkpt>
      <trkpt lat="44.95579" lon="5.65495">
        <ele>847.338638</ele>
        <time>2011-02-13T11:05:16.56</time>
      </trkpt>
      <trkpt lat="44.95576" lon="5.65494">
        <ele>847.338631</ele>
        <time>2011-02-13T11:05:18.56</time>
      </trkpt>
      <trkpt lat="44.95565" lon="5.6549">
        <ele>850.338596</ele>
        <time>2011-02-13T11:05:25.55</time>
      </trkpt>
      <trkpt lat="44.95562" lon="5.65488">
        <ele>850.338593</ele>
        <time>2011-02-13T11:05:27.55</time>
      </trkpt>
      <trkpt lat="44.9556" lon="5.65486">
        <ele>851.338581</ele>
        <time>2011-02-13T11:05:29.55</time>
      </trkpt>
      <trkpt lat="44.95557" lon="5.65484">
        <ele>851.338573</ele>
        <time>2011-02-13T11:05:31.58</time>
      </trkpt>
      <trkpt lat="44.95554" lon="5.65482">
        <ele>853.338562</ele>
        <time>2011-02-13T11:05:33.56</time>
      </trkpt>
      <trkpt lat="44.9555" lon="5.65481">
        <ele>853.338554</ele>
        <time>2011-02-13T11:05:35.52</time>
      </trkpt>
      <trkpt lat="44.95546" lon="5.6548">
        <ele>854.338539</ele>
        <time>2011-02-13T11:05:37.52</time>
      </trkpt>
      <trkpt lat="44.95542" lon="5.65478">
        <ele>854.338531</ele>
        <time>2011-02-13T11:05:39.55</time>
      </trkpt>
      <trkpt lat="44.95537" lon="5.65476">
        <ele>854.338516</ele>
        <time>2011-02-13T11:05:41.53</time>
      </trkpt>
      <trkpt lat="44.95533" lon="5.65474">
        <ele>855.338501</ele>
        <time>2011-02-13T11:05:43.54</time>
      </trkpt>
      <trkpt lat="44.95528" lon="5.65471">
        <ele>855.338493</ele>
        <time>2011-02-13T11:05:45.65</time>
      </trkpt>
      <trkpt lat="44.95523" lon="5.65469">
        <ele>856.338478</ele>
        <time>2011-02-13T11:05:47.53</time>
      </trkpt>
      <trkpt lat="44.95518" lon="5.65468">
        <ele>856.338467</ele>
        <time>2011-02-13T11:05:49.52</time>
      </trkpt>
      <trkpt lat="44.95513" lon="5.65466">
        <ele>857.338451</ele>
        <time>2011-02-13T11:05:51.55</time>
      </trkpt>
      <trkpt lat="44.95509" lon="5.65465">
        <ele>857.338444</ele>
        <time>2011-02-13T11:05:53.55</time>
      </trkpt>
      <trkpt lat="44.95505" lon="5.65464">
        <ele>857.338428</ele>
        <time>2011-02-13T11:05:55.55</time>
      </trkpt>
      <trkpt lat="44.95501" lon="5.65463">
        <ele>858.338417</ele>
        <time>2011-02-13T11:05:57.57</time>
      </trkpt>
      <trkpt lat="44.95497" lon="5.65461">
        <ele>858.338413</ele>
        <time>2011-02-13T11:05:59.56</time>
      </trkpt>
      <trkpt lat="44.95493" lon="5.6546">
        <ele>859.338402</ele>
        <time>2011-02-13T11:06:01.58</time>
      </trkpt>
      <trkpt lat="44.95489" lon="5.65459">
        <ele>859.338383</ele>
        <time>2011-02-13T11:06:03.53</time>
      </trkpt>
      <trkpt lat="44.95485" lon="5.65457">
        <ele>859.338375</ele>
        <time>2011-02-13T11:06:05.55</time>
      </trkpt>
      <trkpt lat="44.9548" lon="5.65456">
        <ele>859.338364</ele>
        <time>2011-02-13T11:06:07.54</time>
      </trkpt>
      <trkpt lat="44.95476" lon="5.65455">
        <ele>859.338352</ele>
        <time>2011-02-13T11:06:09.53</time>
      </trkpt>
      <trkpt lat="44.95472" lon="5.65453">
        <ele>860.338341</ele>
        <time>2011-02-13T11:06:11.55</time>
      </trkpt>
      <trkpt lat="44.95468" lon="5.65452">
        <ele>859.338326</ele>
        <time>2011-02-13T11:06:13.50</time>
      </trkpt>
      <trkpt lat="44.95463" lon="5.6545">
        <ele>859.338318</ele>
        <time>2011-02-13T11:06:15.64</time>
      </trkpt>
      <trkpt lat="44.95459" lon="5.65449">
        <ele>859.33831</ele>
        <time>2011-02-13T11:06:17.53</time>
      </trkpt>
      <trkpt lat="44.95455" lon="5.65448">
        <ele>859.338295</ele>
        <time>2011-02-13T11:06:19.52</time>
      </trkpt>
      <trkpt lat="44.95451" lon="5.65447">
        <ele>859.338287</ele>
        <time>2011-02-13T11:06:21.56</time>
      </trkpt>
      <trkpt lat="44.95447" lon="5.65446">
        <ele>859.338272</ele>
        <time>2011-02-13T11:06:23.53</time>
      </trkpt>
      <trkpt lat="44.95443" lon="5.65445">
        <ele>859.338264</ele>
        <time>2011-02-13T11:06:25.51</time>
      </trkpt>
      <trkpt lat="44.95439" lon="5.65444">
        <ele>860.338257</ele>
        <time>2011-02-13T11:06:27.49</time>
      </trkpt>
      <trkpt lat="44.95435" lon="5.65442">
        <ele>860.338245</ele>
        <time>2011-02-13T11:06:29.57</time>
      </trkpt>
      <trkpt lat="44.95431" lon="5.65441">
        <ele>861.338234</ele>
        <time>2011-02-13T11:06:31.52</time>
      </trkpt>
      <trkpt lat="44.95427" lon="5.6544">
        <ele>861.338223</ele>
        <time>2011-02-13T11:06:33.54</time>
      </trkpt>
      <trkpt lat="44.95423" lon="5.65439">
        <ele>861.338215</ele>
        <time>2011-02-13T11:06:35.53</time>
      </trkpt>
      <trkpt lat="44.95418" lon="5.65438">
        <ele>861.338203</ele>
        <time>2011-02-13T11:06:37.51</time>
      </trkpt>
      <trkpt lat="44.95414" lon="5.65437">
        <ele>861.338192</ele>
        <time>2011-02-13T11:06:39.55</time>
      </trkpt>
      <trkpt lat="44.9541" lon="5.65436">
        <ele>861.338181</ele>
        <time>2011-02-13T11:06:41.52</time>
      </trkpt>
      <trkpt lat="44.95406" lon="5.65435">
        <ele>862.338173</ele>
        <time>2011-02-13T11:06:43.53</time>
      </trkpt>
      <trkpt lat="44.95402" lon="5.65434">
        <ele>861.338158</ele>
        <time>2011-02-13T11:06:45.54</time>
      </trkpt>
      <trkpt lat="44.95397" lon="5.65433">
        <ele>861.33815</ele>
        <time>2011-02-13T11:06:47.54</time>
      </trkpt>
      <trkpt lat="44.95393" lon="5.65432">
        <ele>861.338139</ele>
        <time>2011-02-13T11:06:49.72</time>
      </trkpt>
      <trkpt lat="44.95388" lon="5.6543">
        <ele>861.338127</ele>
        <time>2011-02-13T11:06:51.58</time>
      </trkpt>
      <trkpt lat="44.95383" lon="5.65429">
        <ele>860.338108</ele>
        <time>2011-02-13T11:06:53.55</time>
      </trkpt>
      <trkpt lat="44.95378" lon="5.65427">
        <ele>860.3381</ele>
        <time>2011-02-13T11:06:55.54</time>
      </trkpt>
      <trkpt lat="44.95373" lon="5.65426">
        <ele>860.338085</ele>
        <time>2011-02-13T11:06:57.56</time>
      </trkpt>
      <trkpt lat="44.95369" lon="5.65424">
        <ele>860.338074</ele>
        <time>2011-02-13T11:06:59.54</time>
      </trkpt>
      <trkpt lat="44.95364" lon="5.65423">
        <ele>860.338062</ele>
        <time>2011-02-13T11:07:01.55</time>
      </trkpt>
      <trkpt lat="44.95359" lon="5.65422">
        <ele>860.338051</ele>
        <time>2011-02-13T11:07:03.56</time>
      </trkpt>
      <trkpt lat="44.95354" lon="5.65421">
        <ele>859.338036</ele>
        <time>2011-02-13T11:07:05.58</time>
      </trkpt>
      <trkpt lat="44.9535" lon="5.65419">
        <ele>860.338024</ele>
        <time>2011-02-13T11:07:07.51</time>
      </trkpt>
      <trkpt lat="44.95345" lon="5.65418">
        <ele>860.338013</ele>
        <time>2011-02-13T11:07:09.58</time>
      </trkpt>
      <trkpt lat="44.9534" lon="5.65417">
        <ele>859.337997</ele>
        <time>2011-02-13T11:07:11.55</time>
      </trkpt>
      <trkpt lat="44.95336" lon="5.65416">
        <ele>859.33799</ele>
        <time>2011-02-13T11:07:13.53</time>
      </trkpt>
      <trkpt lat="44.95331" lon="5.65415">
        <ele>859.337978</ele>
        <time>2011-02-13T11:07:15.58</time>
      </trkpt>
      <trkpt lat="44.95327" lon="5.65414">
        <ele>859.337967</ele>
        <time>2011-02-13T11:07:17.53</time>
      </trkpt>
      <trkpt lat="44.95323" lon="5.65414">
        <ele>859.337955</ele>
        <time>2011-02-13T11:07:19.51</time>
      </trkpt>
      <trkpt lat="44.95319" lon="5.65413">
        <ele>858.337948</ele>
        <time>2011-02-13T11:07:21.58</time>
      </trkpt>
      <trkpt lat="44.95315" lon="5.65412">
        <ele>858.33794</ele>
        <time>2011-02-13T11:07:23.53</time>
      </trkpt>
      <trkpt lat="44.95312" lon="5.65411">
        <ele>858.337929</ele>
        <time>2011-02-13T11:07:25.52</time>
      </trkpt>
      <trkpt lat="44.95309" lon="5.6541">
        <ele>858.337921</ele>
        <time>2011-02-13T11:07:27.57</time>
      </trkpt>
      <trkpt lat="44.95306" lon="5.65409">
        <ele>859.33791</ele>
        <time>2011-02-13T11:07:29.53</time>
      </trkpt>
      <trkpt lat="44.95303" lon="5.65408">
        <ele>859.337902</ele>
        <time>2011-02-13T11:07:31.55</time>
      </trkpt>
      <trkpt lat="44.953" lon="5.65406">
        <ele>859.337894</ele>
        <time>2011-02-13T11:07:33.55</time>
      </trkpt>
      <trkpt lat="44.95296" lon="5.65405">
        <ele>859.337887</ele>
        <time>2011-02-13T11:07:35.57</time>
      </trkpt>
      <trkpt lat="44.95292" lon="5.65404">
        <ele>860.337875</ele>
        <time>2011-02-13T11:07:37.47</time>
      </trkpt>
      <trkpt lat="44.95288" lon="5.65403">
        <ele>860.337868</ele>
        <time>2011-02-13T11:07:39.49</time>
      </trkpt>
      <trkpt lat="44.95284" lon="5.65402">
        <ele>861.337852</ele>
        <time>2011-02-13T11:07:41.57</time>
      </trkpt>
      <trkpt lat="44.95281" lon="5.654">
        <ele>862.337845</ele>
        <time>2011-02-13T11:07:43.51</time>
      </trkpt>
      <trkpt lat="44.95276" lon="5.65399">
        <ele>861.337833</ele>
        <time>2011-02-13T11:07:45.55</time>
      </trkpt>
      <trkpt lat="44.95272" lon="5.65397">
        <ele>862.337822</ele>
        <time>2011-02-13T11:07:47.52</time>
      </trkpt>
      <trkpt lat="44.95268" lon="5.65396">
        <ele>862.337811</ele>
        <time>2011-02-13T11:07:49.53</time>
      </trkpt>
      <trkpt lat="44.95263" lon="5.65395">
        <ele>862.337799</ele>
        <time>2011-02-13T11:07:51.57</time>
      </trkpt>
      <trkpt lat="44.95259" lon="5.65394">
        <ele>862.337788</ele>
        <time>2011-02-13T11:07:53.55</time>
      </trkpt>
      <trkpt lat="44.95255" lon="5.65392">
        <ele>862.337772</ele>
        <time>2011-02-13T11:07:55.52</time>
      </trkpt>
      <trkpt lat="44.9525" lon="5.65391">
        <ele>862.337769</ele>
        <time>2011-02-13T11:07:57.57</time>
      </trkpt>
      <trkpt lat="44.95245" lon="5.65389">
        <ele>862.337753</ele>
        <time>2011-02-13T11:07:59.54</time>
      </trkpt>
      <trkpt lat="44.9524" lon="5.65388">
        <ele>862.337738</ele>
        <time>2011-02-13T11:08:01.59</time>
      </trkpt>
      <trkpt lat="44.95236" lon="5.65387">
        <ele>862.33773</ele>
        <time>2011-02-13T11:08:03.61</time>
      </trkpt>
      <trkpt lat="44.95232" lon="5.65386">
        <ele>862.337719</ele>
        <time>2011-02-13T11:08:05.58</time>
      </trkpt>
      <trkpt lat="44.95227" lon="5.65385">
        <ele>861.337704</ele>
        <time>2011-02-13T11:08:07.51</time>
      </trkpt>
      <trkpt lat="44.95223" lon="5.65383">
        <ele>861.337692</ele>
        <time>2011-02-13T11:08:09.65</time>
      </trkpt>
      <trkpt lat="44.95218" lon="5.65382">
        <ele>860.337681</ele>
        <time>2011-02-13T11:08:11.55</time>
      </trkpt>
      <trkpt lat="44.95213" lon="5.65381">
        <ele>860.337666</ele>
        <time>2011-02-13T11:08:13.57</time>
      </trkpt>
      <trkpt lat="44.95209" lon="5.65379">
        <ele>860.337658</ele>
        <time>2011-02-13T11:08:15.69</time>
      </trkpt>
      <trkpt lat="44.95204" lon="5.65378">
        <ele>860.337646</ele>
        <time>2011-02-13T11:08:17.55</time>
      </trkpt>
      <trkpt lat="44.952" lon="5.65376">
        <ele>860.337631</ele>
        <time>2011-02-13T11:08:19.52</time>
      </trkpt>
      <trkpt lat="44.95195" lon="5.65375">
        <ele>861.337624</ele>
        <time>2011-02-13T11:08:21.61</time>
      </trkpt>
      <trkpt lat="44.95191" lon="5.65375">
        <ele>861.337608</ele>
        <time>2011-02-13T11:08:23.55</time>
      </trkpt>
      <trkpt lat="44.95187" lon="5.65374">
        <ele>861.337601</ele>
        <time>2011-02-13T11:08:25.54</time>
      </trkpt>
      <trkpt lat="44.95183" lon="5.65373">
        <ele>860.337593</ele>
        <time>2011-02-13T11:08:27.61</time>
      </trkpt>
      <trkpt lat="44.95179" lon="5.65372">
        <ele>860.337578</ele>
        <time>2011-02-13T11:08:29.56</time>
      </trkpt>
      <trkpt lat="44.95176" lon="5.65371">
        <ele>860.33757</ele>
        <time>2011-02-13T11:08:31.52</time>
      </trkpt>
      <trkpt lat="44.95172" lon="5.6537">
        <ele>861.337563</ele>
        <time>2011-02-13T11:08:33.64</time>
      </trkpt>
      <trkpt lat="44.95168" lon="5.65368">
        <ele>860.337555</ele>
        <time>2011-02-13T11:08:35.55</time>
      </trkpt>
      <trkpt lat="44.95165" lon="5.65367">
        <ele>860.33754</ele>
        <time>2011-02-13T11:08:37.50</time>
      </trkpt>
      <trkpt lat="44.95161" lon="5.65365">
        <ele>860.337532</ele>
        <time>2011-02-13T11:08:39.60</time>
      </trkpt>
      <trkpt lat="44.95158" lon="5.65363">
        <ele>861.337524</ele>
        <time>2011-02-13T11:08:41.59</time>
      </trkpt>
      <trkpt lat="44.95154" lon="5.65362">
        <ele>860.337509</ele>
        <time>2011-02-13T11:08:43.52</time>
      </trkpt>
      <trkpt lat="44.9515" lon="5.65361">
        <ele>860.337502</ele>
        <time>2011-02-13T11:08:45.58</time>
      </trkpt>
      <trkpt lat="44.95146" lon="5.6536">
        <ele>859.33749</ele>
        <time>2011-02-13T11:08:47.54</time>
      </trkpt>
      <trkpt lat="44.95142" lon="5.65359">
        <ele>859.337482</ele>
        <time>2011-02-13T11:08:49.50</time>
      </trkpt>
      <trkpt lat="44.95138" lon="5.65358">
        <ele>859.337467</ele>
        <time>2011-02-13T11:08:51.58</time>
      </trkpt>
      <trkpt lat="44.95134" lon="5.65357">
        <ele>859.33746</ele>
        <time>2011-02-13T11:08:53.53</time>
      </trkpt>
      <trkpt lat="44.9513" lon="5.65356">
        <ele>858.337452</ele>
        <time>2011-02-13T11:08:55.53</time>
      </trkpt>
      <trkpt lat="44.95125" lon="5.65355">
        <ele>857.337437</ele>
        <time>2011-02-13T11:08:57.52</time>
      </trkpt>
      <trkpt lat="44.95121" lon="5.65354">
        <ele>857.337425</ele>
        <time>2011-02-13T11:08:59.55</time>
      </trkpt>
      <trkpt lat="44.95117" lon="5.65353">
        <ele>858.337421</ele>
        <time>2011-02-13T11:09:01.56</time>
      </trkpt>
      <trkpt lat="44.95113" lon="5.65352">
        <ele>858.33741</ele>
        <time>2011-02-13T11:09:03.53</time>
      </trkpt>
      <trkpt lat="44.95109" lon="5.6535">
        <ele>857.337395</ele>
        <time>2011-02-13T11:09:05.58</time>
      </trkpt>
      <trkpt lat="44.95105" lon="5.65349">
        <ele>857.337387</ele>
        <time>2011-02-13T11:09:07.51</time>
      </trkpt>
      <trkpt lat="44.95101" lon="5.65348">
        <ele>857.337376</ele>
        <time>2011-02-13T11:09:09.58</time>
      </trkpt>
      <trkpt lat="44.95098" lon="5.65347">
        <ele>857.337364</ele>
        <time>2011-02-13T11:09:11.56</time>
      </trkpt>
      <trkpt lat="44.95094" lon="5.65345">
        <ele>857.337357</ele>
        <time>2011-02-13T11:09:13.50</time>
      </trkpt>
      <trkpt lat="44.9509" lon="5.65344">
        <ele>857.337345</ele>
        <time>2011-02-13T11:09:15.59</time>
      </trkpt>
      <trkpt lat="44.95086" lon="5.65343">
        <ele>857.337334</ele>
        <time>2011-02-13T11:09:17.57</time>
      </trkpt>
      <trkpt lat="44.95082" lon="5.65341">
        <ele>857.337322</ele>
        <time>2011-02-13T11:09:19.58</time>
      </trkpt>
      <trkpt lat="44.95079" lon="5.65339">
        <ele>858.337311</ele>
        <time>2011-02-13T11:09:21.59</time>
      </trkpt>
      <trkpt lat="44.95075" lon="5.65337">
        <ele>858.337303</ele>
        <time>2011-02-13T11:09:23.51</time>
      </trkpt>
      <trkpt lat="44.95071" lon="5.65335">
        <ele>858.337296</ele>
        <time>2011-02-13T11:09:25.55</time>
      </trkpt>
      <trkpt lat="44.95068" lon="5.65333">
        <ele>859.33728</ele>
        <time>2011-02-13T11:09:27.58</time>
      </trkpt>
      <trkpt lat="44.95065" lon="5.65331">
        <ele>859.337273</ele>
        <time>2011-02-13T11:09:29.57</time>
      </trkpt>
      <trkpt lat="44.95061" lon="5.65329">
        <ele>860.337257</ele>
        <time>2011-02-13T11:09:31.52</time>
      </trkpt>
      <trkpt lat="44.95058" lon="5.65327">
        <ele>860.33725</ele>
        <time>2011-02-13T11:09:33.56</time>
      </trkpt>
      <trkpt lat="44.95054" lon="5.65325">
        <ele>860.337234</ele>
        <time>2011-02-13T11:09:35.56</time>
      </trkpt>
      <trkpt lat="44.9505" lon="5.65322">
        <ele>860.337227</ele>
        <time>2011-02-13T11:09:37.51</time>
      </trkpt>
      <trkpt lat="44.95047" lon="5.6532">
        <ele>861.337212</ele>
        <time>2011-02-13T11:09:39.58</time>
      </trkpt>
      <trkpt lat="44.95043" lon="5.65317">
        <ele>862.3372</ele>
        <time>2011-02-13T11:09:41.91</time>
      </trkpt>
      <trkpt lat="44.9504" lon="5.65315">
        <ele>862.337193</ele>
        <time>2011-02-13T11:09:43.52</time>
      </trkpt>
      <trkpt lat="44.95036" lon="5.65312">
        <ele>863.337181</ele>
        <time>2011-02-13T11:09:45.58</time>
      </trkpt>
      <trkpt lat="44.95033" lon="5.65308">
        <ele>863.337166</ele>
        <time>2011-02-13T11:09:47.52</time>
      </trkpt>
      <trkpt lat="44.95029" lon="5.65304">
        <ele>864.337154</ele>
        <time>2011-02-13T11:09:49.54</time>
      </trkpt>
      <trkpt lat="44.95027" lon="5.65299">
        <ele>865.337139</ele>
        <time>2011-02-13T11:09:51.58</time>
      </trkpt>
      <trkpt lat="44.95025" lon="5.65293">
        <ele>865.337128</ele>
        <time>2011-02-13T11:09:53.54</time>
      </trkpt>
      <trkpt lat="44.95023" lon="5.65287">
        <ele>866.337112</ele>
        <time>2011-02-13T11:09:55.53</time>
      </trkpt>
      <trkpt lat="44.95022" lon="5.65281">
        <ele>865.337101</ele>
        <time>2011-02-13T11:09:57.58</time>
      </trkpt>
      <trkpt lat="44.95021" lon="5.65275">
        <ele>864.337093</ele>
        <time>2011-02-13T11:09:59.52</time>
      </trkpt>
      <trkpt lat="44.95021" lon="5.6527">
        <ele>864.337078</ele>
        <time>2011-02-13T11:10:01.53</time>
      </trkpt>
      <trkpt lat="44.9502" lon="5.65264">
        <ele>864.33707</ele>
        <time>2011-02-13T11:10:03.174</time>
      </trkpt>
      <trkpt lat="44.95019" lon="5.65259">
        <ele>864.337059</ele>
        <time>2011-02-13T11:10:05.175</time>
      </trkpt>
      <trkpt lat="44.95018" lon="5.65254">
        <ele>864.337048</ele>
        <time>2011-02-13T11:10:07.178</time>
      </trkpt>
      <trkpt lat="44.95016" lon="5.6525">
        <ele>864.337044</ele>
        <time>2011-02-13T11:10:09.173</time>
      </trkpt>
      <trkpt lat="44.95015" lon="5.65245">
        <ele>864.337029</ele>
        <time>2011-02-13T11:10:11.180</time>
      </trkpt>
      <trkpt lat="44.95013" lon="5.65241">
        <ele>864.337017</ele>
        <time>2011-02-13T11:10:13.180</time>
      </trkpt>
      <trkpt lat="44.95011" lon="5.65238">
        <ele>863.337013</ele>
        <time>2011-02-13T11:10:15.175</time>
      </trkpt>
      <trkpt lat="44.95008" lon="5.65237">
        <ele>864.337002</ele>
        <time>2011-02-13T11:10:17.179</time>
      </trkpt>
      <trkpt lat="44.95005" lon="5.65235">
        <ele>864.336994</ele>
        <time>2011-02-13T11:10:19.178</time>
      </trkpt>
      <trkpt lat="44.95002" lon="5.65235">
        <ele>864.33699</ele>
        <time>2011-02-13T11:10:21.173</time>
      </trkpt>
      <trkpt lat="44.95" lon="5.65235">
        <ele>864.336983</ele>
        <time>2011-02-13T11:10:23.177</time>
      </trkpt>
      <trkpt lat="44.94997" lon="5.65235">
        <ele>864.336975</ele>
        <time>2011-02-13T11:10:25.185</time>
      </trkpt>
      <trkpt lat="44.94994" lon="5.65235">
        <ele>864.336971</ele>
        <time>2011-02-13T11:10:27.175</time>
      </trkpt>
      <trkpt lat="44.94991" lon="5.65235">
        <ele>865.336967</ele>
        <time>2011-02-13T11:10:29.180</time>
      </trkpt>
      <trkpt lat="44.94989" lon="5.65234">
        <ele>865.33696</ele>
        <time>2011-02-13T11:10:31.180</time>
      </trkpt>
      <trkpt lat="44.94985" lon="5.65233">
        <ele>866.336948</ele>
        <time>2011-02-13T11:10:34.175</time>
      </trkpt>
      <trkpt lat="44.94982" lon="5.65232">
        <ele>867.336937</ele>
        <time>2011-02-13T11:10:36.181</time>
      </trkpt>
      <trkpt lat="44.94979" lon="5.6523">
        <ele>868.336929</ele>
        <time>2011-02-13T11:10:38.179</time>
      </trkpt>
      <trkpt lat="44.94977" lon="5.65228">
        <ele>868.336922</ele>
        <time>2011-02-13T11:10:40.179</time>
      </trkpt>
      <trkpt lat="44.94974" lon="5.65226">
        <ele>869.336914</ele>
        <time>2011-02-13T11:10:42.180</time>
      </trkpt>
      <trkpt lat="44.94971" lon="5.65223">
        <ele>870.336906</ele>
        <time>2011-02-13T11:10:44.178</time>
      </trkpt>
      <trkpt lat="44.94967" lon="5.65221">
        <ele>870.336891</ele>
        <time>2011-02-13T11:10:46.175</time>
      </trkpt>
      <trkpt lat="44.94964" lon="5.65218">
        <ele>870.336884</ele>
        <time>2011-02-13T11:10:48.177</time>
      </trkpt>
      <trkpt lat="44.94961" lon="5.65215">
        <ele>870.336868</ele>
        <time>2011-02-13T11:10:50.180</time>
      </trkpt>
      <trkpt lat="44.94958" lon="5.65211">
        <ele>870.336857</ele>
        <time>2011-02-13T11:10:52.172</time>
      </trkpt>
      <trkpt lat="44.94955" lon="5.65208">
        <ele>870.336845</ele>
        <time>2011-02-13T11:10:54.172</time>
      </trkpt>
      <trkpt lat="44.94952" lon="5.65205">
        <ele>870.33683</ele>
        <time>2011-02-13T11:10:56.178</time>
      </trkpt>
      <trkpt lat="44.94949" lon="5.65202">
        <ele>871.336815</ele>
        <time>2011-02-13T11:10:58.176</time>
      </trkpt>
      <trkpt lat="44.94945" lon="5.65199">
        <ele>871.336807</ele>
        <time>2011-02-13T11:11:00.175</time>
      </trkpt>
      <trkpt lat="44.94942" lon="5.65196">
        <ele>871.336796</ele>
        <time>2011-02-13T11:11:02.179</time>
      </trkpt>
      <trkpt lat="44.94939" lon="5.65193">
        <ele>872.336784</ele>
        <time>2011-02-13T11:11:04.174</time>
      </trkpt>
      <trkpt lat="44.94936" lon="5.6519">
        <ele>872.336777</ele>
        <time>2011-02-13T11:11:06.173</time>
      </trkpt>
      <trkpt lat="44.94933" lon="5.65188">
        <ele>872.336761</ele>
        <time>2011-02-13T11:11:08.177</time>
      </trkpt>
      <trkpt lat="44.9493" lon="5.65185">
        <ele>872.33675</ele>
        <time>2011-02-13T11:11:10.196</time>
      </trkpt>
      <trkpt lat="44.94927" lon="5.65181">
        <ele>873.336742</ele>
        <time>2011-02-13T11:11:12.178</time>
      </trkpt>
      <trkpt lat="44.94924" lon="5.65178">
        <ele>873.336731</ele>
        <time>2011-02-13T11:11:14.180</time>
      </trkpt>
      <trkpt lat="44.94921" lon="5.65176">
        <ele>873.336723</ele>
        <time>2011-02-13T11:11:16.175</time>
      </trkpt>
      <trkpt lat="44.94918" lon="5.65173">
        <ele>874.336708</ele>
        <time>2011-02-13T11:11:18.174</time>
      </trkpt>
      <trkpt lat="44.94915" lon="5.65169">
        <ele>874.336697</ele>
        <time>2011-02-13T11:11:20.177</time>
      </trkpt>
      <trkpt lat="44.94912" lon="5.65166">
        <ele>874.336685</ele>
        <time>2011-02-13T11:11:22.173</time>
      </trkpt>
      <trkpt lat="44.94909" lon="5.65163">
        <ele>874.336678</ele>
        <time>2011-02-13T11:11:24.174</time>
      </trkpt>
      <trkpt lat="44.94906" lon="5.65161">
        <ele>874.336666</ele>
        <time>2011-02-13T11:11:26.180</time>
      </trkpt>
      <trkpt lat="44.94902" lon="5.65159">
        <ele>874.336658</ele>
        <time>2011-02-13T11:11:28.180</time>
      </trkpt>
      <trkpt lat="44.94899" lon="5.65157">
        <ele>875.336647</ele>
        <time>2011-02-13T11:11:30.180</time>
      </trkpt>
      <trkpt lat="44.94896" lon="5.65156">
        <ele>875.336636</ele>
        <time>2011-02-13T11:11:32.177</time>
      </trkpt>
      <trkpt lat="44.94892" lon="5.65155">
        <ele>875.336624</ele>
        <time>2011-02-13T11:11:34.176</time>
      </trkpt>
      <trkpt lat="44.94889" lon="5.65154">
        <ele>875.336617</ele>
        <time>2011-02-13T11:11:36.175</time>
      </trkpt>
      <trkpt lat="44.94885" lon="5.65153">
        <ele>875.336609</ele>
        <time>2011-02-13T11:11:38.175</time>
      </trkpt>
      <trkpt lat="44.94881" lon="5.65152">
        <ele>875.336594</ele>
        <time>2011-02-13T11:11:40.201</time>
      </trkpt>
      <trkpt lat="44.94877" lon="5.65151">
        <ele>875.336586</ele>
        <time>2011-02-13T11:11:42.179</time>
      </trkpt>
      <trkpt lat="44.94873" lon="5.6515">
        <ele>875.336578</ele>
        <time>2011-02-13T11:11:44.177</time>
      </trkpt>
      <trkpt lat="44.9487" lon="5.65149">
        <ele>875.336567</ele>
        <time>2011-02-13T11:11:46.177</time>
      </trkpt>
      <trkpt lat="44.94866" lon="5.65149">
        <ele>875.336559</ele>
        <time>2011-02-13T11:11:48.177</time>
      </trkpt>
      <trkpt lat="44.94862" lon="5.65148">
        <ele>875.336548</ele>
        <time>2011-02-13T11:11:50.179</time>
      </trkpt>
      <trkpt lat="44.94858" lon="5.65147">
        <ele>876.336544</ele>
        <time>2011-02-13T11:11:52.175</time>
      </trkpt>
      <trkpt lat="44.94853" lon="5.65147">
        <ele>876.336529</ele>
        <time>2011-02-13T11:11:54.178</time>
      </trkpt>
      <trkpt lat="44.94849" lon="5.65146">
        <ele>876.336517</ele>
        <time>2011-02-13T11:11:56.178</time>
      </trkpt>
      <trkpt lat="44.94845" lon="5.65145">
        <ele>876.336514</ele>
        <time>2011-02-13T11:11:58.176</time>
      </trkpt>
      <trkpt lat="44.94842" lon="5.65144">
        <ele>876.336502</ele>
        <time>2011-02-13T11:12:00.182</time>
      </trkpt>
      <trkpt lat="44.94838" lon="5.65142">
        <ele>876.336491</ele>
        <time>2011-02-13T11:12:02.176</time>
      </trkpt>
      <trkpt lat="44.94835" lon="5.6514">
        <ele>876.336475</ele>
        <time>2011-02-13T11:12:04.178</time>
      </trkpt>
      <trkpt lat="44.94831" lon="5.65138">
        <ele>877.336472</ele>
        <time>2011-02-13T11:12:06.178</time>
      </trkpt>
      <trkpt lat="44.94828" lon="5.65136">
        <ele>877.33646</ele>
        <time>2011-02-13T11:12:08.177</time>
      </trkpt>
      <trkpt lat="44.94825" lon="5.65134">
        <ele>877.336449</ele>
        <time>2011-02-13T11:12:10.176</time>
      </trkpt>
      <trkpt lat="44.94822" lon="5.65132">
        <ele>877.336441</ele>
        <time>2011-02-13T11:12:12.182</time>
      </trkpt>
      <trkpt lat="44.94819" lon="5.65131">
        <ele>878.33643</ele>
        <time>2011-02-13T11:12:14.179</time>
      </trkpt>
      <trkpt lat="44.94816" lon="5.65129">
        <ele>878.336418</ele>
        <time>2011-02-13T11:12:16.174</time>
      </trkpt>
      <trkpt lat="44.94813" lon="5.65127">
        <ele>878.336411</ele>
        <time>2011-02-13T11:12:18.218</time>
      </trkpt>
      <trkpt lat="44.94808" lon="5.65125">
        <ele>878.336395</ele>
        <time>2011-02-13T11:12:21.195</time>
      </trkpt>
      <trkpt lat="44.94805" lon="5.65123">
        <ele>878.336388</ele>
        <time>2011-02-13T11:12:23.178</time>
      </trkpt>
      <trkpt lat="44.94802" lon="5.65121">
        <ele>878.33638</ele>
        <time>2011-02-13T11:12:25.175</time>
      </trkpt>
      <trkpt lat="44.94799" lon="5.6512">
        <ele>878.336372</ele>
        <time>2011-02-13T11:12:27.225</time>
      </trkpt>
      <trkpt lat="44.94796" lon="5.65117">
        <ele>878.336357</ele>
        <time>2011-02-13T11:12:29.178</time>
      </trkpt>
      <trkpt lat="44.94793" lon="5.65115">
        <ele>879.336349</ele>
        <time>2011-02-13T11:12:31.176</time>
      </trkpt>
      <trkpt lat="44.94789" lon="5.65113">
        <ele>879.336342</ele>
        <time>2011-02-13T11:12:33.187</time>
      </trkpt>
      <trkpt lat="44.94786" lon="5.65111">
        <ele>880.336327</ele>
        <time>2011-02-13T11:12:35.178</time>
      </trkpt>
      <trkpt lat="44.94783" lon="5.65108">
        <ele>880.336315</ele>
        <time>2011-02-13T11:12:37.178</time>
      </trkpt>
      <trkpt lat="44.9478" lon="5.65106">
        <ele>880.336308</ele>
        <time>2011-02-13T11:12:39.173</time>
      </trkpt>
      <trkpt lat="44.94777" lon="5.65103">
        <ele>880.336296</ele>
        <time>2011-02-13T11:12:41.178</time>
      </trkpt>
      <trkpt lat="44.94774" lon="5.65101">
        <ele>880.336285</ele>
        <time>2011-02-13T11:12:43.175</time>
      </trkpt>
      <trkpt lat="44.94771" lon="5.65098">
        <ele>880.336277</ele>
        <time>2011-02-13T11:12:45.179</time>
      </trkpt>
      <trkpt lat="44.94768" lon="5.65095">
        <ele>880.336266</ele>
        <time>2011-02-13T11:12:47.179</time>
      </trkpt>
      <trkpt lat="44.94765" lon="5.65092">
        <ele>881.336258</ele>
        <time>2011-02-13T11:12:49.211</time>
      </trkpt>
      <trkpt lat="44.94762" lon="5.65088">
        <ele>881.336243</ele>
        <time>2011-02-13T11:12:51.174</time>
      </trkpt>
      <trkpt lat="44.9476" lon="5.65085">
        <ele>881.336231</ele>
        <time>2011-02-13T11:12:53.177</time>
      </trkpt>
      <trkpt lat="44.94757" lon="5.65082">
        <ele>881.336224</ele>
        <time>2011-02-13T11:12:55.176</time>
      </trkpt>
      <trkpt lat="44.94754" lon="5.65079">
        <ele>881.336212</ele>
        <time>2011-02-13T11:12:57.174</time>
      </trkpt>
      <trkpt lat="44.94751" lon="5.65076">
        <ele>881.336197</ele>
        <time>2011-02-13T11:12:59.179</time>
      </trkpt>
      <trkpt lat="44.94748" lon="5.65073">
        <ele>882.336185</ele>
        <time>2011-02-13T11:13:01.178</time>
      </trkpt>
      <trkpt lat="44.94745" lon="5.6507">
        <ele>882.336174</ele>
        <time>2011-02-13T11:13:03.174</time>
      </trkpt>
      <trkpt lat="44.94742" lon="5.65068">
        <ele>882.336166</ele>
        <time>2011-02-13T11:13:05.193</time>
      </trkpt>
      <trkpt lat="44.94739" lon="5.65065">
        <ele>883.336159</ele>
        <time>2011-02-13T11:13:07.176</time>
      </trkpt>
      <trkpt lat="44.94736" lon="5.65063">
        <ele>883.336151</ele>
        <time>2011-02-13T11:13:09.175</time>
      </trkpt>
      <trkpt lat="44.94734" lon="5.6506">
        <ele>883.336136</ele>
        <time>2011-02-13T11:13:11.182</time>
      </trkpt>
      <trkpt lat="44.94731" lon="5.65058">
        <ele>883.336128</ele>
        <time>2011-02-13T11:13:13.181</time>
      </trkpt>
      <trkpt lat="44.94728" lon="5.65056">
        <ele>884.336121</ele>
        <time>2011-02-13T11:13:15.174</time>
      </trkpt>
      <trkpt lat="44.94726" lon="5.65054">
        <ele>884.336113</ele>
        <time>2011-02-13T11:13:17.178</time>
      </trkpt>
      <trkpt lat="44.94723" lon="5.65051">
        <ele>884.336105</ele>
        <time>2011-02-13T11:13:19.177</time>
      </trkpt>
      <trkpt lat="44.9472" lon="5.65049">
        <ele>885.336086</ele>
        <time>2011-02-13T11:13:21.178</time>
      </trkpt>
      <trkpt lat="44.94717" lon="5.65046">
        <ele>886.336082</ele>
        <time>2011-02-13T11:13:23.176</time>
      </trkpt>
      <trkpt lat="44.94714" lon="5.65044">
        <ele>886.336075</ele>
        <time>2011-02-13T11:13:25.174</time>
      </trkpt>
      <trkpt lat="44.94711" lon="5.65042">
        <ele>886.336063</ele>
        <time>2011-02-13T11:13:27.171</time>
      </trkpt>
      <trkpt lat="44.94708" lon="5.65039">
        <ele>887.336048</ele>
        <time>2011-02-13T11:13:29.180</time>
      </trkpt>
      <trkpt lat="44.94705" lon="5.65037">
        <ele>887.336037</ele>
        <time>2011-02-13T11:13:31.178</time>
      </trkpt>
      <trkpt lat="44.94702" lon="5.65034">
        <ele>887.336029</ele>
        <time>2011-02-13T11:13:33.210</time>
      </trkpt>
      <trkpt lat="44.94699" lon="5.65032">
        <ele>888.336021</ele>
        <time>2011-02-13T11:13:35.175</time>
      </trkpt>
      <trkpt lat="44.94696" lon="5.6503">
        <ele>889.336006</ele>
        <time>2011-02-13T11:13:37.174</time>
      </trkpt>
      <trkpt lat="44.94693" lon="5.65027">
        <ele>889.335999</ele>
        <time>2011-02-13T11:13:39.177</time>
      </trkpt>
      <trkpt lat="44.9469" lon="5.65025">
        <ele>889.335987</ele>
        <time>2011-02-13T11:13:41.178</time>
      </trkpt>
      <trkpt lat="44.94687" lon="5.65023">
        <ele>889.335979</ele>
        <time>2011-02-13T11:13:43.177</time>
      </trkpt>
      <trkpt lat="44.94684" lon="5.65021">
        <ele>890.335968</ele>
        <time>2011-02-13T11:13:45.172</time>
      </trkpt>
      <trkpt lat="44.9468" lon="5.65019">
        <ele>890.33596</ele>
        <time>2011-02-13T11:13:47.179</time>
      </trkpt>
      <trkpt lat="44.94677" lon="5.65016">
        <ele>890.335945</ele>
        <time>2011-02-13T11:13:49.175</time>
      </trkpt>
      <trkpt lat="44.94674" lon="5.65013">
        <ele>890.335938</ele>
        <time>2011-02-13T11:13:51.174</time>
      </trkpt>
      <trkpt lat="44.94671" lon="5.65011">
        <ele>890.335922</ele>
        <time>2011-02-13T11:13:53.177</time>
      </trkpt>
      <trkpt lat="44.94667" lon="5.65008">
        <ele>890.335915</ele>
        <time>2011-02-13T11:13:55.199</time>
      </trkpt>
      <trkpt lat="44.94664" lon="5.65006">
        <ele>890.335903</ele>
        <time>2011-02-13T11:13:57.176</time>
      </trkpt>
      <trkpt lat="44.9466" lon="5.65003">
        <ele>890.335888</ele>
        <time>2011-02-13T11:13:59.176</time>
      </trkpt>
      <trkpt lat="44.94657" lon="5.65">
        <ele>890.335876</ele>
        <time>2011-02-13T11:14:01.182</time>
      </trkpt>
      <trkpt lat="44.94653" lon="5.64997">
        <ele>891.335865</ele>
        <time>2011-02-13T11:14:03.175</time>
      </trkpt>
      <trkpt lat="44.9465" lon="5.64993">
        <ele>891.335854</ele>
        <time>2011-02-13T11:14:05.178</time>
      </trkpt>
      <trkpt lat="44.94647" lon="5.64989">
        <ele>892.335838</ele>
        <time>2011-02-13T11:14:07.174</time>
      </trkpt>
      <trkpt lat="44.94645" lon="5.64985">
        <ele>893.335831</ele>
        <time>2011-02-13T11:14:09.172</time>
      </trkpt>
      <trkpt lat="44.94642" lon="5.6498">
        <ele>893.335815</ele>
        <time>2011-02-13T11:14:11.180</time>
      </trkpt>
      <trkpt lat="44.9464" lon="5.64975">
        <ele>893.335804</ele>
        <time>2011-02-13T11:14:13.181</time>
      </trkpt>
      <trkpt lat="44.94637" lon="5.6497">
        <ele>892.335789</ele>
        <time>2011-02-13T11:14:15.175</time>
      </trkpt>
      <trkpt lat="44.94635" lon="5.64965">
        <ele>892.335777</ele>
        <time>2011-02-13T11:14:17.178</time>
      </trkpt>
      <trkpt lat="44.94633" lon="5.6496">
        <ele>892.335766</ele>
        <time>2011-02-13T11:14:19.192</time>
      </trkpt>
      <trkpt lat="44.94632" lon="5.64955">
        <ele>892.335754</ele>
        <time>2011-02-13T11:14:21.173</time>
      </trkpt>
      <trkpt lat="44.9463" lon="5.6495">
        <ele>891.335743</ele>
        <time>2011-02-13T11:14:23.176</time>
      </trkpt>
      <trkpt lat="44.94629" lon="5.64945">
        <ele>891.335735</ele>
        <time>2011-02-13T11:14:25.176</time>
      </trkpt>
      <trkpt lat="44.94627" lon="5.64939">
        <ele>891.335724</ele>
        <time>2011-02-13T11:14:27.180</time>
      </trkpt>
      <trkpt lat="44.94626" lon="5.64934">
        <ele>890.335709</ele>
        <time>2011-02-13T11:14:29.178</time>
      </trkpt>
      <trkpt lat="44.94625" lon="5.64929">
        <ele>891.335701</ele>
        <time>2011-02-13T11:14:31.175</time>
      </trkpt>
      <trkpt lat="44.94623" lon="5.64923">
        <ele>890.335686</ele>
        <time>2011-02-13T11:14:33.205</time>
      </trkpt>
      <trkpt lat="44.94621" lon="5.64918">
        <ele>890.335674</ele>
        <time>2011-02-13T11:14:35.177</time>
      </trkpt>
      <trkpt lat="44.94619" lon="5.64913">
        <ele>891.335663</ele>
        <time>2011-02-13T11:14:37.176</time>
      </trkpt>
      <trkpt lat="44.94617" lon="5.64909">
        <ele>891.335651</ele>
        <time>2011-02-13T11:14:39.174</time>
      </trkpt>
      <trkpt lat="44.94615" lon="5.64904">
        <ele>890.33564</ele>
        <time>2011-02-13T11:14:41.176</time>
      </trkpt>
      <trkpt lat="44.94613" lon="5.64899">
        <ele>890.335625</ele>
        <time>2011-02-13T11:14:43.174</time>
      </trkpt>
      <trkpt lat="44.94611" lon="5.64894">
        <ele>890.335617</ele>
        <time>2011-02-13T11:14:45.173</time>
      </trkpt>
      <trkpt lat="44.94609" lon="5.64889">
        <ele>890.335606</ele>
        <time>2011-02-13T11:14:47.183</time>
      </trkpt>
      <trkpt lat="44.94607" lon="5.64884">
        <ele>890.335594</ele>
        <time>2011-02-13T11:14:49.177</time>
      </trkpt>
      <trkpt lat="44.94604" lon="5.64879">
        <ele>890.335579</ele>
        <time>2011-02-13T11:14:51.175</time>
      </trkpt>
      <trkpt lat="44.94601" lon="5.64874">
        <ele>889.335567</ele>
        <time>2011-02-13T11:14:53.179</time>
      </trkpt>
      <trkpt lat="44.94599" lon="5.64869">
        <ele>889.335548</ele>
        <time>2011-02-13T11:14:55.174</time>
      </trkpt>
      <trkpt lat="44.94597" lon="5.64863">
        <ele>889.335537</ele>
        <time>2011-02-13T11:14:57.173</time>
      </trkpt>
      <trkpt lat="44.94595" lon="5.64857">
        <ele>889.335526</ele>
        <time>2011-02-13T11:14:59.178</time>
      </trkpt>
      <trkpt lat="44.94594" lon="5.64852">
        <ele>889.335518</ele>
        <time>2011-02-13T11:15:01.175</time>
      </trkpt>
      <trkpt lat="44.94593" lon="5.64846">
        <ele>889.335503</ele>
        <time>2011-02-13T11:15:03.171</time>
      </trkpt>
      <trkpt lat="44.94591" lon="5.6484">
        <ele>889.335491</ele>
        <time>2011-02-13T11:15:05.175</time>
      </trkpt>
      <trkpt lat="44.9459" lon="5.64834">
        <ele>889.335484</ele>
        <time>2011-02-13T11:15:07.174</time>
      </trkpt>
      <trkpt lat="44.9459" lon="5.64829">
        <ele>889.335472</ele>
        <time>2011-02-13T11:15:09.173</time>
      </trkpt>
      <trkpt lat="44.94589" lon="5.64823">
        <ele>889.335457</ele>
        <time>2011-02-13T11:15:11.176</time>
      </trkpt>
      <trkpt lat="44.94589" lon="5.64818">
        <ele>889.335453</ele>
        <time>2011-02-13T11:15:13.222</time>
      </trkpt>
      <trkpt lat="44.94588" lon="5.64812">
        <ele>889.335442</ele>
        <time>2011-02-13T11:15:15.171</time>
      </trkpt>
      <trkpt lat="44.94588" lon="5.64807">
        <ele>889.335434</ele>
        <time>2011-02-13T11:15:17.175</time>
      </trkpt>
      <trkpt lat="44.94588" lon="5.64802">
        <ele>889.335426</ele>
        <time>2011-02-13T11:15:19.180</time>
      </trkpt>
      <trkpt lat="44.94587" lon="5.64797">
        <ele>889.335419</ele>
        <time>2011-02-13T11:15:21.177</time>
      </trkpt>
      <trkpt lat="44.94586" lon="5.64792">
        <ele>889.335407</ele>
        <time>2011-02-13T11:15:23.182</time>
      </trkpt>
      <trkpt lat="44.94584" lon="5.64787">
        <ele>888.335392</ele>
        <time>2011-02-13T11:15:25.176</time>
      </trkpt>
      <trkpt lat="44.94583" lon="5.64783">
        <ele>888.335388</ele>
        <time>2011-02-13T11:15:27.175</time>
      </trkpt>
      <trkpt lat="44.94582" lon="5.64778">
        <ele>888.335373</ele>
        <time>2011-02-13T11:15:29.175</time>
      </trkpt>
      <trkpt lat="44.94581" lon="5.64774">
        <ele>889.335369</ele>
        <time>2011-02-13T11:15:31.178</time>
      </trkpt>
      <trkpt lat="44.9458" lon="5.64769">
        <ele>889.335358</ele>
        <time>2011-02-13T11:15:33.177</time>
      </trkpt>
      <trkpt lat="44.94579" lon="5.64765">
        <ele>889.33535</ele>
        <time>2011-02-13T11:15:35.178</time>
      </trkpt>
      <trkpt lat="44.94578" lon="5.64761">
        <ele>890.335342</ele>
        <time>2011-02-13T11:15:37.172</time>
      </trkpt>
      <trkpt lat="44.94577" lon="5.64757">
        <ele>890.335331</ele>
        <time>2011-02-13T11:15:39.175</time>
      </trkpt>
      <trkpt lat="44.94577" lon="5.64752">
        <ele>890.335327</ele>
        <time>2011-02-13T11:15:41.183</time>
      </trkpt>
      <trkpt lat="44.94576" lon="5.64748">
        <ele>890.33532</ele>
        <time>2011-02-13T11:15:43.178</time>
      </trkpt>
      <trkpt lat="44.94575" lon="5.64744">
        <ele>890.335312</ele>
        <time>2011-02-13T11:15:45.175</time>
      </trkpt>
      <trkpt lat="44.94574" lon="5.64739">
        <ele>890.335297</ele>
        <time>2011-02-13T11:15:47.196</time>
      </trkpt>
      <trkpt lat="44.94573" lon="5.64735">
        <ele>890.335297</ele>
        <time>2011-02-13T11:15:49.176</time>
      </trkpt>
      <trkpt lat="44.94572" lon="5.64731">
        <ele>890.335281</ele>
        <time>2011-02-13T11:15:51.175</time>
      </trkpt>
      <trkpt lat="44.94571" lon="5.64727">
        <ele>890.335274</ele>
        <time>2011-02-13T11:15:53.176</time>
      </trkpt>
      <trkpt lat="44.9457" lon="5.64722">
        <ele>890.335266</ele>
        <time>2011-02-13T11:15:55.179</time>
      </trkpt>
      <trkpt lat="44.94569" lon="5.64718">
        <ele>890.335255</ele>
        <time>2011-02-13T11:15:57.173</time>
      </trkpt>
      <trkpt lat="44.94568" lon="5.64715">
        <ele>891.335251</ele>
        <time>2011-02-13T11:15:59.178</time>
      </trkpt>
      <trkpt lat="44.94566" lon="5.64711">
        <ele>891.335239</ele>
        <time>2011-02-13T11:16:01.185</time>
      </trkpt>
      <trkpt lat="44.94564" lon="5.64707">
        <ele>891.335228</ele>
        <time>2011-02-13T11:16:03.171</time>
      </trkpt>
      <trkpt lat="44.9456" lon="5.647">
        <ele>891.335213</ele>
        <time>2011-02-13T11:16:07.175</time>
      </trkpt>
      <trkpt lat="44.94558" lon="5.64696">
        <ele>892.335197</ele>
        <time>2011-02-13T11:16:09.171</time>
      </trkpt>
      <trkpt lat="44.94556" lon="5.64692">
        <ele>893.33519</ele>
        <time>2011-02-13T11:16:11.177</time>
      </trkpt>
      <trkpt lat="44.94554" lon="5.64688">
        <ele>893.335178</ele>
        <time>2011-02-13T11:16:13.176</time>
      </trkpt>
      <trkpt lat="44.94552" lon="5.64683">
        <ele>892.335167</ele>
        <time>2011-02-13T11:16:15.166</time>
      </trkpt>
      <trkpt lat="44.94549" lon="5.64679">
        <ele>893.335155</ele>
        <time>2011-02-13T11:16:17.176</time>
      </trkpt>
      <trkpt lat="44.94547" lon="5.64675">
        <ele>893.335144</ele>
        <time>2011-02-13T11:16:19.174</time>
      </trkpt>
      <trkpt lat="44.94544" lon="5.6467">
        <ele>893.335129</ele>
        <time>2011-02-13T11:16:21.170</time>
      </trkpt>
      <trkpt lat="44.94541" lon="5.64667">
        <ele>893.335117</ele>
        <time>2011-02-13T11:16:23.178</time>
      </trkpt>
      <trkpt lat="44.94539" lon="5.64663">
        <ele>893.335106</ele>
        <time>2011-02-13T11:16:25.173</time>
      </trkpt>
      <trkpt lat="44.94534" lon="5.64655">
        <ele>893.335087</ele>
        <time>2011-02-13T11:16:29.177</time>
      </trkpt>
      <trkpt lat="44.94532" lon="5.6465">
        <ele>893.335068</ele>
        <time>2011-02-13T11:16:31.175</time>
      </trkpt>
      <trkpt lat="44.9453" lon="5.64646">
        <ele>894.33506</ele>
        <time>2011-02-13T11:16:33.171</time>
      </trkpt>
      <trkpt lat="44.94528" lon="5.64642">
        <ele>894.335052</ele>
        <time>2011-02-13T11:16:35.175</time>
      </trkpt>
      <trkpt lat="44.94524" lon="5.64636">
        <ele>894.335033</ele>
        <time>2011-02-13T11:16:38.175</time>
      </trkpt>
      <trkpt lat="44.94522" lon="5.64632">
        <ele>894.335022</ele>
        <time>2011-02-13T11:16:40.181</time>
      </trkpt>
      <trkpt lat="44.9452" lon="5.64627">
        <ele>894.335014</ele>
        <time>2011-02-13T11:16:42.173</time>
      </trkpt>
      <trkpt lat="44.94518" lon="5.64621">
        <ele>894.334995</ele>
        <time>2011-02-13T11:16:44.177</time>
      </trkpt>
      <trkpt lat="44.94516" lon="5.64614">
        <ele>894.33498</ele>
        <time>2011-02-13T11:16:46.176</time>
      </trkpt>
      <trkpt lat="44.94514" lon="5.64607">
        <ele>895.334969</ele>
        <time>2011-02-13T11:16:48.176</time>
      </trkpt>
      <trkpt lat="44.94512" lon="5.64599">
        <ele>895.334953</ele>
        <time>2011-02-13T11:16:50.175</time>
      </trkpt>
      <trkpt lat="44.94511" lon="5.64592">
        <ele>894.334938</ele>
        <time>2011-02-13T11:16:52.178</time>
      </trkpt>
      <trkpt lat="44.9451" lon="5.64584">
        <ele>895.334923</ele>
        <time>2011-02-13T11:16:54.173</time>
      </trkpt>
      <trkpt lat="44.94509" lon="5.64577">
        <ele>895.334911</ele>
        <time>2011-02-13T11:16:56.176</time>
      </trkpt>
      <trkpt lat="44.94508" lon="5.6457">
        <ele>895.3349</ele>
        <time>2011-02-13T11:16:58.173</time>
      </trkpt>
      <trkpt lat="44.94508" lon="5.64564">
        <ele>895.334888</ele>
        <time>2011-02-13T11:17:00.172</time>
      </trkpt>
      <trkpt lat="44.94507" lon="5.64558">
        <ele>895.334877</ele>
        <time>2011-02-13T11:17:02.177</time>
      </trkpt>
      <trkpt lat="44.94507" lon="5.64554">
        <ele>895.334877</ele>
        <time>2011-02-13T11:17:04.184</time>
      </trkpt>
      <trkpt lat="44.94507" lon="5.64551">
        <ele>896.334862</ele>
        <time>2011-02-13T11:17:06.176</time>
      </trkpt>
      <trkpt lat="44.94507" lon="5.64548">
        <ele>896.334862</ele>
        <time>2011-02-13T11:17:08.179</time>
      </trkpt>
      <trkpt lat="44.94506" lon="5.64546">
        <ele>896.334858</ele>
        <time>2011-02-13T11:17:10.176</time>
      </trkpt>
      <trkpt lat="44.94506" lon="5.64543">
        <ele>896.33485</ele>
        <time>2011-02-13T11:17:12.171</time>
      </trkpt>
      <trkpt lat="44.94506" lon="5.6454">
        <ele>896.334846</ele>
        <time>2011-02-13T11:17:14.179</time>
      </trkpt>
      <trkpt lat="44.94505" lon="5.64536">
        <ele>896.334843</ele>
        <time>2011-02-13T11:17:16.178</time>
      </trkpt>
      <trkpt lat="44.94505" lon="5.64533">
        <ele>895.334835</ele>
        <time>2011-02-13T11:17:18.170</time>
      </trkpt>
      <trkpt lat="44.94504" lon="5.6453">
        <ele>895.334831</ele>
        <time>2011-02-13T11:17:20.177</time>
      </trkpt>
      <trkpt lat="44.94504" lon="5.64527">
        <ele>895.334824</ele>
        <time>2011-02-13T11:17:22.172</time>
      </trkpt>
      <trkpt lat="44.94503" lon="5.64525">
        <ele>895.33482</ele>
        <time>2011-02-13T11:17:24.172</time>
      </trkpt>
      <trkpt lat="44.94502" lon="5.64521">
        <ele>895.334808</ele>
        <time>2011-02-13T11:17:27.177</time>
      </trkpt>
      <trkpt lat="44.94501" lon="5.64518">
        <ele>895.334805</ele>
        <time>2011-02-13T11:17:29.176</time>
      </trkpt>
      <trkpt lat="44.94501" lon="5.64516">
        <ele>895.334801</ele>
        <time>2011-02-13T11:17:31.176</time>
      </trkpt>
      <trkpt lat="44.945" lon="5.64513">
        <ele>894.334793</ele>
        <time>2011-02-13T11:17:33.175</time>
      </trkpt>
      <trkpt lat="44.94499" lon="5.64511">
        <ele>895.334789</ele>
        <time>2011-02-13T11:17:35.174</time>
      </trkpt>
      <trkpt lat="44.94499" lon="5.64508">
        <ele>895.334785</ele>
        <time>2011-02-13T11:17:37.174</time>
      </trkpt>
      <trkpt lat="44.94498" lon="5.64506">
        <ele>895.334778</ele>
        <time>2011-02-13T11:17:39.176</time>
      </trkpt>
      <trkpt lat="44.94498" lon="5.64503">
        <ele>895.33477</ele>
        <time>2011-02-13T11:17:41.175</time>
      </trkpt>
      <trkpt lat="44.94498" lon="5.645">
        <ele>892.33477</ele>
        <time>2011-02-13T11:17:43.171</time>
      </trkpt>
      <trkpt lat="44.94497" lon="5.64498">
        <ele>891.334763</ele>
        <time>2011-02-13T11:17:46.178</time>
      </trkpt>
      <trkpt lat="44.94496" lon="5.64494">
        <ele>891.334755</ele>
        <time>2011-02-13T11:17:48.172</time>
      </trkpt>
      <trkpt lat="44.94496" lon="5.64493">
        <ele>891.334751</ele>
        <time>2011-02-13T11:17:50.194</time>
      </trkpt>
      <trkpt lat="44.94495" lon="5.64494">
        <ele>890.334755</ele>
        <time>2011-02-13T11:17:53.173</time>
      </trkpt>
      <trkpt lat="44.94494" lon="5.64494">
        <ele>889.334747</ele>
        <time>2011-02-13T11:17:56.174</time>
      </trkpt>
      <trkpt lat="44.94492" lon="5.64494">
        <ele>886.334743</ele>
        <time>2011-02-13T11:17:59.180</time>
      </trkpt>
      <trkpt lat="44.94492" lon="5.64493">
        <ele>880.334747</ele>
        <time>2011-02-13T11:18:03.173</time>
      </trkpt>
      <trkpt lat="44.94505" lon="5.64501">
        <ele>888.334785</ele>
        <time>2011-02-13T11:18:13.177</time>
      </trkpt>
      <trkpt lat="44.94506" lon="5.64502">
        <ele>887.334789</ele>
        <time>2011-02-13T11:18:15.165</time>
      </trkpt>
      <trkpt lat="44.94508" lon="5.64505">
        <ele>890.334797</ele>
        <time>2011-02-13T11:18:32.174</time>
      </trkpt>
      <trkpt lat="44.94509" lon="5.64505">
        <ele>889.334797</ele>
        <time>2011-02-13T11:18:34.168</time>
      </trkpt>
      <trkpt lat="44.9451" lon="5.64506">
        <ele>889.334801</ele>
        <time>2011-02-13T11:18:36.172</time>
      </trkpt>
      <trkpt lat="44.94512" lon="5.64506">
        <ele>888.334805</ele>
        <time>2011-02-13T11:18:38.176</time>
      </trkpt>
      <trkpt lat="44.94514" lon="5.64506">
        <ele>888.334816</ele>
        <time>2011-02-13T11:18:40.177</time>
      </trkpt>
      <trkpt lat="44.94516" lon="5.64503">
        <ele>888.334808</ele>
        <time>2011-02-13T11:18:45.175</time>
      </trkpt>
      <trkpt lat="44.94515" lon="5.645">
        <ele>889.334805</ele>
        <time>2011-02-13T11:18:47.175</time>
      </trkpt>
      <trkpt lat="44.94514" lon="5.64498">
        <ele>889.334801</ele>
        <time>2011-02-13T11:18:49.176</time>
      </trkpt>
      <trkpt lat="44.94514" lon="5.64494">
        <ele>889.334793</ele>
        <time>2011-02-13T11:18:51.175</time>
      </trkpt>
      <trkpt lat="44.94512" lon="5.64489">
        <ele>890.334785</ele>
        <time>2011-02-13T11:18:54.170</time>
      </trkpt>
      <trkpt lat="44.94511" lon="5.64486">
        <ele>891.334774</ele>
        <time>2011-02-13T11:18:56.175</time>
      </trkpt>
      <trkpt lat="44.94509" lon="5.64482">
        <ele>892.334763</ele>
        <time>2011-02-13T11:18:58.173</time>
      </trkpt>
      <trkpt lat="44.94508" lon="5.64479">
        <ele>892.334759</ele>
        <time>2011-02-13T11:19:00.172</time>
      </trkpt>
      <trkpt lat="44.94506" lon="5.64476">
        <ele>892.334751</ele>
        <time>2011-02-13T11:19:02.215</time>
      </trkpt>
      <trkpt lat="44.94504" lon="5.64472">
        <ele>893.33474</ele>
        <time>2011-02-13T11:19:05.195</time>
      </trkpt>
      <trkpt lat="44.94503" lon="5.64469">
        <ele>893.334732</ele>
        <time>2011-02-13T11:19:07.173</time>
      </trkpt>
      <trkpt lat="44.94501" lon="5.64466">
        <ele>893.334728</ele>
        <time>2011-02-13T11:19:09.172</time>
      </trkpt>
      <trkpt lat="44.945" lon="5.64463">
        <ele>893.334717</ele>
        <time>2011-02-13T11:19:11.175</time>
      </trkpt>
      <trkpt lat="44.94499" lon="5.6446">
        <ele>894.334705</ele>
        <time>2011-02-13T11:19:13.172</time>
      </trkpt>
      <trkpt lat="44.94497" lon="5.64456">
        <ele>893.334698</ele>
        <time>2011-02-13T11:19:16.176</time>
      </trkpt>
      <trkpt lat="44.94496" lon="5.64453">
        <ele>893.334694</ele>
        <time>2011-02-13T11:19:18.171</time>
      </trkpt>
      <trkpt lat="44.94495" lon="5.6445">
        <ele>893.334682</ele>
        <time>2011-02-13T11:19:20.175</time>
      </trkpt>
      <trkpt lat="44.9449" lon="5.6444">
        <ele>894.33466</ele>
        <time>2011-02-13T11:19:27.176</time>
      </trkpt>
      <trkpt lat="44.94489" lon="5.64436">
        <ele>894.334656</ele>
        <time>2011-02-13T11:19:29.178</time>
      </trkpt>
      <trkpt lat="44.94488" lon="5.64433">
        <ele>894.334644</ele>
        <time>2011-02-13T11:19:31.173</time>
      </trkpt>
      <trkpt lat="44.94487" lon="5.6443">
        <ele>894.334637</ele>
        <time>2011-02-13T11:19:33.174</time>
      </trkpt>
      <trkpt lat="44.94485" lon="5.64426">
        <ele>895.334629</ele>
        <time>2011-02-13T11:19:36.174</time>
      </trkpt>
      <trkpt lat="44.94483" lon="5.64423">
        <ele>895.334618</ele>
        <time>2011-02-13T11:19:38.177</time>
      </trkpt>
      <trkpt lat="44.94482" lon="5.6442">
        <ele>896.334614</ele>
        <time>2011-02-13T11:19:40.174</time>
      </trkpt>
      <trkpt lat="44.9448" lon="5.64417">
        <ele>896.334602</ele>
        <time>2011-02-13T11:19:42.171</time>
      </trkpt>
      <trkpt lat="44.94476" lon="5.64407">
        <ele>896.334579</ele>
        <time>2011-02-13T11:19:49.176</time>
      </trkpt>
      <trkpt lat="44.94475" lon="5.64405">
        <ele>897.334572</ele>
        <time>2011-02-13T11:19:51.174</time>
      </trkpt>
      <trkpt lat="44.94474" lon="5.64403">
        <ele>897.334572</ele>
        <time>2011-02-13T11:19:53.174</time>
      </trkpt>
      <trkpt lat="44.94473" lon="5.64401">
        <ele>897.33456</ele>
        <time>2011-02-13T11:19:55.173</time>
      </trkpt>
      <trkpt lat="44.94469" lon="5.64393">
        <ele>898.334541</ele>
        <time>2011-02-13T11:20:02.175</time>
      </trkpt>
      <trkpt lat="44.94468" lon="5.64391">
        <ele>898.334538</ele>
        <time>2011-02-13T11:20:04.166</time>
      </trkpt>
      <trkpt lat="44.94467" lon="5.64388">
        <ele>898.33453</ele>
        <time>2011-02-13T11:20:06.172</time>
      </trkpt>
      <trkpt lat="44.94466" lon="5.64386">
        <ele>899.334526</ele>
        <time>2011-02-13T11:20:08.176</time>
      </trkpt>
      <trkpt lat="44.94462" lon="5.64378">
        <ele>898.334503</ele>
        <time>2011-02-13T11:20:13.169</time>
      </trkpt>
      <trkpt lat="44.94461" lon="5.64375">
        <ele>899.334499</ele>
        <time>2011-02-13T11:20:15.174</time>
      </trkpt>
      <trkpt lat="44.9446" lon="5.64371">
        <ele>899.334488</ele>
        <time>2011-02-13T11:20:17.174</time>
      </trkpt>
      <trkpt lat="44.94458" lon="5.64367">
        <ele>899.33448</ele>
        <time>2011-02-13T11:20:19.175</time>
      </trkpt>
      <trkpt lat="44.94454" lon="5.64356">
        <ele>899.334454</ele>
        <time>2011-02-13T11:20:26.179</time>
      </trkpt>
      <trkpt lat="44.94453" lon="5.64353">
        <ele>900.334446</ele>
        <time>2011-02-13T11:20:28.173</time>
      </trkpt>
      <trkpt lat="44.94451" lon="5.6435">
        <ele>901.334438</ele>
        <time>2011-02-13T11:20:30.177</time>
      </trkpt>
      <trkpt lat="44.9445" lon="5.64347">
        <ele>901.334427</ele>
        <time>2011-02-13T11:20:32.180</time>
      </trkpt>
      <trkpt lat="44.94448" lon="5.64344">
        <ele>902.334423</ele>
        <time>2011-02-13T11:20:34.176</time>
      </trkpt>
      <trkpt lat="44.94446" lon="5.64342">
        <ele>902.334415</ele>
        <time>2011-02-13T11:20:36.185</time>
      </trkpt>
      <trkpt lat="44.94445" lon="5.64339">
        <ele>902.334404</ele>
        <time>2011-02-13T11:20:38.174</time>
      </trkpt>
      <trkpt lat="44.94443" lon="5.64335">
        <ele>902.334396</ele>
        <time>2011-02-13T11:20:41.175</time>
      </trkpt>
      <trkpt lat="44.94441" lon="5.64332">
        <ele>902.334389</ele>
        <time>2011-02-13T11:20:43.175</time>
      </trkpt>
      <trkpt lat="44.9444" lon="5.6433">
        <ele>903.334381</ele>
        <time>2011-02-13T11:20:45.173</time>
      </trkpt>
      <trkpt lat="44.94438" lon="5.64328">
        <ele>903.334373</ele>
        <time>2011-02-13T11:20:47.171</time>
      </trkpt>
      <trkpt lat="44.94436" lon="5.64326">
        <ele>903.334366</ele>
        <time>2011-02-13T11:20:49.177</time>
      </trkpt>
      <trkpt lat="44.94434" lon="5.64324">
        <ele>903.334358</ele>
        <time>2011-02-13T11:20:51.171</time>
      </trkpt>
      <trkpt lat="44.94432" lon="5.64321">
        <ele>903.334354</ele>
        <time>2011-02-13T11:20:53.176</time>
      </trkpt>
      <trkpt lat="44.9443" lon="5.64319">
        <ele>903.334343</ele>
        <time>2011-02-13T11:20:55.174</time>
      </trkpt>
      <trkpt lat="44.94427" lon="5.64317">
        <ele>903.334332</ele>
        <time>2011-02-13T11:20:57.169</time>
      </trkpt>
      <trkpt lat="44.94425" lon="5.64314">
        <ele>903.334328</ele>
        <time>2011-02-13T11:20:59.177</time>
      </trkpt>
      <trkpt lat="44.94423" lon="5.6431">
        <ele>903.334312</ele>
        <time>2011-02-13T11:21:01.172</time>
      </trkpt>
      <trkpt lat="44.9442" lon="5.64306">
        <ele>903.334305</ele>
        <time>2011-02-13T11:21:03.172</time>
      </trkpt>
      <trkpt lat="44.94417" lon="5.64303">
        <ele>903.33429</ele>
        <time>2011-02-13T11:21:05.176</time>
      </trkpt>
      <trkpt lat="44.94413" lon="5.643">
        <ele>904.334282</ele>
        <time>2011-02-13T11:21:07.175</time>
      </trkpt>
      <trkpt lat="44.94409" lon="5.64297">
        <ele>903.334267</ele>
        <time>2011-02-13T11:21:09.176</time>
      </trkpt>
      <trkpt lat="44.94405" lon="5.64294">
        <ele>902.334251</ele>
        <time>2011-02-13T11:21:11.173</time>
      </trkpt>
      <trkpt lat="44.94402" lon="5.64291">
        <ele>902.33424</ele>
        <time>2011-02-13T11:21:13.169</time>
      </trkpt>
      <trkpt lat="44.94398" lon="5.64289">
        <ele>902.334229</ele>
        <time>2011-02-13T11:21:15.172</time>
      </trkpt>
      <trkpt lat="44.94394" lon="5.64286">
        <ele>902.334221</ele>
        <time>2011-02-13T11:21:17.176</time>
      </trkpt>
      <trkpt lat="44.9439" lon="5.64284">
        <ele>902.334202</ele>
        <time>2011-02-13T11:21:19.171</time>
      </trkpt>
      <trkpt lat="44.94386" lon="5.64282">
        <ele>902.33419</ele>
        <time>2011-02-13T11:21:21.169</time>
      </trkpt>
      <trkpt lat="44.94382" lon="5.64281">
        <ele>902.334183</ele>
        <time>2011-02-13T11:21:23.178</time>
      </trkpt>
      <trkpt lat="44.94377" lon="5.6428">
        <ele>902.334167</ele>
        <time>2011-02-13T11:21:25.177</time>
      </trkpt>
      <trkpt lat="44.94373" lon="5.6428">
        <ele>902.33416</ele>
        <time>2011-02-13T11:21:27.178</time>
      </trkpt>
      <trkpt lat="44.94368" lon="5.6428">
        <ele>902.334152</ele>
        <time>2011-02-13T11:21:29.177</time>
      </trkpt>
      <trkpt lat="44.94363" lon="5.6428">
        <ele>902.334141</ele>
        <time>2011-02-13T11:21:31.175</time>
      </trkpt>
      <trkpt lat="44.94359" lon="5.6428">
        <ele>902.334129</ele>
        <time>2011-02-13T11:21:33.175</time>
      </trkpt>
      <trkpt lat="44.94355" lon="5.64281">
        <ele>902.334126</ele>
        <time>2011-02-13T11:21:35.173</time>
      </trkpt>
      <trkpt lat="44.94349" lon="5.64282">
        <ele>902.33411</ele>
        <time>2011-02-13T11:21:38.180</time>
      </trkpt>
      <trkpt lat="44.94344" lon="5.64283">
        <ele>902.334103</ele>
        <time>2011-02-13T11:21:40.174</time>
      </trkpt>
      <trkpt lat="44.9434" lon="5.64284">
        <ele>902.334095</ele>
        <time>2011-02-13T11:21:42.173</time>
      </trkpt>
      <trkpt lat="44.94336" lon="5.64285">
        <ele>903.334087</ele>
        <time>2011-02-13T11:21:44.173</time>
      </trkpt>
      <trkpt lat="44.94331" lon="5.64286">
        <ele>903.334076</ele>
        <time>2011-02-13T11:21:46.177</time>
      </trkpt>
      <trkpt lat="44.94326" lon="5.64286">
        <ele>903.334072</ele>
        <time>2011-02-13T11:21:48.171</time>
      </trkpt>
      <trkpt lat="44.94322" lon="5.64288">
        <ele>903.334061</ele>
        <time>2011-02-13T11:21:50.178</time>
      </trkpt>
      <trkpt lat="44.94318" lon="5.64289">
        <ele>903.334053</ele>
        <time>2011-02-13T11:21:52.174</time>
      </trkpt>
      <trkpt lat="44.94314" lon="5.6429">
        <ele>904.334049</ele>
        <time>2011-02-13T11:21:54.173</time>
      </trkpt>
      <trkpt lat="44.94303" lon="5.64294">
        <ele>904.33403</ele>
        <time>2011-02-13T11:21:59.179</time>
      </trkpt>
      <trkpt lat="44.94299" lon="5.64295">
        <ele>905.334023</ele>
        <time>2011-02-13T11:22:01.177</time>
      </trkpt>
      <trkpt lat="44.94295" lon="5.64295">
        <ele>905.334011</ele>
        <time>2011-02-13T11:22:03.172</time>
      </trkpt>
      <trkpt lat="44.9429" lon="5.64295">
        <ele>905.334007</ele>
        <time>2011-02-13T11:22:05.177</time>
      </trkpt>
      <trkpt lat="44.94286" lon="5.64294">
        <ele>906.333992</ele>
        <time>2011-02-13T11:22:07.179</time>
      </trkpt>
      <trkpt lat="44.94281" lon="5.64294">
        <ele>906.333984</ele>
        <time>2011-02-13T11:22:09.170</time>
      </trkpt>
      <trkpt lat="44.94276" lon="5.64292">
        <ele>906.333965</ele>
        <time>2011-02-13T11:22:11.174</time>
      </trkpt>
      <trkpt lat="44.94271" lon="5.64291">
        <ele>906.333954</ele>
        <time>2011-02-13T11:22:13.187</time>
      </trkpt>
      <trkpt lat="44.94265" lon="5.64289">
        <ele>906.333939</ele>
        <time>2011-02-13T11:22:15.173</time>
      </trkpt>
      <trkpt lat="44.9426" lon="5.64287">
        <ele>906.333927</ele>
        <time>2011-02-13T11:22:17.176</time>
      </trkpt>
      <trkpt lat="44.94253" lon="5.64284">
        <ele>905.333904</ele>
        <time>2011-02-13T11:22:20.177</time>
      </trkpt>
      <trkpt lat="44.94247" lon="5.64281">
        <ele>906.333889</ele>
        <time>2011-02-13T11:22:22.172</time>
      </trkpt>
      <trkpt lat="44.94243" lon="5.64279">
        <ele>906.333874</ele>
        <time>2011-02-13T11:22:24.171</time>
      </trkpt>
      <trkpt lat="44.94239" lon="5.64277">
        <ele>907.333866</ele>
        <time>2011-02-13T11:22:26.176</time>
      </trkpt>
      <trkpt lat="44.94234" lon="5.64275">
        <ele>908.333851</ele>
        <time>2011-02-13T11:22:28.175</time>
      </trkpt>
      <trkpt lat="44.9423" lon="5.64272">
        <ele>909.333839</ele>
        <time>2011-02-13T11:22:30.180</time>
      </trkpt>
      <trkpt lat="44.94225" lon="5.6427">
        <ele>910.333824</ele>
        <time>2011-02-13T11:22:32.177</time>
      </trkpt>
      <trkpt lat="44.9422" lon="5.64268">
        <ele>911.333809</ele>
        <time>2011-02-13T11:22:34.172</time>
      </trkpt>
      <trkpt lat="44.94215" lon="5.64267">
        <ele>911.333797</ele>
        <time>2011-02-13T11:22:36.171</time>
      </trkpt>
      <trkpt lat="44.9421" lon="5.64265">
        <ele>911.333782</ele>
        <time>2011-02-13T11:22:38.176</time>
      </trkpt>
      <trkpt lat="44.94204" lon="5.64264">
        <ele>911.333771</ele>
        <time>2011-02-13T11:22:40.170</time>
      </trkpt>
      <trkpt lat="44.94199" lon="5.64263">
        <ele>911.333755</ele>
        <time>2011-02-13T11:22:42.169</time>
      </trkpt>
      <trkpt lat="44.94194" lon="5.64262">
        <ele>911.333748</ele>
        <time>2011-02-13T11:22:44.173</time>
      </trkpt>
      <trkpt lat="44.94189" lon="5.64261">
        <ele>911.333733</ele>
        <time>2011-02-13T11:22:46.178</time>
      </trkpt>
      <trkpt lat="44.94184" lon="5.6426">
        <ele>913.333717</ele>
        <time>2011-02-13T11:22:48.174</time>
      </trkpt>
      <trkpt lat="44.94179" lon="5.64258">
        <ele>913.333706</ele>
        <time>2011-02-13T11:22:50.174</time>
      </trkpt>
      <trkpt lat="44.94173" lon="5.64257">
        <ele>913.333691</ele>
        <time>2011-02-13T11:22:52.173</time>
      </trkpt>
      <trkpt lat="44.94168" lon="5.64255">
        <ele>913.333679</ele>
        <time>2011-02-13T11:22:54.170</time>
      </trkpt>
      <trkpt lat="44.94162" lon="5.64253">
        <ele>913.33366</ele>
        <time>2011-02-13T11:22:56.178</time>
      </trkpt>
      <trkpt lat="44.94155" lon="5.64251">
        <ele>914.333645</ele>
        <time>2011-02-13T11:22:58.172</time>
      </trkpt>
      <trkpt lat="44.94149" lon="5.64249">
        <ele>914.333626</ele>
        <time>2011-02-13T11:23:00.172</time>
      </trkpt>
      <trkpt lat="44.94143" lon="5.64247">
        <ele>914.333611</ele>
        <time>2011-02-13T11:23:02.175</time>
      </trkpt>
      <trkpt lat="44.94138" lon="5.64245">
        <ele>913.333595</ele>
        <time>2011-02-13T11:23:04.174</time>
      </trkpt>
      <trkpt lat="44.94132" lon="5.64243">
        <ele>912.333576</ele>
        <time>2011-02-13T11:23:06.171</time>
      </trkpt>
      <trkpt lat="44.94126" lon="5.64242">
        <ele>912.333565</ele>
        <time>2011-02-13T11:23:08.171</time>
      </trkpt>
      <trkpt lat="44.9412" lon="5.6424">
        <ele>911.333546</ele>
        <time>2011-02-13T11:23:10.172</time>
      </trkpt>
      <trkpt lat="44.94114" lon="5.64239">
        <ele>910.333534</ele>
        <time>2011-02-13T11:23:12.171</time>
      </trkpt>
      <trkpt lat="44.94108" lon="5.64238">
        <ele>910.333519</ele>
        <time>2011-02-13T11:23:14.184</time>
      </trkpt>
      <trkpt lat="44.94102" lon="5.64236">
        <ele>909.333504</ele>
        <time>2011-02-13T11:23:16.175</time>
      </trkpt>
      <trkpt lat="44.94096" lon="5.64235">
        <ele>909.333488</ele>
        <time>2011-02-13T11:23:18.170</time>
      </trkpt>
      <trkpt lat="44.9409" lon="5.64234">
        <ele>908.333473</ele>
        <time>2011-02-13T11:23:20.179</time>
      </trkpt>
      <trkpt lat="44.94084" lon="5.64234">
        <ele>908.333462</ele>
        <time>2011-02-13T11:23:22.173</time>
      </trkpt>
      <trkpt lat="44.94079" lon="5.64233">
        <ele>907.33345</ele>
        <time>2011-02-13T11:23:24.172</time>
      </trkpt>
      <trkpt lat="44.94073" lon="5.64234">
        <ele>907.333435</ele>
        <time>2011-02-13T11:23:26.177</time>
      </trkpt>
      <trkpt lat="44.94068" lon="5.64234">
        <ele>907.333424</ele>
        <time>2011-02-13T11:23:28.175</time>
      </trkpt>
      <trkpt lat="44.94063" lon="5.64235">
        <ele>906.333416</ele>
        <time>2011-02-13T11:23:30.193</time>
      </trkpt>
      <trkpt lat="44.94058" lon="5.64236">
        <ele>906.333408</ele>
        <time>2011-02-13T11:23:32.178</time>
      </trkpt>
      <trkpt lat="44.94053" lon="5.64236">
        <ele>906.333393</ele>
        <time>2011-02-13T11:23:34.173</time>
      </trkpt>
      <trkpt lat="44.94048" lon="5.64236">
        <ele>905.333385</ele>
        <time>2011-02-13T11:23:36.169</time>
      </trkpt>
      <trkpt lat="44.94042" lon="5.64236">
        <ele>905.333374</ele>
        <time>2011-02-13T11:23:38.165</time>
      </trkpt>
      <trkpt lat="44.94037" lon="5.64236">
        <ele>904.333359</ele>
        <time>2011-02-13T11:23:40.171</time>
      </trkpt>
      <trkpt lat="44.94032" lon="5.64235">
        <ele>903.333351</ele>
        <time>2011-02-13T11:23:42.170</time>
      </trkpt>
      <trkpt lat="44.94026" lon="5.64234">
        <ele>902.333336</ele>
        <time>2011-02-13T11:23:44.178</time>
      </trkpt>
      <trkpt lat="44.9402" lon="5.64233">
        <ele>901.333321</ele>
        <time>2011-02-13T11:23:46.173</time>
      </trkpt>
      <trkpt lat="44.94014" lon="5.64232">
        <ele>901.333305</ele>
        <time>2011-02-13T11:23:48.181</time>
      </trkpt>
      <trkpt lat="44.94008" lon="5.64231">
        <ele>901.333294</ele>
        <time>2011-02-13T11:23:50.185</time>
      </trkpt>
      <trkpt lat="44.94002" lon="5.6423">
        <ele>901.333279</ele>
        <time>2011-02-13T11:23:52.175</time>
      </trkpt>
      <trkpt lat="44.93996" lon="5.64229">
        <ele>900.333263</ele>
        <time>2011-02-13T11:23:54.170</time>
      </trkpt>
      <trkpt lat="44.9399" lon="5.64227">
        <ele>901.333248</ele>
        <time>2011-02-13T11:23:56.175</time>
      </trkpt>
      <trkpt lat="44.93985" lon="5.64226">
        <ele>900.333233</ele>
        <time>2011-02-13T11:23:58.174</time>
      </trkpt>
      <trkpt lat="44.9398" lon="5.64224">
        <ele>900.333218</ele>
        <time>2011-02-13T11:24:00.172</time>
      </trkpt>
      <trkpt lat="44.93975" lon="5.64223">
        <ele>900.333206</ele>
        <time>2011-02-13T11:24:02.172</time>
      </trkpt>
      <trkpt lat="44.93971" lon="5.64221">
        <ele>900.333195</ele>
        <time>2011-02-13T11:24:04.171</time>
      </trkpt>
      <trkpt lat="44.93964" lon="5.64219">
        <ele>899.333176</ele>
        <time>2011-02-13T11:24:07.172</time>
      </trkpt>
      <trkpt lat="44.93961" lon="5.64217">
        <ele>900.333168</ele>
        <time>2011-02-13T11:24:09.171</time>
      </trkpt>
      <trkpt lat="44.93957" lon="5.64216">
        <ele>899.333157</ele>
        <time>2011-02-13T11:24:11.175</time>
      </trkpt>
      <trkpt lat="44.93952" lon="5.64215">
        <ele>899.333141</ele>
        <time>2011-02-13T11:24:13.175</time>
      </trkpt>
      <trkpt lat="44.93947" lon="5.64214">
        <ele>900.33313</ele>
        <time>2011-02-13T11:24:15.177</time>
      </trkpt>
      <trkpt lat="44.93942" lon="5.64213">
        <ele>900.333122</ele>
        <time>2011-02-13T11:24:17.174</time>
      </trkpt>
      <trkpt lat="44.93937" lon="5.64212">
        <ele>900.333103</ele>
        <time>2011-02-13T11:24:19.200</time>
      </trkpt>
      <trkpt lat="44.93932" lon="5.64211">
        <ele>900.333092</ele>
        <time>2011-02-13T11:24:21.172</time>
      </trkpt>
      <trkpt lat="44.93928" lon="5.64211">
        <ele>900.333088</ele>
        <time>2011-02-13T11:24:23.175</time>
      </trkpt>
      <trkpt lat="44.93923" lon="5.6421">
        <ele>900.333069</ele>
        <time>2011-02-13T11:24:25.171</time>
      </trkpt>
      <trkpt lat="44.93918" lon="5.6421">
        <ele>900.333061</ele>
        <time>2011-02-13T11:24:27.170</time>
      </trkpt>
      <trkpt lat="44.93913" lon="5.6421">
        <ele>901.333054</ele>
        <time>2011-02-13T11:24:29.178</time>
      </trkpt>
      <trkpt lat="44.93909" lon="5.64211">
        <ele>900.333046</ele>
        <time>2011-02-13T11:24:31.173</time>
      </trkpt>
      <trkpt lat="44.93905" lon="5.64212">
        <ele>900.333038</ele>
        <time>2011-02-13T11:24:33.177</time>
      </trkpt>
      <trkpt lat="44.939" lon="5.64214">
        <ele>901.333027</ele>
        <time>2011-02-13T11:24:35.171</time>
      </trkpt>
      <trkpt lat="44.93895" lon="5.64215">
        <ele>900.333019</ele>
        <time>2011-02-13T11:24:37.171</time>
      </trkpt>
      <trkpt lat="44.9389" lon="5.64216">
        <ele>900.333008</ele>
        <time>2011-02-13T11:24:39.162</time>
      </trkpt>
      <trkpt lat="44.93884" lon="5.64216">
        <ele>900.332996</ele>
        <time>2011-02-13T11:24:41.174</time>
      </trkpt>
      <trkpt lat="44.93878" lon="5.64217">
        <ele>900.332985</ele>
        <time>2011-02-13T11:24:43.173</time>
      </trkpt>
      <trkpt lat="44.93873" lon="5.64217">
        <ele>899.332973</ele>
        <time>2011-02-13T11:24:45.172</time>
      </trkpt>
      <trkpt lat="44.93866" lon="5.64218">
        <ele>898.332966</ele>
        <time>2011-02-13T11:24:47.182</time>
      </trkpt>
      <trkpt lat="44.9386" lon="5.64218">
        <ele>898.332947</ele>
        <time>2011-02-13T11:24:49.175</time>
      </trkpt>
      <trkpt lat="44.93854" lon="5.64218">
        <ele>897.332935</ele>
        <time>2011-02-13T11:24:51.170</time>
      </trkpt>
      <trkpt lat="44.93848" lon="5.64218">
        <ele>897.332924</ele>
        <time>2011-02-13T11:24:53.203</time>
      </trkpt>
      <trkpt lat="44.93842" lon="5.64218">
        <ele>896.332909</ele>
        <time>2011-02-13T11:24:55.174</time>
      </trkpt>
      <trkpt lat="44.93837" lon="5.64218">
        <ele>896.332897</ele>
        <time>2011-02-13T11:24:57.173</time>
      </trkpt>
      <trkpt lat="44.93832" lon="5.64217">
        <ele>896.332886</ele>
        <time>2011-02-13T11:24:59.176</time>
      </trkpt>
      <trkpt lat="44.93827" lon="5.64217">
        <ele>896.332874</ele>
        <time>2011-02-13T11:25:01.171</time>
      </trkpt>
      <trkpt lat="44.93822" lon="5.64217">
        <ele>895.332863</ele>
        <time>2011-02-13T11:25:03.170</time>
      </trkpt>
      <trkpt lat="44.93817" lon="5.64217">
        <ele>895.332855</ele>
        <time>2011-02-13T11:25:05.175</time>
      </trkpt>
      <trkpt lat="44.93812" lon="5.64217">
        <ele>894.33284</ele>
        <time>2011-02-13T11:25:07.214</time>
      </trkpt>
      <trkpt lat="44.93807" lon="5.64217">
        <ele>893.332832</ele>
        <time>2011-02-13T11:25:09.170</time>
      </trkpt>
      <trkpt lat="44.93802" lon="5.64217">
        <ele>893.332821</ele>
        <time>2011-02-13T11:25:11.170</time>
      </trkpt>
      <trkpt lat="44.93797" lon="5.64217">
        <ele>892.332809</ele>
        <time>2011-02-13T11:25:13.171</time>
      </trkpt>
      <trkpt lat="44.93792" lon="5.64217">
        <ele>891.332802</ele>
        <time>2011-02-13T11:25:15.170</time>
      </trkpt>
      <trkpt lat="44.93787" lon="5.64217">
        <ele>891.332787</ele>
        <time>2011-02-13T11:25:17.175</time>
      </trkpt>
      <trkpt lat="44.93781" lon="5.64217">
        <ele>889.332775</ele>
        <time>2011-02-13T11:25:19.173</time>
      </trkpt>
      <trkpt lat="44.93775" lon="5.64217">
        <ele>889.33276</ele>
        <time>2011-02-13T11:25:21.168</time>
      </trkpt>
      <trkpt lat="44.93769" lon="5.64216">
        <ele>888.332748</ele>
        <time>2011-02-13T11:25:23.172</time>
      </trkpt>
      <trkpt lat="44.93763" lon="5.64216">
        <ele>888.332733</ele>
        <time>2011-02-13T11:25:25.171</time>
      </trkpt>
      <trkpt lat="44.93757" lon="5.64217">
        <ele>887.332722</ele>
        <time>2011-02-13T11:25:27.172</time>
      </trkpt>
      <trkpt lat="44.93751" lon="5.64217">
        <ele>887.33271</ele>
        <time>2011-02-13T11:25:29.174</time>
      </trkpt>
      <trkpt lat="44.93746" lon="5.64217">
        <ele>887.332695</ele>
        <time>2011-02-13T11:25:31.174</time>
      </trkpt>
      <trkpt lat="44.9374" lon="5.64217">
        <ele>887.332684</ele>
        <time>2011-02-13T11:25:33.170</time>
      </trkpt>
      <trkpt lat="44.93735" lon="5.64217">
        <ele>887.332672</ele>
        <time>2011-02-13T11:25:35.178</time>
      </trkpt>
      <trkpt lat="44.9373" lon="5.64217">
        <ele>887.332664</ele>
        <time>2011-02-13T11:25:37.176</time>
      </trkpt>
      <trkpt lat="44.93726" lon="5.64217">
        <ele>887.332653</ele>
        <time>2011-02-13T11:25:39.171</time>
      </trkpt>
      <trkpt lat="44.93721" lon="5.64217">
        <ele>886.332642</ele>
        <time>2011-02-13T11:25:41.174</time>
      </trkpt>
      <trkpt lat="44.93716" lon="5.64216">
        <ele>886.332634</ele>
        <time>2011-02-13T11:25:43.174</time>
      </trkpt>
      <trkpt lat="44.93712" lon="5.64216">
        <ele>886.332623</ele>
        <time>2011-02-13T11:25:45.169</time>
      </trkpt>
      <trkpt lat="44.93707" lon="5.64216">
        <ele>886.332615</ele>
        <time>2011-02-13T11:25:47.175</time>
      </trkpt>
      <trkpt lat="44.93702" lon="5.64216">
        <ele>886.3326</ele>
        <time>2011-02-13T11:25:49.177</time>
      </trkpt>
      <trkpt lat="44.93697" lon="5.64216">
        <ele>886.332592</ele>
        <time>2011-02-13T11:25:51.170</time>
      </trkpt>
      <trkpt lat="44.93693" lon="5.64217">
        <ele>885.332581</ele>
        <time>2011-02-13T11:25:53.175</time>
      </trkpt>
      <trkpt lat="44.93688" lon="5.64217">
        <ele>885.332573</ele>
        <time>2011-02-13T11:25:55.191</time>
      </trkpt>
      <trkpt lat="44.93683" lon="5.64217">
        <ele>885.332558</ele>
        <time>2011-02-13T11:25:57.173</time>
      </trkpt>
      <trkpt lat="44.93677" lon="5.64218">
        <ele>885.332546</ele>
        <time>2011-02-13T11:25:59.173</time>
      </trkpt>
      <trkpt lat="44.93671" lon="5.64218">
        <ele>885.332535</ele>
        <time>2011-02-13T11:26:01.171</time>
      </trkpt>
      <trkpt lat="44.93665" lon="5.64218">
        <ele>885.332523</ele>
        <time>2011-02-13T11:26:03.171</time>
      </trkpt>
      <trkpt lat="44.93659" lon="5.64218">
        <ele>885.332508</ele>
        <time>2011-02-13T11:26:05.171</time>
      </trkpt>
      <trkpt lat="44.93653" lon="5.64218">
        <ele>885.332497</ele>
        <time>2011-02-13T11:26:07.171</time>
      </trkpt>
      <trkpt lat="44.93646" lon="5.64219">
        <ele>884.332481</ele>
        <time>2011-02-13T11:26:10.175</time>
      </trkpt>
      <trkpt lat="44.93641" lon="5.64219">
        <ele>884.332474</ele>
        <time>2011-02-13T11:26:12.171</time>
      </trkpt>
      <trkpt lat="44.93636" lon="5.64219">
        <ele>884.332466</ele>
        <time>2011-02-13T11:26:14.174</time>
      </trkpt>
      <trkpt lat="44.93631" lon="5.64219">
        <ele>884.332451</ele>
        <time>2011-02-13T11:26:16.173</time>
      </trkpt>
      <trkpt lat="44.93627" lon="5.64218">
        <ele>884.332439</ele>
        <time>2011-02-13T11:26:18.169</time>
      </trkpt>
      <trkpt lat="44.93622" lon="5.64219">
        <ele>883.332428</ele>
        <time>2011-02-13T11:26:20.180</time>
      </trkpt>
      <trkpt lat="44.93616" lon="5.64219">
        <ele>884.33242</ele>
        <time>2011-02-13T11:26:22.172</time>
      </trkpt>
      <trkpt lat="44.9361" lon="5.64219">
        <ele>883.332409</ele>
        <time>2011-02-13T11:26:24.170</time>
      </trkpt>
      <trkpt lat="44.93605" lon="5.64218">
        <ele>883.33239</ele>
        <time>2011-02-13T11:26:26.174</time>
      </trkpt>
      <trkpt lat="44.93599" lon="5.64218">
        <ele>883.332378</ele>
        <time>2011-02-13T11:26:28.169</time>
      </trkpt>
      <trkpt lat="44.93593" lon="5.64218">
        <ele>882.332367</ele>
        <time>2011-02-13T11:26:30.191</time>
      </trkpt>
      <trkpt lat="44.93587" lon="5.64217">
        <ele>881.332352</ele>
        <time>2011-02-13T11:26:32.174</time>
      </trkpt>
      <trkpt lat="44.93581" lon="5.64216">
        <ele>879.33234</ele>
        <time>2011-02-13T11:26:34.171</time>
      </trkpt>
      <trkpt lat="44.93574" lon="5.64215">
        <ele>878.332321</ele>
        <time>2011-02-13T11:26:36.170</time>
      </trkpt>
      <trkpt lat="44.93568" lon="5.64214">
        <ele>877.332306</ele>
        <time>2011-02-13T11:26:38.174</time>
      </trkpt>
      <trkpt lat="44.93562" lon="5.64214">
        <ele>876.332291</ele>
        <time>2011-02-13T11:26:40.174</time>
      </trkpt>
      <trkpt lat="44.93555" lon="5.64213">
        <ele>875.332275</ele>
        <time>2011-02-13T11:26:42.169</time>
      </trkpt>
      <trkpt lat="44.93549" lon="5.64213">
        <ele>874.33226</ele>
        <time>2011-02-13T11:26:44.176</time>
      </trkpt>
      <trkpt lat="44.93543" lon="5.64213">
        <ele>874.332253</ele>
        <time>2011-02-13T11:26:46.172</time>
      </trkpt>
      <trkpt lat="44.93538" lon="5.64212">
        <ele>874.332233</ele>
        <time>2011-02-13T11:26:48.171</time>
      </trkpt>
      <trkpt lat="44.93532" lon="5.64211">
        <ele>873.332222</ele>
        <time>2011-02-13T11:26:50.184</time>
      </trkpt>
      <trkpt lat="44.93527" lon="5.64211">
        <ele>873.332211</ele>
        <time>2011-02-13T11:26:52.174</time>
      </trkpt>
      <trkpt lat="44.93522" lon="5.6421">
        <ele>873.332199</ele>
        <time>2011-02-13T11:26:54.169</time>
      </trkpt>
      <trkpt lat="44.93517" lon="5.64209">
        <ele>873.332188</ele>
        <time>2011-02-13T11:26:56.173</time>
      </trkpt>
      <trkpt lat="44.93512" lon="5.64208">
        <ele>872.332176</ele>
        <time>2011-02-13T11:26:58.171</time>
      </trkpt>
      <trkpt lat="44.93507" lon="5.64207">
        <ele>872.332161</ele>
        <time>2011-02-13T11:27:00.170</time>
      </trkpt>
      <trkpt lat="44.93503" lon="5.64206">
        <ele>873.33215</ele>
        <time>2011-02-13T11:27:02.175</time>
      </trkpt>
      <trkpt lat="44.93498" lon="5.64206">
        <ele>873.332142</ele>
        <time>2011-02-13T11:27:04.175</time>
      </trkpt>
      <trkpt lat="44.93493" lon="5.64205">
        <ele>874.332127</ele>
        <time>2011-02-13T11:27:06.192</time>
      </trkpt>
      <trkpt lat="44.93489" lon="5.64204">
        <ele>874.332119</ele>
        <time>2011-02-13T11:27:08.173</time>
      </trkpt>
      <trkpt lat="44.93485" lon="5.64203">
        <ele>874.332108</ele>
        <time>2011-02-13T11:27:10.171</time>
      </trkpt>
      <trkpt lat="44.9348" lon="5.64202">
        <ele>874.3321</ele>
        <time>2011-02-13T11:27:12.180</time>
      </trkpt>
      <trkpt lat="44.93475" lon="5.64201">
        <ele>874.332088</ele>
        <time>2011-02-13T11:27:14.175</time>
      </trkpt>
      <trkpt lat="44.9347" lon="5.642">
        <ele>875.332069</ele>
        <time>2011-02-13T11:27:16.174</time>
      </trkpt>
      <trkpt lat="44.93465" lon="5.64199">
        <ele>875.332058</ele>
        <time>2011-02-13T11:27:18.174</time>
      </trkpt>
      <trkpt lat="44.9346" lon="5.64198">
        <ele>875.332043</ele>
        <time>2011-02-13T11:27:20.176</time>
      </trkpt>
      <trkpt lat="44.93455" lon="5.64197">
        <ele>875.332035</ele>
        <time>2011-02-13T11:27:22.169</time>
      </trkpt>
      <trkpt lat="44.9345" lon="5.64196">
        <ele>874.33202</ele>
        <time>2011-02-13T11:27:24.171</time>
      </trkpt>
      <trkpt lat="44.93445" lon="5.64196">
        <ele>874.332008</ele>
        <time>2011-02-13T11:27:26.175</time>
      </trkpt>
      <trkpt lat="44.9344" lon="5.64196">
        <ele>873.331997</ele>
        <time>2011-02-13T11:27:28.174</time>
      </trkpt>
      <trkpt lat="44.93434" lon="5.64197">
        <ele>873.331985</ele>
        <time>2011-02-13T11:27:30.173</time>
      </trkpt>
      <trkpt lat="44.9343" lon="5.64197">
        <ele>872.331978</ele>
        <time>2011-02-13T11:27:32.172</time>
      </trkpt>
      <trkpt lat="44.93426" lon="5.64198">
        <ele>870.33197</ele>
        <time>2011-02-13T11:27:34.172</time>
      </trkpt>
      <trkpt lat="44.93406" lon="5.64203">
        <ele>868.331936</ele>
        <time>2011-02-13T11:27:48.171</time>
      </trkpt>
      <trkpt lat="44.93391" lon="5.64206">
        <ele>866.331909</ele>
        <time>2011-02-13T11:27:50.176</time>
      </trkpt>
      <trkpt lat="44.9338" lon="5.64207">
        <ele>865.331882</ele>
        <time>2011-02-13T11:27:52.170</time>
      </trkpt>
      <trkpt lat="44.93372" lon="5.64208">
        <ele>863.331867</ele>
        <time>2011-02-13T11:27:54.169</time>
      </trkpt>
      <trkpt lat="44.93364" lon="5.64208">
        <ele>862.331848</ele>
        <time>2011-02-13T11:27:56.173</time>
      </trkpt>
      <trkpt lat="44.93358" lon="5.64207">
        <ele>861.331841</ele>
        <time>2011-02-13T11:27:58.172</time>
      </trkpt>
      <trkpt lat="44.93353" lon="5.64207">
        <ele>860.331829</ele>
        <time>2011-02-13T11:28:00.172</time>
      </trkpt>
      <trkpt lat="44.93348" lon="5.64206">
        <ele>859.331818</ele>
        <time>2011-02-13T11:28:02.175</time>
      </trkpt>
      <trkpt lat="44.93343" lon="5.64206">
        <ele>858.331802</ele>
        <time>2011-02-13T11:28:04.171</time>
      </trkpt>
      <trkpt lat="44.93339" lon="5.64206">
        <ele>858.331795</ele>
        <time>2011-02-13T11:28:06.170</time>
      </trkpt>
      <trkpt lat="44.93335" lon="5.64206">
        <ele>857.331787</ele>
        <time>2011-02-13T11:28:08.184</time>
      </trkpt>
      <trkpt lat="44.93331" lon="5.64207">
        <ele>856.331779</ele>
        <time>2011-02-13T11:28:10.174</time>
      </trkpt>
      <trkpt lat="44.93327" lon="5.64208">
        <ele>856.331772</ele>
        <time>2011-02-13T11:28:12.169</time>
      </trkpt>
      <trkpt lat="44.93323" lon="5.64208">
        <ele>855.331764</ele>
        <time>2011-02-13T11:28:14.176</time>
      </trkpt>
      <trkpt lat="44.93319" lon="5.64208">
        <ele>855.331757</ele>
        <time>2011-02-13T11:28:16.171</time>
      </trkpt>
      <trkpt lat="44.93315" lon="5.64208">
        <ele>855.331745</ele>
        <time>2011-02-13T11:28:18.173</time>
      </trkpt>
      <trkpt lat="44.9331" lon="5.64208">
        <ele>855.331734</ele>
        <time>2011-02-13T11:28:20.181</time>
      </trkpt>
      <trkpt lat="44.93306" lon="5.64207">
        <ele>855.331726</ele>
        <time>2011-02-13T11:28:22.173</time>
      </trkpt>
      <trkpt lat="44.93301" lon="5.64206">
        <ele>855.331715</ele>
        <time>2011-02-13T11:28:24.168</time>
      </trkpt>
      <trkpt lat="44.93297" lon="5.64206">
        <ele>855.331703</ele>
        <time>2011-02-13T11:28:26.179</time>
      </trkpt>
      <trkpt lat="44.93292" lon="5.64205">
        <ele>855.331688</ele>
        <time>2011-02-13T11:28:28.175</time>
      </trkpt>
      <trkpt lat="44.93288" lon="5.64205">
        <ele>854.33168</ele>
        <time>2011-02-13T11:28:30.170</time>
      </trkpt>
      <trkpt lat="44.93284" lon="5.64205">
        <ele>854.331673</ele>
        <time>2011-02-13T11:28:32.175</time>
      </trkpt>
      <trkpt lat="44.9328" lon="5.64205">
        <ele>854.331665</ele>
        <time>2011-02-13T11:28:34.173</time>
      </trkpt>
      <trkpt lat="44.93276" lon="5.64205">
        <ele>854.331657</ele>
        <time>2011-02-13T11:28:36.168</time>
      </trkpt>
      <trkpt lat="44.93272" lon="5.64204">
        <ele>854.331642</ele>
        <time>2011-02-13T11:28:38.172</time>
      </trkpt>
      <trkpt lat="44.93267" lon="5.64203">
        <ele>854.331635</ele>
        <time>2011-02-13T11:28:40.171</time>
      </trkpt>
      <trkpt lat="44.93263" lon="5.64202">
        <ele>854.331627</ele>
        <time>2011-02-13T11:28:42.170</time>
      </trkpt>
      <trkpt lat="44.93259" lon="5.64202">
        <ele>854.331612</ele>
        <time>2011-02-13T11:28:44.174</time>
      </trkpt>
      <trkpt lat="44.93254" lon="5.64201">
        <ele>854.331604</ele>
        <time>2011-02-13T11:28:46.173</time>
      </trkpt>
      <trkpt lat="44.9325" lon="5.64199">
        <ele>854.331589</ele>
        <time>2011-02-13T11:28:48.172</time>
      </trkpt>
      <trkpt lat="44.93245" lon="5.64198">
        <ele>853.331577</ele>
        <time>2011-02-13T11:28:50.176</time>
      </trkpt>
      <trkpt lat="44.93242" lon="5.64196">
        <ele>853.331566</ele>
        <time>2011-02-13T11:28:52.171</time>
      </trkpt>
      <trkpt lat="44.93238" lon="5.64195">
        <ele>854.331554</ele>
        <time>2011-02-13T11:28:54.169</time>
      </trkpt>
      <trkpt lat="44.93231" lon="5.64191">
        <ele>855.331535</ele>
        <time>2011-02-13T11:28:58.172</time>
      </trkpt>
      <trkpt lat="44.93228" lon="5.64189">
        <ele>855.331528</ele>
        <time>2011-02-13T11:29:00.172</time>
      </trkpt>
      <trkpt lat="44.93225" lon="5.64186">
        <ele>855.331516</ele>
        <time>2011-02-13T11:29:02.172</time>
      </trkpt>
      <trkpt lat="44.93222" lon="5.64184">
        <ele>855.331509</ele>
        <time>2011-02-13T11:29:04.171</time>
      </trkpt>
      <trkpt lat="44.93209" lon="5.64176">
        <ele>858.331467</ele>
        <time>2011-02-13T11:29:11.176</time>
      </trkpt>
      <trkpt lat="44.93205" lon="5.64174">
        <ele>859.331451</ele>
        <time>2011-02-13T11:29:13.170</time>
      </trkpt>
      <trkpt lat="44.93201" lon="5.64171">
        <ele>859.33144</ele>
        <time>2011-02-13T11:29:15.169</time>
      </trkpt>
      <trkpt lat="44.93197" lon="5.64169">
        <ele>859.331429</ele>
        <time>2011-02-13T11:29:17.175</time>
      </trkpt>
      <trkpt lat="44.93192" lon="5.64166">
        <ele>859.331413</ele>
        <time>2011-02-13T11:29:19.172</time>
      </trkpt>
      <trkpt lat="44.93187" lon="5.64163">
        <ele>860.331398</ele>
        <time>2011-02-13T11:29:21.171</time>
      </trkpt>
      <trkpt lat="44.93182" lon="5.6416">
        <ele>860.331379</ele>
        <time>2011-02-13T11:29:23.176</time>
      </trkpt>
      <trkpt lat="44.93176" lon="5.64157">
        <ele>860.331364</ele>
        <time>2011-02-13T11:29:25.171</time>
      </trkpt>
      <trkpt lat="44.93171" lon="5.64154">
        <ele>860.331348</ele>
        <time>2011-02-13T11:29:27.170</time>
      </trkpt>
      <trkpt lat="44.93165" lon="5.64151">
        <ele>861.331333</ele>
        <time>2011-02-13T11:29:29.173</time>
      </trkpt>
      <trkpt lat="44.93159" lon="5.64149">
        <ele>860.331314</ele>
        <time>2011-02-13T11:29:31.169</time>
      </trkpt>
      <trkpt lat="44.93154" lon="5.64146">
        <ele>860.331299</ele>
        <time>2011-02-13T11:29:33.168</time>
      </trkpt>
      <trkpt lat="44.93149" lon="5.64145">
        <ele>860.331284</ele>
        <time>2011-02-13T11:29:35.172</time>
      </trkpt>
      <trkpt lat="44.93143" lon="5.64144">
        <ele>859.331276</ele>
        <time>2011-02-13T11:29:37.174</time>
      </trkpt>
      <trkpt lat="44.93138" lon="5.64143">
        <ele>858.331261</ele>
        <time>2011-02-13T11:29:39.170</time>
      </trkpt>
      <trkpt lat="44.9313" lon="5.64142">
        <ele>857.331245</ele>
        <time>2011-02-13T11:29:42.168</time>
      </trkpt>
      <trkpt lat="44.93125" lon="5.64141">
        <ele>856.331226</ele>
        <time>2011-02-13T11:29:44.174</time>
      </trkpt>
      <trkpt lat="44.93119" lon="5.6414">
        <ele>856.331219</ele>
        <time>2011-02-13T11:29:46.175</time>
      </trkpt>
      <trkpt lat="44.93114" lon="5.6414">
        <ele>856.3312</ele>
        <time>2011-02-13T11:29:48.169</time>
      </trkpt>
      <trkpt lat="44.93098" lon="5.6414">
        <ele>853.331169</ele>
        <time>2011-02-13T11:29:53.174</time>
      </trkpt>
      <trkpt lat="44.93091" lon="5.6414">
        <ele>852.331154</ele>
        <time>2011-02-13T11:29:55.173</time>
      </trkpt>
      <trkpt lat="44.93085" lon="5.6414">
        <ele>852.331142</ele>
        <time>2011-02-13T11:29:57.172</time>
      </trkpt>
      <trkpt lat="44.93079" lon="5.6414">
        <ele>851.331127</ele>
        <time>2011-02-13T11:29:59.172</time>
      </trkpt>
      <trkpt lat="44.93073" lon="5.64141">
        <ele>850.331116</ele>
        <time>2011-02-13T11:30:01.170</time>
      </trkpt>
      <trkpt lat="44.93068" lon="5.64141">
        <ele>850.331104</ele>
        <time>2011-02-13T11:30:03.170</time>
      </trkpt>
      <trkpt lat="44.93063" lon="5.64141">
        <ele>850.331093</ele>
        <time>2011-02-13T11:30:05.187</time>
      </trkpt>
      <trkpt lat="44.93058" lon="5.6414">
        <ele>849.331085</ele>
        <time>2011-02-13T11:30:07.172</time>
      </trkpt>
      <trkpt lat="44.93053" lon="5.6414">
        <ele>849.33107</ele>
        <time>2011-02-13T11:30:09.191</time>
      </trkpt>
      <trkpt lat="44.93048" lon="5.64139">
        <ele>849.331055</ele>
        <time>2011-02-13T11:30:11.172</time>
      </trkpt>
      <trkpt lat="44.93043" lon="5.64138">
        <ele>849.331043</ele>
        <time>2011-02-13T11:30:13.170</time>
      </trkpt>
      <trkpt lat="44.93038" lon="5.64138">
        <ele>849.331039</ele>
        <time>2011-02-13T11:30:15.170</time>
      </trkpt>
      <trkpt lat="44.93033" lon="5.64137">
        <ele>849.331017</ele>
        <time>2011-02-13T11:30:17.174</time>
      </trkpt>
      <trkpt lat="44.93027" lon="5.64136">
        <ele>848.331009</ele>
        <time>2011-02-13T11:30:19.174</time>
      </trkpt>
      <trkpt lat="44.93022" lon="5.64135">
        <ele>848.330997</ele>
        <time>2011-02-13T11:30:21.168</time>
      </trkpt>
      <trkpt lat="44.93017" lon="5.64134">
        <ele>849.330986</ele>
        <time>2011-02-13T11:30:23.171</time>
      </trkpt>
      <trkpt lat="44.93012" lon="5.64134">
        <ele>848.330971</ele>
        <time>2011-02-13T11:30:25.171</time>
      </trkpt>
      <trkpt lat="44.93008" lon="5.64133">
        <ele>849.330959</ele>
        <time>2011-02-13T11:30:27.171</time>
      </trkpt>
      <trkpt lat="44.93004" lon="5.64132">
        <ele>848.330952</ele>
        <time>2011-02-13T11:30:29.171</time>
      </trkpt>
      <trkpt lat="44.93" lon="5.64132">
        <ele>848.33094</ele>
        <time>2011-02-13T11:30:31.169</time>
      </trkpt>
      <trkpt lat="44.92996" lon="5.64131">
        <ele>848.330933</ele>
        <time>2011-02-13T11:30:33.169</time>
      </trkpt>
      <trkpt lat="44.92992" lon="5.6413">
        <ele>848.330921</ele>
        <time>2011-02-13T11:30:35.169</time>
      </trkpt>
      <trkpt lat="44.92989" lon="5.64129">
        <ele>848.330914</ele>
        <time>2011-02-13T11:30:37.170</time>
      </trkpt>
      <trkpt lat="44.92985" lon="5.64129">
        <ele>848.330906</ele>
        <time>2011-02-13T11:30:39.171</time>
      </trkpt>
      <trkpt lat="44.9298" lon="5.64128">
        <ele>848.330894</ele>
        <time>2011-02-13T11:30:41.189</time>
      </trkpt>
      <trkpt lat="44.92975" lon="5.64127">
        <ele>849.330883</ele>
        <time>2011-02-13T11:30:43.173</time>
      </trkpt>
      <trkpt lat="44.92971" lon="5.64127">
        <ele>849.330872</ele>
        <time>2011-02-13T11:30:45.173</time>
      </trkpt>
      <trkpt lat="44.92966" lon="5.64127">
        <ele>849.330864</ele>
        <time>2011-02-13T11:30:47.185</time>
      </trkpt>
      <trkpt lat="44.92962" lon="5.64127">
        <ele>850.330849</ele>
        <time>2011-02-13T11:30:49.171</time>
      </trkpt>
      <trkpt lat="44.92957" lon="5.64127">
        <ele>850.330841</ele>
        <time>2011-02-13T11:30:51.167</time>
      </trkpt>
      <trkpt lat="44.92953" lon="5.64126">
        <ele>849.330833</ele>
        <time>2011-02-13T11:30:53.175</time>
      </trkpt>
      <trkpt lat="44.92949" lon="5.64126">
        <ele>849.330822</ele>
        <time>2011-02-13T11:30:55.173</time>
      </trkpt>
      <trkpt lat="44.92944" lon="5.64126">
        <ele>849.330811</ele>
        <time>2011-02-13T11:30:57.168</time>
      </trkpt>
      <trkpt lat="44.9294" lon="5.64126">
        <ele>848.330803</ele>
        <time>2011-02-13T11:30:59.173</time>
      </trkpt>
      <trkpt lat="44.92935" lon="5.64125">
        <ele>848.330795</ele>
        <time>2011-02-13T11:31:01.171</time>
      </trkpt>
      <trkpt lat="44.9293" lon="5.64124">
        <ele>847.33078</ele>
        <time>2011-02-13T11:31:03.167</time>
      </trkpt>
      <trkpt lat="44.92925" lon="5.64123">
        <ele>848.330769</ele>
        <time>2011-02-13T11:31:05.174</time>
      </trkpt>
      <trkpt lat="44.9292" lon="5.64122">
        <ele>848.33075</ele>
        <time>2011-02-13T11:31:07.171</time>
      </trkpt>
      <trkpt lat="44.92914" lon="5.64121">
        <ele>849.330738</ele>
        <time>2011-02-13T11:31:09.169</time>
      </trkpt>
      <trkpt lat="44.92909" lon="5.6412">
        <ele>849.330727</ele>
        <time>2011-02-13T11:31:11.172</time>
      </trkpt>
      <trkpt lat="44.92903" lon="5.64119">
        <ele>849.330711</ele>
        <time>2011-02-13T11:31:13.178</time>
      </trkpt>
      <trkpt lat="44.92898" lon="5.64118">
        <ele>849.330696</ele>
        <time>2011-02-13T11:31:15.171</time>
      </trkpt>
      <trkpt lat="44.92892" lon="5.64117">
        <ele>849.330688</ele>
        <time>2011-02-13T11:31:17.174</time>
      </trkpt>
      <trkpt lat="44.92887" lon="5.64117">
        <ele>849.330673</ele>
        <time>2011-02-13T11:31:19.174</time>
      </trkpt>
      <trkpt lat="44.92882" lon="5.64116">
        <ele>849.330658</ele>
        <time>2011-02-13T11:31:21.169</time>
      </trkpt>
      <trkpt lat="44.92876" lon="5.64114">
        <ele>849.330643</ele>
        <time>2011-02-13T11:31:23.173</time>
      </trkpt>
      <trkpt lat="44.92872" lon="5.64113">
        <ele>849.330635</ele>
        <time>2011-02-13T11:31:25.174</time>
      </trkpt>
      <trkpt lat="44.92867" lon="5.64111">
        <ele>848.330624</ele>
        <time>2011-02-13T11:31:27.171</time>
      </trkpt>
      <trkpt lat="44.92863" lon="5.6411">
        <ele>848.330612</ele>
        <time>2011-02-13T11:31:29.170</time>
      </trkpt>
      <trkpt lat="44.92859" lon="5.64109">
        <ele>848.330597</ele>
        <time>2011-02-13T11:31:31.174</time>
      </trkpt>
      <trkpt lat="44.92855" lon="5.64108">
        <ele>849.330589</ele>
        <time>2011-02-13T11:31:33.169</time>
      </trkpt>
      <trkpt lat="44.9285" lon="5.64106">
        <ele>849.330578</ele>
        <time>2011-02-13T11:31:35.178</time>
      </trkpt>
      <trkpt lat="44.92845" lon="5.64105">
        <ele>849.330566</ele>
        <time>2011-02-13T11:31:37.172</time>
      </trkpt>
      <trkpt lat="44.9284" lon="5.64104">
        <ele>848.330555</ele>
        <time>2011-02-13T11:31:39.167</time>
      </trkpt>
      <trkpt lat="44.92835" lon="5.64103">
        <ele>849.330536</ele>
        <time>2011-02-13T11:31:41.175</time>
      </trkpt>
      <trkpt lat="44.92831" lon="5.64102">
        <ele>848.330528</ele>
        <time>2011-02-13T11:31:43.172</time>
      </trkpt>
      <trkpt lat="44.92826" lon="5.641">
        <ele>848.330517</ele>
        <time>2011-02-13T11:31:45.175</time>
      </trkpt>
      <trkpt lat="44.92822" lon="5.64098">
        <ele>848.330498</ele>
        <time>2011-02-13T11:31:47.173</time>
      </trkpt>
      <trkpt lat="44.92818" lon="5.64096">
        <ele>848.33049</ele>
        <time>2011-02-13T11:31:49.173</time>
      </trkpt>
      <trkpt lat="44.92814" lon="5.64093">
        <ele>848.330475</ele>
        <time>2011-02-13T11:31:51.168</time>
      </trkpt>
      <trkpt lat="44.92809" lon="5.6409">
        <ele>848.330463</ele>
        <time>2011-02-13T11:31:53.175</time>
      </trkpt>
      <trkpt lat="44.92806" lon="5.64087">
        <ele>849.330448</ele>
        <time>2011-02-13T11:31:55.171</time>
      </trkpt>
      <trkpt lat="44.92802" lon="5.64083">
        <ele>849.330437</ele>
        <time>2011-02-13T11:31:57.169</time>
      </trkpt>
      <trkpt lat="44.92799" lon="5.64079">
        <ele>849.330425</ele>
        <time>2011-02-13T11:31:59.174</time>
      </trkpt>
      <trkpt lat="44.92797" lon="5.64076">
        <ele>848.330414</ele>
        <time>2011-02-13T11:32:01.168</time>
      </trkpt>
      <trkpt lat="44.92793" lon="5.6407">
        <ele>849.330399</ele>
        <time>2011-02-13T11:32:04.169</time>
      </trkpt>
      <trkpt lat="44.92791" lon="5.64066">
        <ele>850.330383</ele>
        <time>2011-02-13T11:32:06.168</time>
      </trkpt>
      <trkpt lat="44.92788" lon="5.64061">
        <ele>851.330372</ele>
        <time>2011-02-13T11:32:08.172</time>
      </trkpt>
      <trkpt lat="44.92787" lon="5.64056">
        <ele>852.33036</ele>
        <time>2011-02-13T11:32:10.173</time>
      </trkpt>
      <trkpt lat="44.92785" lon="5.64052">
        <ele>852.330353</ele>
        <time>2011-02-13T11:32:12.168</time>
      </trkpt>
      <trkpt lat="44.92783" lon="5.64047">
        <ele>852.330341</ele>
        <time>2011-02-13T11:32:14.170</time>
      </trkpt>
      <trkpt lat="44.92781" lon="5.64042">
        <ele>852.330326</ele>
        <time>2011-02-13T11:32:16.171</time>
      </trkpt>
      <trkpt lat="44.92779" lon="5.64037">
        <ele>852.330318</ele>
        <time>2011-02-13T11:32:18.168</time>
      </trkpt>
      <trkpt lat="44.92777" lon="5.64033">
        <ele>853.330303</ele>
        <time>2011-02-13T11:32:20.176</time>
      </trkpt>
      <trkpt lat="44.92775" lon="5.64028">
        <ele>853.330292</ele>
        <time>2011-02-13T11:32:22.173</time>
      </trkpt>
      <trkpt lat="44.92772" lon="5.64024">
        <ele>853.33028</ele>
        <time>2011-02-13T11:32:24.171</time>
      </trkpt>
      <trkpt lat="44.9277" lon="5.64019">
        <ele>854.330269</ele>
        <time>2011-02-13T11:32:26.174</time>
      </trkpt>
      <trkpt lat="44.92767" lon="5.64014">
        <ele>854.330254</ele>
        <time>2011-02-13T11:32:28.172</time>
      </trkpt>
      <trkpt lat="44.92764" lon="5.64009">
        <ele>855.330238</ele>
        <time>2011-02-13T11:32:30.173</time>
      </trkpt>
      <trkpt lat="44.92761" lon="5.64005">
        <ele>855.330231</ele>
        <time>2011-02-13T11:32:32.172</time>
      </trkpt>
      <trkpt lat="44.92759" lon="5.64">
        <ele>855.330215</ele>
        <time>2011-02-13T11:32:34.173</time>
      </trkpt>
      <trkpt lat="44.92756" lon="5.63996">
        <ele>855.330196</ele>
        <time>2011-02-13T11:32:36.170</time>
      </trkpt>
      <trkpt lat="44.9275" lon="5.63986">
        <ele>856.33017</ele>
        <time>2011-02-13T11:32:40.174</time>
      </trkpt>
      <trkpt lat="44.92746" lon="5.63981">
        <ele>856.330154</ele>
        <time>2011-02-13T11:32:42.169</time>
      </trkpt>
      <trkpt lat="44.92743" lon="5.63976">
        <ele>857.330143</ele>
        <time>2011-02-13T11:32:44.173</time>
      </trkpt>
      <trkpt lat="44.92738" lon="5.63968">
        <ele>857.330116</ele>
        <time>2011-02-13T11:32:47.176</time>
      </trkpt>
      <trkpt lat="44.92734" lon="5.63963">
        <ele>858.330109</ele>
        <time>2011-02-13T11:32:49.215</time>
      </trkpt>
      <trkpt lat="44.92731" lon="5.63958">
        <ele>858.330086</ele>
        <time>2011-02-13T11:32:51.172</time>
      </trkpt>
      <trkpt lat="44.92728" lon="5.63952">
        <ele>858.33007</ele>
        <time>2011-02-13T11:32:53.172</time>
      </trkpt>
      <trkpt lat="44.92724" lon="5.63946">
        <ele>857.330051</ele>
        <time>2011-02-13T11:32:55.175</time>
      </trkpt>
      <trkpt lat="44.9272" lon="5.6394">
        <ele>856.330032</ele>
        <time>2011-02-13T11:32:57.166</time>
      </trkpt>
      <trkpt lat="44.92715" lon="5.63934">
        <ele>855.330017</ele>
        <time>2011-02-13T11:32:59.173</time>
      </trkpt>
      <trkpt lat="44.92709" lon="5.63928">
        <ele>855.329994</ele>
        <time>2011-02-13T11:33:01.173</time>
      </trkpt>
      <trkpt lat="44.92704" lon="5.63923">
        <ele>853.329979</ele>
        <time>2011-02-13T11:33:03.189</time>
      </trkpt>
      <trkpt lat="44.92698" lon="5.63918">
        <ele>852.329956</ele>
        <time>2011-02-13T11:33:05.462</time>
      </trkpt>
      <trkpt lat="44.92693" lon="5.63912">
        <ele>851.329937</ele>
        <time>2011-02-13T11:33:07.171</time>
      </trkpt>
      <trkpt lat="44.92689" lon="5.63908">
        <ele>850.329918</ele>
        <time>2011-02-13T11:33:09.169</time>
      </trkpt>
      <trkpt lat="44.92684" lon="5.63903">
        <ele>849.329903</ele>
        <time>2011-02-13T11:33:11.175</time>
      </trkpt>
      <trkpt lat="44.9268" lon="5.63898">
        <ele>849.329887</ele>
        <time>2011-02-13T11:33:13.173</time>
      </trkpt>
      <trkpt lat="44.92678" lon="5.63896">
        <ele>850.32988</ele>
        <time>2011-02-13T11:33:15.167</time>
      </trkpt>
      <trkpt lat="44.92659" lon="5.63875">
        <ele>850.329807</ele>
        <time>2011-02-13T11:33:25.169</time>
      </trkpt>
      <trkpt lat="44.9265" lon="5.63868">
        <ele>848.329773</ele>
        <time>2011-02-13T11:33:30.169</time>
      </trkpt>
      <trkpt lat="44.92647" lon="5.63865">
        <ele>847.329762</ele>
        <time>2011-02-13T11:33:32.174</time>
      </trkpt>
      <trkpt lat="44.92644" lon="5.63862">
        <ele>847.32975</ele>
        <time>2011-02-13T11:33:34.169</time>
      </trkpt>
      <trkpt lat="44.92636" lon="5.63857">
        <ele>844.329723</ele>
        <time>2011-02-13T11:33:39.169</time>
      </trkpt>
      <trkpt lat="44.92633" lon="5.63855">
        <ele>844.329712</ele>
        <time>2011-02-13T11:33:41.172</time>
      </trkpt>
      <trkpt lat="44.92629" lon="5.63854">
        <ele>844.329712</ele>
        <time>2011-02-13T11:33:43.167</time>
      </trkpt>
      <trkpt lat="44.92625" lon="5.63852">
        <ele>844.329697</ele>
        <time>2011-02-13T11:33:45.171</time>
      </trkpt>
      <trkpt lat="44.92622" lon="5.6385">
        <ele>843.329685</ele>
        <time>2011-02-13T11:33:47.175</time>
      </trkpt>
      <trkpt lat="44.92618" lon="5.63848">
        <ele>843.329674</ele>
        <time>2011-02-13T11:33:49.174</time>
      </trkpt>
      <trkpt lat="44.92614" lon="5.63847">
        <ele>843.329662</ele>
        <time>2011-02-13T11:33:51.169</time>
      </trkpt>
      <trkpt lat="44.9261" lon="5.63845">
        <ele>842.329651</ele>
        <time>2011-02-13T11:33:53.175</time>
      </trkpt>
      <trkpt lat="44.92606" lon="5.63843">
        <ele>842.329639</ele>
        <time>2011-02-13T11:33:55.170</time>
      </trkpt>
      <trkpt lat="44.92602" lon="5.63842">
        <ele>841.329628</ele>
        <time>2011-02-13T11:33:57.170</time>
      </trkpt>
      <trkpt lat="44.92598" lon="5.6384">
        <ele>842.32962</ele>
        <time>2011-02-13T11:33:59.170</time>
      </trkpt>
      <trkpt lat="44.92595" lon="5.63837">
        <ele>843.329605</ele>
        <time>2011-02-13T11:34:01.171</time>
      </trkpt>
      <trkpt lat="44.92592" lon="5.63833">
        <ele>842.329594</ele>
        <time>2011-02-13T11:34:03.173</time>
      </trkpt>
      <trkpt lat="44.92589" lon="5.63827">
        <ele>841.329578</ele>
        <time>2011-02-13T11:34:05.169</time>
      </trkpt>
      <trkpt lat="44.92587" lon="5.63823">
        <ele>839.329567</ele>
        <time>2011-02-13T11:34:07.232</time>
      </trkpt>
      <trkpt lat="44.92585" lon="5.63819">
        <ele>837.329559</ele>
        <time>2011-02-13T11:34:09.176</time>
      </trkpt>
      <trkpt lat="44.92584" lon="5.63815">
        <ele>834.329544</ele>
        <time>2011-02-13T11:34:11.170</time>
      </trkpt>
      <trkpt lat="44.92582" lon="5.63811">
        <ele>832.32954</ele>
        <time>2011-02-13T11:34:13.171</time>
      </trkpt>
      <trkpt lat="44.92579" lon="5.63809">
        <ele>830.329529</ele>
        <time>2011-02-13T11:34:15.169</time>
      </trkpt>
      <trkpt lat="44.92576" lon="5.63806">
        <ele>828.329521</ele>
        <time>2011-02-13T11:34:17.174</time>
      </trkpt>
      <trkpt lat="44.92573" lon="5.63804">
        <ele>826.329514</ele>
        <time>2011-02-13T11:34:19.172</time>
      </trkpt>
      <trkpt lat="44.9257" lon="5.63803">
        <ele>825.329498</ele>
        <time>2011-02-13T11:34:21.170</time>
      </trkpt>
      <trkpt lat="44.92565" lon="5.63802">
        <ele>825.329487</ele>
        <time>2011-02-13T11:34:23.199</time>
      </trkpt>
      <trkpt lat="44.92561" lon="5.638">
        <ele>823.329475</ele>
        <time>2011-02-13T11:34:25.171</time>
      </trkpt>
      <trkpt lat="44.92557" lon="5.63799">
        <ele>822.329468</ele>
        <time>2011-02-13T11:34:27.166</time>
      </trkpt>
      <trkpt lat="44.92554" lon="5.63798">
        <ele>821.329453</ele>
        <time>2011-02-13T11:34:29.169</time>
      </trkpt>
      <trkpt lat="44.9255" lon="5.63797">
        <ele>820.329445</ele>
        <time>2011-02-13T11:34:31.168</time>
      </trkpt>
      <trkpt lat="44.92546" lon="5.63796">
        <ele>819.329437</ele>
        <time>2011-02-13T11:34:33.168</time>
      </trkpt>
      <trkpt lat="44.92543" lon="5.63795">
        <ele>819.32943</ele>
        <time>2011-02-13T11:34:35.171</time>
      </trkpt>
      <trkpt lat="44.92539" lon="5.63794">
        <ele>819.329414</ele>
        <time>2011-02-13T11:34:37.170</time>
      </trkpt>
      <trkpt lat="44.92535" lon="5.63793">
        <ele>818.329407</ele>
        <time>2011-02-13T11:34:39.169</time>
      </trkpt>
      <trkpt lat="44.92531" lon="5.63791">
        <ele>818.329395</ele>
        <time>2011-02-13T11:34:41.168</time>
      </trkpt>
      <trkpt lat="44.92527" lon="5.6379">
        <ele>818.329384</ele>
        <time>2011-02-13T11:34:43.168</time>
      </trkpt>
      <trkpt lat="44.92523" lon="5.63787">
        <ele>817.329376</ele>
        <time>2011-02-13T11:34:45.170</time>
      </trkpt>
      <trkpt lat="44.92518" lon="5.63785">
        <ele>817.329361</ele>
        <time>2011-02-13T11:34:47.172</time>
      </trkpt>
      <trkpt lat="44.92513" lon="5.63783">
        <ele>817.329346</ele>
        <time>2011-02-13T11:34:49.173</time>
      </trkpt>
      <trkpt lat="44.92508" lon="5.63781">
        <ele>817.32933</ele>
        <time>2011-02-13T11:34:51.168</time>
      </trkpt>
      <trkpt lat="44.92503" lon="5.63779">
        <ele>816.329315</ele>
        <time>2011-02-13T11:34:53.172</time>
      </trkpt>
      <trkpt lat="44.92499" lon="5.63778">
        <ele>816.329308</ele>
        <time>2011-02-13T11:34:55.170</time>
      </trkpt>
      <trkpt lat="44.92494" lon="5.63776">
        <ele>816.329292</ele>
        <time>2011-02-13T11:34:57.168</time>
      </trkpt>
      <trkpt lat="44.9249" lon="5.63774">
        <ele>816.329277</ele>
        <time>2011-02-13T11:34:59.172</time>
      </trkpt>
      <trkpt lat="44.92485" lon="5.63772">
        <ele>815.329269</ele>
        <time>2011-02-13T11:35:01.172</time>
      </trkpt>
      <trkpt lat="44.9248" lon="5.63771">
        <ele>816.329254</ele>
        <time>2011-02-13T11:35:03.169</time>
      </trkpt>
      <trkpt lat="44.92476" lon="5.63769">
        <ele>817.329239</ele>
        <time>2011-02-13T11:35:05.175</time>
      </trkpt>
      <trkpt lat="44.92471" lon="5.63767">
        <ele>817.329227</ele>
        <time>2011-02-13T11:35:07.168</time>
      </trkpt>
      <trkpt lat="44.92467" lon="5.63766">
        <ele>818.32922</ele>
        <time>2011-02-13T11:35:09.172</time>
      </trkpt>
      <trkpt lat="44.92462" lon="5.63764">
        <ele>818.329205</ele>
        <time>2011-02-13T11:35:11.168</time>
      </trkpt>
      <trkpt lat="44.92457" lon="5.63762">
        <ele>818.329193</ele>
        <time>2011-02-13T11:35:13.170</time>
      </trkpt>
      <trkpt lat="44.92453" lon="5.63761">
        <ele>818.329182</ele>
        <time>2011-02-13T11:35:15.170</time>
      </trkpt>
      <trkpt lat="44.92448" lon="5.63759">
        <ele>818.329163</ele>
        <time>2011-02-13T11:35:17.173</time>
      </trkpt>
      <trkpt lat="44.92443" lon="5.63757">
        <ele>818.329151</ele>
        <time>2011-02-13T11:35:19.174</time>
      </trkpt>
      <trkpt lat="44.92438" lon="5.63756">
        <ele>818.32914</ele>
        <time>2011-02-13T11:35:21.172</time>
      </trkpt>
      <trkpt lat="44.92433" lon="5.63754">
        <ele>818.329124</ele>
        <time>2011-02-13T11:35:23.171</time>
      </trkpt>
      <trkpt lat="44.92428" lon="5.63753">
        <ele>818.329117</ele>
        <time>2011-02-13T11:35:25.168</time>
      </trkpt>
      <trkpt lat="44.92423" lon="5.63752">
        <ele>818.329102</ele>
        <time>2011-02-13T11:35:27.164</time>
      </trkpt>
      <trkpt lat="44.92418" lon="5.63751">
        <ele>818.32909</ele>
        <time>2011-02-13T11:35:29.170</time>
      </trkpt>
      <trkpt lat="44.92414" lon="5.6375">
        <ele>818.329079</ele>
        <time>2011-02-13T11:35:31.183</time>
      </trkpt>
      <trkpt lat="44.92408" lon="5.6375">
        <ele>818.329063</ele>
        <time>2011-02-13T11:35:33.172</time>
      </trkpt>
      <trkpt lat="44.92403" lon="5.63749">
        <ele>817.329056</ele>
        <time>2011-02-13T11:35:35.171</time>
      </trkpt>
      <trkpt lat="44.92398" lon="5.63749">
        <ele>817.329041</ele>
        <time>2011-02-13T11:35:37.172</time>
      </trkpt>
      <trkpt lat="44.92393" lon="5.63747">
        <ele>817.329029</ele>
        <time>2011-02-13T11:35:39.174</time>
      </trkpt>
      <trkpt lat="44.92388" lon="5.63746">
        <ele>818.329018</ele>
        <time>2011-02-13T11:35:41.174</time>
      </trkpt>
      <trkpt lat="44.92383" lon="5.63744">
        <ele>818.329002</ele>
        <time>2011-02-13T11:35:43.176</time>
      </trkpt>
      <trkpt lat="44.92378" lon="5.63742">
        <ele>819.328987</ele>
        <time>2011-02-13T11:35:45.166</time>
      </trkpt>
      <trkpt lat="44.92374" lon="5.6374">
        <ele>818.328972</ele>
        <time>2011-02-13T11:35:47.163</time>
      </trkpt>
      <trkpt lat="44.92369" lon="5.63738">
        <ele>819.328964</ele>
        <time>2011-02-13T11:35:49.170</time>
      </trkpt>
      <trkpt lat="44.92364" lon="5.63736">
        <ele>819.328949</ele>
        <time>2011-02-13T11:35:51.170</time>
      </trkpt>
      <trkpt lat="44.9236" lon="5.63735">
        <ele>819.328934</ele>
        <time>2011-02-13T11:35:53.174</time>
      </trkpt>
      <trkpt lat="44.92355" lon="5.63733">
        <ele>819.328918</ele>
        <time>2011-02-13T11:35:55.170</time>
      </trkpt>
      <trkpt lat="44.9235" lon="5.63731">
        <ele>819.328911</ele>
        <time>2011-02-13T11:35:57.169</time>
      </trkpt>
      <trkpt lat="44.92345" lon="5.63729">
        <ele>819.328896</ele>
        <time>2011-02-13T11:35:59.173</time>
      </trkpt>
      <trkpt lat="44.9234" lon="5.63727">
        <ele>819.32888</ele>
        <time>2011-02-13T11:36:01.190</time>
      </trkpt>
      <trkpt lat="44.92335" lon="5.63726">
        <ele>820.328873</ele>
        <time>2011-02-13T11:36:03.172</time>
      </trkpt>
      <trkpt lat="44.9233" lon="5.63724">
        <ele>820.328854</ele>
        <time>2011-02-13T11:36:05.177</time>
      </trkpt>
      <trkpt lat="44.92325" lon="5.63722">
        <ele>820.328842</ele>
        <time>2011-02-13T11:36:07.170</time>
      </trkpt>
      <trkpt lat="44.9232" lon="5.6372">
        <ele>820.328827</ele>
        <time>2011-02-13T11:36:09.168</time>
      </trkpt>
      <trkpt lat="44.92316" lon="5.63718">
        <ele>821.328815</ele>
        <time>2011-02-13T11:36:11.172</time>
      </trkpt>
      <trkpt lat="44.92312" lon="5.63717">
        <ele>821.328804</ele>
        <time>2011-02-13T11:36:13.172</time>
      </trkpt>
      <trkpt lat="44.9231" lon="5.63715">
        <ele>822.328796</ele>
        <time>2011-02-13T11:36:15.170</time>
      </trkpt>
      <trkpt lat="44.92307" lon="5.63714">
        <ele>823.328789</ele>
        <time>2011-02-13T11:36:17.171</time>
      </trkpt>
      <trkpt lat="44.92304" lon="5.63714">
        <ele>824.328781</ele>
        <time>2011-02-13T11:36:19.163</time>
      </trkpt>
      <trkpt lat="44.92299" lon="5.63712">
        <ele>824.32877</ele>
        <time>2011-02-13T11:36:21.169</time>
      </trkpt>
      <trkpt lat="44.92295" lon="5.63711">
        <ele>825.328758</ele>
        <time>2011-02-13T11:36:23.173</time>
      </trkpt>
      <trkpt lat="44.9229" lon="5.63709">
        <ele>826.328743</ele>
        <time>2011-02-13T11:36:25.177</time>
      </trkpt>
      <trkpt lat="44.92286" lon="5.63707">
        <ele>826.328732</ele>
        <time>2011-02-13T11:36:27.167</time>
      </trkpt>
      <trkpt lat="44.92281" lon="5.63706">
        <ele>827.32872</ele>
        <time>2011-02-13T11:36:29.171</time>
      </trkpt>
      <trkpt lat="44.92276" lon="5.63704">
        <ele>827.328709</ele>
        <time>2011-02-13T11:36:31.268</time>
      </trkpt>
      <trkpt lat="44.92271" lon="5.63702">
        <ele>828.328693</ele>
        <time>2011-02-13T11:36:33.159</time>
      </trkpt>
      <trkpt lat="44.92266" lon="5.637">
        <ele>828.328678</ele>
        <time>2011-02-13T11:36:35.169</time>
      </trkpt>
      <trkpt lat="44.92261" lon="5.63698">
        <ele>827.328663</ele>
        <time>2011-02-13T11:36:37.167</time>
      </trkpt>
      <trkpt lat="44.92257" lon="5.63695">
        <ele>828.328651</ele>
        <time>2011-02-13T11:36:39.166</time>
      </trkpt>
      <trkpt lat="44.92251" lon="5.63692">
        <ele>828.328632</ele>
        <time>2011-02-13T11:36:42.185</time>
      </trkpt>
      <trkpt lat="44.92246" lon="5.6369">
        <ele>829.328617</ele>
        <time>2011-02-13T11:36:44.172</time>
      </trkpt>
      <trkpt lat="44.92241" lon="5.63688">
        <ele>829.328606</ele>
        <time>2011-02-13T11:36:46.172</time>
      </trkpt>
      <trkpt lat="44.92236" lon="5.63686">
        <ele>829.32859</ele>
        <time>2011-02-13T11:36:48.166</time>
      </trkpt>
      <trkpt lat="44.92231" lon="5.63685">
        <ele>830.328575</ele>
        <time>2011-02-13T11:36:50.166</time>
      </trkpt>
      <trkpt lat="44.92225" lon="5.63683">
        <ele>830.32856</ele>
        <time>2011-02-13T11:36:52.169</time>
      </trkpt>
      <trkpt lat="44.92219" lon="5.63681">
        <ele>830.328545</ele>
        <time>2011-02-13T11:36:54.169</time>
      </trkpt>
      <trkpt lat="44.92214" lon="5.6368">
        <ele>830.328533</ele>
        <time>2011-02-13T11:36:56.175</time>
      </trkpt>
      <trkpt lat="44.92208" lon="5.63678">
        <ele>831.328518</ele>
        <time>2011-02-13T11:36:58.169</time>
      </trkpt>
      <trkpt lat="44.92204" lon="5.63677">
        <ele>832.328506</ele>
        <time>2011-02-13T11:37:00.170</time>
      </trkpt>
      <trkpt lat="44.92199" lon="5.63675">
        <ele>832.328495</ele>
        <time>2011-02-13T11:37:02.187</time>
      </trkpt>
      <trkpt lat="44.92194" lon="5.63674">
        <ele>832.32848</ele>
        <time>2011-02-13T11:37:04.176</time>
      </trkpt>
      <trkpt lat="44.92189" lon="5.63672">
        <ele>832.328468</ele>
        <time>2011-02-13T11:37:06.168</time>
      </trkpt>
      <trkpt lat="44.92185" lon="5.63671">
        <ele>832.328461</ele>
        <time>2011-02-13T11:37:08.172</time>
      </trkpt>
      <trkpt lat="44.9218" lon="5.63669">
        <ele>832.328442</ele>
        <time>2011-02-13T11:37:10.169</time>
      </trkpt>
      <trkpt lat="44.92176" lon="5.63668">
        <ele>832.328434</ele>
        <time>2011-02-13T11:37:12.170</time>
      </trkpt>
      <trkpt lat="44.92171" lon="5.63666">
        <ele>832.328419</ele>
        <time>2011-02-13T11:37:14.170</time>
      </trkpt>
      <trkpt lat="44.92166" lon="5.63665">
        <ele>832.328403</ele>
        <time>2011-02-13T11:37:16.175</time>
      </trkpt>
      <trkpt lat="44.92161" lon="5.63664">
        <ele>831.328392</ele>
        <time>2011-02-13T11:37:18.168</time>
      </trkpt>
      <trkpt lat="44.92157" lon="5.63662">
        <ele>831.328381</ele>
        <time>2011-02-13T11:37:20.167</time>
      </trkpt>
      <trkpt lat="44.92152" lon="5.6366">
        <ele>831.328369</ele>
        <time>2011-02-13T11:37:22.166</time>
      </trkpt>
      <trkpt lat="44.92148" lon="5.63659">
        <ele>832.328362</ele>
        <time>2011-02-13T11:37:24.166</time>
      </trkpt>
      <trkpt lat="44.92144" lon="5.63658">
        <ele>832.328346</ele>
        <time>2011-02-13T11:37:26.170</time>
      </trkpt>
      <trkpt lat="44.9214" lon="5.63656">
        <ele>833.328339</ele>
        <time>2011-02-13T11:37:28.170</time>
      </trkpt>
      <trkpt lat="44.92136" lon="5.63654">
        <ele>833.32832</ele>
        <time>2011-02-13T11:37:30.169</time>
      </trkpt>
      <trkpt lat="44.92129" lon="5.63651">
        <ele>834.328308</ele>
        <time>2011-02-13T11:37:33.169</time>
      </trkpt>
      <trkpt lat="44.92124" lon="5.63649">
        <ele>834.328293</ele>
        <time>2011-02-13T11:37:35.179</time>
      </trkpt>
      <trkpt lat="44.92119" lon="5.63648">
        <ele>834.328278</ele>
        <time>2011-02-13T11:37:37.171</time>
      </trkpt>
      <trkpt lat="44.92115" lon="5.63647">
        <ele>833.328266</ele>
        <time>2011-02-13T11:37:39.169</time>
      </trkpt>
      <trkpt lat="44.92111" lon="5.63647">
        <ele>833.328259</ele>
        <time>2011-02-13T11:37:41.208</time>
      </trkpt>
      <trkpt lat="44.92107" lon="5.63646">
        <ele>832.328247</ele>
        <time>2011-02-13T11:37:43.166</time>
      </trkpt>
      <trkpt lat="44.92103" lon="5.63646">
        <ele>832.328239</ele>
        <time>2011-02-13T11:37:45.171</time>
      </trkpt>
      <trkpt lat="44.92098" lon="5.63644">
        <ele>832.328228</ele>
        <time>2011-02-13T11:37:47.172</time>
      </trkpt>
      <trkpt lat="44.92093" lon="5.63642">
        <ele>833.328213</ele>
        <time>2011-02-13T11:37:49.167</time>
      </trkpt>
      <trkpt lat="44.9209" lon="5.63641">
        <ele>833.328205</ele>
        <time>2011-02-13T11:37:51.168</time>
      </trkpt>
      <trkpt lat="44.92086" lon="5.63639">
        <ele>834.328194</ele>
        <time>2011-02-13T11:37:53.206</time>
      </trkpt>
      <trkpt lat="44.92082" lon="5.63638">
        <ele>835.328182</ele>
        <time>2011-02-13T11:37:55.171</time>
      </trkpt>
      <trkpt lat="44.92078" lon="5.63636">
        <ele>836.328171</ele>
        <time>2011-02-13T11:37:57.170</time>
      </trkpt>
      <trkpt lat="44.92066" lon="5.63633">
        <ele>836.32814</ele>
        <time>2011-02-13T11:38:02.172</time>
      </trkpt>
      <trkpt lat="44.92062" lon="5.63632">
        <ele>836.328129</ele>
        <time>2011-02-13T11:38:04.166</time>
      </trkpt>
      <trkpt lat="44.92057" lon="5.6363">
        <ele>836.32811</ele>
        <time>2011-02-13T11:38:06.169</time>
      </trkpt>
      <trkpt lat="44.92052" lon="5.63628">
        <ele>836.328098</ele>
        <time>2011-02-13T11:38:08.169</time>
      </trkpt>
      <trkpt lat="44.9204" lon="5.63622">
        <ele>838.328064</ele>
        <time>2011-02-13T11:38:13.172</time>
      </trkpt>
      <trkpt lat="44.92035" lon="5.6362">
        <ele>839.328049</ele>
        <time>2011-02-13T11:38:15.174</time>
      </trkpt>
      <trkpt lat="44.9203" lon="5.63619">
        <ele>840.328037</ele>
        <time>2011-02-13T11:38:17.173</time>
      </trkpt>
      <trkpt lat="44.92025" lon="5.63617">
        <ele>841.328026</ele>
        <time>2011-02-13T11:38:19.171</time>
      </trkpt>
      <trkpt lat="44.92021" lon="5.63616">
        <ele>841.328014</ele>
        <time>2011-02-13T11:38:21.170</time>
      </trkpt>
      <trkpt lat="44.92008" lon="5.63612">
        <ele>841.32798</ele>
        <time>2011-02-13T11:38:26.173</time>
      </trkpt>
      <trkpt lat="44.92003" lon="5.63611">
        <ele>842.327965</ele>
        <time>2011-02-13T11:38:28.170</time>
      </trkpt>
      <trkpt lat="44.91999" lon="5.63609">
        <ele>842.327957</ele>
        <time>2011-02-13T11:38:30.165</time>
      </trkpt>
      <trkpt lat="44.91995" lon="5.63609">
        <ele>841.327946</ele>
        <time>2011-02-13T11:38:32.179</time>
      </trkpt>
      <trkpt lat="44.91968" lon="5.63603">
        <ele>847.327877</ele>
        <time>2011-02-13T11:38:48.167</time>
      </trkpt>
      <trkpt lat="44.91958" lon="5.63603">
        <ele>848.327858</ele>
        <time>2011-02-13T11:38:50.185</time>
      </trkpt>
      <trkpt lat="44.91949" lon="5.63604">
        <ele>847.327835</ele>
        <time>2011-02-13T11:38:52.178</time>
      </trkpt>
      <trkpt lat="44.91942" lon="5.63605">
        <ele>846.32782</ele>
        <time>2011-02-13T11:38:54.164</time>
      </trkpt>
      <trkpt lat="44.91933" lon="5.63608">
        <ele>845.327812</ele>
        <time>2011-02-13T11:38:57.169</time>
      </trkpt>
      <trkpt lat="44.91928" lon="5.63611">
        <ele>845.327801</ele>
        <time>2011-02-13T11:38:59.170</time>
      </trkpt>
      <trkpt lat="44.91924" lon="5.63614">
        <ele>844.327797</ele>
        <time>2011-02-13T11:39:01.211</time>
      </trkpt>
      <trkpt lat="44.91916" lon="5.63634">
        <ele>844.327816</ele>
        <time>2011-02-13T11:39:07.168</time>
      </trkpt>
      <trkpt lat="44.91916" lon="5.63642">
        <ele>844.327827</ele>
        <time>2011-02-13T11:39:09.262</time>
      </trkpt>
      <trkpt lat="44.91918" lon="5.6365">
        <ele>844.327843</ele>
        <time>2011-02-13T11:39:11.171</time>
      </trkpt>
      <trkpt lat="44.91921" lon="5.63656">
        <ele>844.327858</ele>
        <time>2011-02-13T11:39:13.170</time>
      </trkpt>
      <trkpt lat="44.91925" lon="5.63664">
        <ele>844.327877</ele>
        <time>2011-02-13T11:39:15.170</time>
      </trkpt>
      <trkpt lat="44.91928" lon="5.63674">
        <ele>844.327904</ele>
        <time>2011-02-13T11:39:17.169</time>
      </trkpt>
      <trkpt lat="44.91932" lon="5.63686">
        <ele>844.327927</ele>
        <time>2011-02-13T11:39:19.172</time>
      </trkpt>
      <trkpt lat="44.91936" lon="5.63698">
        <ele>844.327957</ele>
        <time>2011-02-13T11:39:21.171</time>
      </trkpt>
      <trkpt lat="44.91941" lon="5.6371">
        <ele>844.327984</ele>
        <time>2011-02-13T11:39:23.171</time>
      </trkpt>
      <trkpt lat="44.91945" lon="5.63721">
        <ele>844.328011</ele>
        <time>2011-02-13T11:39:25.166</time>
      </trkpt>
      <trkpt lat="44.91948" lon="5.63731">
        <ele>844.32803</ele>
        <time>2011-02-13T11:39:27.170</time>
      </trkpt>
      <trkpt lat="44.9195" lon="5.63739">
        <ele>845.328045</ele>
        <time>2011-02-13T11:39:29.169</time>
      </trkpt>
      <trkpt lat="44.91952" lon="5.63745">
        <ele>845.328064</ele>
        <time>2011-02-13T11:39:31.168</time>
      </trkpt>
      <trkpt lat="44.91955" lon="5.63749">
        <ele>845.328075</ele>
        <time>2011-02-13T11:39:34.170</time>
      </trkpt>
      <trkpt lat="44.91958" lon="5.63753">
        <ele>845.328087</ele>
        <time>2011-02-13T11:39:36.164</time>
      </trkpt>
      <trkpt lat="44.91962" lon="5.63756">
        <ele>845.328102</ele>
        <time>2011-02-13T11:39:38.169</time>
      </trkpt>
      <trkpt lat="44.91966" lon="5.63759">
        <ele>845.328114</ele>
        <time>2011-02-13T11:39:40.168</time>
      </trkpt>
      <trkpt lat="44.91978" lon="5.63767">
        <ele>845.328152</ele>
        <time>2011-02-13T11:39:46.194</time>
      </trkpt>
    </trkseg>
  </trk>
</gpx>